<?xml version='1.0' encoding='UTF-8'?><gpx version="1.1" creator="JPX - https://github.com/jenetics/jpx" xmlns="http://www.topografix.com/GPX/1/1"><trk><trkseg><trkpt lat="43.47933" lon="11.6183983"><ele>233.0</ele><time>2026-05-04T13:46:52.707Z</time></trkpt><trkpt lat="43.4792567" lon="11.6183383"><ele>233.0</ele><time>2026-05-04T13:47:23.705Z</time></trkpt><trkpt lat="43.4791783" lon="11.6182617"><ele>233.0</ele><time>2026-05-04T13:47:25.706Z</time></trkpt><trkpt lat="43.47909" lon="11.618185"><ele>233.0</ele><time>2026-05-04T13:47:27.707Z</time></trkpt><trkpt lat="43.4790067" lon="11.6181017"><ele>233.0</ele><time>2026-05-04T13:47:29.704Z</time></trkpt><trkpt lat="43.4789367" lon="11.6179967"><ele>233.0</ele><time>2026-05-04T13:47:31.705Z</time></trkpt><trkpt lat="43.478895" lon="11.6178667"><ele>233.0</ele><time>2026-05-04T13:47:33.705Z</time></trkpt><trkpt lat="43.4788517" lon="11.6177317"><ele>233.0</ele><time>2026-05-04T13:47:35.705Z</time></trkpt><trkpt lat="43.4788183" lon="11.6176333"><ele>233.0</ele><time>2026-05-04T13:47:38.706Z</time></trkpt><trkpt lat="43.4788283" lon="11.6174983"><ele>233.0</ele><time>2026-05-04T13:47:41.704Z</time></trkpt><trkpt lat="43.4788867" lon="11.617365"><ele>233.16666666666669</ele><time>2026-05-04T13:47:43.706Z</time></trkpt><trkpt lat="43.4789233" lon="11.6172933"><ele>233.33333333333334</ele><time>2026-05-04T13:47:44.706Z</time></trkpt><trkpt lat="43.478975" lon="11.6172183"><ele>233.5</ele><time>2026-05-04T13:47:45.706Z</time></trkpt><trkpt lat="43.479035" lon="11.6171333"><ele>233.66666666666669</ele><time>2026-05-04T13:47:46.704Z</time></trkpt><trkpt lat="43.479095" lon="11.617035"><ele>233.83333333333334</ele><time>2026-05-04T13:47:47.705Z</time></trkpt><trkpt lat="43.4791533" lon="11.6169183"><ele>234.0</ele><time>2026-05-04T13:47:48.706Z</time></trkpt><trkpt lat="43.4792" lon="11.61678"><ele>234.83333333333334</ele><time>2026-05-04T13:47:49.706Z</time></trkpt><trkpt lat="43.47924" lon="11.6166417"><ele>235.66666666666669</ele><time>2026-05-04T13:47:50.704Z</time></trkpt><trkpt lat="43.479275" lon="11.616525"><ele>236.5</ele><time>2026-05-04T13:47:51.706Z</time></trkpt><trkpt lat="43.4793067" lon="11.6164217"><ele>237.33333333333334</ele><time>2026-05-04T13:47:52.705Z</time></trkpt><trkpt lat="43.479325" lon="11.6163267"><ele>238.16666666666669</ele><time>2026-05-04T13:47:53.704Z</time></trkpt><trkpt lat="43.4793183" lon="11.6162233"><ele>239.0</ele><time>2026-05-04T13:47:54.705Z</time></trkpt><trkpt lat="43.4792817" lon="11.6161183"><ele>239.0</ele><time>2026-05-04T13:47:55.705Z</time></trkpt><trkpt lat="43.4792217" lon="11.61603"><ele>238.99999999999997</ele><time>2026-05-04T13:47:56.705Z</time></trkpt><trkpt lat="43.4791417" lon="11.615955"><ele>238.99999999999997</ele><time>2026-05-04T13:47:57.707Z</time></trkpt><trkpt lat="43.479045" lon="11.6158833"><ele>239.0</ele><time>2026-05-04T13:47:58.704Z</time></trkpt><trkpt lat="43.4789417" lon="11.6158083"><ele>239.0</ele><time>2026-05-04T13:47:59.705Z</time></trkpt><trkpt lat="43.478835" lon="11.6157367"><ele>240.79999999999998</ele><time>2026-05-04T13:48:00.705Z</time></trkpt><trkpt lat="43.4787467" lon="11.615655"><ele>242.59999999999997</ele><time>2026-05-04T13:48:01.705Z</time></trkpt><trkpt lat="43.4786533" lon="11.6155733"><ele>244.4</ele><time>2026-05-04T13:48:02.705Z</time></trkpt><trkpt lat="43.47861" lon="11.6154833"><ele>246.2</ele><time>2026-05-04T13:48:03.707Z</time></trkpt><trkpt lat="43.4785717" lon="11.6153733"><ele>248.0</ele><time>2026-05-04T13:48:04.706Z</time></trkpt><trkpt lat="43.4785417" lon="11.6152033"><ele>248.0</ele><time>2026-05-04T13:48:05.707Z</time></trkpt><trkpt lat="43.4785" lon="11.615085"><ele>248.0</ele><time>2026-05-04T13:48:06.702Z</time></trkpt><trkpt lat="43.4784433" lon="11.614955"><ele>248.0</ele><time>2026-05-04T13:48:07.706Z</time></trkpt><trkpt lat="43.47837" lon="11.61489"><ele>248.0</ele><time>2026-05-04T13:48:08.706Z</time></trkpt><trkpt lat="43.4782867" lon="11.61484"><ele>248.0</ele><time>2026-05-04T13:48:09.705Z</time></trkpt><trkpt lat="43.478205" lon="11.6147983"><ele>248.0</ele><time>2026-05-04T13:48:10.705Z</time></trkpt><trkpt lat="43.4781233" lon="11.6148167"><ele>248.0</ele><time>2026-05-04T13:48:11.704Z</time></trkpt><trkpt lat="43.4780583" lon="11.6148767"><ele>248.0</ele><time>2026-05-04T13:48:12.707Z</time></trkpt><trkpt lat="43.4779933" lon="11.614965"><ele>248.0</ele><time>2026-05-04T13:48:13.705Z</time></trkpt><trkpt lat="43.477945" lon="11.6150933"><ele>248.0</ele><time>2026-05-04T13:48:14.705Z</time></trkpt><trkpt lat="43.4779" lon="11.6152283"><ele>248.60000000000002</ele><time>2026-05-04T13:48:15.706Z</time></trkpt><trkpt lat="43.477855" lon="11.6153483"><ele>249.20000000000002</ele><time>2026-05-04T13:48:16.706Z</time></trkpt><trkpt lat="43.4777933" lon="11.6154283"><ele>249.8</ele><time>2026-05-04T13:48:17.706Z</time></trkpt><trkpt lat="43.477725" lon="11.61549"><ele>250.4</ele><time>2026-05-04T13:48:18.705Z</time></trkpt><trkpt lat="43.47762" lon="11.61549"><ele>251.0</ele><time>2026-05-04T13:48:19.707Z</time></trkpt><trkpt lat="43.4774967" lon="11.615455"><ele>251.0</ele><time>2026-05-04T13:48:20.707Z</time></trkpt><trkpt lat="43.4773717" lon="11.6154167"><ele>251.0</ele><time>2026-05-04T13:48:21.706Z</time></trkpt><trkpt lat="43.477235" lon="11.6153683"><ele>251.0</ele><time>2026-05-04T13:48:22.704Z</time></trkpt><trkpt lat="43.4771117" lon="11.6153133"><ele>251.0</ele><time>2026-05-04T13:48:23.706Z</time></trkpt><trkpt lat="43.477" lon="11.6152417"><ele>249.20000000000002</ele><time>2026-05-04T13:48:24.707Z</time></trkpt><trkpt lat="43.476925" lon="11.6151617"><ele>247.40000000000003</ele><time>2026-05-04T13:48:25.706Z</time></trkpt><trkpt lat="43.4768667" lon="11.615045"><ele>245.6</ele><time>2026-05-04T13:48:26.705Z</time></trkpt><trkpt lat="43.4768267" lon="11.6149117"><ele>243.8</ele><time>2026-05-04T13:48:27.706Z</time></trkpt><trkpt lat="43.4768217" lon="11.6147633"><ele>242.0</ele><time>2026-05-04T13:48:28.705Z</time></trkpt><trkpt lat="43.4768317" lon="11.614605"><ele>241.0</ele><time>2026-05-04T13:48:29.705Z</time></trkpt><trkpt lat="43.4768833" lon="11.61446"><ele>240.0</ele><time>2026-05-04T13:48:30.706Z</time></trkpt><trkpt lat="43.47695" lon="11.6143217"><ele>239.0</ele><time>2026-05-04T13:48:31.706Z</time></trkpt><trkpt lat="43.4770167" lon="11.6141933"><ele>238.0</ele><time>2026-05-04T13:48:32.706Z</time></trkpt><trkpt lat="43.4770733" lon="11.614085"><ele>237.0</ele><time>2026-05-04T13:48:33.707Z</time></trkpt><trkpt lat="43.4771333" lon="11.6139883"><ele>237.0</ele><time>2026-05-04T13:48:34.706Z</time></trkpt><trkpt lat="43.4771917" lon="11.6138833"><ele>237.0</ele><time>2026-05-04T13:48:35.705Z</time></trkpt><trkpt lat="43.4772617" lon="11.6137667"><ele>237.0</ele><time>2026-05-04T13:48:36.706Z</time></trkpt><trkpt lat="43.4773333" lon="11.6136383"><ele>237.0</ele><time>2026-05-04T13:48:37.706Z</time></trkpt><trkpt lat="43.47741" lon="11.6135083"><ele>237.0</ele><time>2026-05-04T13:48:38.705Z</time></trkpt><trkpt lat="43.477485" lon="11.61338"><ele>235.5</ele><time>2026-05-04T13:48:39.705Z</time></trkpt><trkpt lat="43.4775567" lon="11.6132517"><ele>234.0</ele><time>2026-05-04T13:48:40.706Z</time></trkpt><trkpt lat="43.4776367" lon="11.6131217"><ele>232.5</ele><time>2026-05-04T13:48:41.706Z</time></trkpt><trkpt lat="43.4777233" lon="11.6129733"><ele>231.0</ele><time>2026-05-04T13:48:42.707Z</time></trkpt><trkpt lat="43.477805" lon="11.612805"><ele>231.25</ele><time>2026-05-04T13:48:43.707Z</time></trkpt><trkpt lat="43.4778683" lon="11.612625"><ele>231.5</ele><time>2026-05-04T13:48:44.706Z</time></trkpt><trkpt lat="43.4779217" lon="11.6124333"><ele>231.75</ele><time>2026-05-04T13:48:45.705Z</time></trkpt><trkpt lat="43.4779517" lon="11.612225"><ele>232.0</ele><time>2026-05-04T13:48:46.703Z</time></trkpt><trkpt lat="43.4779667" lon="11.6120133"><ele>229.66666666666666</ele><time>2026-05-04T13:48:47.704Z</time></trkpt><trkpt lat="43.4779667" lon="11.611795"><ele>227.33333333333331</ele><time>2026-05-04T13:48:48.706Z</time></trkpt><trkpt lat="43.477965" lon="11.6115833"><ele>225.0</ele><time>2026-05-04T13:48:49.706Z</time></trkpt><trkpt lat="43.47796" lon="11.61136"><ele>226.0</ele><time>2026-05-04T13:48:50.704Z</time></trkpt><trkpt lat="43.4779467" lon="11.6111317"><ele>227.0</ele><time>2026-05-04T13:48:51.706Z</time></trkpt><trkpt lat="43.4779383" lon="11.6109133"><ele>228.0</ele><time>2026-05-04T13:48:52.704Z</time></trkpt><trkpt lat="43.477925" lon="11.6107183"><ele>228.75</ele><time>2026-05-04T13:48:53.704Z</time></trkpt><trkpt lat="43.4779117" lon="11.6105333"><ele>229.5</ele><time>2026-05-04T13:48:54.705Z</time></trkpt><trkpt lat="43.4779017" lon="11.6103433"><ele>230.25</ele><time>2026-05-04T13:48:55.705Z</time></trkpt><trkpt lat="43.4778967" lon="11.6101467"><ele>231.0</ele><time>2026-05-04T13:48:56.706Z</time></trkpt><trkpt lat="43.47789" lon="11.609955"><ele>232.0</ele><time>2026-05-04T13:48:57.705Z</time></trkpt><trkpt lat="43.4778767" lon="11.60977"><ele>233.0</ele><time>2026-05-04T13:48:58.705Z</time></trkpt><trkpt lat="43.477865" lon="11.60958"><ele>234.0</ele><time>2026-05-04T13:48:59.704Z</time></trkpt><trkpt lat="43.4778517" lon="11.6093767"><ele>235.0</ele><time>2026-05-04T13:49:00.705Z</time></trkpt><trkpt lat="43.477835" lon="11.60917"><ele>235.5</ele><time>2026-05-04T13:49:01.704Z</time></trkpt><trkpt lat="43.4778117" lon="11.6089767"><ele>236.0</ele><time>2026-05-04T13:49:02.706Z</time></trkpt><trkpt lat="43.4777867" lon="11.60881"><ele>236.5</ele><time>2026-05-04T13:49:03.706Z</time></trkpt><trkpt lat="43.4777583" lon="11.6086617"><ele>237.0</ele><time>2026-05-04T13:49:04.707Z</time></trkpt><trkpt lat="43.4777317" lon="11.6085267"><ele>237.75</ele><time>2026-05-04T13:49:05.705Z</time></trkpt><trkpt lat="43.477705" lon="11.6083933"><ele>238.5</ele><time>2026-05-04T13:49:06.705Z</time></trkpt><trkpt lat="43.4776683" lon="11.608245"><ele>239.25</ele><time>2026-05-04T13:49:07.706Z</time></trkpt><trkpt lat="43.477615" lon="11.6080917"><ele>240.0</ele><time>2026-05-04T13:49:08.706Z</time></trkpt><trkpt lat="43.477545" lon="11.6079367"><ele>242.0</ele><time>2026-05-04T13:49:09.706Z</time></trkpt><trkpt lat="43.477465" lon="11.607765"><ele>244.0</ele><time>2026-05-04T13:49:10.705Z</time></trkpt><trkpt lat="43.4773833" lon="11.6075817"><ele>246.0</ele><time>2026-05-04T13:49:11.705Z</time></trkpt><trkpt lat="43.477295" lon="11.6073917"><ele>246.0</ele><time>2026-05-04T13:49:12.707Z</time></trkpt><trkpt lat="43.477205" lon="11.6072017"><ele>246.0</ele><time>2026-05-04T13:49:13.706Z</time></trkpt><trkpt lat="43.477115" lon="11.6070033"><ele>246.0</ele><time>2026-05-04T13:49:14.705Z</time></trkpt><trkpt lat="43.477025" lon="11.6068"><ele>247.33333333333331</ele><time>2026-05-04T13:49:15.707Z</time></trkpt><trkpt lat="43.4769367" lon="11.6066067"><ele>248.66666666666666</ele><time>2026-05-04T13:49:16.706Z</time></trkpt><trkpt lat="43.4768483" lon="11.606415"><ele>250.0</ele><time>2026-05-04T13:49:17.706Z</time></trkpt><trkpt lat="43.4767583" lon="11.6062217"><ele>251.0</ele><time>2026-05-04T13:49:18.704Z</time></trkpt><trkpt lat="43.4766683" lon="11.6060167"><ele>252.0</ele><time>2026-05-04T13:49:19.705Z</time></trkpt><trkpt lat="43.476575" lon="11.60581"><ele>253.0</ele><time>2026-05-04T13:49:20.706Z</time></trkpt><trkpt lat="43.47648" lon="11.6055983"><ele>253.0</ele><time>2026-05-04T13:49:21.704Z</time></trkpt><trkpt lat="43.4763933" lon="11.6054033"><ele>253.0</ele><time>2026-05-04T13:49:22.705Z</time></trkpt><trkpt lat="43.47631" lon="11.6052067"><ele>253.0</ele><time>2026-05-04T13:49:23.705Z</time></trkpt><trkpt lat="43.476225" lon="11.6050083"><ele>253.0</ele><time>2026-05-04T13:49:24.704Z</time></trkpt><trkpt lat="43.476135" lon="11.6048083"><ele>253.0</ele><time>2026-05-04T13:49:25.706Z</time></trkpt><trkpt lat="43.476055" lon="11.6046117"><ele>253.0</ele><time>2026-05-04T13:49:26.705Z</time></trkpt><trkpt lat="43.4759917" lon="11.6044467"><ele>253.0</ele><time>2026-05-04T13:49:27.706Z</time></trkpt><trkpt lat="43.4759317" lon="11.60429"><ele>253.0</ele><time>2026-05-04T13:49:28.705Z</time></trkpt><trkpt lat="43.4758683" lon="11.604135"><ele>253.0</ele><time>2026-05-04T13:49:29.705Z</time></trkpt><trkpt lat="43.4757933" lon="11.6039717"><ele>253.0</ele><time>2026-05-04T13:49:30.707Z</time></trkpt><trkpt lat="43.475715" lon="11.6038133"><ele>253.0</ele><time>2026-05-04T13:49:31.706Z</time></trkpt><trkpt lat="43.47564" lon="11.6036733"><ele>253.0</ele><time>2026-05-04T13:49:32.707Z</time></trkpt><trkpt lat="43.4755567" lon="11.6035483"><ele>253.0</ele><time>2026-05-04T13:49:33.705Z</time></trkpt><trkpt lat="43.47547" lon="11.6034333"><ele>253.0</ele><time>2026-05-04T13:49:34.704Z</time></trkpt><trkpt lat="43.4753817" lon="11.603325"><ele>252.8</ele><time>2026-05-04T13:49:35.705Z</time></trkpt><trkpt lat="43.475295" lon="11.60322"><ele>252.60000000000002</ele><time>2026-05-04T13:49:36.707Z</time></trkpt><trkpt lat="43.4752217" lon="11.6031167"><ele>252.39999999999998</ele><time>2026-05-04T13:49:37.706Z</time></trkpt><trkpt lat="43.4751583" lon="11.6030167"><ele>252.2</ele><time>2026-05-04T13:49:38.706Z</time></trkpt><trkpt lat="43.4751033" lon="11.60293"><ele>252.0</ele><time>2026-05-04T13:49:39.706Z</time></trkpt><trkpt lat="43.4750433" lon="11.6028617"><ele>252.39999999999998</ele><time>2026-05-04T13:49:40.706Z</time></trkpt><trkpt lat="43.474965" lon="11.6028117"><ele>252.79999999999998</ele><time>2026-05-04T13:49:41.705Z</time></trkpt><trkpt lat="43.474865" lon="11.6027883"><ele>253.2</ele><time>2026-05-04T13:49:42.707Z</time></trkpt><trkpt lat="43.474775" lon="11.6027683"><ele>253.6</ele><time>2026-05-04T13:49:43.706Z</time></trkpt><trkpt lat="43.47469" lon="11.6027517"><ele>254.0</ele><time>2026-05-04T13:49:44.706Z</time></trkpt><trkpt lat="43.4745717" lon="11.6027567"><ele>253.79999999999998</ele><time>2026-05-04T13:49:46.705Z</time></trkpt><trkpt lat="43.4745117" lon="11.6028067"><ele>253.59999999999997</ele><time>2026-05-04T13:49:47.705Z</time></trkpt><trkpt lat="43.4744517" lon="11.602875"><ele>253.4</ele><time>2026-05-04T13:49:48.706Z</time></trkpt><trkpt lat="43.4743783" lon="11.60298"><ele>253.2</ele><time>2026-05-04T13:49:49.706Z</time></trkpt><trkpt lat="43.4743017" lon="11.603105"><ele>253.0</ele><time>2026-05-04T13:49:50.706Z</time></trkpt><trkpt lat="43.47423" lon="11.6032217"><ele>253.0</ele><time>2026-05-04T13:49:51.708Z</time></trkpt><trkpt lat="43.47416" lon="11.6033333"><ele>253.0</ele><time>2026-05-04T13:49:52.706Z</time></trkpt><trkpt lat="43.4740917" lon="11.6034467"><ele>253.0</ele><time>2026-05-04T13:49:53.706Z</time></trkpt><trkpt lat="43.4740217" lon="11.6035533"><ele>253.0</ele><time>2026-05-04T13:49:54.705Z</time></trkpt><trkpt lat="43.4739533" lon="11.6036483"><ele>253.0</ele><time>2026-05-04T13:49:55.706Z</time></trkpt><trkpt lat="43.4738817" lon="11.6037283"><ele>252.0</ele><time>2026-05-04T13:49:56.707Z</time></trkpt><trkpt lat="43.4738" lon="11.6037883"><ele>251.0</ele><time>2026-05-04T13:49:57.706Z</time></trkpt><trkpt lat="43.4737183" lon="11.60383"><ele>250.0</ele><time>2026-05-04T13:49:58.706Z</time></trkpt><trkpt lat="43.47364" lon="11.60388"><ele>249.0</ele><time>2026-05-04T13:49:59.704Z</time></trkpt><trkpt lat="43.4735617" lon="11.6039467"><ele>248.0</ele><time>2026-05-04T13:50:00.706Z</time></trkpt><trkpt lat="43.473485" lon="11.6040283"><ele>248.00000000000003</ele><time>2026-05-04T13:50:01.706Z</time></trkpt><trkpt lat="43.47342" lon="11.604105"><ele>248.0</ele><time>2026-05-04T13:50:02.706Z</time></trkpt><trkpt lat="43.4733683" lon="11.6041817"><ele>248.0</ele><time>2026-05-04T13:50:03.705Z</time></trkpt><trkpt lat="43.4733283" lon="11.6042617"><ele>248.0</ele><time>2026-05-04T13:50:04.706Z</time></trkpt><trkpt lat="43.4732983" lon="11.6043683"><ele>248.00000000000003</ele><time>2026-05-04T13:50:05.705Z</time></trkpt><trkpt lat="43.4732783" lon="11.604495"><ele>248.0</ele><time>2026-05-04T13:50:06.706Z</time></trkpt><trkpt lat="43.4732633" lon="11.6046533"><ele>247.5</ele><time>2026-05-04T13:50:07.706Z</time></trkpt><trkpt lat="43.4732633" lon="11.6048283"><ele>247.0</ele><time>2026-05-04T13:50:08.706Z</time></trkpt><trkpt lat="43.473265" lon="11.6049983"><ele>246.5</ele><time>2026-05-04T13:50:09.708Z</time></trkpt><trkpt lat="43.4732683" lon="11.6051683"><ele>246.0</ele><time>2026-05-04T13:50:10.707Z</time></trkpt><trkpt lat="43.473265" lon="11.60535"><ele>245.75</ele><time>2026-05-04T13:50:11.704Z</time></trkpt><trkpt lat="43.4732633" lon="11.6055233"><ele>245.5</ele><time>2026-05-04T13:50:12.707Z</time></trkpt><trkpt lat="43.4732617" lon="11.60569"><ele>245.25</ele><time>2026-05-04T13:50:13.705Z</time></trkpt><trkpt lat="43.4732633" lon="11.6058467"><ele>245.0</ele><time>2026-05-04T13:50:14.706Z</time></trkpt><trkpt lat="43.4732633" lon="11.6059967"><ele>245.0</ele><time>2026-05-04T13:50:15.707Z</time></trkpt><trkpt lat="43.4732683" lon="11.6061483"><ele>245.0</ele><time>2026-05-04T13:50:16.707Z</time></trkpt><trkpt lat="43.4732717" lon="11.6062967"><ele>245.0</ele><time>2026-05-04T13:50:17.706Z</time></trkpt><trkpt lat="43.47327" lon="11.6064367"><ele>245.0</ele><time>2026-05-04T13:50:18.707Z</time></trkpt><trkpt lat="43.473265" lon="11.6065717"><ele>245.0</ele><time>2026-05-04T13:50:19.707Z</time></trkpt><trkpt lat="43.4732517" lon="11.6066917"><ele>245.33333333333334</ele><time>2026-05-04T13:50:20.704Z</time></trkpt><trkpt lat="43.473235" lon="11.6068033"><ele>245.66666666666669</ele><time>2026-05-04T13:50:21.706Z</time></trkpt><trkpt lat="43.47322" lon="11.6069117"><ele>246.0</ele><time>2026-05-04T13:50:22.705Z</time></trkpt><trkpt lat="43.4732167" lon="11.6070233"><ele>246.33333333333331</ele><time>2026-05-04T13:50:23.705Z</time></trkpt><trkpt lat="43.47321" lon="11.607135"><ele>246.66666666666666</ele><time>2026-05-04T13:50:24.705Z</time></trkpt><trkpt lat="43.4732167" lon="11.60724"><ele>247.0</ele><time>2026-05-04T13:50:25.706Z</time></trkpt><trkpt lat="43.4732233" lon="11.607335"><ele>247.0</ele><time>2026-05-04T13:50:26.704Z</time></trkpt><trkpt lat="43.47325" lon="11.6074833"><ele>247.0</ele><time>2026-05-04T13:50:28.706Z</time></trkpt><trkpt lat="43.473265" lon="11.6075967"><ele>247.0</ele><time>2026-05-04T13:50:30.705Z</time></trkpt><trkpt lat="43.47325" lon="11.6077167"><ele>247.0</ele><time>2026-05-04T13:50:32.706Z</time></trkpt><trkpt lat="43.4731767" lon="11.6078817"><ele>247.0</ele><time>2026-05-04T13:50:34.706Z</time></trkpt><trkpt lat="43.4731333" lon="11.6079917"><ele>247.0</ele><time>2026-05-04T13:50:35.705Z</time></trkpt><trkpt lat="43.4730833" lon="11.6081183"><ele>247.0</ele><time>2026-05-04T13:50:36.706Z</time></trkpt><trkpt lat="43.4730317" lon="11.6082533"><ele>247.0</ele><time>2026-05-04T13:50:37.707Z</time></trkpt><trkpt lat="43.4729867" lon="11.608385"><ele>247.0</ele><time>2026-05-04T13:50:38.706Z</time></trkpt><trkpt lat="43.4729417" lon="11.6085233"><ele>247.0</ele><time>2026-05-04T13:50:39.707Z</time></trkpt><trkpt lat="43.4728933" lon="11.6086567"><ele>244.99999999999997</ele><time>2026-05-04T13:50:40.706Z</time></trkpt><trkpt lat="43.4728517" lon="11.6087767"><ele>243.0</ele><time>2026-05-04T13:50:41.706Z</time></trkpt><trkpt lat="43.472815" lon="11.6088833"><ele>241.0</ele><time>2026-05-04T13:50:42.71Z</time></trkpt><trkpt lat="43.4727833" lon="11.6089717"><ele>239.0</ele><time>2026-05-04T13:50:43.704Z</time></trkpt><trkpt lat="43.4727483" lon="11.609065"><ele>236.99999999999997</ele><time>2026-05-04T13:50:45.706Z</time></trkpt><trkpt lat="43.472655" lon="11.6091267"><ele>235.0</ele><time>2026-05-04T13:50:48.707Z</time></trkpt><trkpt lat="43.4725133" lon="11.6091017"><ele>235.0</ele><time>2026-05-04T13:50:50.706Z</time></trkpt><trkpt lat="43.4724167" lon="11.60908"><ele>235.0</ele><time>2026-05-04T13:50:51.704Z</time></trkpt><trkpt lat="43.4722967" lon="11.6090583"><ele>235.0</ele><time>2026-05-04T13:50:52.705Z</time></trkpt><trkpt lat="43.4721733" lon="11.60904"><ele>235.0</ele><time>2026-05-04T13:50:53.706Z</time></trkpt><trkpt lat="43.47206" lon="11.6090183"><ele>234.5</ele><time>2026-05-04T13:50:54.706Z</time></trkpt><trkpt lat="43.47194" lon="11.6090017"><ele>234.0</ele><time>2026-05-04T13:50:55.706Z</time></trkpt><trkpt lat="43.4718167" lon="11.6089817"><ele>233.5</ele><time>2026-05-04T13:50:56.707Z</time></trkpt><trkpt lat="43.471695" lon="11.6089517"><ele>233.0</ele><time>2026-05-04T13:50:57.705Z</time></trkpt><trkpt lat="43.4715733" lon="11.608925"><ele>233.0</ele><time>2026-05-04T13:50:58.706Z</time></trkpt><trkpt lat="43.4714633" lon="11.60889"><ele>233.0</ele><time>2026-05-04T13:50:59.706Z</time></trkpt><trkpt lat="43.47136" lon="11.60885"><ele>233.0</ele><time>2026-05-04T13:51:00.706Z</time></trkpt><trkpt lat="43.4712633" lon="11.6088017"><ele>233.0</ele><time>2026-05-04T13:51:01.707Z</time></trkpt><trkpt lat="43.4711717" lon="11.6087383"><ele>233.0</ele><time>2026-05-04T13:51:02.705Z</time></trkpt><trkpt lat="43.47108" lon="11.6086683"><ele>233.4</ele><time>2026-05-04T13:51:03.706Z</time></trkpt><trkpt lat="43.47099" lon="11.6085883"><ele>233.8</ele><time>2026-05-04T13:51:04.706Z</time></trkpt><trkpt lat="43.4709017" lon="11.608505"><ele>234.2</ele><time>2026-05-04T13:51:05.704Z</time></trkpt><trkpt lat="43.4708133" lon="11.6084167"><ele>234.6</ele><time>2026-05-04T13:51:06.706Z</time></trkpt><trkpt lat="43.4707267" lon="11.6083267"><ele>235.0</ele><time>2026-05-04T13:51:07.706Z</time></trkpt><trkpt lat="43.470645" lon="11.60824"><ele>235.0</ele><time>2026-05-04T13:51:08.706Z</time></trkpt><trkpt lat="43.4705683" lon="11.6081483"><ele>235.0</ele><time>2026-05-04T13:51:09.707Z</time></trkpt><trkpt lat="43.4704967" lon="11.6080617"><ele>235.0</ele><time>2026-05-04T13:51:10.706Z</time></trkpt><trkpt lat="43.4704333" lon="11.6079833"><ele>235.0</ele><time>2026-05-04T13:51:11.706Z</time></trkpt><trkpt lat="43.470375" lon="11.6079183"><ele>235.0</ele><time>2026-05-04T13:51:12.707Z</time></trkpt><trkpt lat="43.4702733" lon="11.60785"><ele>234.8</ele><time>2026-05-04T13:51:14.706Z</time></trkpt><trkpt lat="43.47019" lon="11.6079167"><ele>234.6</ele><time>2026-05-04T13:51:17.704Z</time></trkpt><trkpt lat="43.4701683" lon="11.6080017"><ele>234.39999999999998</ele><time>2026-05-04T13:51:18.705Z</time></trkpt><trkpt lat="43.4701583" lon="11.6081267"><ele>234.2</ele><time>2026-05-04T13:51:19.707Z</time></trkpt><trkpt lat="43.4701383" lon="11.6083033"><ele>234.0</ele><time>2026-05-04T13:51:20.706Z</time></trkpt><trkpt lat="43.4701017" lon="11.6084767"><ele>233.33333333333331</ele><time>2026-05-04T13:51:21.707Z</time></trkpt><trkpt lat="43.47006" lon="11.6086667"><ele>232.66666666666666</ele><time>2026-05-04T13:51:22.701Z</time></trkpt><trkpt lat="43.4700133" lon="11.6088733"><ele>232.0</ele><time>2026-05-04T13:51:23.705Z</time></trkpt><trkpt lat="43.4699633" lon="11.60908"><ele>232.0</ele><time>2026-05-04T13:51:24.705Z</time></trkpt><trkpt lat="43.469915" lon="11.60927"><ele>232.0</ele><time>2026-05-04T13:51:25.705Z</time></trkpt><trkpt lat="43.4698683" lon="11.6094367"><ele>232.0</ele><time>2026-05-04T13:51:26.708Z</time></trkpt><trkpt lat="43.4698283" lon="11.6095717"><ele>232.0</ele><time>2026-05-04T13:51:27.705Z</time></trkpt><trkpt lat="43.4697917" lon="11.60966"><ele>232.39999999999998</ele><time>2026-05-04T13:51:28.711Z</time></trkpt><trkpt lat="43.469695" lon="11.609745"><ele>232.79999999999998</ele><time>2026-05-04T13:51:30.705Z</time></trkpt><trkpt lat="43.4696017" lon="11.6097017"><ele>233.2</ele><time>2026-05-04T13:51:31.706Z</time></trkpt><trkpt lat="43.4695167" lon="11.60965"><ele>233.6</ele><time>2026-05-04T13:51:32.707Z</time></trkpt><trkpt lat="43.4694083" lon="11.6095667"><ele>234.0</ele><time>2026-05-04T13:51:33.705Z</time></trkpt><trkpt lat="43.4692833" lon="11.60946"><ele>234.0</ele><time>2026-05-04T13:51:34.713Z</time></trkpt><trkpt lat="43.4691633" lon="11.6093633"><ele>234.0</ele><time>2026-05-04T13:51:35.705Z</time></trkpt><trkpt lat="43.469035" lon="11.609255"><ele>234.0</ele><time>2026-05-04T13:51:36.706Z</time></trkpt><trkpt lat="43.4689" lon="11.6091417"><ele>234.0</ele><time>2026-05-04T13:51:37.706Z</time></trkpt><trkpt lat="43.4687633" lon="11.6090317"><ele>235.33333333333331</ele><time>2026-05-04T13:51:38.705Z</time></trkpt><trkpt lat="43.468625" lon="11.6089217"><ele>236.66666666666666</ele><time>2026-05-04T13:51:39.705Z</time></trkpt><trkpt lat="43.4684833" lon="11.60881"><ele>238.0</ele><time>2026-05-04T13:51:40.706Z</time></trkpt><trkpt lat="43.4683383" lon="11.6087017"><ele>238.0</ele><time>2026-05-04T13:51:41.706Z</time></trkpt><trkpt lat="43.4682" lon="11.6085883"><ele>238.0</ele><time>2026-05-04T13:51:42.707Z</time></trkpt><trkpt lat="43.468065" lon="11.6084683"><ele>238.0</ele><time>2026-05-04T13:51:43.703Z</time></trkpt><trkpt lat="43.4679317" lon="11.608335"><ele>240.33333333333331</ele><time>2026-05-04T13:51:44.706Z</time></trkpt><trkpt lat="43.4677983" lon="11.608195"><ele>242.66666666666669</ele><time>2026-05-04T13:51:45.707Z</time></trkpt><trkpt lat="43.467665" lon="11.6080517"><ele>245.0</ele><time>2026-05-04T13:51:46.706Z</time></trkpt><trkpt lat="43.4675283" lon="11.6079133"><ele>245.66666666666669</ele><time>2026-05-04T13:51:47.705Z</time></trkpt><trkpt lat="43.4673833" lon="11.6077783"><ele>246.33333333333331</ele><time>2026-05-04T13:51:48.705Z</time></trkpt><trkpt lat="43.4672267" lon="11.60764"><ele>247.0</ele><time>2026-05-04T13:51:49.707Z</time></trkpt><trkpt lat="43.4670583" lon="11.607495"><ele>248.33333333333331</ele><time>2026-05-04T13:51:50.707Z</time></trkpt><trkpt lat="43.4668767" lon="11.6073383"><ele>249.66666666666669</ele><time>2026-05-04T13:51:51.707Z</time></trkpt><trkpt lat="43.466695" lon="11.60718"><ele>251.0</ele><time>2026-05-04T13:51:52.707Z</time></trkpt><trkpt lat="43.4665317" lon="11.60704"><ele>251.0</ele><time>2026-05-04T13:51:53.705Z</time></trkpt><trkpt lat="43.4663867" lon="11.6069117"><ele>251.0</ele><time>2026-05-04T13:51:54.706Z</time></trkpt><trkpt lat="43.46626" lon="11.6068017"><ele>251.0</ele><time>2026-05-04T13:51:55.708Z</time></trkpt><trkpt lat="43.46615" lon="11.60671"><ele>251.75</ele><time>2026-05-04T13:51:56.707Z</time></trkpt><trkpt lat="43.4660483" lon="11.60664"><ele>252.5</ele><time>2026-05-04T13:51:57.705Z</time></trkpt><trkpt lat="43.465945" lon="11.6065983"><ele>253.25</ele><time>2026-05-04T13:51:58.706Z</time></trkpt><trkpt lat="43.4658333" lon="11.60659"><ele>254.0</ele><time>2026-05-04T13:51:59.705Z</time></trkpt><trkpt lat="43.46572" lon="11.6066333"><ele>254.0</ele><time>2026-05-04T13:52:00.706Z</time></trkpt><trkpt lat="43.4656067" lon="11.606705"><ele>254.0</ele><time>2026-05-04T13:52:01.707Z</time></trkpt><trkpt lat="43.46549" lon="11.6067867"><ele>254.0</ele><time>2026-05-04T13:52:02.706Z</time></trkpt><trkpt lat="43.4653617" lon="11.6068667"><ele>254.0</ele><time>2026-05-04T13:52:03.707Z</time></trkpt><trkpt lat="43.4652217" lon="11.6069517"><ele>253.66666666666669</ele><time>2026-05-04T13:52:04.706Z</time></trkpt><trkpt lat="43.465075" lon="11.6070333"><ele>253.33333333333331</ele><time>2026-05-04T13:52:05.705Z</time></trkpt><trkpt lat="43.4649283" lon="11.6070983"><ele>253.0</ele><time>2026-05-04T13:52:06.707Z</time></trkpt><trkpt lat="43.4647883" lon="11.60714"><ele>253.0</ele><time>2026-05-04T13:52:07.706Z</time></trkpt><trkpt lat="43.464655" lon="11.6071533"><ele>253.0</ele><time>2026-05-04T13:52:08.707Z</time></trkpt><trkpt lat="43.46452" lon="11.6071433"><ele>253.0</ele><time>2026-05-04T13:52:09.706Z</time></trkpt><trkpt lat="43.4643817" lon="11.6071167"><ele>253.0</ele><time>2026-05-04T13:52:10.706Z</time></trkpt><trkpt lat="43.4642433" lon="11.607075"><ele>253.5</ele><time>2026-05-04T13:52:11.704Z</time></trkpt><trkpt lat="43.4641067" lon="11.6070183"><ele>254.0</ele><time>2026-05-04T13:52:12.704Z</time></trkpt><trkpt lat="43.4639767" lon="11.606955"><ele>254.5</ele><time>2026-05-04T13:52:13.707Z</time></trkpt><trkpt lat="43.4638483" lon="11.6068883"><ele>255.0</ele><time>2026-05-04T13:52:14.706Z</time></trkpt><trkpt lat="43.4637233" lon="11.6068133"><ele>252.0</ele><time>2026-05-04T13:52:15.707Z</time></trkpt><trkpt lat="43.4636067" lon="11.6067283"><ele>249.0</ele><time>2026-05-04T13:52:16.706Z</time></trkpt><trkpt lat="43.463495" lon="11.6066333"><ele>246.0</ele><time>2026-05-04T13:52:17.705Z</time></trkpt><trkpt lat="43.4633767" lon="11.6065133"><ele>243.0</ele><time>2026-05-04T13:52:18.704Z</time></trkpt><trkpt lat="43.4632417" lon="11.60637"><ele>243.0</ele><time>2026-05-04T13:52:19.705Z</time></trkpt><trkpt lat="43.4631" lon="11.6062133"><ele>243.0</ele><time>2026-05-04T13:52:20.705Z</time></trkpt><trkpt lat="43.46296" lon="11.6060567"><ele>243.0</ele><time>2026-05-04T13:52:21.705Z</time></trkpt><trkpt lat="43.4628233" lon="11.6059033"><ele>240.33333333333331</ele><time>2026-05-04T13:52:22.703Z</time></trkpt><trkpt lat="43.46269" lon="11.605745"><ele>237.66666666666666</ele><time>2026-05-04T13:52:23.705Z</time></trkpt><trkpt lat="43.4625583" lon="11.6055883"><ele>235.0</ele><time>2026-05-04T13:52:24.706Z</time></trkpt><trkpt lat="43.4624217" lon="11.605425"><ele>236.0</ele><time>2026-05-04T13:52:25.709Z</time></trkpt><trkpt lat="43.4622783" lon="11.605255"><ele>237.0</ele><time>2026-05-04T13:52:26.7Z</time></trkpt><trkpt lat="43.4621317" lon="11.6050817"><ele>238.0</ele><time>2026-05-04T13:52:27.705Z</time></trkpt><trkpt lat="43.461985" lon="11.6049033"><ele>240.0</ele><time>2026-05-04T13:52:28.705Z</time></trkpt><trkpt lat="43.4618367" lon="11.6047183"><ele>242.0</ele><time>2026-05-04T13:52:29.705Z</time></trkpt><trkpt lat="43.461695" lon="11.6045367"><ele>244.0</ele><time>2026-05-04T13:52:30.705Z</time></trkpt><trkpt lat="43.4615567" lon="11.6043583"><ele>244.66666666666666</ele><time>2026-05-04T13:52:31.701Z</time></trkpt><trkpt lat="43.46142" lon="11.6041883"><ele>245.33333333333331</ele><time>2026-05-04T13:52:32.705Z</time></trkpt><trkpt lat="43.4612783" lon="11.6040217"><ele>246.0</ele><time>2026-05-04T13:52:33.706Z</time></trkpt><trkpt lat="43.461135" lon="11.6038517"><ele>248.0</ele><time>2026-05-04T13:52:34.705Z</time></trkpt><trkpt lat="43.460995" lon="11.6036733"><ele>250.0</ele><time>2026-05-04T13:52:35.704Z</time></trkpt><trkpt lat="43.4608567" lon="11.6034917"><ele>252.0</ele><time>2026-05-04T13:52:36.706Z</time></trkpt><trkpt lat="43.4607167" lon="11.603305"><ele>251.66666666666669</ele><time>2026-05-04T13:52:37.713Z</time></trkpt><trkpt lat="43.4605733" lon="11.6031183"><ele>251.33333333333334</ele><time>2026-05-04T13:52:38.706Z</time></trkpt><trkpt lat="43.46043" lon="11.6029267"><ele>251.0</ele><time>2026-05-04T13:52:39.706Z</time></trkpt><trkpt lat="43.4602883" lon="11.6027533"><ele>253.66666666666669</ele><time>2026-05-04T13:52:40.706Z</time></trkpt><trkpt lat="43.4601517" lon="11.6025883"><ele>256.3333333333333</ele><time>2026-05-04T13:52:41.704Z</time></trkpt><trkpt lat="43.46003" lon="11.602445"><ele>259.0</ele><time>2026-05-04T13:52:42.707Z</time></trkpt><trkpt lat="43.459915" lon="11.6023083"><ele>259.0</ele><time>2026-05-04T13:52:43.707Z</time></trkpt><trkpt lat="43.4598167" lon="11.6021917"><ele>259.0</ele><time>2026-05-04T13:52:44.706Z</time></trkpt><trkpt lat="43.4597183" lon="11.6021067"><ele>259.0</ele><time>2026-05-04T13:52:45.705Z</time></trkpt><trkpt lat="43.4596083" lon="11.60204"><ele>259.0</ele><time>2026-05-04T13:52:46.706Z</time></trkpt><trkpt lat="43.4595033" lon="11.6020067"><ele>259.2</ele><time>2026-05-04T13:52:47.704Z</time></trkpt><trkpt lat="43.4594017" lon="11.6019917"><ele>259.4</ele><time>2026-05-04T13:52:48.701Z</time></trkpt><trkpt lat="43.4593033" lon="11.6019767"><ele>259.6</ele><time>2026-05-04T13:52:49.708Z</time></trkpt><trkpt lat="43.4592067" lon="11.6019583"><ele>259.8</ele><time>2026-05-04T13:52:50.706Z</time></trkpt><trkpt lat="43.4591133" lon="11.601925"><ele>260.0</ele><time>2026-05-04T13:52:51.706Z</time></trkpt><trkpt lat="43.459025" lon="11.601865"><ele>260.0</ele><time>2026-05-04T13:52:52.707Z</time></trkpt><trkpt lat="43.4589533" lon="11.6017667"><ele>260.0</ele><time>2026-05-04T13:52:53.706Z</time></trkpt><trkpt lat="43.4588867" lon="11.6016383"><ele>260.0</ele><time>2026-05-04T13:52:54.706Z</time></trkpt><trkpt lat="43.458815" lon="11.6014833"><ele>260.0</ele><time>2026-05-04T13:52:55.706Z</time></trkpt><trkpt lat="43.45873" lon="11.601305"><ele>259.6666666666667</ele><time>2026-05-04T13:52:56.707Z</time></trkpt><trkpt lat="43.458635" lon="11.6011017"><ele>259.3333333333333</ele><time>2026-05-04T13:52:57.706Z</time></trkpt><trkpt lat="43.45853" lon="11.6008833"><ele>259.0</ele><time>2026-05-04T13:52:58.706Z</time></trkpt><trkpt lat="43.4584217" lon="11.6006517"><ele>259.0</ele><time>2026-05-04T13:52:59.705Z</time></trkpt><trkpt lat="43.4583083" lon="11.60041"><ele>259.0</ele><time>2026-05-04T13:53:00.705Z</time></trkpt><trkpt lat="43.45819" lon="11.60016"><ele>259.0</ele><time>2026-05-04T13:53:01.706Z</time></trkpt><trkpt lat="43.45807" lon="11.5999133"><ele>260.3333333333333</ele><time>2026-05-04T13:53:02.706Z</time></trkpt><trkpt lat="43.45796" lon="11.59968"><ele>261.6666666666667</ele><time>2026-05-04T13:53:03.706Z</time></trkpt><trkpt lat="43.45786" lon="11.5994667"><ele>263.0</ele><time>2026-05-04T13:53:04.707Z</time></trkpt><trkpt lat="43.457765" lon="11.5992683"><ele>264.25</ele><time>2026-05-04T13:53:05.706Z</time></trkpt><trkpt lat="43.4576817" lon="11.5990867"><ele>265.5</ele><time>2026-05-04T13:53:06.706Z</time></trkpt><trkpt lat="43.457605" lon="11.5989133"><ele>266.75</ele><time>2026-05-04T13:53:07.706Z</time></trkpt><trkpt lat="43.4575367" lon="11.598745"><ele>268.0</ele><time>2026-05-04T13:53:08.705Z</time></trkpt><trkpt lat="43.4574783" lon="11.5985817"><ele>268.75</ele><time>2026-05-04T13:53:09.706Z</time></trkpt><trkpt lat="43.457425" lon="11.5984217"><ele>269.5</ele><time>2026-05-04T13:53:10.706Z</time></trkpt><trkpt lat="43.4573783" lon="11.5982767"><ele>270.25</ele><time>2026-05-04T13:53:11.705Z</time></trkpt><trkpt lat="43.4573283" lon="11.598135"><ele>271.0</ele><time>2026-05-04T13:53:12.705Z</time></trkpt><trkpt lat="43.457265" lon="11.5980067"><ele>271.0</ele><time>2026-05-04T13:53:13.705Z</time></trkpt><trkpt lat="43.4571983" lon="11.5978867"><ele>271.0</ele><time>2026-05-04T13:53:14.706Z</time></trkpt><trkpt lat="43.4571333" lon="11.5977833"><ele>271.0</ele><time>2026-05-04T13:53:15.707Z</time></trkpt><trkpt lat="43.4570767" lon="11.597695"><ele>271.0</ele><time>2026-05-04T13:53:16.705Z</time></trkpt><trkpt lat="43.4570183" lon="11.5976033"><ele>271.0</ele><time>2026-05-04T13:53:17.705Z</time></trkpt><trkpt lat="43.4569633" lon="11.59751"><ele>271.3333333333333</ele><time>2026-05-04T13:53:18.706Z</time></trkpt><trkpt lat="43.4569167" lon="11.5974233"><ele>271.66666666666663</ele><time>2026-05-04T13:53:19.705Z</time></trkpt><trkpt lat="43.4568833" lon="11.597335"><ele>272.0</ele><time>2026-05-04T13:53:20.707Z</time></trkpt><trkpt lat="43.4568583" lon="11.59723"><ele>272.3333333333333</ele><time>2026-05-04T13:53:21.706Z</time></trkpt><trkpt lat="43.456845" lon="11.5971133"><ele>272.6666666666667</ele><time>2026-05-04T13:53:22.706Z</time></trkpt><trkpt lat="43.456825" lon="11.5969983"><ele>273.0</ele><time>2026-05-04T13:53:23.705Z</time></trkpt><trkpt lat="43.456795" lon="11.59689"><ele>273.1666666666667</ele><time>2026-05-04T13:53:24.707Z</time></trkpt><trkpt lat="43.4567483" lon="11.5967983"><ele>273.3333333333333</ele><time>2026-05-04T13:53:25.706Z</time></trkpt><trkpt lat="43.4566783" lon="11.5967233"><ele>273.5</ele><time>2026-05-04T13:53:26.713Z</time></trkpt><trkpt lat="43.4566017" lon="11.5966767"><ele>273.66666666666663</ele><time>2026-05-04T13:53:27.707Z</time></trkpt><trkpt lat="43.4565233" lon="11.5966433"><ele>273.8333333333333</ele><time>2026-05-04T13:53:28.706Z</time></trkpt><trkpt lat="43.4564483" lon="11.5966067"><ele>274.0</ele><time>2026-05-04T13:53:29.706Z</time></trkpt><trkpt lat="43.4563767" lon="11.59657"><ele>274.0</ele><time>2026-05-04T13:53:30.705Z</time></trkpt><trkpt lat="43.45631" lon="11.59654"><ele>274.0</ele><time>2026-05-04T13:53:31.711Z</time></trkpt><trkpt lat="43.4561983" lon="11.596495"><ele>274.0</ele><time>2026-05-04T13:53:33.707Z</time></trkpt><trkpt lat="43.456135" lon="11.5964917"><ele>274.0</ele><time>2026-05-04T13:53:34.706Z</time></trkpt><trkpt lat="43.456065" lon="11.5964967"><ele>274.0</ele><time>2026-05-04T13:53:35.706Z</time></trkpt><trkpt lat="43.45598" lon="11.5965067"><ele>274.0</ele><time>2026-05-04T13:53:36.706Z</time></trkpt><trkpt lat="43.4558983" lon="11.596515"><ele>275.14285714285717</ele><time>2026-05-04T13:53:37.706Z</time></trkpt><trkpt lat="43.455825" lon="11.596515"><ele>276.2857142857143</ele><time>2026-05-04T13:53:38.706Z</time></trkpt><trkpt lat="43.4557567" lon="11.59649"><ele>277.42857142857144</ele><time>2026-05-04T13:53:39.706Z</time></trkpt><trkpt lat="43.4557017" lon="11.5964233"><ele>278.57142857142856</ele><time>2026-05-04T13:53:40.705Z</time></trkpt><trkpt lat="43.4556583" lon="11.5963483"><ele>279.7142857142857</ele><time>2026-05-04T13:53:41.704Z</time></trkpt><trkpt lat="43.4556217" lon="11.5962717"><ele>280.8571428571429</ele><time>2026-05-04T13:53:42.706Z</time></trkpt><trkpt lat="43.4555783" lon="11.5961917"><ele>282.0</ele><time>2026-05-04T13:53:43.702Z</time></trkpt><trkpt lat="43.4555183" lon="11.5961183"><ele>282.5</ele><time>2026-05-04T13:53:44.705Z</time></trkpt><trkpt lat="43.4554433" lon="11.5960617"><ele>283.0</ele><time>2026-05-04T13:53:45.706Z</time></trkpt><trkpt lat="43.455365" lon="11.5960033"><ele>283.5</ele><time>2026-05-04T13:53:46.708Z</time></trkpt><trkpt lat="43.4552967" lon="11.5959417"><ele>284.0</ele><time>2026-05-04T13:53:47.707Z</time></trkpt><trkpt lat="43.45524" lon="11.5958733"><ele>284.5</ele><time>2026-05-04T13:53:48.707Z</time></trkpt><trkpt lat="43.4551967" lon="11.5957817"><ele>285.0</ele><time>2026-05-04T13:53:49.705Z</time></trkpt><trkpt lat="43.4551567" lon="11.5956567"><ele>285.0</ele><time>2026-05-04T13:53:50.706Z</time></trkpt><trkpt lat="43.455125" lon="11.5955167"><ele>285.0</ele><time>2026-05-04T13:53:51.706Z</time></trkpt><trkpt lat="43.4550983" lon="11.595375"><ele>285.0</ele><time>2026-05-04T13:53:52.706Z</time></trkpt><trkpt lat="43.4550817" lon="11.59525"><ele>285.0</ele><time>2026-05-04T13:53:53.705Z</time></trkpt><trkpt lat="43.45508" lon="11.59513"><ele>285.0</ele><time>2026-05-04T13:53:54.705Z</time></trkpt><trkpt lat="43.4550817" lon="11.5950117"><ele>286.0</ele><time>2026-05-04T13:53:55.707Z</time></trkpt><trkpt lat="43.45508" lon="11.5949083"><ele>287.0</ele><time>2026-05-04T13:53:56.706Z</time></trkpt><trkpt lat="43.4550383" lon="11.5947617"><ele>288.0</ele><time>2026-05-04T13:53:58.705Z</time></trkpt><trkpt lat="43.4549633" lon="11.59475"><ele>289.0</ele><time>2026-05-04T13:53:59.704Z</time></trkpt><trkpt lat="43.4548967" lon="11.594755"><ele>290.0</ele><time>2026-05-04T13:54:00.707Z</time></trkpt><trkpt lat="43.45483" lon="11.5947633"><ele>291.0</ele><time>2026-05-04T13:54:01.704Z</time></trkpt><trkpt lat="43.4547033" lon="11.59478"><ele>291.0</ele><time>2026-05-04T13:54:03.706Z</time></trkpt><trkpt lat="43.454635" lon="11.5948083"><ele>291.0</ele><time>2026-05-04T13:54:04.705Z</time></trkpt><trkpt lat="43.454565" lon="11.5948567"><ele>291.0</ele><time>2026-05-04T13:54:05.704Z</time></trkpt><trkpt lat="43.4545017" lon="11.5949083"><ele>291.0</ele><time>2026-05-04T13:54:06.705Z</time></trkpt><trkpt lat="43.4544433" lon="11.5949517"><ele>291.0</ele><time>2026-05-04T13:54:07.705Z</time></trkpt><trkpt lat="43.45433" lon="11.59499"><ele>291.0</ele><time>2026-05-04T13:54:09.706Z</time></trkpt><trkpt lat="43.4542117" lon="11.5949333"><ele>290.6666666666667</ele><time>2026-05-04T13:54:11.707Z</time></trkpt><trkpt lat="43.4541383" lon="11.5948633"><ele>290.3333333333333</ele><time>2026-05-04T13:54:12.706Z</time></trkpt><trkpt lat="43.4540683" lon="11.594785"><ele>290.0</ele><time>2026-05-04T13:54:13.705Z</time></trkpt><trkpt lat="43.4540033" lon="11.5947183"><ele>289.66666666666663</ele><time>2026-05-04T13:54:14.705Z</time></trkpt><trkpt lat="43.4539533" lon="11.5946583"><ele>289.3333333333333</ele><time>2026-05-04T13:54:15.705Z</time></trkpt><trkpt lat="43.4539083" lon="11.5945233"><ele>289.0</ele><time>2026-05-04T13:54:17.704Z</time></trkpt><trkpt lat="43.4539517" lon="11.5943383"><ele>290.8333333333333</ele><time>2026-05-04T13:54:19.703Z</time></trkpt><trkpt lat="43.453975" lon="11.594225"><ele>292.66666666666663</ele><time>2026-05-04T13:54:20.704Z</time></trkpt><trkpt lat="43.4539833" lon="11.59411"><ele>294.5</ele><time>2026-05-04T13:54:21.704Z</time></trkpt><trkpt lat="43.4539717" lon="11.5939933"><ele>296.3333333333333</ele><time>2026-05-04T13:54:22.707Z</time></trkpt><trkpt lat="43.453955" lon="11.5938867"><ele>298.1666666666667</ele><time>2026-05-04T13:54:23.702Z</time></trkpt><trkpt lat="43.453955" lon="11.59379"><ele>300.0</ele><time>2026-05-04T13:54:24.704Z</time></trkpt><trkpt lat="43.45397" lon="11.59369"><ele>300.6666666666667</ele><time>2026-05-04T13:54:25.706Z</time></trkpt><trkpt lat="43.454005" lon="11.5936"><ele>301.3333333333333</ele><time>2026-05-04T13:54:26.703Z</time></trkpt><trkpt lat="43.4540667" lon="11.593525"><ele>302.0</ele><time>2026-05-04T13:54:27.706Z</time></trkpt><trkpt lat="43.4541317" lon="11.5934517"><ele>302.66666666666663</ele><time>2026-05-04T13:54:28.705Z</time></trkpt><trkpt lat="43.4541933" lon="11.5933917"><ele>303.3333333333333</ele><time>2026-05-04T13:54:29.704Z</time></trkpt><trkpt lat="43.4542417" lon="11.5933333"><ele>304.0</ele><time>2026-05-04T13:54:30.705Z</time></trkpt><trkpt lat="43.4543083" lon="11.5932133"><ele>304.0</ele><time>2026-05-04T13:54:32.706Z</time></trkpt><trkpt lat="43.4543283" lon="11.593095"><ele>304.0</ele><time>2026-05-04T13:54:34.705Z</time></trkpt><trkpt lat="43.4543033" lon="11.5929417"><ele>304.0</ele><time>2026-05-04T13:54:36.706Z</time></trkpt><trkpt lat="43.454285" lon="11.59285"><ele>304.0</ele><time>2026-05-04T13:54:37.706Z</time></trkpt><trkpt lat="43.454265" lon="11.5927533"><ele>304.0</ele><time>2026-05-04T13:54:38.706Z</time></trkpt><trkpt lat="43.45424" lon="11.5926433"><ele>304.0</ele><time>2026-05-04T13:54:39.706Z</time></trkpt><trkpt lat="43.4542067" lon="11.59253"><ele>304.59999999999997</ele><time>2026-05-04T13:54:40.706Z</time></trkpt><trkpt lat="43.4541683" lon="11.5924183"><ele>305.2</ele><time>2026-05-04T13:54:41.705Z</time></trkpt><trkpt lat="43.4541217" lon="11.5923033"><ele>305.79999999999995</ele><time>2026-05-04T13:54:42.706Z</time></trkpt><trkpt lat="43.4540717" lon="11.5921817"><ele>306.4</ele><time>2026-05-04T13:54:43.705Z</time></trkpt><trkpt lat="43.4540183" lon="11.59206"><ele>307.0</ele><time>2026-05-04T13:54:44.706Z</time></trkpt><trkpt lat="43.4539683" lon="11.5919433"><ele>308.4</ele><time>2026-05-04T13:54:45.707Z</time></trkpt><trkpt lat="43.4539267" lon="11.5918283"><ele>309.79999999999995</ele><time>2026-05-04T13:54:46.704Z</time></trkpt><trkpt lat="43.4539017" lon="11.5917083"><ele>311.2</ele><time>2026-05-04T13:54:47.705Z</time></trkpt><trkpt lat="43.453895" lon="11.59158"><ele>312.59999999999997</ele><time>2026-05-04T13:54:48.703Z</time></trkpt><trkpt lat="43.453905" lon="11.5914483"><ele>314.0</ele><time>2026-05-04T13:54:49.707Z</time></trkpt><trkpt lat="43.4539217" lon="11.59131"><ele>316.0</ele><time>2026-05-04T13:54:50.705Z</time></trkpt><trkpt lat="43.4539317" lon="11.59117"><ele>318.0</ele><time>2026-05-04T13:54:51.705Z</time></trkpt><trkpt lat="43.4539383" lon="11.5910367"><ele>320.0</ele><time>2026-05-04T13:54:52.706Z</time></trkpt><trkpt lat="43.4539433" lon="11.5909067"><ele>322.0</ele><time>2026-05-04T13:54:53.704Z</time></trkpt><trkpt lat="43.45394" lon="11.5907833"><ele>324.0</ele><time>2026-05-04T13:54:54.705Z</time></trkpt><trkpt lat="43.4539267" lon="11.5906667"><ele>324.0</ele><time>2026-05-04T13:54:55.704Z</time></trkpt><trkpt lat="43.4539083" lon="11.5905633"><ele>324.0</ele><time>2026-05-04T13:54:56.705Z</time></trkpt><trkpt lat="43.4538933" lon="11.5904717"><ele>324.0</ele><time>2026-05-04T13:54:57.707Z</time></trkpt><trkpt lat="43.4538833" lon="11.59038"><ele>324.0</ele><time>2026-05-04T13:54:58.706Z</time></trkpt><trkpt lat="43.453885" lon="11.5902783"><ele>324.0</ele><time>2026-05-04T13:54:59.706Z</time></trkpt><trkpt lat="43.4539033" lon="11.590185"><ele>324.0</ele><time>2026-05-04T13:55:00.703Z</time></trkpt><trkpt lat="43.453955" lon="11.5900583"><ele>326.2</ele><time>2026-05-04T13:55:02.706Z</time></trkpt><trkpt lat="43.454015" lon="11.589955"><ele>328.4</ele><time>2026-05-04T13:55:04.705Z</time></trkpt><trkpt lat="43.45406" lon="11.5898333"><ele>330.6</ele><time>2026-05-04T13:55:06.705Z</time></trkpt><trkpt lat="43.4540883" lon="11.5896567"><ele>332.8</ele><time>2026-05-04T13:55:08.705Z</time></trkpt><trkpt lat="43.454105" lon="11.58955"><ele>335.0</ele><time>2026-05-04T13:55:09.707Z</time></trkpt><trkpt lat="43.4541267" lon="11.5894333"><ele>336.83333333333337</ele><time>2026-05-04T13:55:10.706Z</time></trkpt><trkpt lat="43.4541483" lon="11.58931"><ele>338.6666666666667</ele><time>2026-05-04T13:55:11.706Z</time></trkpt><trkpt lat="43.4541617" lon="11.58918"><ele>340.5</ele><time>2026-05-04T13:55:12.705Z</time></trkpt><trkpt lat="43.4541583" lon="11.5890617"><ele>342.3333333333333</ele><time>2026-05-04T13:55:13.705Z</time></trkpt><trkpt lat="43.4541533" lon="11.5889517"><ele>344.16666666666663</ele><time>2026-05-04T13:55:14.706Z</time></trkpt><trkpt lat="43.4541533" lon="11.5888517"><ele>346.0</ele><time>2026-05-04T13:55:15.705Z</time></trkpt><trkpt lat="43.45416" lon="11.5887567"><ele>347.0</ele><time>2026-05-04T13:55:16.704Z</time></trkpt><trkpt lat="43.4541683" lon="11.5886633"><ele>348.0</ele><time>2026-05-04T13:55:17.706Z</time></trkpt><trkpt lat="43.4541733" lon="11.5885617"><ele>349.0</ele><time>2026-05-04T13:55:18.706Z</time></trkpt><trkpt lat="43.454165" lon="11.58845"><ele>350.0</ele><time>2026-05-04T13:55:19.705Z</time></trkpt><trkpt lat="43.4541417" lon="11.5883317"><ele>351.0</ele><time>2026-05-04T13:55:20.706Z</time></trkpt><trkpt lat="43.45411" lon="11.58821"><ele>352.0</ele><time>2026-05-04T13:55:21.706Z</time></trkpt><trkpt lat="43.45408" lon="11.58809"><ele>352.0</ele><time>2026-05-04T13:55:22.706Z</time></trkpt><trkpt lat="43.4540583" lon="11.5879683"><ele>352.0</ele><time>2026-05-04T13:55:23.704Z</time></trkpt><trkpt lat="43.4540433" lon="11.5878433"><ele>352.0</ele><time>2026-05-04T13:55:24.705Z</time></trkpt><trkpt lat="43.4540367" lon="11.587715"><ele>352.0</ele><time>2026-05-04T13:55:25.705Z</time></trkpt><trkpt lat="43.45404" lon="11.5875967"><ele>352.0</ele><time>2026-05-04T13:55:26.706Z</time></trkpt><trkpt lat="43.4540533" lon="11.587465"><ele>353.0</ele><time>2026-05-04T13:55:27.705Z</time></trkpt><trkpt lat="43.4540633" lon="11.5873317"><ele>354.0</ele><time>2026-05-04T13:55:28.705Z</time></trkpt><trkpt lat="43.454075" lon="11.587195"><ele>355.0</ele><time>2026-05-04T13:55:29.705Z</time></trkpt><trkpt lat="43.45409" lon="11.5870483"><ele>356.0</ele><time>2026-05-04T13:55:30.706Z</time></trkpt><trkpt lat="43.45411" lon="11.586885"><ele>357.0</ele><time>2026-05-04T13:55:31.705Z</time></trkpt><trkpt lat="43.45413" lon="11.586705"><ele>357.8</ele><time>2026-05-04T13:55:32.706Z</time></trkpt><trkpt lat="43.454145" lon="11.5865217"><ele>358.6</ele><time>2026-05-04T13:55:33.706Z</time></trkpt><trkpt lat="43.454155" lon="11.586355"><ele>359.40000000000003</ele><time>2026-05-04T13:55:34.706Z</time></trkpt><trkpt lat="43.4541633" lon="11.5862133"><ele>360.20000000000005</ele><time>2026-05-04T13:55:35.705Z</time></trkpt><trkpt lat="43.4541683" lon="11.5860917"><ele>361.0</ele><time>2026-05-04T13:55:36.706Z</time></trkpt><trkpt lat="43.4541733" lon="11.5859833"><ele>362.3333333333333</ele><time>2026-05-04T13:55:37.707Z</time></trkpt><trkpt lat="43.454175" lon="11.5858733"><ele>363.66666666666663</ele><time>2026-05-04T13:55:38.706Z</time></trkpt><trkpt lat="43.4541717" lon="11.5857617"><ele>365.0</ele><time>2026-05-04T13:55:39.705Z</time></trkpt><trkpt lat="43.4541667" lon="11.58564"><ele>366.3333333333333</ele><time>2026-05-04T13:55:40.705Z</time></trkpt><trkpt lat="43.45416" lon="11.5855133"><ele>367.6666666666667</ele><time>2026-05-04T13:55:41.706Z</time></trkpt><trkpt lat="43.454155" lon="11.58539"><ele>369.0</ele><time>2026-05-04T13:55:42.705Z</time></trkpt><trkpt lat="43.4541383" lon="11.5852583"><ele>371.0</ele><time>2026-05-04T13:55:43.706Z</time></trkpt><trkpt lat="43.45411" lon="11.5851283"><ele>373.0</ele><time>2026-05-04T13:55:44.706Z</time></trkpt><trkpt lat="43.4540817" lon="11.5850083"><ele>375.0</ele><time>2026-05-04T13:55:45.707Z</time></trkpt><trkpt lat="43.4540333" lon="11.5848867"><ele>377.0</ele><time>2026-05-04T13:55:46.706Z</time></trkpt><trkpt lat="43.4539867" lon="11.58476"><ele>379.0</ele><time>2026-05-04T13:55:47.705Z</time></trkpt><trkpt lat="43.4539417" lon="11.5846233"><ele>381.79999999999995</ele><time>2026-05-04T13:55:48.705Z</time></trkpt><trkpt lat="43.4539" lon="11.5844833"><ele>384.59999999999997</ele><time>2026-05-04T13:55:49.707Z</time></trkpt><trkpt lat="43.453875" lon="11.5843483"><ele>387.4</ele><time>2026-05-04T13:55:50.704Z</time></trkpt><trkpt lat="43.4538717" lon="11.5842183"><ele>390.2</ele><time>2026-05-04T13:55:51.706Z</time></trkpt><trkpt lat="43.4538783" lon="11.58408"><ele>393.0</ele><time>2026-05-04T13:55:52.706Z</time></trkpt><trkpt lat="43.4538883" lon="11.5839383"><ele>393.0</ele><time>2026-05-04T13:55:53.705Z</time></trkpt><trkpt lat="43.453895" lon="11.5837917"><ele>393.0</ele><time>2026-05-04T13:55:54.713Z</time></trkpt><trkpt lat="43.4539" lon="11.5836417"><ele>393.0</ele><time>2026-05-04T13:55:55.703Z</time></trkpt><trkpt lat="43.4539083" lon="11.5835033"><ele>393.0</ele><time>2026-05-04T13:55:56.706Z</time></trkpt><trkpt lat="43.45392" lon="11.583375"><ele>393.0</ele><time>2026-05-04T13:55:57.706Z</time></trkpt><trkpt lat="43.4539317" lon="11.5832533"><ele>394.5</ele><time>2026-05-04T13:55:58.706Z</time></trkpt><trkpt lat="43.45394" lon="11.5831433"><ele>396.0</ele><time>2026-05-04T13:55:59.704Z</time></trkpt><trkpt lat="43.453945" lon="11.583045"><ele>397.5</ele><time>2026-05-04T13:56:00.705Z</time></trkpt><trkpt lat="43.4539383" lon="11.5829433"><ele>399.0</ele><time>2026-05-04T13:56:01.705Z</time></trkpt><trkpt lat="43.4539333" lon="11.5828383"><ele>400.5</ele><time>2026-05-04T13:56:02.705Z</time></trkpt><trkpt lat="43.4539467" lon="11.582725"><ele>402.0</ele><time>2026-05-04T13:56:03.709Z</time></trkpt><trkpt lat="43.4539533" lon="11.58261"><ele>402.3333333333333</ele><time>2026-05-04T13:56:04.705Z</time></trkpt><trkpt lat="43.45397" lon="11.582485"><ele>402.66666666666663</ele><time>2026-05-04T13:56:05.705Z</time></trkpt><trkpt lat="43.4539883" lon="11.582365"><ele>403.0</ele><time>2026-05-04T13:56:06.705Z</time></trkpt><trkpt lat="43.4540117" lon="11.5822583"><ele>403.3333333333333</ele><time>2026-05-04T13:56:07.707Z</time></trkpt><trkpt lat="43.45403" lon="11.5821633"><ele>403.66666666666663</ele><time>2026-05-04T13:56:08.705Z</time></trkpt><trkpt lat="43.4540533" lon="11.582065"><ele>404.0</ele><time>2026-05-04T13:56:09.705Z</time></trkpt><trkpt lat="43.454075" lon="11.581905"><ele>406.6</ele><time>2026-05-04T13:56:11.704Z</time></trkpt><trkpt lat="43.454055" lon="11.5817667"><ele>409.2</ele><time>2026-05-04T13:56:13.705Z</time></trkpt><trkpt lat="43.4540233" lon="11.5816517"><ele>411.8</ele><time>2026-05-04T13:56:15.708Z</time></trkpt><trkpt lat="43.4540083" lon="11.5815283"><ele>414.40000000000003</ele><time>2026-05-04T13:56:17.704Z</time></trkpt><trkpt lat="43.45398" lon="11.5814133"><ele>417.0</ele><time>2026-05-04T13:56:19.706Z</time></trkpt><trkpt lat="43.453925" lon="11.5813117"><ele>419.75</ele><time>2026-05-04T13:56:21.705Z</time></trkpt><trkpt lat="43.4538383" lon="11.58117"><ele>422.5</ele><time>2026-05-04T13:56:23.705Z</time></trkpt><trkpt lat="43.4537733" lon="11.58107"><ele>425.25</ele><time>2026-05-04T13:56:24.705Z</time></trkpt><trkpt lat="43.4536833" lon="11.580945"><ele>428.0</ele><time>2026-05-04T13:56:25.704Z</time></trkpt><trkpt lat="43.4535967" lon="11.58083"><ele>428.2</ele><time>2026-05-04T13:56:26.705Z</time></trkpt><trkpt lat="43.4535083" lon="11.580725"><ele>428.4</ele><time>2026-05-04T13:56:27.706Z</time></trkpt><trkpt lat="43.4534267" lon="11.5806417"><ele>428.59999999999997</ele><time>2026-05-04T13:56:28.706Z</time></trkpt><trkpt lat="43.4533483" lon="11.580585"><ele>428.79999999999995</ele><time>2026-05-04T13:56:29.706Z</time></trkpt><trkpt lat="43.4532767" lon="11.5805433"><ele>429.0</ele><time>2026-05-04T13:56:30.705Z</time></trkpt><trkpt lat="43.4532133" lon="11.5804983"><ele>429.0</ele><time>2026-05-04T13:56:31.707Z</time></trkpt><trkpt lat="43.4530983" lon="11.5804467"><ele>429.0</ele><time>2026-05-04T13:56:33.707Z</time></trkpt><trkpt lat="43.4530167" lon="11.5804367"><ele>429.0</ele><time>2026-05-04T13:56:34.705Z</time></trkpt><trkpt lat="43.4529233" lon="11.5804383"><ele>429.0</ele><time>2026-05-04T13:56:35.705Z</time></trkpt><trkpt lat="43.4528217" lon="11.580455"><ele>429.0</ele><time>2026-05-04T13:56:36.704Z</time></trkpt><trkpt lat="43.4527167" lon="11.5804867"><ele>431.0</ele><time>2026-05-04T13:56:37.703Z</time></trkpt><trkpt lat="43.452605" lon="11.5805283"><ele>433.0</ele><time>2026-05-04T13:56:38.705Z</time></trkpt><trkpt lat="43.4524917" lon="11.58058"><ele>435.0</ele><time>2026-05-04T13:56:39.706Z</time></trkpt><trkpt lat="43.4524017" lon="11.5806033"><ele>437.0</ele><time>2026-05-04T13:56:40.705Z</time></trkpt><trkpt lat="43.452325" lon="11.5806117"><ele>439.0</ele><time>2026-05-04T13:56:41.704Z</time></trkpt><trkpt lat="43.45226" lon="11.58061"><ele>439.00000000000006</ele><time>2026-05-04T13:56:42.706Z</time></trkpt><trkpt lat="43.4521433" lon="11.5805917"><ele>439.0</ele><time>2026-05-04T13:56:44.705Z</time></trkpt><trkpt lat="43.4520767" lon="11.5805767"><ele>439.0</ele><time>2026-05-04T13:56:45.706Z</time></trkpt><trkpt lat="43.4520067" lon="11.580575"><ele>439.0</ele><time>2026-05-04T13:56:46.707Z</time></trkpt><trkpt lat="43.4519333" lon="11.580585"><ele>439.00000000000006</ele><time>2026-05-04T13:56:47.705Z</time></trkpt><trkpt lat="43.45185" lon="11.580605"><ele>439.0</ele><time>2026-05-04T13:56:48.705Z</time></trkpt><trkpt lat="43.45176" lon="11.58064"><ele>440.33333333333337</ele><time>2026-05-04T13:56:49.706Z</time></trkpt><trkpt lat="43.4516683" lon="11.5806933"><ele>441.6666666666667</ele><time>2026-05-04T13:56:50.705Z</time></trkpt><trkpt lat="43.4515817" lon="11.5807567"><ele>443.0</ele><time>2026-05-04T13:56:51.706Z</time></trkpt><trkpt lat="43.451505" lon="11.5808167"><ele>444.33333333333337</ele><time>2026-05-04T13:56:52.71Z</time></trkpt><trkpt lat="43.4514367" lon="11.58087"><ele>445.6666666666667</ele><time>2026-05-04T13:56:53.71Z</time></trkpt><trkpt lat="43.4513767" lon="11.5809133"><ele>447.0</ele><time>2026-05-04T13:56:54.704Z</time></trkpt><trkpt lat="43.4512883" lon="11.5809933"><ele>448.6666666666667</ele><time>2026-05-04T13:56:56.707Z</time></trkpt><trkpt lat="43.45121" lon="11.5811233"><ele>450.33333333333337</ele><time>2026-05-04T13:56:58.704Z</time></trkpt><trkpt lat="43.4511717" lon="11.5812083"><ele>452.0</ele><time>2026-05-04T13:56:59.706Z</time></trkpt><trkpt lat="43.4511467" lon="11.5813017"><ele>453.6666666666667</ele><time>2026-05-04T13:57:00.704Z</time></trkpt><trkpt lat="43.4511367" lon="11.581395"><ele>455.33333333333337</ele><time>2026-05-04T13:57:01.706Z</time></trkpt><trkpt lat="43.45115" lon="11.581485"><ele>457.0</ele><time>2026-05-04T13:57:02.706Z</time></trkpt><trkpt lat="43.45117" lon="11.58158"><ele>457.83333333333337</ele><time>2026-05-04T13:57:03.706Z</time></trkpt><trkpt lat="43.45119" lon="11.58168"><ele>458.6666666666667</ele><time>2026-05-04T13:57:04.707Z</time></trkpt><trkpt lat="43.4512083" lon="11.5817767"><ele>459.5</ele><time>2026-05-04T13:57:05.703Z</time></trkpt><trkpt lat="43.45122" lon="11.5818667"><ele>460.33333333333337</ele><time>2026-05-04T13:57:06.706Z</time></trkpt><trkpt lat="43.451165" lon="11.5819683"><ele>461.1666666666667</ele><time>2026-05-04T13:57:08.706Z</time></trkpt><trkpt lat="43.4510467" lon="11.5819567"><ele>462.0</ele><time>2026-05-04T13:57:10.706Z</time></trkpt><trkpt lat="43.450975" lon="11.5818933"><ele>462.0</ele><time>2026-05-04T13:57:11.705Z</time></trkpt><trkpt lat="43.4509083" lon="11.5818183"><ele>462.00000000000006</ele><time>2026-05-04T13:57:12.707Z</time></trkpt><trkpt lat="43.4508383" lon="11.5817567"><ele>462.00000000000006</ele><time>2026-05-04T13:57:13.708Z</time></trkpt><trkpt lat="43.4507517" lon="11.5817233"><ele>462.0</ele><time>2026-05-04T13:57:14.706Z</time></trkpt><trkpt lat="43.4506583" lon="11.581725"><ele>462.0</ele><time>2026-05-04T13:57:15.708Z</time></trkpt><trkpt lat="43.45055" lon="11.58175"><ele>463.0</ele><time>2026-05-04T13:57:16.705Z</time></trkpt><trkpt lat="43.45043" lon="11.5817817"><ele>464.0</ele><time>2026-05-04T13:57:17.705Z</time></trkpt><trkpt lat="43.4503167" lon="11.5818"><ele>465.0</ele><time>2026-05-04T13:57:18.714Z</time></trkpt><trkpt lat="43.450205" lon="11.5818133"><ele>466.0</ele><time>2026-05-04T13:57:19.704Z</time></trkpt><trkpt lat="43.4500917" lon="11.5818233"><ele>466.0</ele><time>2026-05-04T13:57:20.705Z</time></trkpt><trkpt lat="43.4499933" lon="11.5818383"><ele>466.0</ele><time>2026-05-04T13:57:21.706Z</time></trkpt><trkpt lat="43.4498983" lon="11.58188"><ele>466.0</ele><time>2026-05-04T13:57:22.706Z</time></trkpt><trkpt lat="43.4497917" lon="11.581945"><ele>466.0</ele><time>2026-05-04T13:57:23.705Z</time></trkpt><trkpt lat="43.4496833" lon="11.5820133"><ele>466.0</ele><time>2026-05-04T13:57:24.706Z</time></trkpt><trkpt lat="43.4495733" lon="11.5820817"><ele>466.20000000000005</ele><time>2026-05-04T13:57:25.707Z</time></trkpt><trkpt lat="43.449475" lon="11.5821533"><ele>466.40000000000003</ele><time>2026-05-04T13:57:26.705Z</time></trkpt><trkpt lat="43.4493967" lon="11.5822317"><ele>466.6</ele><time>2026-05-04T13:57:27.704Z</time></trkpt><trkpt lat="43.4493317" lon="11.58233"><ele>466.8</ele><time>2026-05-04T13:57:28.705Z</time></trkpt><trkpt lat="43.44928" lon="11.5824533"><ele>467.0</ele><time>2026-05-04T13:57:29.705Z</time></trkpt><trkpt lat="43.449235" lon="11.5825883"><ele>466.99999999999994</ele><time>2026-05-04T13:57:30.706Z</time></trkpt><trkpt lat="43.4492017" lon="11.5827133"><ele>467.0</ele><time>2026-05-04T13:57:31.706Z</time></trkpt><trkpt lat="43.4491733" lon="11.58282"><ele>467.0</ele><time>2026-05-04T13:57:32.705Z</time></trkpt><trkpt lat="43.4491483" lon="11.58291"><ele>467.0</ele><time>2026-05-04T13:57:33.707Z</time></trkpt><trkpt lat="43.4490617" lon="11.5830167"><ele>466.99999999999994</ele><time>2026-05-04T13:57:35.704Z</time></trkpt><trkpt lat="43.4490017" lon="11.5830433"><ele>467.0</ele><time>2026-05-04T13:57:36.704Z</time></trkpt><trkpt lat="43.4489217" lon="11.5830667"><ele>466.8333333333333</ele><time>2026-05-04T13:57:37.713Z</time></trkpt><trkpt lat="43.448835" lon="11.5830883"><ele>466.66666666666663</ele><time>2026-05-04T13:57:38.707Z</time></trkpt><trkpt lat="43.4487433" lon="11.5831167"><ele>466.5</ele><time>2026-05-04T13:57:39.706Z</time></trkpt><trkpt lat="43.4486533" lon="11.5831433"><ele>466.33333333333337</ele><time>2026-05-04T13:57:40.703Z</time></trkpt><trkpt lat="43.4485733" lon="11.5831683"><ele>466.1666666666667</ele><time>2026-05-04T13:57:41.705Z</time></trkpt><trkpt lat="43.448505" lon="11.5832017"><ele>466.0</ele><time>2026-05-04T13:57:42.704Z</time></trkpt><trkpt lat="43.4484317" lon="11.5832333"><ele>468.33333333333337</ele><time>2026-05-04T13:57:43.706Z</time></trkpt><trkpt lat="43.44836" lon="11.58326"><ele>470.6666666666667</ele><time>2026-05-04T13:57:44.704Z</time></trkpt><trkpt lat="43.4482833" lon="11.58328"><ele>473.0</ele><time>2026-05-04T13:57:45.705Z</time></trkpt><trkpt lat="43.4482067" lon="11.5833"><ele>475.33333333333337</ele><time>2026-05-04T13:57:46.704Z</time></trkpt><trkpt lat="43.4481333" lon="11.583325"><ele>477.6666666666667</ele><time>2026-05-04T13:57:47.705Z</time></trkpt><trkpt lat="43.448045" lon="11.5833583"><ele>480.0</ele><time>2026-05-04T13:57:48.706Z</time></trkpt><trkpt lat="43.4479583" lon="11.5833967"><ele>482.4</ele><time>2026-05-04T13:57:49.706Z</time></trkpt><trkpt lat="43.4478733" lon="11.5834433"><ele>484.8</ele><time>2026-05-04T13:57:50.705Z</time></trkpt><trkpt lat="43.4477883" lon="11.583485"><ele>487.20000000000005</ele><time>2026-05-04T13:57:51.711Z</time></trkpt><trkpt lat="43.4477017" lon="11.5835267"><ele>489.6</ele><time>2026-05-04T13:57:52.705Z</time></trkpt><trkpt lat="43.44761" lon="11.58356"><ele>492.0</ele><time>2026-05-04T13:57:53.703Z</time></trkpt><trkpt lat="43.4475183" lon="11.5835783"><ele>492.0</ele><time>2026-05-04T13:57:54.705Z</time></trkpt><trkpt lat="43.4474133" lon="11.5836083"><ele>492.00000000000006</ele><time>2026-05-04T13:57:55.705Z</time></trkpt><trkpt lat="43.447305" lon="11.5836533"><ele>492.00000000000006</ele><time>2026-05-04T13:57:56.705Z</time></trkpt><trkpt lat="43.4472117" lon="11.5836983"><ele>492.0</ele><time>2026-05-04T13:57:57.705Z</time></trkpt><trkpt lat="43.44713" lon="11.5837433"><ele>492.0</ele><time>2026-05-04T13:57:58.705Z</time></trkpt><trkpt lat="43.447055" lon="11.5837867"><ele>489.6666666666667</ele><time>2026-05-04T13:57:59.705Z</time></trkpt><trkpt lat="43.4469783" lon="11.583815"><ele>487.33333333333337</ele><time>2026-05-04T13:58:00.703Z</time></trkpt><trkpt lat="43.4468967" lon="11.5838183"><ele>485.0</ele><time>2026-05-04T13:58:01.705Z</time></trkpt><trkpt lat="43.4468183" lon="11.5838217"><ele>482.6666666666667</ele><time>2026-05-04T13:58:02.706Z</time></trkpt><trkpt lat="43.4467433" lon="11.5838317"><ele>480.33333333333337</ele><time>2026-05-04T13:58:03.706Z</time></trkpt><trkpt lat="43.4466717" lon="11.583855"><ele>478.0</ele><time>2026-05-04T13:58:04.705Z</time></trkpt><trkpt lat="43.4465967" lon="11.5838833"><ele>478.0</ele><time>2026-05-04T13:58:05.707Z</time></trkpt><trkpt lat="43.4465167" lon="11.5839033"><ele>477.99999999999994</ele><time>2026-05-04T13:58:06.705Z</time></trkpt><trkpt lat="43.4464283" lon="11.5839017"><ele>477.99999999999994</ele><time>2026-05-04T13:58:07.705Z</time></trkpt><trkpt lat="43.446345" lon="11.5838717"><ele>478.0</ele><time>2026-05-04T13:58:08.705Z</time></trkpt><trkpt lat="43.446255" lon="11.5838217"><ele>478.0</ele><time>2026-05-04T13:58:09.706Z</time></trkpt><trkpt lat="43.446145" lon="11.5837517"><ele>475.5</ele><time>2026-05-04T13:58:10.704Z</time></trkpt><trkpt lat="43.4460383" lon="11.5836917"><ele>473.0</ele><time>2026-05-04T13:58:11.705Z</time></trkpt><trkpt lat="43.4459267" lon="11.583635"><ele>470.5</ele><time>2026-05-04T13:58:12.706Z</time></trkpt><trkpt lat="43.4458167" lon="11.58358"><ele>468.0</ele><time>2026-05-04T13:58:13.706Z</time></trkpt><trkpt lat="43.445725" lon="11.5835283"><ele>471.4</ele><time>2026-05-04T13:58:14.706Z</time></trkpt><trkpt lat="43.44563" lon="11.583465"><ele>474.79999999999995</ele><time>2026-05-04T13:58:15.706Z</time></trkpt><trkpt lat="43.4455283" lon="11.583385"><ele>478.2</ele><time>2026-05-04T13:58:16.704Z</time></trkpt><trkpt lat="43.4454417" lon="11.5833067"><ele>481.6</ele><time>2026-05-04T13:58:17.704Z</time></trkpt><trkpt lat="43.4453667" lon="11.5832333"><ele>485.0</ele><time>2026-05-04T13:58:18.705Z</time></trkpt><trkpt lat="43.445305" lon="11.5831767"><ele>484.99999999999994</ele><time>2026-05-04T13:58:19.705Z</time></trkpt><trkpt lat="43.4452417" lon="11.5831367"><ele>485.0</ele><time>2026-05-04T13:58:20.706Z</time></trkpt><trkpt lat="43.445175" lon="11.5831217"><ele>485.0</ele><time>2026-05-04T13:58:21.705Z</time></trkpt><trkpt lat="43.4451017" lon="11.583155"><ele>485.0</ele><time>2026-05-04T13:58:22.705Z</time></trkpt><trkpt lat="43.445025" lon="11.5832117"><ele>484.99999999999994</ele><time>2026-05-04T13:58:23.707Z</time></trkpt><trkpt lat="43.4449467" lon="11.5833033"><ele>485.0</ele><time>2026-05-04T13:58:24.709Z</time></trkpt><trkpt lat="43.444865" lon="11.5833767"><ele>485.0</ele><time>2026-05-04T13:58:25.707Z</time></trkpt><trkpt lat="43.4447717" lon="11.5834617"><ele>485.0</ele><time>2026-05-04T13:58:26.706Z</time></trkpt><trkpt lat="43.4446783" lon="11.5835367"><ele>485.0</ele><time>2026-05-04T13:58:27.707Z</time></trkpt><trkpt lat="43.4446033" lon="11.5835833"><ele>485.0</ele><time>2026-05-04T13:58:28.705Z</time></trkpt><trkpt lat="43.444525" lon="11.5836083"><ele>485.0</ele><time>2026-05-04T13:58:29.705Z</time></trkpt><trkpt lat="43.4444467" lon="11.5836"><ele>486.8</ele><time>2026-05-04T13:58:30.706Z</time></trkpt><trkpt lat="43.4443467" lon="11.58358"><ele>488.6</ele><time>2026-05-04T13:58:31.706Z</time></trkpt><trkpt lat="43.4442433" lon="11.58356"><ele>490.4</ele><time>2026-05-04T13:58:32.705Z</time></trkpt><trkpt lat="43.4441283" lon="11.5835517"><ele>492.2</ele><time>2026-05-04T13:58:33.706Z</time></trkpt><trkpt lat="43.44401" lon="11.58356"><ele>494.0</ele><time>2026-05-04T13:58:34.706Z</time></trkpt><trkpt lat="43.4438983" lon="11.5835733"><ele>495.0</ele><time>2026-05-04T13:58:35.705Z</time></trkpt><trkpt lat="43.44379" lon="11.5835683"><ele>496.0</ele><time>2026-05-04T13:58:36.706Z</time></trkpt><trkpt lat="43.4436717" lon="11.5835517"><ele>497.0</ele><time>2026-05-04T13:58:37.705Z</time></trkpt><trkpt lat="43.4435567" lon="11.58355"><ele>498.0</ele><time>2026-05-04T13:58:38.706Z</time></trkpt><trkpt lat="43.44344" lon="11.5835683"><ele>498.0</ele><time>2026-05-04T13:58:39.706Z</time></trkpt><trkpt lat="43.4433317" lon="11.583585"><ele>497.99999999999994</ele><time>2026-05-04T13:58:40.704Z</time></trkpt><trkpt lat="43.4432283" lon="11.5835933"><ele>497.99999999999994</ele><time>2026-05-04T13:58:41.706Z</time></trkpt><trkpt lat="43.4431317" lon="11.5835967"><ele>498.0</ele><time>2026-05-04T13:58:42.706Z</time></trkpt><trkpt lat="43.4430417" lon="11.5835933"><ele>498.0</ele><time>2026-05-04T13:58:43.708Z</time></trkpt><trkpt lat="43.4429533" lon="11.5835867"><ele>496.79999999999995</ele><time>2026-05-04T13:58:44.714Z</time></trkpt><trkpt lat="43.4428667" lon="11.5835733"><ele>495.59999999999997</ele><time>2026-05-04T13:58:45.705Z</time></trkpt><trkpt lat="43.442765" lon="11.5835583"><ele>494.40000000000003</ele><time>2026-05-04T13:58:46.706Z</time></trkpt><trkpt lat="43.4426633" lon="11.5835517"><ele>493.20000000000005</ele><time>2026-05-04T13:58:47.705Z</time></trkpt><trkpt lat="43.4425667" lon="11.5835667"><ele>492.0</ele><time>2026-05-04T13:58:48.704Z</time></trkpt><trkpt lat="43.442485" lon="11.583595"><ele>492.0</ele><time>2026-05-04T13:58:49.705Z</time></trkpt><trkpt lat="43.4424017" lon="11.5836117"><ele>492.00000000000006</ele><time>2026-05-04T13:58:50.704Z</time></trkpt><trkpt lat="43.4423183" lon="11.58361"><ele>492.00000000000006</ele><time>2026-05-04T13:58:51.707Z</time></trkpt><trkpt lat="43.4422333" lon="11.5835817"><ele>492.0</ele><time>2026-05-04T13:58:52.705Z</time></trkpt><trkpt lat="43.4421433" lon="11.5835167"><ele>492.0</ele><time>2026-05-04T13:58:53.705Z</time></trkpt><trkpt lat="43.442065" lon="11.5834433"><ele>490.6</ele><time>2026-05-04T13:58:54.707Z</time></trkpt><trkpt lat="43.4419817" lon="11.5833817"><ele>489.20000000000005</ele><time>2026-05-04T13:58:55.705Z</time></trkpt><trkpt lat="43.441895" lon="11.583345"><ele>487.8</ele><time>2026-05-04T13:58:56.707Z</time></trkpt><trkpt lat="43.441805" lon="11.5833383"><ele>486.4</ele><time>2026-05-04T13:58:57.706Z</time></trkpt><trkpt lat="43.4417033" lon="11.583375"><ele>485.0</ele><time>2026-05-04T13:58:58.704Z</time></trkpt><trkpt lat="43.4416133" lon="11.583425"><ele>484.99999999999994</ele><time>2026-05-04T13:58:59.705Z</time></trkpt><trkpt lat="43.4415317" lon="11.583475"><ele>485.0</ele><time>2026-05-04T13:59:00.705Z</time></trkpt><trkpt lat="43.4414533" lon="11.5835083"><ele>485.0</ele><time>2026-05-04T13:59:01.706Z</time></trkpt><trkpt lat="43.4413683" lon="11.583515"><ele>485.0</ele><time>2026-05-04T13:59:02.706Z</time></trkpt><trkpt lat="43.4412833" lon="11.583495"><ele>484.99999999999994</ele><time>2026-05-04T13:59:03.706Z</time></trkpt><trkpt lat="43.4411867" lon="11.58345"><ele>485.0</ele><time>2026-05-04T13:59:04.704Z</time></trkpt><trkpt lat="43.4410917" lon="11.583385"><ele>483.49999999999994</ele><time>2026-05-04T13:59:05.705Z</time></trkpt><trkpt lat="43.441015" lon="11.5833217"><ele>482.0</ele><time>2026-05-04T13:59:06.705Z</time></trkpt><trkpt lat="43.440955" lon="11.583255"><ele>480.5</ele><time>2026-05-04T13:59:07.705Z</time></trkpt><trkpt lat="43.4409083" lon="11.5831933"><ele>479.0</ele><time>2026-05-04T13:59:08.702Z</time></trkpt><trkpt lat="43.4408683" lon="11.5831233"><ele>477.49999999999994</ele><time>2026-05-04T13:59:10.706Z</time></trkpt><trkpt lat="43.4409267" lon="11.583075"><ele>476.0</ele><time>2026-05-04T13:59:15.706Z</time></trkpt><trkpt lat="43.4410083" lon="11.5831433"><ele>476.0</ele><time>2026-05-04T13:59:17.704Z</time></trkpt><trkpt lat="43.4410983" lon="11.583235"><ele>476.0</ele><time>2026-05-04T13:59:19.705Z</time></trkpt><trkpt lat="43.441185" lon="11.5832833"><ele>476.0</ele><time>2026-05-04T13:59:21.708Z</time></trkpt><trkpt lat="43.4412567" lon="11.583265"><ele>476.0</ele><time>2026-05-04T13:59:23.704Z</time></trkpt><trkpt lat="43.4412633" lon="11.583155"><ele>476.0</ele><time>2026-05-04T13:59:26.705Z</time></trkpt><trkpt lat="43.4411733" lon="11.58301"><ele>476.0</ele><time>2026-05-04T13:59:28.706Z</time></trkpt><trkpt lat="43.4411183" lon="11.5828867"><ele>476.0</ele><time>2026-05-04T13:59:29.705Z</time></trkpt><trkpt lat="43.4410733" lon="11.5827367"><ele>476.0</ele><time>2026-05-04T13:59:30.706Z</time></trkpt><trkpt lat="43.44105" lon="11.5825767"><ele>476.0</ele><time>2026-05-04T13:59:31.705Z</time></trkpt><trkpt lat="43.441035" lon="11.58243"><ele>476.0</ele><time>2026-05-04T13:59:32.706Z</time></trkpt><trkpt lat="43.441035" lon="11.5823133"><ele>478.3333333333333</ele><time>2026-05-04T13:59:33.706Z</time></trkpt><trkpt lat="43.4410533" lon="11.5822133"><ele>480.66666666666663</ele><time>2026-05-04T13:59:34.706Z</time></trkpt><trkpt lat="43.441075" lon="11.5821217"><ele>483.0</ele><time>2026-05-04T13:59:35.706Z</time></trkpt><trkpt lat="43.4410933" lon="11.5820383"><ele>485.33333333333337</ele><time>2026-05-04T13:59:36.707Z</time></trkpt><trkpt lat="43.44112" lon="11.5818633"><ele>487.6666666666667</ele><time>2026-05-04T13:59:38.705Z</time></trkpt><trkpt lat="43.44114" lon="11.5817517"><ele>490.0</ele><time>2026-05-04T13:59:39.706Z</time></trkpt><trkpt lat="43.44117" lon="11.5816317"><ele>491.33333333333337</ele><time>2026-05-04T13:59:40.704Z</time></trkpt><trkpt lat="43.4412067" lon="11.581515"><ele>492.6666666666667</ele><time>2026-05-04T13:59:41.705Z</time></trkpt><trkpt lat="43.44124" lon="11.5814033"><ele>494.0</ele><time>2026-05-04T13:59:42.704Z</time></trkpt><trkpt lat="43.4412617" lon="11.5812967"><ele>495.33333333333337</ele><time>2026-05-04T13:59:43.705Z</time></trkpt><trkpt lat="43.4412767" lon="11.5811867"><ele>496.6666666666667</ele><time>2026-05-04T13:59:44.706Z</time></trkpt><trkpt lat="43.4412817" lon="11.5810767"><ele>498.0</ele><time>2026-05-04T13:59:45.707Z</time></trkpt><trkpt lat="43.4412783" lon="11.5809683"><ele>498.3333333333333</ele><time>2026-05-04T13:59:46.704Z</time></trkpt><trkpt lat="43.4412617" lon="11.5808567"><ele>498.66666666666663</ele><time>2026-05-04T13:59:47.704Z</time></trkpt><trkpt lat="43.4412333" lon="11.5807483"><ele>499.0</ele><time>2026-05-04T13:59:48.704Z</time></trkpt><trkpt lat="43.4411883" lon="11.5806467"><ele>499.3333333333333</ele><time>2026-05-04T13:59:49.705Z</time></trkpt><trkpt lat="43.441125" lon="11.58056"><ele>499.66666666666663</ele><time>2026-05-04T13:59:50.704Z</time></trkpt><trkpt lat="43.4410583" lon="11.5804833"><ele>500.0</ele><time>2026-05-04T13:59:51.706Z</time></trkpt><trkpt lat="43.441005" lon="11.5804083"><ele>498.57142857142856</ele><time>2026-05-04T13:59:52.706Z</time></trkpt><trkpt lat="43.4409667" lon="11.5803283"><ele>497.14285714285717</ele><time>2026-05-04T13:59:53.705Z</time></trkpt><trkpt lat="43.440945" lon="11.58023"><ele>495.7142857142857</ele><time>2026-05-04T13:59:54.706Z</time></trkpt><trkpt lat="43.4409433" lon="11.58013"><ele>494.2857142857143</ele><time>2026-05-04T13:59:55.707Z</time></trkpt><trkpt lat="43.44095" lon="11.5800317"><ele>492.8571428571429</ele><time>2026-05-04T13:59:56.705Z</time></trkpt><trkpt lat="43.4409567" lon="11.5799317"><ele>491.42857142857144</ele><time>2026-05-04T13:59:57.706Z</time></trkpt><trkpt lat="43.440955" lon="11.579825"><ele>490.0</ele><time>2026-05-04T13:59:58.707Z</time></trkpt><trkpt lat="43.4409417" lon="11.5797083"><ele>490.00000000000006</ele><time>2026-05-04T13:59:59.705Z</time></trkpt><trkpt lat="43.440915" lon="11.5795983"><ele>490.0</ele><time>2026-05-04T14:00:00.7Z</time></trkpt><trkpt lat="43.4408783" lon="11.5794967"><ele>490.0</ele><time>2026-05-04T14:00:01.704Z</time></trkpt><trkpt lat="43.440835" lon="11.5794067"><ele>490.0</ele><time>2026-05-04T14:00:02.704Z</time></trkpt><trkpt lat="43.4407967" lon="11.5793183"><ele>490.00000000000006</ele><time>2026-05-04T14:00:03.704Z</time></trkpt><trkpt lat="43.44074" lon="11.57918"><ele>490.0</ele><time>2026-05-04T14:00:05.706Z</time></trkpt><trkpt lat="43.440715" lon="11.579075"><ele>489.2</ele><time>2026-05-04T14:00:07.704Z</time></trkpt><trkpt lat="43.4407683" lon="11.57901"><ele>488.4</ele><time>2026-05-04T14:00:09.706Z</time></trkpt><trkpt lat="43.44085" lon="11.5790417"><ele>487.6</ele><time>2026-05-04T14:00:10.705Z</time></trkpt><trkpt lat="43.4409717" lon="11.5790983"><ele>486.8</ele><time>2026-05-04T14:00:11.706Z</time></trkpt><trkpt lat="43.44108" lon="11.5791483"><ele>486.0</ele><time>2026-05-04T14:00:12.706Z</time></trkpt><trkpt lat="43.4411767" lon="11.579175"><ele>486.0</ele><time>2026-05-04T14:00:13.707Z</time></trkpt><trkpt lat="43.4412617" lon="11.579185"><ele>486.0</ele><time>2026-05-04T14:00:14.707Z</time></trkpt><trkpt lat="43.4413283" lon="11.5791733"><ele>486.0</ele><time>2026-05-04T14:00:15.705Z</time></trkpt><trkpt lat="43.4413933" lon="11.5791317"><ele>486.0</ele><time>2026-05-04T14:00:16.706Z</time></trkpt><trkpt lat="43.441455" lon="11.5790483"><ele>486.0</ele><time>2026-05-04T14:00:17.705Z</time></trkpt><trkpt lat="43.4415083" lon="11.5789583"><ele>486.0</ele><time>2026-05-04T14:00:18.705Z</time></trkpt><trkpt lat="43.4415583" lon="11.5788783"><ele>486.8333333333333</ele><time>2026-05-04T14:00:19.706Z</time></trkpt><trkpt lat="43.4416167" lon="11.578825"><ele>487.66666666666663</ele><time>2026-05-04T14:00:20.706Z</time></trkpt><trkpt lat="43.4416883" lon="11.5787967"><ele>488.5</ele><time>2026-05-04T14:00:21.706Z</time></trkpt><trkpt lat="43.4417567" lon="11.5787617"><ele>489.3333333333333</ele><time>2026-05-04T14:00:22.704Z</time></trkpt><trkpt lat="43.4418267" lon="11.5787067"><ele>490.16666666666663</ele><time>2026-05-04T14:00:23.705Z</time></trkpt><trkpt lat="43.4418817" lon="11.5786333"><ele>491.0</ele><time>2026-05-04T14:00:24.705Z</time></trkpt><trkpt lat="43.4419367" lon="11.5785367"><ele>490.99999999999994</ele><time>2026-05-04T14:00:25.705Z</time></trkpt><trkpt lat="43.4419867" lon="11.5784233"><ele>491.0</ele><time>2026-05-04T14:00:26.707Z</time></trkpt><trkpt lat="43.442035" lon="11.5783083"><ele>491.0</ele><time>2026-05-04T14:00:27.705Z</time></trkpt><trkpt lat="43.44208" lon="11.5782067"><ele>491.0</ele><time>2026-05-04T14:00:28.705Z</time></trkpt><trkpt lat="43.4421233" lon="11.5781183"><ele>490.99999999999994</ele><time>2026-05-04T14:00:29.705Z</time></trkpt><trkpt lat="43.4421583" lon="11.5780167"><ele>491.0</ele><time>2026-05-04T14:00:30.705Z</time></trkpt><trkpt lat="43.442175" lon="11.5778833"><ele>483.0</ele><time>2026-05-04T14:00:31.706Z</time></trkpt><trkpt lat="43.44218" lon="11.5777333"><ele>475.0</ele><time>2026-05-04T14:00:32.705Z</time></trkpt><trkpt lat="43.4421883" lon="11.5775817"><ele>467.0</ele><time>2026-05-04T14:00:33.706Z</time></trkpt><trkpt lat="43.4422067" lon="11.5774233"><ele>459.0</ele><time>2026-05-04T14:00:34.705Z</time></trkpt><trkpt lat="43.4422417" lon="11.5772683"><ele>459.0</ele><time>2026-05-04T14:00:35.706Z</time></trkpt><trkpt lat="43.442285" lon="11.5771317"><ele>459.0</ele><time>2026-05-04T14:00:36.706Z</time></trkpt><trkpt lat="43.4423267" lon="11.5770167"><ele>459.0</ele><time>2026-05-04T14:00:37.706Z</time></trkpt><trkpt lat="43.44235" lon="11.5769083"><ele>459.0</ele><time>2026-05-04T14:00:38.706Z</time></trkpt><trkpt lat="43.44236" lon="11.5768017"><ele>459.0</ele><time>2026-05-04T14:00:39.706Z</time></trkpt><trkpt lat="43.4423567" lon="11.576705"><ele>459.0</ele><time>2026-05-04T14:00:40.706Z</time></trkpt><trkpt lat="43.4423133" lon="11.5766033"><ele>459.4</ele><time>2026-05-04T14:00:41.704Z</time></trkpt><trkpt lat="43.44227" lon="11.5765017"><ele>459.79999999999995</ele><time>2026-05-04T14:00:42.704Z</time></trkpt><trkpt lat="43.44221" lon="11.5763867"><ele>460.20000000000005</ele><time>2026-05-04T14:00:43.706Z</time></trkpt><trkpt lat="43.442155" lon="11.5762683"><ele>460.6</ele><time>2026-05-04T14:00:44.705Z</time></trkpt><trkpt lat="43.442105" lon="11.5761767"><ele>461.0</ele><time>2026-05-04T14:00:45.706Z</time></trkpt><trkpt lat="43.4420517" lon="11.57609"><ele>459.49999999999994</ele><time>2026-05-04T14:00:46.705Z</time></trkpt><trkpt lat="43.4420083" lon="11.5760167"><ele>458.0</ele><time>2026-05-04T14:00:47.704Z</time></trkpt><trkpt lat="43.4420333" lon="11.575875"><ele>456.5</ele><time>2026-05-04T14:00:49.706Z</time></trkpt><trkpt lat="43.4420817" lon="11.5758183"><ele>455.0</ele><time>2026-05-04T14:00:50.706Z</time></trkpt><trkpt lat="43.4421483" lon="11.5756767"><ele>453.49999999999994</ele><time>2026-05-04T14:00:52.706Z</time></trkpt><trkpt lat="43.4421583" lon="11.575565"><ele>452.0</ele><time>2026-05-04T14:00:53.705Z</time></trkpt><trkpt lat="43.4421483" lon="11.5754217"><ele>457.25</ele><time>2026-05-04T14:00:54.706Z</time></trkpt><trkpt lat="43.4420917" lon="11.5752333"><ele>462.5</ele><time>2026-05-04T14:00:55.71Z</time></trkpt><trkpt lat="43.4420367" lon="11.5750483"><ele>467.75</ele><time>2026-05-04T14:00:56.706Z</time></trkpt><trkpt lat="43.4419817" lon="11.5748683"><ele>473.0</ele><time>2026-05-04T14:00:57.705Z</time></trkpt><trkpt lat="43.4419317" lon="11.574695"><ele>473.0</ele><time>2026-05-04T14:00:58.705Z</time></trkpt><trkpt lat="43.4418883" lon="11.5745283"><ele>473.0</ele><time>2026-05-04T14:00:59.704Z</time></trkpt><trkpt lat="43.4418567" lon="11.5743667"><ele>473.0</ele><time>2026-05-04T14:01:00.705Z</time></trkpt><trkpt lat="43.4418317" lon="11.574215"><ele>473.0</ele><time>2026-05-04T14:01:01.704Z</time></trkpt><trkpt lat="43.4418067" lon="11.5740683"><ele>470.0</ele><time>2026-05-04T14:01:02.704Z</time></trkpt><trkpt lat="43.4417617" lon="11.57392"><ele>467.0</ele><time>2026-05-04T14:01:03.706Z</time></trkpt><trkpt lat="43.441705" lon="11.5737783"><ele>464.0</ele><time>2026-05-04T14:01:04.705Z</time></trkpt><trkpt lat="43.4416483" lon="11.573645"><ele>461.0</ele><time>2026-05-04T14:01:05.704Z</time></trkpt><trkpt lat="43.4415917" lon="11.5735183"><ele>459.3333333333333</ele><time>2026-05-04T14:01:06.705Z</time></trkpt><trkpt lat="43.4415517" lon="11.57341"><ele>457.66666666666663</ele><time>2026-05-04T14:01:07.705Z</time></trkpt><trkpt lat="43.4415183" lon="11.5733167"><ele>456.0</ele><time>2026-05-04T14:01:08.706Z</time></trkpt><trkpt lat="43.4414833" lon="11.5731717"><ele>454.33333333333337</ele><time>2026-05-04T14:01:10.705Z</time></trkpt><trkpt lat="43.4414717" lon="11.57308"><ele>452.6666666666667</ele><time>2026-05-04T14:01:12.704Z</time></trkpt><trkpt lat="43.4415683" lon="11.57312"><ele>451.0</ele><time>2026-05-04T14:01:21.708Z</time></trkpt><trkpt lat="43.441625" lon="11.57316"><ele>451.00000000000006</ele><time>2026-05-04T14:01:22.705Z</time></trkpt><trkpt lat="43.4416883" lon="11.5732017"><ele>451.0</ele><time>2026-05-04T14:01:23.704Z</time></trkpt><trkpt lat="43.44176" lon="11.573235"><ele>451.0</ele><time>2026-05-04T14:01:24.705Z</time></trkpt><trkpt lat="43.4418367" lon="11.5732717"><ele>451.0</ele><time>2026-05-04T14:01:25.706Z</time></trkpt><trkpt lat="43.4419083" lon="11.573325"><ele>451.00000000000006</ele><time>2026-05-04T14:01:26.706Z</time></trkpt><trkpt lat="43.441975" lon="11.57339"><ele>451.0</ele><time>2026-05-04T14:01:27.707Z</time></trkpt><trkpt lat="43.4420383" lon="11.5734717"><ele>451.0</ele><time>2026-05-04T14:01:28.699Z</time></trkpt><trkpt lat="43.4421" lon="11.5735667"><ele>451.0</ele><time>2026-05-04T14:01:29.703Z</time></trkpt><trkpt lat="43.4421617" lon="11.5736867"><ele>451.0</ele><time>2026-05-04T14:01:30.705Z</time></trkpt><trkpt lat="43.4422317" lon="11.5738167"><ele>451.0</ele><time>2026-05-04T14:01:31.706Z</time></trkpt><trkpt lat="43.4423017" lon="11.5739567"><ele>451.0</ele><time>2026-05-04T14:01:32.705Z</time></trkpt><trkpt lat="43.44238" lon="11.5741017"><ele>451.0</ele><time>2026-05-04T14:01:33.707Z</time></trkpt><trkpt lat="43.4424633" lon="11.5742667"><ele>451.0</ele><time>2026-05-04T14:01:34.7Z</time></trkpt><trkpt lat="43.4425517" lon="11.574425"><ele>451.0</ele><time>2026-05-04T14:01:35.704Z</time></trkpt><trkpt lat="43.4426417" lon="11.57457"><ele>451.0</ele><time>2026-05-04T14:01:36.706Z</time></trkpt><trkpt lat="43.442725" lon="11.5747083"><ele>449.75</ele><time>2026-05-04T14:01:37.705Z</time></trkpt><trkpt lat="43.4428017" lon="11.57487"><ele>448.5</ele><time>2026-05-04T14:01:38.707Z</time></trkpt><trkpt lat="43.4428617" lon="11.575025"><ele>447.25</ele><time>2026-05-04T14:01:39.706Z</time></trkpt><trkpt lat="43.4429217" lon="11.575165"><ele>446.0</ele><time>2026-05-04T14:01:40.704Z</time></trkpt><trkpt lat="43.4429933" lon="11.5753133"><ele>445.8</ele><time>2026-05-04T14:01:41.706Z</time></trkpt><trkpt lat="43.4430683" lon="11.57545"><ele>445.6</ele><time>2026-05-04T14:01:42.705Z</time></trkpt><trkpt lat="43.4431467" lon="11.575575"><ele>445.4</ele><time>2026-05-04T14:01:43.706Z</time></trkpt><trkpt lat="43.4432117" lon="11.5756817"><ele>445.2</ele><time>2026-05-04T14:01:44.705Z</time></trkpt><trkpt lat="43.44327" lon="11.57579"><ele>445.0</ele><time>2026-05-04T14:01:45.705Z</time></trkpt><trkpt lat="43.4433117" lon="11.5759033"><ele>445.0</ele><time>2026-05-04T14:01:46.705Z</time></trkpt><trkpt lat="43.4433383" lon="11.57602"><ele>445.0</ele><time>2026-05-04T14:01:47.704Z</time></trkpt><trkpt lat="43.4433533" lon="11.5761417"><ele>445.0</ele><time>2026-05-04T14:01:48.706Z</time></trkpt><trkpt lat="43.443375" lon="11.5762683"><ele>445.0</ele><time>2026-05-04T14:01:49.706Z</time></trkpt><trkpt lat="43.443405" lon="11.5763867"><ele>445.0</ele><time>2026-05-04T14:01:50.705Z</time></trkpt><trkpt lat="43.4434467" lon="11.576515"><ele>444.2</ele><time>2026-05-04T14:01:51.705Z</time></trkpt><trkpt lat="43.4434967" lon="11.5766517"><ele>443.4</ele><time>2026-05-04T14:01:52.704Z</time></trkpt><trkpt lat="43.4435517" lon="11.5767817"><ele>442.6</ele><time>2026-05-04T14:01:53.704Z</time></trkpt><trkpt lat="43.4435933" lon="11.5768967"><ele>441.8</ele><time>2026-05-04T14:01:54.706Z</time></trkpt><trkpt lat="43.4436267" lon="11.577025"><ele>441.0</ele><time>2026-05-04T14:01:55.706Z</time></trkpt><trkpt lat="43.4436567" lon="11.5771517"><ele>440.3333333333333</ele><time>2026-05-04T14:01:56.704Z</time></trkpt><trkpt lat="43.443695" lon="11.577265"><ele>439.66666666666663</ele><time>2026-05-04T14:01:57.706Z</time></trkpt><trkpt lat="43.443735" lon="11.5773617"><ele>439.0</ele><time>2026-05-04T14:01:58.706Z</time></trkpt><trkpt lat="43.4437817" lon="11.57744"><ele>438.3333333333333</ele><time>2026-05-04T14:01:59.705Z</time></trkpt><trkpt lat="43.4438317" lon="11.5775017"><ele>437.66666666666663</ele><time>2026-05-04T14:02:00.705Z</time></trkpt><trkpt lat="43.4439333" lon="11.5775767"><ele>437.0</ele><time>2026-05-04T14:02:02.706Z</time></trkpt><trkpt lat="43.4440167" lon="11.5775983"><ele>440.0</ele><time>2026-05-04T14:02:04.708Z</time></trkpt><trkpt lat="43.444095" lon="11.5775483"><ele>443.00000000000006</ele><time>2026-05-04T14:02:06.705Z</time></trkpt><trkpt lat="43.4440817" lon="11.5774033"><ele>446.00000000000006</ele><time>2026-05-04T14:02:08.702Z</time></trkpt><trkpt lat="43.4440667" lon="11.57724"><ele>449.0</ele><time>2026-05-04T14:02:10.705Z</time></trkpt><trkpt lat="43.4441267" lon="11.5771733"><ele>452.0</ele><time>2026-05-04T14:02:12.705Z</time></trkpt><trkpt lat="43.4442183" lon="11.57716"><ele>452.0</ele><time>2026-05-04T14:02:14.704Z</time></trkpt><trkpt lat="43.4442767" lon="11.5771067"><ele>452.00000000000006</ele><time>2026-05-04T14:02:16.705Z</time></trkpt><trkpt lat="43.444335" lon="11.5770283"><ele>452.00000000000006</ele><time>2026-05-04T14:02:18.705Z</time></trkpt><trkpt lat="43.444435" lon="11.5769867"><ele>452.0</ele><time>2026-05-04T14:02:20.708Z</time></trkpt><trkpt lat="43.4445367" lon="11.5769283"><ele>452.0</ele><time>2026-05-04T14:02:22.704Z</time></trkpt><trkpt lat="43.4445733" lon="11.5767817"><ele>454.3333333333333</ele><time>2026-05-04T14:02:24.705Z</time></trkpt><trkpt lat="43.4445567" lon="11.5766867"><ele>456.66666666666663</ele><time>2026-05-04T14:02:25.706Z</time></trkpt><trkpt lat="43.44452" lon="11.5765517"><ele>459.0</ele><time>2026-05-04T14:02:26.704Z</time></trkpt><trkpt lat="43.4444967" lon="11.5764433"><ele>461.33333333333337</ele><time>2026-05-04T14:02:27.707Z</time></trkpt><trkpt lat="43.444495" lon="11.5763317"><ele>463.6666666666667</ele><time>2026-05-04T14:02:28.706Z</time></trkpt><trkpt lat="43.444505" lon="11.5761983"><ele>466.0</ele><time>2026-05-04T14:02:29.706Z</time></trkpt><trkpt lat="43.4445267" lon="11.5760667"><ele>467.6</ele><time>2026-05-04T14:02:30.706Z</time></trkpt><trkpt lat="43.4445567" lon="11.575925"><ele>469.20000000000005</ele><time>2026-05-04T14:02:31.708Z</time></trkpt><trkpt lat="43.4445833" lon="11.5757783"><ele>470.79999999999995</ele><time>2026-05-04T14:02:32.705Z</time></trkpt><trkpt lat="43.4445967" lon="11.575625"><ele>472.4</ele><time>2026-05-04T14:02:33.706Z</time></trkpt><trkpt lat="43.444605" lon="11.5754917"><ele>474.0</ele><time>2026-05-04T14:02:34.704Z</time></trkpt><trkpt lat="43.4446167" lon="11.5753733"><ele>477.6</ele><time>2026-05-04T14:02:35.705Z</time></trkpt><trkpt lat="43.4446333" lon="11.5752467"><ele>481.2</ele><time>2026-05-04T14:02:36.704Z</time></trkpt><trkpt lat="43.4446483" lon="11.5751333"><ele>484.80000000000007</ele><time>2026-05-04T14:02:37.706Z</time></trkpt><trkpt lat="43.44465" lon="11.5750283"><ele>488.40000000000003</ele><time>2026-05-04T14:02:38.705Z</time></trkpt><trkpt lat="43.4446467" lon="11.5749317"><ele>492.0</ele><time>2026-05-04T14:02:39.705Z</time></trkpt><trkpt lat="43.44466" lon="11.5747517"><ele>492.0</ele><time>2026-05-04T14:02:41.705Z</time></trkpt><trkpt lat="43.444685" lon="11.5746617"><ele>492.0</ele><time>2026-05-04T14:02:42.706Z</time></trkpt><trkpt lat="43.4447217" lon="11.5745717"><ele>492.0</ele><time>2026-05-04T14:02:43.706Z</time></trkpt><trkpt lat="43.4447517" lon="11.5744833"><ele>492.0</ele><time>2026-05-04T14:02:44.701Z</time></trkpt><trkpt lat="43.4447633" lon="11.5743917"><ele>492.0</ele><time>2026-05-04T14:02:45.705Z</time></trkpt><trkpt lat="43.4447783" lon="11.5742183"><ele>492.0</ele><time>2026-05-04T14:02:47.704Z</time></trkpt><trkpt lat="43.4447917" lon="11.5741217"><ele>493.8333333333333</ele><time>2026-05-04T14:02:48.706Z</time></trkpt><trkpt lat="43.4448067" lon="11.57401"><ele>495.66666666666663</ele><time>2026-05-04T14:02:49.706Z</time></trkpt><trkpt lat="43.444815" lon="11.573895"><ele>497.5</ele><time>2026-05-04T14:02:50.704Z</time></trkpt><trkpt lat="43.4448183" lon="11.57377"><ele>499.3333333333333</ele><time>2026-05-04T14:02:51.706Z</time></trkpt><trkpt lat="43.44482" lon="11.57366"><ele>501.16666666666663</ele><time>2026-05-04T14:02:52.705Z</time></trkpt><trkpt lat="43.4448183" lon="11.5735567"><ele>503.0</ele><time>2026-05-04T14:02:53.709Z</time></trkpt><trkpt lat="43.44481" lon="11.5734533"><ele>504.42857142857144</ele><time>2026-05-04T14:02:54.706Z</time></trkpt><trkpt lat="43.4447983" lon="11.57335"><ele>505.8571428571429</ele><time>2026-05-04T14:02:55.705Z</time></trkpt><trkpt lat="43.44477" lon="11.5732517"><ele>507.28571428571433</ele><time>2026-05-04T14:02:56.705Z</time></trkpt><trkpt lat="43.4447517" lon="11.57316"><ele>508.7142857142858</ele><time>2026-05-04T14:02:57.706Z</time></trkpt><trkpt lat="43.4447433" lon="11.5730717"><ele>510.14285714285717</ele><time>2026-05-04T14:02:58.705Z</time></trkpt><trkpt lat="43.4447417" lon="11.5729683"><ele>511.57142857142867</ele><time>2026-05-04T14:02:59.705Z</time></trkpt><trkpt lat="43.4447517" lon="11.5728667"><ele>513.0</ele><time>2026-05-04T14:03:00.706Z</time></trkpt><trkpt lat="43.4447683" lon="11.572755"><ele>515.6</ele><time>2026-05-04T14:03:01.706Z</time></trkpt><trkpt lat="43.4447917" lon="11.5726117"><ele>518.1999999999999</ele><time>2026-05-04T14:03:02.706Z</time></trkpt><trkpt lat="43.4448367" lon="11.5724783"><ele>520.8</ele><time>2026-05-04T14:03:03.706Z</time></trkpt><trkpt lat="43.4448683" lon="11.572325"><ele>523.4</ele><time>2026-05-04T14:03:04.706Z</time></trkpt><trkpt lat="43.4449133" lon="11.5721917"><ele>526.0</ele><time>2026-05-04T14:03:05.705Z</time></trkpt><trkpt lat="43.4449667" lon="11.5720633"><ele>526.25</ele><time>2026-05-04T14:03:06.706Z</time></trkpt><trkpt lat="43.4450283" lon="11.57193"><ele>526.5</ele><time>2026-05-04T14:03:07.706Z</time></trkpt><trkpt lat="43.4451083" lon="11.571795"><ele>526.75</ele><time>2026-05-04T14:03:08.705Z</time></trkpt><trkpt lat="43.445195" lon="11.57166"><ele>527.0</ele><time>2026-05-04T14:03:09.699Z</time></trkpt><trkpt lat="43.4452667" lon="11.5715333"><ele>527.0</ele><time>2026-05-04T14:03:10.701Z</time></trkpt><trkpt lat="43.44534" lon="11.5714233"><ele>527.0</ele><time>2026-05-04T14:03:11.703Z</time></trkpt><trkpt lat="43.4454033" lon="11.57132"><ele>527.0</ele><time>2026-05-04T14:03:12.701Z</time></trkpt><trkpt lat="43.4454717" lon="11.5712283"><ele>527.0</ele><time>2026-05-04T14:03:13.705Z</time></trkpt><trkpt lat="43.4455383" lon="11.5711333"><ele>527.0</ele><time>2026-05-04T14:03:14.703Z</time></trkpt><trkpt lat="43.4456017" lon="11.5710383"><ele>526.6666666666666</ele><time>2026-05-04T14:03:15.705Z</time></trkpt><trkpt lat="43.445655" lon="11.5709417"><ele>526.3333333333333</ele><time>2026-05-04T14:03:16.706Z</time></trkpt><trkpt lat="43.4457" lon="11.57085"><ele>526.0</ele><time>2026-05-04T14:03:17.705Z</time></trkpt><trkpt lat="43.4457433" lon="11.57077"><ele>525.6666666666666</ele><time>2026-05-04T14:03:18.706Z</time></trkpt><trkpt lat="43.44579" lon="11.5706817"><ele>525.3333333333334</ele><time>2026-05-04T14:03:19.707Z</time></trkpt><trkpt lat="43.44585" lon="11.5706"><ele>525.0</ele><time>2026-05-04T14:03:20.699Z</time></trkpt><trkpt lat="43.4459183" lon="11.570525"><ele>525.0</ele><time>2026-05-04T14:03:21.707Z</time></trkpt><trkpt lat="43.4459917" lon="11.57046"><ele>525.0</ele><time>2026-05-04T14:03:22.699Z</time></trkpt><trkpt lat="43.4460433" lon="11.570385"><ele>525.0</ele><time>2026-05-04T14:03:23.705Z</time></trkpt><trkpt lat="43.4460467" lon="11.5702883"><ele>525.0</ele><time>2026-05-04T14:03:24.706Z</time></trkpt><trkpt lat="43.446035" lon="11.5701817"><ele>525.0</ele><time>2026-05-04T14:03:25.704Z</time></trkpt><trkpt lat="43.4460267" lon="11.5700617"><ele>525.0</ele><time>2026-05-04T14:03:26.706Z</time></trkpt><trkpt lat="43.44603" lon="11.5699283"><ele>524.8</ele><time>2026-05-04T14:03:27.707Z</time></trkpt><trkpt lat="43.4460433" lon="11.5697967"><ele>524.6</ele><time>2026-05-04T14:03:28.705Z</time></trkpt><trkpt lat="43.4460667" lon="11.56966"><ele>524.4</ele><time>2026-05-04T14:03:29.706Z</time></trkpt><trkpt lat="43.4460983" lon="11.56953"><ele>524.2</ele><time>2026-05-04T14:03:30.705Z</time></trkpt><trkpt lat="43.4461333" lon="11.5693967"><ele>524.0</ele><time>2026-05-04T14:03:31.705Z</time></trkpt><trkpt lat="43.44617" lon="11.5692733"><ele>523.5</ele><time>2026-05-04T14:03:32.705Z</time></trkpt><trkpt lat="43.446215" lon="11.5691667"><ele>523.0</ele><time>2026-05-04T14:03:33.708Z</time></trkpt><trkpt lat="43.4462533" lon="11.5690817"><ele>522.5</ele><time>2026-05-04T14:03:34.707Z</time></trkpt><trkpt lat="43.446355" lon="11.5690083"><ele>522.0</ele><time>2026-05-04T14:03:36.706Z</time></trkpt><trkpt lat="43.4464267" lon="11.5690133"><ele>521.5</ele><time>2026-05-04T14:03:37.705Z</time></trkpt><trkpt lat="43.4464917" lon="11.568995"><ele>521.0</ele><time>2026-05-04T14:03:38.706Z</time></trkpt><trkpt lat="43.4465533" lon="11.5689683"><ele>523.0</ele><time>2026-05-04T14:03:39.705Z</time></trkpt><trkpt lat="43.44662" lon="11.5689117"><ele>525.0</ele><time>2026-05-04T14:03:40.706Z</time></trkpt><trkpt lat="43.4466933" lon="11.5688483"><ele>527.0</ele><time>2026-05-04T14:03:41.705Z</time></trkpt><trkpt lat="43.4467767" lon="11.5687583"><ele>529.0</ele><time>2026-05-04T14:03:42.706Z</time></trkpt><trkpt lat="43.4468483" lon="11.56868"><ele>531.0</ele><time>2026-05-04T14:03:43.706Z</time></trkpt><trkpt lat="43.446905" lon="11.5685983"><ele>533.0</ele><time>2026-05-04T14:03:44.707Z</time></trkpt><trkpt lat="43.4469433" lon="11.5684983"><ele>533.4</ele><time>2026-05-04T14:03:45.706Z</time></trkpt><trkpt lat="43.4469667" lon="11.568365"><ele>533.8</ele><time>2026-05-04T14:03:46.707Z</time></trkpt><trkpt lat="43.44699" lon="11.5682367"><ele>534.2</ele><time>2026-05-04T14:03:47.706Z</time></trkpt><trkpt lat="43.4470017" lon="11.5680967"><ele>534.6</ele><time>2026-05-04T14:03:48.706Z</time></trkpt><trkpt lat="43.44701" lon="11.567955"><ele>535.0</ele><time>2026-05-04T14:03:49.707Z</time></trkpt><trkpt lat="43.4470217" lon="11.5678067"><ele>536.0</ele><time>2026-05-04T14:03:50.707Z</time></trkpt><trkpt lat="43.4470417" lon="11.567675"><ele>537.0</ele><time>2026-05-04T14:03:51.705Z</time></trkpt><trkpt lat="43.4470667" lon="11.567555"><ele>538.0</ele><time>2026-05-04T14:03:52.706Z</time></trkpt><trkpt lat="43.4471017" lon="11.567445"><ele>539.0</ele><time>2026-05-04T14:03:53.704Z</time></trkpt><trkpt lat="43.4471333" lon="11.567355"><ele>540.0</ele><time>2026-05-04T14:03:54.7Z</time></trkpt><trkpt lat="43.4471533" lon="11.5672717"><ele>541.0</ele><time>2026-05-04T14:03:55.706Z</time></trkpt><trkpt lat="43.4471817" lon="11.5670933"><ele>543.0</ele><time>2026-05-04T14:03:57.708Z</time></trkpt><trkpt lat="43.4472033" lon="11.5669917"><ele>545.0</ele><time>2026-05-04T14:03:58.705Z</time></trkpt><trkpt lat="43.447245" lon="11.5668983"><ele>547.0</ele><time>2026-05-04T14:03:59.704Z</time></trkpt><trkpt lat="43.44728" lon="11.566815"><ele>549.0</ele><time>2026-05-04T14:04:00.705Z</time></trkpt><trkpt lat="43.44731" lon="11.5666517"><ele>551.0</ele><time>2026-05-04T14:04:02.706Z</time></trkpt><trkpt lat="43.447315" lon="11.5665517"><ele>553.0</ele><time>2026-05-04T14:04:03.705Z</time></trkpt><trkpt lat="43.4473267" lon="11.5664583"><ele>553.0</ele><time>2026-05-04T14:04:04.707Z</time></trkpt><trkpt lat="43.4473317" lon="11.5663717"><ele>553.0</ele><time>2026-05-04T14:04:05.707Z</time></trkpt><trkpt lat="43.4473317" lon="11.56628"><ele>553.0</ele><time>2026-05-04T14:04:06.707Z</time></trkpt><trkpt lat="43.447315" lon="11.5661933"><ele>553.0</ele><time>2026-05-04T14:04:07.706Z</time></trkpt><trkpt lat="43.4472933" lon="11.5661083"><ele>553.0</ele><time>2026-05-04T14:04:08.705Z</time></trkpt><trkpt lat="43.4472933" lon="11.5659917"><ele>553.0</ele><time>2026-05-04T14:04:09.713Z</time></trkpt><trkpt lat="43.4472967" lon="11.5658667"><ele>553.0</ele><time>2026-05-04T14:04:10.705Z</time></trkpt><trkpt lat="43.447305" lon="11.5657367"><ele>554.0</ele><time>2026-05-04T14:04:11.704Z</time></trkpt><trkpt lat="43.44731" lon="11.5656133"><ele>555.0</ele><time>2026-05-04T14:04:12.705Z</time></trkpt><trkpt lat="43.4473067" lon="11.56548"><ele>556.0</ele><time>2026-05-04T14:04:13.701Z</time></trkpt><trkpt lat="43.4472967" lon="11.5653267"><ele>557.0</ele><time>2026-05-04T14:04:14.704Z</time></trkpt><trkpt lat="43.44728" lon="11.5651567"><ele>558.0</ele><time>2026-05-04T14:04:15.707Z</time></trkpt><trkpt lat="43.44727" lon="11.5649967"><ele>558.1999999999999</ele><time>2026-05-04T14:04:16.705Z</time></trkpt><trkpt lat="43.4472567" lon="11.5648417"><ele>558.4</ele><time>2026-05-04T14:04:17.705Z</time></trkpt><trkpt lat="43.4472317" lon="11.56469"><ele>558.5999999999999</ele><time>2026-05-04T14:04:18.706Z</time></trkpt><trkpt lat="43.4472033" lon="11.5645533"><ele>558.8</ele><time>2026-05-04T14:04:19.71Z</time></trkpt><trkpt lat="43.4471683" lon="11.564425"><ele>559.0</ele><time>2026-05-04T14:04:20.704Z</time></trkpt><trkpt lat="43.4471333" lon="11.56432"><ele>559.0</ele><time>2026-05-04T14:04:21.706Z</time></trkpt><trkpt lat="43.447105" lon="11.5642033"><ele>559.0</ele><time>2026-05-04T14:04:22.706Z</time></trkpt><trkpt lat="43.4470883" lon="11.5640717"><ele>559.0</ele><time>2026-05-04T14:04:23.704Z</time></trkpt><trkpt lat="43.4470867" lon="11.5639283"><ele>559.0</ele><time>2026-05-04T14:04:24.704Z</time></trkpt><trkpt lat="43.4470883" lon="11.56378"><ele>559.0</ele><time>2026-05-04T14:04:25.706Z</time></trkpt><trkpt lat="43.4470917" lon="11.5636367"><ele>559.0</ele><time>2026-05-04T14:04:26.706Z</time></trkpt><trkpt lat="43.4471017" lon="11.5634967"><ele>559.0</ele><time>2026-05-04T14:04:27.706Z</time></trkpt><trkpt lat="43.447125" lon="11.5633833"><ele>559.0</ele><time>2026-05-04T14:04:28.707Z</time></trkpt><trkpt lat="43.447165" lon="11.5633033"><ele>559.0</ele><time>2026-05-04T14:04:29.705Z</time></trkpt><trkpt lat="43.4472167" lon="11.5632367"><ele>559.0</ele><time>2026-05-04T14:04:30.708Z</time></trkpt><trkpt lat="43.4472767" lon="11.5631817"><ele>559.0</ele><time>2026-05-04T14:04:31.705Z</time></trkpt><trkpt lat="43.4473483" lon="11.563145"><ele>560.5</ele><time>2026-05-04T14:04:32.706Z</time></trkpt><trkpt lat="43.4474333" lon="11.5631267"><ele>562.0</ele><time>2026-05-04T14:04:33.707Z</time></trkpt><trkpt lat="43.4475167" lon="11.563125"><ele>563.5</ele><time>2026-05-04T14:04:34.706Z</time></trkpt><trkpt lat="43.4475983" lon="11.5631533"><ele>565.0</ele><time>2026-05-04T14:04:35.706Z</time></trkpt><trkpt lat="43.4476767" lon="11.5632067"><ele>566.5</ele><time>2026-05-04T14:04:36.705Z</time></trkpt><trkpt lat="43.4477483" lon="11.56325"><ele>568.0</ele><time>2026-05-04T14:04:37.705Z</time></trkpt><trkpt lat="43.4478117" lon="11.5632733"><ele>568.0</ele><time>2026-05-04T14:04:38.705Z</time></trkpt><trkpt lat="43.4479433" lon="11.5632233"><ele>568.0</ele><time>2026-05-04T14:04:40.706Z</time></trkpt><trkpt lat="43.4480117" lon="11.5631767"><ele>568.0</ele><time>2026-05-04T14:04:41.706Z</time></trkpt><trkpt lat="43.4480767" lon="11.5631433"><ele>568.0</ele><time>2026-05-04T14:04:42.704Z</time></trkpt><trkpt lat="43.4481767" lon="11.5631383"><ele>568.0</ele><time>2026-05-04T14:04:44.704Z</time></trkpt><trkpt lat="43.44825" lon="11.56309"><ele>568.0</ele><time>2026-05-04T14:04:47.705Z</time></trkpt><trkpt lat="43.4482117" lon="11.562985"><ele>568.0</ele><time>2026-05-04T14:04:49.702Z</time></trkpt><trkpt lat="43.4481683" lon="11.5628383"><ele>568.0</ele><time>2026-05-04T14:04:51.708Z</time></trkpt><trkpt lat="43.44816" lon="11.56274"><ele>568.0</ele><time>2026-05-04T14:04:52.705Z</time></trkpt><trkpt lat="43.4481467" lon="11.56264"><ele>568.0</ele><time>2026-05-04T14:04:53.704Z</time></trkpt><trkpt lat="43.44812" lon="11.5625467"><ele>568.0</ele><time>2026-05-04T14:04:54.704Z</time></trkpt><trkpt lat="43.44807" lon="11.5624467"><ele>569.5</ele><time>2026-05-04T14:04:55.708Z</time></trkpt><trkpt lat="43.4479933" lon="11.562335"><ele>571.0</ele><time>2026-05-04T14:04:56.706Z</time></trkpt><trkpt lat="43.4478983" lon="11.56221"><ele>572.5</ele><time>2026-05-04T14:04:57.707Z</time></trkpt><trkpt lat="43.44781" lon="11.5620917"><ele>574.0</ele><time>2026-05-04T14:04:58.704Z</time></trkpt><trkpt lat="43.4477267" lon="11.5619717"><ele>576.0</ele><time>2026-05-04T14:04:59.706Z</time></trkpt><trkpt lat="43.4476567" lon="11.5618467"><ele>578.0</ele><time>2026-05-04T14:05:00.705Z</time></trkpt><trkpt lat="43.4476017" lon="11.5617133"><ele>580.0</ele><time>2026-05-04T14:05:01.707Z</time></trkpt><trkpt lat="43.4475467" lon="11.5615817"><ele>582.0</ele><time>2026-05-04T14:05:02.707Z</time></trkpt><trkpt lat="43.4474933" lon="11.5614733"><ele>584.0</ele><time>2026-05-04T14:05:03.706Z</time></trkpt><trkpt lat="43.4474333" lon="11.56137"><ele>584.0</ele><time>2026-05-04T14:05:04.705Z</time></trkpt><trkpt lat="43.44735" lon="11.5612583"><ele>584.0</ele><time>2026-05-04T14:05:05.705Z</time></trkpt><trkpt lat="43.44727" lon="11.5611433"><ele>584.0</ele><time>2026-05-04T14:05:06.707Z</time></trkpt><trkpt lat="43.4471917" lon="11.561015"><ele>584.0</ele><time>2026-05-04T14:05:07.706Z</time></trkpt><trkpt lat="43.44711" lon="11.56087"><ele>585.0</ele><time>2026-05-04T14:05:08.706Z</time></trkpt><trkpt lat="43.4470217" lon="11.5607183"><ele>586.0</ele><time>2026-05-04T14:05:09.706Z</time></trkpt><trkpt lat="43.44692" lon="11.560555"><ele>587.0</ele><time>2026-05-04T14:05:10.706Z</time></trkpt><trkpt lat="43.4468117" lon="11.5604067"><ele>588.5</ele><time>2026-05-04T14:05:11.705Z</time></trkpt><trkpt lat="43.4467067" lon="11.5602783"><ele>590.0</ele><time>2026-05-04T14:05:12.706Z</time></trkpt><trkpt lat="43.4466117" lon="11.5601617"><ele>591.5</ele><time>2026-05-04T14:05:13.706Z</time></trkpt><trkpt lat="43.4465383" lon="11.5600567"><ele>593.0</ele><time>2026-05-04T14:05:14.707Z</time></trkpt><trkpt lat="43.44648" lon="11.55995"><ele>593.0</ele><time>2026-05-04T14:05:15.708Z</time></trkpt><trkpt lat="43.446435" lon="11.5598317"><ele>593.0</ele><time>2026-05-04T14:05:16.706Z</time></trkpt><trkpt lat="43.4464" lon="11.559705"><ele>593.0</ele><time>2026-05-04T14:05:17.705Z</time></trkpt><trkpt lat="43.44637" lon="11.5595933"><ele>593.0</ele><time>2026-05-04T14:05:18.705Z</time></trkpt><trkpt lat="43.4463367" lon="11.5595033"><ele>593.0</ele><time>2026-05-04T14:05:19.707Z</time></trkpt><trkpt lat="43.4462933" lon="11.5594267"><ele>593.0</ele><time>2026-05-04T14:05:20.705Z</time></trkpt><trkpt lat="43.4461683" lon="11.5593783"><ele>595.0</ele><time>2026-05-04T14:05:22.708Z</time></trkpt><trkpt lat="43.4461017" lon="11.5593433"><ele>597.0</ele><time>2026-05-04T14:05:23.706Z</time></trkpt><trkpt lat="43.44603" lon="11.5592733"><ele>599.0</ele><time>2026-05-04T14:05:24.707Z</time></trkpt><trkpt lat="43.4459483" lon="11.5591867"><ele>601.0</ele><time>2026-05-04T14:05:25.706Z</time></trkpt><trkpt lat="43.445865" lon="11.55911"><ele>603.0</ele><time>2026-05-04T14:05:26.705Z</time></trkpt><trkpt lat="43.445795" lon="11.559035"><ele>603.0</ele><time>2026-05-04T14:05:27.705Z</time></trkpt><trkpt lat="43.4457433" lon="11.558955"><ele>603.0</ele><time>2026-05-04T14:05:28.706Z</time></trkpt><trkpt lat="43.4457167" lon="11.5588733"><ele>603.0</ele><time>2026-05-04T14:05:29.705Z</time></trkpt><trkpt lat="43.4457167" lon="11.5587783"><ele>603.0</ele><time>2026-05-04T14:05:30.706Z</time></trkpt><trkpt lat="43.4457233" lon="11.5586833"><ele>603.0</ele><time>2026-05-04T14:05:31.707Z</time></trkpt><trkpt lat="43.4457217" lon="11.5585833"><ele>603.0</ele><time>2026-05-04T14:05:32.705Z</time></trkpt><trkpt lat="43.445705" lon="11.558485"><ele>603.0</ele><time>2026-05-04T14:05:33.707Z</time></trkpt><trkpt lat="43.4456683" lon="11.5583667"><ele>603.75</ele><time>2026-05-04T14:05:34.706Z</time></trkpt><trkpt lat="43.44562" lon="11.55824"><ele>604.5</ele><time>2026-05-04T14:05:35.707Z</time></trkpt><trkpt lat="43.44554" lon="11.5581167"><ele>605.25</ele><time>2026-05-04T14:05:36.703Z</time></trkpt><trkpt lat="43.44544" lon="11.558"><ele>606.0</ele><time>2026-05-04T14:05:37.707Z</time></trkpt><trkpt lat="43.4453383" lon="11.5578717"><ele>605.75</ele><time>2026-05-04T14:05:38.706Z</time></trkpt><trkpt lat="43.445235" lon="11.5577283"><ele>605.5</ele><time>2026-05-04T14:05:39.704Z</time></trkpt><trkpt lat="43.4451317" lon="11.5575833"><ele>605.25</ele><time>2026-05-04T14:05:40.706Z</time></trkpt><trkpt lat="43.44505" lon="11.5574533"><ele>605.0</ele><time>2026-05-04T14:05:41.705Z</time></trkpt><trkpt lat="43.4449833" lon="11.5573483"><ele>605.0</ele><time>2026-05-04T14:05:42.704Z</time></trkpt><trkpt lat="43.4449133" lon="11.5572683"><ele>605.0</ele><time>2026-05-04T14:05:43.706Z</time></trkpt><trkpt lat="43.44483" lon="11.5572167"><ele>605.0</ele><time>2026-05-04T14:05:44.707Z</time></trkpt><trkpt lat="43.444725" lon="11.557165"><ele>605.0</ele><time>2026-05-04T14:05:45.707Z</time></trkpt><trkpt lat="43.4445967" lon="11.5571167"><ele>605.0</ele><time>2026-05-04T14:05:46.706Z</time></trkpt><trkpt lat="43.4444883" lon="11.557075"><ele>606.3333333333333</ele><time>2026-05-04T14:05:47.705Z</time></trkpt><trkpt lat="43.4444033" lon="11.557035"><ele>607.6666666666666</ele><time>2026-05-04T14:05:48.705Z</time></trkpt><trkpt lat="43.4443333" lon="11.5569967"><ele>609.0</ele><time>2026-05-04T14:05:49.707Z</time></trkpt><trkpt lat="43.444305" lon="11.5569083"><ele>610.3333333333334</ele><time>2026-05-04T14:05:51.707Z</time></trkpt><trkpt lat="43.4443617" lon="11.556795"><ele>611.6666666666667</ele><time>2026-05-04T14:05:53.706Z</time></trkpt><trkpt lat="43.4444183" lon="11.55672"><ele>613.0</ele><time>2026-05-04T14:05:54.706Z</time></trkpt><trkpt lat="43.4444717" lon="11.5566233"><ele>613.0</ele><time>2026-05-04T14:05:55.705Z</time></trkpt><trkpt lat="43.4445133" lon="11.5565117"><ele>613.0</ele><time>2026-05-04T14:05:56.705Z</time></trkpt><trkpt lat="43.4445417" lon="11.5564067"><ele>613.0</ele><time>2026-05-04T14:05:57.706Z</time></trkpt><trkpt lat="43.4445667" lon="11.5563"><ele>613.0</ele><time>2026-05-04T14:05:58.706Z</time></trkpt><trkpt lat="43.4445783" lon="11.556185"><ele>613.0</ele><time>2026-05-04T14:05:59.706Z</time></trkpt><trkpt lat="43.444585" lon="11.5560633"><ele>613.0</ele><time>2026-05-04T14:06:00.706Z</time></trkpt><trkpt lat="43.4445883" lon="11.5559467"><ele>612.5714285714286</ele><time>2026-05-04T14:06:01.706Z</time></trkpt><trkpt lat="43.4445883" lon="11.555845"><ele>612.1428571428571</ele><time>2026-05-04T14:06:02.706Z</time></trkpt><trkpt lat="43.44458" lon="11.5557517"><ele>611.7142857142858</ele><time>2026-05-04T14:06:03.707Z</time></trkpt><trkpt lat="43.4445617" lon="11.5556667"><ele>611.2857142857142</ele><time>2026-05-04T14:06:04.707Z</time></trkpt><trkpt lat="43.44453" lon="11.5555917"><ele>610.8571428571428</ele><time>2026-05-04T14:06:05.707Z</time></trkpt><trkpt lat="43.4444933" lon="11.5555183"><ele>610.4285714285714</ele><time>2026-05-04T14:06:06.709Z</time></trkpt><trkpt lat="43.4444483" lon="11.5554467"><ele>610.0</ele><time>2026-05-04T14:06:07.709Z</time></trkpt><trkpt lat="43.4444017" lon="11.5553783"><ele>608.0</ele><time>2026-05-04T14:06:08.708Z</time></trkpt><trkpt lat="43.44435" lon="11.5552967"><ele>606.0</ele><time>2026-05-04T14:06:09.71Z</time></trkpt><trkpt lat="43.4442983" lon="11.5551967"><ele>604.0</ele><time>2026-05-04T14:06:10.714Z</time></trkpt><trkpt lat="43.44425" lon="11.5550717"><ele>602.0</ele><time>2026-05-04T14:06:11.704Z</time></trkpt><trkpt lat="43.444195" lon="11.5549317"><ele>600.0</ele><time>2026-05-04T14:06:12.706Z</time></trkpt><trkpt lat="43.4441367" lon="11.5547933"><ele>600.0</ele><time>2026-05-04T14:06:13.705Z</time></trkpt><trkpt lat="43.4440767" lon="11.5546583"><ele>600.0</ele><time>2026-05-04T14:06:14.705Z</time></trkpt><trkpt lat="43.4440217" lon="11.55453"><ele>600.0</ele><time>2026-05-04T14:06:15.705Z</time></trkpt><trkpt lat="43.44397" lon="11.55441"><ele>600.0</ele><time>2026-05-04T14:06:16.706Z</time></trkpt><trkpt lat="43.4439233" lon="11.5543017"><ele>600.0</ele><time>2026-05-04T14:06:17.705Z</time></trkpt><trkpt lat="43.4438833" lon="11.5541933"><ele>598.1666666666666</ele><time>2026-05-04T14:06:18.707Z</time></trkpt><trkpt lat="43.4438517" lon="11.5540933"><ele>596.3333333333334</ele><time>2026-05-04T14:06:19.71Z</time></trkpt><trkpt lat="43.4438267" lon="11.5539983"><ele>594.5</ele><time>2026-05-04T14:06:20.704Z</time></trkpt><trkpt lat="43.4438" lon="11.5539083"><ele>592.6666666666667</ele><time>2026-05-04T14:06:21.705Z</time></trkpt><trkpt lat="43.4437783" lon="11.55381"><ele>590.8333333333334</ele><time>2026-05-04T14:06:22.706Z</time></trkpt><trkpt lat="43.44375" lon="11.5537083"><ele>589.0</ele><time>2026-05-04T14:06:23.705Z</time></trkpt><trkpt lat="43.44372" lon="11.5536117"><ele>593.6</ele><time>2026-05-04T14:06:24.705Z</time></trkpt><trkpt lat="43.44369" lon="11.5535083"><ele>598.2</ele><time>2026-05-04T14:06:25.705Z</time></trkpt><trkpt lat="43.443665" lon="11.5534"><ele>602.8000000000001</ele><time>2026-05-04T14:06:26.707Z</time></trkpt><trkpt lat="43.4436283" lon="11.5532867"><ele>607.4</ele><time>2026-05-04T14:06:27.706Z</time></trkpt><trkpt lat="43.4435817" lon="11.5531717"><ele>612.0</ele><time>2026-05-04T14:06:28.706Z</time></trkpt><trkpt lat="43.4435267" lon="11.55304"><ele>612.0</ele><time>2026-05-04T14:06:29.705Z</time></trkpt><trkpt lat="43.4434683" lon="11.5529067"><ele>612.0</ele><time>2026-05-04T14:06:30.705Z</time></trkpt><trkpt lat="43.4434217" lon="11.5527717"><ele>612.0</ele><time>2026-05-04T14:06:31.706Z</time></trkpt><trkpt lat="43.4433733" lon="11.55263"><ele>612.0</ele><time>2026-05-04T14:06:32.706Z</time></trkpt><trkpt lat="43.443315" lon="11.55248"><ele>607.25</ele><time>2026-05-04T14:06:33.707Z</time></trkpt><trkpt lat="43.4432617" lon="11.552325"><ele>602.5</ele><time>2026-05-04T14:06:34.705Z</time></trkpt><trkpt lat="43.4432083" lon="11.552175"><ele>597.75</ele><time>2026-05-04T14:06:35.705Z</time></trkpt><trkpt lat="43.44315" lon="11.5520383"><ele>593.0</ele><time>2026-05-04T14:06:36.705Z</time></trkpt><trkpt lat="43.443075" lon="11.5518983"><ele>593.5</ele><time>2026-05-04T14:06:37.707Z</time></trkpt><trkpt lat="43.443" lon="11.5517633"><ele>594.0</ele><time>2026-05-04T14:06:38.706Z</time></trkpt><trkpt lat="43.4429233" lon="11.551625"><ele>594.5</ele><time>2026-05-04T14:06:39.706Z</time></trkpt><trkpt lat="43.4428617" lon="11.5514933"><ele>595.0</ele><time>2026-05-04T14:06:40.706Z</time></trkpt><trkpt lat="43.442795" lon="11.55137"><ele>595.0</ele><time>2026-05-04T14:06:41.706Z</time></trkpt><trkpt lat="43.442725" lon="11.551255"><ele>595.0</ele><time>2026-05-04T14:06:42.705Z</time></trkpt><trkpt lat="43.44264" lon="11.5511433"><ele>595.0</ele><time>2026-05-04T14:06:43.706Z</time></trkpt><trkpt lat="43.4425467" lon="11.5510417"><ele>595.0</ele><time>2026-05-04T14:06:44.707Z</time></trkpt><trkpt lat="43.44246" lon="11.550925"><ele>594.25</ele><time>2026-05-04T14:06:45.705Z</time></trkpt><trkpt lat="43.442385" lon="11.550775"><ele>593.5</ele><time>2026-05-04T14:06:46.705Z</time></trkpt><trkpt lat="43.4423167" lon="11.5506017"><ele>592.75</ele><time>2026-05-04T14:06:47.717Z</time></trkpt><trkpt lat="43.44225" lon="11.5504367"><ele>592.0</ele><time>2026-05-04T14:06:48.707Z</time></trkpt><trkpt lat="43.44219" lon="11.55029"><ele>592.0</ele><time>2026-05-04T14:06:49.705Z</time></trkpt><trkpt lat="43.44215" lon="11.5501683"><ele>592.0</ele><time>2026-05-04T14:06:50.706Z</time></trkpt><trkpt lat="43.4421233" lon="11.5500583"><ele>592.0</ele><time>2026-05-04T14:06:51.706Z</time></trkpt><trkpt lat="43.4421133" lon="11.5499517"><ele>592.0</ele><time>2026-05-04T14:06:52.704Z</time></trkpt><trkpt lat="43.4421667" lon="11.5498467"><ele>592.0</ele><time>2026-05-04T14:06:53.705Z</time></trkpt><trkpt lat="43.4422183" lon="11.549725"><ele>592.0</ele><time>2026-05-04T14:06:54.705Z</time></trkpt><trkpt lat="43.4422617" lon="11.549595"><ele>592.0</ele><time>2026-05-04T14:06:55.706Z</time></trkpt><trkpt lat="43.44229" lon="11.549445"><ele>592.0</ele><time>2026-05-04T14:06:56.707Z</time></trkpt><trkpt lat="43.4423067" lon="11.549275"><ele>592.0</ele><time>2026-05-04T14:06:57.705Z</time></trkpt><trkpt lat="43.442315" lon="11.5490767"><ele>592.0</ele><time>2026-05-04T14:06:58.705Z</time></trkpt><trkpt lat="43.4423183" lon="11.54887"><ele>592.0</ele><time>2026-05-04T14:06:59.707Z</time></trkpt><trkpt lat="43.4423183" lon="11.5486767"><ele>592.0</ele><time>2026-05-04T14:07:00.706Z</time></trkpt><trkpt lat="43.44232" lon="11.548495"><ele>592.0</ele><time>2026-05-04T14:07:01.707Z</time></trkpt><trkpt lat="43.442325" lon="11.5483183"><ele>592.0</ele><time>2026-05-04T14:07:02.706Z</time></trkpt><trkpt lat="43.44232" lon="11.5481533"><ele>592.0</ele><time>2026-05-04T14:07:03.707Z</time></trkpt><trkpt lat="43.4423083" lon="11.5480067"><ele>592.0</ele><time>2026-05-04T14:07:04.707Z</time></trkpt><trkpt lat="43.4422883" lon="11.5478667"><ele>592.0</ele><time>2026-05-04T14:07:05.706Z</time></trkpt><trkpt lat="43.4422567" lon="11.5477267"><ele>592.0</ele><time>2026-05-04T14:07:06.706Z</time></trkpt><trkpt lat="43.442215" lon="11.5476017"><ele>592.0</ele><time>2026-05-04T14:07:07.706Z</time></trkpt><trkpt lat="43.442175" lon="11.547475"><ele>592.0</ele><time>2026-05-04T14:07:08.707Z</time></trkpt><trkpt lat="43.442145" lon="11.5473517"><ele>592.0</ele><time>2026-05-04T14:07:09.706Z</time></trkpt><trkpt lat="43.442135" lon="11.54722"><ele>592.0</ele><time>2026-05-04T14:07:10.707Z</time></trkpt><trkpt lat="43.442145" lon="11.5470867"><ele>592.0</ele><time>2026-05-04T14:07:11.705Z</time></trkpt><trkpt lat="43.44217" lon="11.5469717"><ele>593.8000000000001</ele><time>2026-05-04T14:07:12.705Z</time></trkpt><trkpt lat="43.4421983" lon="11.5468583"><ele>595.6</ele><time>2026-05-04T14:07:13.707Z</time></trkpt><trkpt lat="43.442235" lon="11.5467433"><ele>597.4000000000001</ele><time>2026-05-04T14:07:14.706Z</time></trkpt><trkpt lat="43.4422883" lon="11.5466233"><ele>599.2</ele><time>2026-05-04T14:07:15.708Z</time></trkpt><trkpt lat="43.44236" lon="11.546505"><ele>601.0</ele><time>2026-05-04T14:07:16.707Z</time></trkpt><trkpt lat="43.4424417" lon="11.5464033"><ele>601.0</ele><time>2026-05-04T14:07:17.705Z</time></trkpt><trkpt lat="43.4425233" lon="11.54633"><ele>601.0</ele><time>2026-05-04T14:07:18.707Z</time></trkpt><trkpt lat="43.4426083" lon="11.54627"><ele>601.0</ele><time>2026-05-04T14:07:19.706Z</time></trkpt><trkpt lat="43.4426933" lon="11.5462167"><ele>601.0</ele><time>2026-05-04T14:07:20.706Z</time></trkpt><trkpt lat="43.44277" lon="11.5461467"><ele>601.0</ele><time>2026-05-04T14:07:21.705Z</time></trkpt><trkpt lat="43.4428333" lon="11.5460667"><ele>603.0</ele><time>2026-05-04T14:07:22.705Z</time></trkpt><trkpt lat="43.4428967" lon="11.545995"><ele>605.0</ele><time>2026-05-04T14:07:23.706Z</time></trkpt><trkpt lat="43.44294" lon="11.5458967"><ele>607.0</ele><time>2026-05-04T14:07:24.706Z</time></trkpt><trkpt lat="43.44295" lon="11.5457733"><ele>609.0</ele><time>2026-05-04T14:07:25.706Z</time></trkpt><trkpt lat="43.4429383" lon="11.54564"><ele>611.0</ele><time>2026-05-04T14:07:26.706Z</time></trkpt><trkpt lat="43.4428817" lon="11.5454867"><ele>608.5</ele><time>2026-05-04T14:07:27.707Z</time></trkpt><trkpt lat="43.4428317" lon="11.5453217"><ele>606.0</ele><time>2026-05-04T14:07:28.705Z</time></trkpt><trkpt lat="43.44277" lon="11.54517"><ele>603.5</ele><time>2026-05-04T14:07:29.706Z</time></trkpt><trkpt lat="43.4427" lon="11.54503"><ele>601.0</ele><time>2026-05-04T14:07:30.706Z</time></trkpt><trkpt lat="43.4426317" lon="11.5448933"><ele>601.0</ele><time>2026-05-04T14:07:31.706Z</time></trkpt><trkpt lat="43.4425683" lon="11.54477"><ele>601.0</ele><time>2026-05-04T14:07:32.705Z</time></trkpt><trkpt lat="43.442505" lon="11.5446567"><ele>601.0</ele><time>2026-05-04T14:07:33.707Z</time></trkpt><trkpt lat="43.442445" lon="11.5445517"><ele>601.0</ele><time>2026-05-04T14:07:34.706Z</time></trkpt><trkpt lat="43.442395" lon="11.54445"><ele>601.0</ele><time>2026-05-04T14:07:35.705Z</time></trkpt><trkpt lat="43.44235" lon="11.5443517"><ele>598.8</ele><time>2026-05-04T14:07:36.706Z</time></trkpt><trkpt lat="43.4423167" lon="11.5442483"><ele>596.6</ele><time>2026-05-04T14:07:37.706Z</time></trkpt><trkpt lat="43.4422967" lon="11.5441333"><ele>594.4</ele><time>2026-05-04T14:07:38.706Z</time></trkpt><trkpt lat="43.4422817" lon="11.5440067"><ele>592.2</ele><time>2026-05-04T14:07:39.707Z</time></trkpt><trkpt lat="43.4422633" lon="11.5438717"><ele>590.0</ele><time>2026-05-04T14:07:40.706Z</time></trkpt><trkpt lat="43.4422417" lon="11.5437333"><ele>589.2</ele><time>2026-05-04T14:07:41.705Z</time></trkpt><trkpt lat="43.4422233" lon="11.54361"><ele>588.4</ele><time>2026-05-04T14:07:42.705Z</time></trkpt><trkpt lat="43.4422183" lon="11.54347"><ele>587.6</ele><time>2026-05-04T14:07:43.707Z</time></trkpt><trkpt lat="43.44222" lon="11.54332"><ele>586.8</ele><time>2026-05-04T14:07:44.707Z</time></trkpt><trkpt lat="43.4422383" lon="11.54318"><ele>586.0</ele><time>2026-05-04T14:07:45.707Z</time></trkpt><trkpt lat="43.4422633" lon="11.5430483"><ele>586.0</ele><time>2026-05-04T14:07:46.706Z</time></trkpt><trkpt lat="43.44228" lon="11.54293"><ele>586.0</ele><time>2026-05-04T14:07:47.707Z</time></trkpt><trkpt lat="43.4422783" lon="11.54282"><ele>586.0</ele><time>2026-05-04T14:07:48.706Z</time></trkpt><trkpt lat="43.4422633" lon="11.5427133"><ele>586.0</ele><time>2026-05-04T14:07:49.704Z</time></trkpt><trkpt lat="43.442235" lon="11.5426067"><ele>586.0</ele><time>2026-05-04T14:07:50.705Z</time></trkpt><trkpt lat="43.44218" lon="11.542495"><ele>586.0</ele><time>2026-05-04T14:07:51.706Z</time></trkpt><trkpt lat="43.4421267" lon="11.5423867"><ele>584.6666666666667</ele><time>2026-05-04T14:07:52.705Z</time></trkpt><trkpt lat="43.4420983" lon="11.542285"><ele>583.3333333333334</ele><time>2026-05-04T14:07:53.704Z</time></trkpt><trkpt lat="43.442075" lon="11.5421883"><ele>582.0</ele><time>2026-05-04T14:07:54.705Z</time></trkpt><trkpt lat="43.4420683" lon="11.542095"><ele>580.6666666666666</ele><time>2026-05-04T14:07:55.706Z</time></trkpt><trkpt lat="43.4420767" lon="11.5419967"><ele>579.3333333333333</ele><time>2026-05-04T14:07:56.705Z</time></trkpt><trkpt lat="43.4420867" lon="11.5418867"><ele>578.0</ele><time>2026-05-04T14:07:57.706Z</time></trkpt><trkpt lat="43.4420983" lon="11.5417617"><ele>581.1666666666666</ele><time>2026-05-04T14:07:58.707Z</time></trkpt><trkpt lat="43.4421" lon="11.5416333"><ele>584.3333333333333</ele><time>2026-05-04T14:07:59.706Z</time></trkpt><trkpt lat="43.4421067" lon="11.5415133"><ele>587.5</ele><time>2026-05-04T14:08:00.709Z</time></trkpt><trkpt lat="43.44211" lon="11.54141"><ele>590.6666666666666</ele><time>2026-05-04T14:08:01.708Z</time></trkpt><trkpt lat="43.4421017" lon="11.5413183"><ele>593.8333333333334</ele><time>2026-05-04T14:08:02.705Z</time></trkpt><trkpt lat="43.44206" lon="11.5411567"><ele>597.0</ele><time>2026-05-04T14:08:04.706Z</time></trkpt><trkpt lat="43.4420367" lon="11.5410583"><ele>600.2</ele><time>2026-05-04T14:08:05.707Z</time></trkpt><trkpt lat="43.44202" lon="11.5409367"><ele>603.4000000000001</ele><time>2026-05-04T14:08:06.705Z</time></trkpt><trkpt lat="43.442005" lon="11.5408117"><ele>606.5999999999999</ele><time>2026-05-04T14:08:07.707Z</time></trkpt><trkpt lat="43.441995" lon="11.540685"><ele>609.8</ele><time>2026-05-04T14:08:08.705Z</time></trkpt><trkpt lat="43.4419917" lon="11.5405433"><ele>613.0</ele><time>2026-05-04T14:08:09.707Z</time></trkpt><trkpt lat="43.4419883" lon="11.5404117"><ele>613.1666666666667</ele><time>2026-05-04T14:08:10.706Z</time></trkpt><trkpt lat="43.4419867" lon="11.5402867"><ele>613.3333333333334</ele><time>2026-05-04T14:08:11.704Z</time></trkpt><trkpt lat="43.4419683" lon="11.54017"><ele>613.5</ele><time>2026-05-04T14:08:12.706Z</time></trkpt><trkpt lat="43.4419483" lon="11.5400533"><ele>613.6666666666666</ele><time>2026-05-04T14:08:13.706Z</time></trkpt><trkpt lat="43.4419367" lon="11.5399267"><ele>613.8333333333333</ele><time>2026-05-04T14:08:14.706Z</time></trkpt><trkpt lat="43.441925" lon="11.5398033"><ele>614.0</ele><time>2026-05-04T14:08:15.708Z</time></trkpt><trkpt lat="43.44193" lon="11.5396733"><ele>613.5</ele><time>2026-05-04T14:08:16.704Z</time></trkpt><trkpt lat="43.4419383" lon="11.53954"><ele>613.0</ele><time>2026-05-04T14:08:17.705Z</time></trkpt><trkpt lat="43.4419433" lon="11.53942"><ele>612.5</ele><time>2026-05-04T14:08:18.706Z</time></trkpt><trkpt lat="43.4419533" lon="11.5392933"><ele>612.0</ele><time>2026-05-04T14:08:19.706Z</time></trkpt><trkpt lat="43.441965" lon="11.539175"><ele>611.5</ele><time>2026-05-04T14:08:20.707Z</time></trkpt><trkpt lat="43.4419633" lon="11.5390717"><ele>611.0</ele><time>2026-05-04T14:08:21.707Z</time></trkpt><trkpt lat="43.4419467" lon="11.5389817"><ele>611.0</ele><time>2026-05-04T14:08:22.705Z</time></trkpt><trkpt lat="43.4418933" lon="11.5388767"><ele>611.0</ele><time>2026-05-04T14:08:24.706Z</time></trkpt><trkpt lat="43.4418617" lon="11.5387583"><ele>611.0</ele><time>2026-05-04T14:08:28.702Z</time></trkpt><trkpt lat="43.4418933" lon="11.53867"><ele>611.0</ele><time>2026-05-04T14:08:30.706Z</time></trkpt><trkpt lat="43.4419233" lon="11.5385817"><ele>611.0</ele><time>2026-05-04T14:08:32.705Z</time></trkpt><trkpt lat="43.441905" lon="11.5384733"><ele>611.0</ele><time>2026-05-04T14:08:34.708Z</time></trkpt><trkpt lat="43.44188" lon="11.538365"><ele>611.0</ele><time>2026-05-04T14:08:36.706Z</time></trkpt><trkpt lat="43.4419133" lon="11.5382517"><ele>611.0</ele><time>2026-05-04T14:08:38.705Z</time></trkpt><trkpt lat="43.44196" lon="11.5380933"><ele>611.0</ele><time>2026-05-04T14:08:40.705Z</time></trkpt><trkpt lat="43.44198" lon="11.5379917"><ele>611.0</ele><time>2026-05-04T14:08:41.706Z</time></trkpt><trkpt lat="43.442" lon="11.5378783"><ele>611.0</ele><time>2026-05-04T14:08:42.708Z</time></trkpt><trkpt lat="43.4420183" lon="11.5377517"><ele>611.5</ele><time>2026-05-04T14:08:43.707Z</time></trkpt><trkpt lat="43.4420317" lon="11.5376283"><ele>612.0</ele><time>2026-05-04T14:08:44.706Z</time></trkpt><trkpt lat="43.442045" lon="11.5375083"><ele>612.5</ele><time>2026-05-04T14:08:45.707Z</time></trkpt><trkpt lat="43.4420567" lon="11.5374033"><ele>613.0</ele><time>2026-05-04T14:08:46.705Z</time></trkpt><trkpt lat="43.4420733" lon="11.5373083"><ele>613.5</ele><time>2026-05-04T14:08:47.706Z</time></trkpt><trkpt lat="43.44209" lon="11.5372083"><ele>614.0</ele><time>2026-05-04T14:08:48.706Z</time></trkpt><trkpt lat="43.4421067" lon="11.5371033"><ele>614.6</ele><time>2026-05-04T14:08:49.707Z</time></trkpt><trkpt lat="43.4421167" lon="11.5369933"><ele>615.2</ele><time>2026-05-04T14:08:50.705Z</time></trkpt><trkpt lat="43.442125" lon="11.5368817"><ele>615.8000000000001</ele><time>2026-05-04T14:08:51.707Z</time></trkpt><trkpt lat="43.4421283" lon="11.5367433"><ele>616.4</ele><time>2026-05-04T14:08:52.707Z</time></trkpt><trkpt lat="43.4421183" lon="11.5365817"><ele>617.0</ele><time>2026-05-04T14:08:53.707Z</time></trkpt><trkpt lat="43.4421167" lon="11.5364283"><ele>617.0</ele><time>2026-05-04T14:08:54.707Z</time></trkpt><trkpt lat="43.4421167" lon="11.5362867"><ele>617.0</ele><time>2026-05-04T14:08:55.705Z</time></trkpt><trkpt lat="43.44212" lon="11.536165"><ele>617.0</ele><time>2026-05-04T14:08:56.706Z</time></trkpt><trkpt lat="43.4421217" lon="11.5360533"><ele>617.0</ele><time>2026-05-04T14:08:57.707Z</time></trkpt><trkpt lat="43.4421167" lon="11.5359617"><ele>617.0</ele><time>2026-05-04T14:08:58.705Z</time></trkpt><trkpt lat="43.442135" lon="11.535815"><ele>617.0</ele><time>2026-05-04T14:09:00.708Z</time></trkpt><trkpt lat="43.4421933" lon="11.5357117"><ele>619.8000000000001</ele><time>2026-05-04T14:09:02.707Z</time></trkpt><trkpt lat="43.442255" lon="11.5355867"><ele>622.6</ele><time>2026-05-04T14:09:04.707Z</time></trkpt><trkpt lat="43.4422767" lon="11.53543"><ele>625.4000000000001</ele><time>2026-05-04T14:09:06.706Z</time></trkpt><trkpt lat="43.4422733" lon="11.5353217"><ele>628.2</ele><time>2026-05-04T14:09:07.706Z</time></trkpt><trkpt lat="43.4422683" lon="11.5352033"><ele>631.0</ele><time>2026-05-04T14:09:08.705Z</time></trkpt><trkpt lat="43.4422617" lon="11.5350933"><ele>631.5</ele><time>2026-05-04T14:09:09.707Z</time></trkpt><trkpt lat="43.4422517" lon="11.5350017"><ele>632.0</ele><time>2026-05-04T14:09:10.706Z</time></trkpt><trkpt lat="43.4422383" lon="11.5349167"><ele>632.5</ele><time>2026-05-04T14:09:11.706Z</time></trkpt><trkpt lat="43.4421817" lon="11.5347683"><ele>633.0</ele><time>2026-05-04T14:09:13.705Z</time></trkpt><trkpt lat="43.442135" lon="11.5347"><ele>633.5</ele><time>2026-05-04T14:09:14.705Z</time></trkpt><trkpt lat="43.4420667" lon="11.5346617"><ele>634.0</ele><time>2026-05-04T14:09:15.707Z</time></trkpt><trkpt lat="43.4419933" lon="11.5346233"><ele>634.0</ele><time>2026-05-04T14:09:16.706Z</time></trkpt><trkpt lat="43.4418833" lon="11.53456"><ele>634.0</ele><time>2026-05-04T14:09:18.707Z</time></trkpt><trkpt lat="43.44182" lon="11.5345017"><ele>634.0</ele><time>2026-05-04T14:09:19.709Z</time></trkpt><trkpt lat="43.4417633" lon="11.5344133"><ele>634.0</ele><time>2026-05-04T14:09:20.706Z</time></trkpt><trkpt lat="43.441685" lon="11.5343033"><ele>634.0</ele><time>2026-05-04T14:09:21.707Z</time></trkpt><trkpt lat="43.4416167" lon="11.5342083"><ele>635.6666666666667</ele><time>2026-05-04T14:09:22.706Z</time></trkpt><trkpt lat="43.4415683" lon="11.5341167"><ele>637.3333333333334</ele><time>2026-05-04T14:09:23.706Z</time></trkpt><trkpt lat="43.4415283" lon="11.534025"><ele>639.0</ele><time>2026-05-04T14:09:24.705Z</time></trkpt><trkpt lat="43.4415083" lon="11.5339383"><ele>640.6666666666666</ele><time>2026-05-04T14:09:25.706Z</time></trkpt><trkpt lat="43.4415133" lon="11.5338467"><ele>642.3333333333333</ele><time>2026-05-04T14:09:26.706Z</time></trkpt><trkpt lat="43.4415183" lon="11.5337567"><ele>644.0</ele><time>2026-05-04T14:09:27.707Z</time></trkpt><trkpt lat="43.4415117" lon="11.533585"><ele>644.3333333333333</ele><time>2026-05-04T14:09:29.706Z</time></trkpt><trkpt lat="43.441505" lon="11.5334933"><ele>644.6666666666666</ele><time>2026-05-04T14:09:30.706Z</time></trkpt><trkpt lat="43.4414917" lon="11.5333933"><ele>645.0</ele><time>2026-05-04T14:09:31.706Z</time></trkpt><trkpt lat="43.4414733" lon="11.5332833"><ele>645.3333333333334</ele><time>2026-05-04T14:09:32.706Z</time></trkpt><trkpt lat="43.4414417" lon="11.5331583"><ele>645.6666666666667</ele><time>2026-05-04T14:09:33.708Z</time></trkpt><trkpt lat="43.4414083" lon="11.5330333"><ele>646.0</ele><time>2026-05-04T14:09:34.705Z</time></trkpt><trkpt lat="43.4413833" lon="11.5329217"><ele>646.8</ele><time>2026-05-04T14:09:35.706Z</time></trkpt><trkpt lat="43.4413683" lon="11.532815"><ele>647.5999999999999</ele><time>2026-05-04T14:09:36.704Z</time></trkpt><trkpt lat="43.4413533" lon="11.532725"><ele>648.4</ele><time>2026-05-04T14:09:37.706Z</time></trkpt><trkpt lat="43.4413417" lon="11.5325467"><ele>649.2</ele><time>2026-05-04T14:09:39.706Z</time></trkpt><trkpt lat="43.44135" lon="11.532425"><ele>650.0</ele><time>2026-05-04T14:09:40.705Z</time></trkpt><trkpt lat="43.4413633" lon="11.5322917"><ele>650.0</ele><time>2026-05-04T14:09:41.706Z</time></trkpt><trkpt lat="43.4413867" lon="11.5321683"><ele>650.0</ele><time>2026-05-04T14:09:42.706Z</time></trkpt><trkpt lat="43.44141" lon="11.5320517"><ele>650.0</ele><time>2026-05-04T14:09:43.705Z</time></trkpt><trkpt lat="43.4414283" lon="11.5319367"><ele>650.0</ele><time>2026-05-04T14:09:44.706Z</time></trkpt><trkpt lat="43.4414367" lon="11.5318317"><ele>650.0</ele><time>2026-05-04T14:09:45.707Z</time></trkpt><trkpt lat="43.44143" lon="11.5317283"><ele>650.0</ele><time>2026-05-04T14:09:46.707Z</time></trkpt><trkpt lat="43.4414117" lon="11.53162"><ele>650.3333333333333</ele><time>2026-05-04T14:09:47.706Z</time></trkpt><trkpt lat="43.4413783" lon="11.53151"><ele>650.6666666666666</ele><time>2026-05-04T14:09:48.705Z</time></trkpt><trkpt lat="43.4413483" lon="11.5314"><ele>651.0</ele><time>2026-05-04T14:09:49.709Z</time></trkpt><trkpt lat="43.441325" lon="11.5313"><ele>651.3333333333334</ele><time>2026-05-04T14:09:50.706Z</time></trkpt><trkpt lat="43.4413083" lon="11.5312133"><ele>651.6666666666667</ele><time>2026-05-04T14:09:51.708Z</time></trkpt><trkpt lat="43.4412917" lon="11.53106"><ele>652.0</ele><time>2026-05-04T14:09:53.706Z</time></trkpt><trkpt lat="43.4412867" lon="11.5308817"><ele>652.0</ele><time>2026-05-04T14:09:55.704Z</time></trkpt><trkpt lat="43.441285" lon="11.5307867"><ele>652.0</ele><time>2026-05-04T14:09:56.705Z</time></trkpt><trkpt lat="43.4413017" lon="11.5306333"><ele>652.0</ele><time>2026-05-04T14:09:58.706Z</time></trkpt><trkpt lat="43.441325" lon="11.5305"><ele>652.0</ele><time>2026-05-04T14:10:00.707Z</time></trkpt><trkpt lat="43.4413567" lon="11.5303883"><ele>652.0</ele><time>2026-05-04T14:10:02.708Z</time></trkpt><trkpt lat="43.4413683" lon="11.5302883"><ele>652.0</ele><time>2026-05-04T14:10:04.705Z</time></trkpt><trkpt lat="43.4413333" lon="11.530205"><ele>648.5</ele><time>2026-05-04T14:10:06.706Z</time></trkpt><trkpt lat="43.4412283" lon="11.5301417"><ele>645.0</ele><time>2026-05-04T14:10:08.707Z</time></trkpt><trkpt lat="43.4411583" lon="11.5301217"><ele>641.5</ele><time>2026-05-04T14:10:09.707Z</time></trkpt><trkpt lat="43.44109" lon="11.5301117"><ele>638.0</ele><time>2026-05-04T14:10:10.706Z</time></trkpt><trkpt lat="43.4410217" lon="11.530105"><ele>634.5</ele><time>2026-05-04T14:10:11.705Z</time></trkpt><trkpt lat="43.44091" lon="11.5300733"><ele>631.0</ele><time>2026-05-04T14:10:13.706Z</time></trkpt><trkpt lat="43.4408367" lon="11.53"><ele>631.0</ele><time>2026-05-04T14:10:15.706Z</time></trkpt><trkpt lat="43.4408817" lon="11.5299"><ele>631.0</ele><time>2026-05-04T14:10:17.704Z</time></trkpt><trkpt lat="43.4409633" lon="11.5298367"><ele>631.0</ele><time>2026-05-04T14:10:19.705Z</time></trkpt><trkpt lat="43.4409833" lon="11.5297483"><ele>631.0</ele><time>2026-05-04T14:10:21.707Z</time></trkpt><trkpt lat="43.4409267" lon="11.52966"><ele>631.0</ele><time>2026-05-04T14:10:23.705Z</time></trkpt><trkpt lat="43.4408667" lon="11.5295683"><ele>631.0</ele><time>2026-05-04T14:10:25.706Z</time></trkpt><trkpt lat="43.440845" lon="11.5294833"><ele>628.25</ele><time>2026-05-04T14:10:26.7Z</time></trkpt><trkpt lat="43.4408333" lon="11.5293417"><ele>625.5</ele><time>2026-05-04T14:10:27.705Z</time></trkpt><trkpt lat="43.4408383" lon="11.52916"><ele>622.75</ele><time>2026-05-04T14:10:28.706Z</time></trkpt><trkpt lat="43.44084" lon="11.5289883"><ele>620.0</ele><time>2026-05-04T14:10:29.704Z</time></trkpt><trkpt lat="43.44084" lon="11.5288317"><ele>620.4</ele><time>2026-05-04T14:10:30.705Z</time></trkpt><trkpt lat="43.44085" lon="11.5286933"><ele>620.8</ele><time>2026-05-04T14:10:31.704Z</time></trkpt><trkpt lat="43.44088" lon="11.52855"><ele>621.2</ele><time>2026-05-04T14:10:32.7Z</time></trkpt><trkpt lat="43.4409233" lon="11.528415"><ele>621.6</ele><time>2026-05-04T14:10:33.706Z</time></trkpt><trkpt lat="43.4409817" lon="11.5282617"><ele>622.0</ele><time>2026-05-04T14:10:34.705Z</time></trkpt><trkpt lat="43.4410583" lon="11.52811"><ele>622.0</ele><time>2026-05-04T14:10:35.705Z</time></trkpt><trkpt lat="43.4411367" lon="11.52796"><ele>622.0</ele><time>2026-05-04T14:10:36.705Z</time></trkpt><trkpt lat="43.4412133" lon="11.527825"><ele>622.0</ele><time>2026-05-04T14:10:37.707Z</time></trkpt><trkpt lat="43.441285" lon="11.52771"><ele>622.0</ele><time>2026-05-04T14:10:38.706Z</time></trkpt><trkpt lat="43.4413683" lon="11.5276133"><ele>619.5</ele><time>2026-05-04T14:10:39.705Z</time></trkpt><trkpt lat="43.441465" lon="11.5275383"><ele>617.0</ele><time>2026-05-04T14:10:40.704Z</time></trkpt><trkpt lat="43.4415717" lon="11.5274717"><ele>614.5</ele><time>2026-05-04T14:10:41.707Z</time></trkpt><trkpt lat="43.4416983" lon="11.5274"><ele>612.0</ele><time>2026-05-04T14:10:42.707Z</time></trkpt><trkpt lat="43.4418367" lon="11.52732"><ele>612.0</ele><time>2026-05-04T14:10:43.706Z</time></trkpt><trkpt lat="43.4419733" lon="11.5272417"><ele>612.0</ele><time>2026-05-04T14:10:44.705Z</time></trkpt><trkpt lat="43.4421017" lon="11.5271883"><ele>612.0</ele><time>2026-05-04T14:10:45.708Z</time></trkpt><trkpt lat="43.4422333" lon="11.52717"><ele>612.0</ele><time>2026-05-04T14:10:46.706Z</time></trkpt><trkpt lat="43.44238" lon="11.5271867"><ele>611.25</ele><time>2026-05-04T14:10:47.706Z</time></trkpt><trkpt lat="43.4425217" lon="11.52721"><ele>610.5</ele><time>2026-05-04T14:10:48.707Z</time></trkpt><trkpt lat="43.4426533" lon="11.52722"><ele>609.75</ele><time>2026-05-04T14:10:49.705Z</time></trkpt><trkpt lat="43.44277" lon="11.5272167"><ele>609.0</ele><time>2026-05-04T14:10:50.707Z</time></trkpt><trkpt lat="43.4428667" lon="11.5271917"><ele>609.0</ele><time>2026-05-04T14:10:51.706Z</time></trkpt><trkpt lat="43.442945" lon="11.5271433"><ele>609.0</ele><time>2026-05-04T14:10:52.707Z</time></trkpt><trkpt lat="43.44302" lon="11.52707"><ele>609.0</ele><time>2026-05-04T14:10:53.705Z</time></trkpt><trkpt lat="43.44309" lon="11.5269317"><ele>609.0</ele><time>2026-05-04T14:10:54.707Z</time></trkpt><trkpt lat="43.4431483" lon="11.5267883"><ele>609.0</ele><time>2026-05-04T14:10:55.705Z</time></trkpt><trkpt lat="43.44319" lon="11.5266467"><ele>610.75</ele><time>2026-05-04T14:10:56.706Z</time></trkpt><trkpt lat="43.44321" lon="11.5265017"><ele>612.5</ele><time>2026-05-04T14:10:57.705Z</time></trkpt><trkpt lat="43.443205" lon="11.526335"><ele>614.25</ele><time>2026-05-04T14:10:58.705Z</time></trkpt><trkpt lat="43.4431767" lon="11.5261583"><ele>616.0</ele><time>2026-05-04T14:10:59.705Z</time></trkpt><trkpt lat="43.443135" lon="11.5259567"><ele>616.0</ele><time>2026-05-04T14:11:00.707Z</time></trkpt><trkpt lat="43.4430767" lon="11.5257317"><ele>616.0</ele><time>2026-05-04T14:11:01.707Z</time></trkpt><trkpt lat="43.4430167" lon="11.5255183"><ele>616.0</ele><time>2026-05-04T14:11:02.704Z</time></trkpt><trkpt lat="43.4429517" lon="11.5253167"><ele>617.0</ele><time>2026-05-04T14:11:03.705Z</time></trkpt><trkpt lat="43.44288" lon="11.525115"><ele>618.0</ele><time>2026-05-04T14:11:04.706Z</time></trkpt><trkpt lat="43.4428183" lon="11.5249383"><ele>619.0</ele><time>2026-05-04T14:11:05.704Z</time></trkpt><trkpt lat="43.44275" lon="11.524785"><ele>620.0</ele><time>2026-05-04T14:11:06.707Z</time></trkpt><trkpt lat="43.4426733" lon="11.5246583"><ele>623.2</ele><time>2026-05-04T14:11:07.706Z</time></trkpt><trkpt lat="43.44259" lon="11.5245433"><ele>626.4</ele><time>2026-05-04T14:11:08.704Z</time></trkpt><trkpt lat="43.442505" lon="11.5244433"><ele>629.6</ele><time>2026-05-04T14:11:09.706Z</time></trkpt><trkpt lat="43.4424317" lon="11.5243433"><ele>632.8</ele><time>2026-05-04T14:11:10.706Z</time></trkpt><trkpt lat="43.4423783" lon="11.5242333"><ele>636.0</ele><time>2026-05-04T14:11:11.705Z</time></trkpt><trkpt lat="43.442345" lon="11.5241233"><ele>636.0</ele><time>2026-05-04T14:11:12.706Z</time></trkpt><trkpt lat="43.4423283" lon="11.5240067"><ele>636.0</ele><time>2026-05-04T14:11:13.704Z</time></trkpt><trkpt lat="43.4423233" lon="11.5239017"><ele>636.0</ele><time>2026-05-04T14:11:14.706Z</time></trkpt><trkpt lat="43.4423017" lon="11.5238083"><ele>636.0</ele><time>2026-05-04T14:11:15.705Z</time></trkpt><trkpt lat="43.4422783" lon="11.523725"><ele>636.0</ele><time>2026-05-04T14:11:16.704Z</time></trkpt><trkpt lat="43.442235" lon="11.52366"><ele>636.0</ele><time>2026-05-04T14:11:17.706Z</time></trkpt><trkpt lat="43.4421483" lon="11.5236183"><ele>637.25</ele><time>2026-05-04T14:11:18.706Z</time></trkpt><trkpt lat="43.4420433" lon="11.523565"><ele>638.5</ele><time>2026-05-04T14:11:19.706Z</time></trkpt><trkpt lat="43.4419133" lon="11.52347"><ele>639.75</ele><time>2026-05-04T14:11:20.705Z</time></trkpt><trkpt lat="43.4417833" lon="11.5233817"><ele>641.0</ele><time>2026-05-04T14:11:21.707Z</time></trkpt><trkpt lat="43.4416617" lon="11.5232983"><ele>641.0</ele><time>2026-05-04T14:11:22.705Z</time></trkpt><trkpt lat="43.4415533" lon="11.5232317"><ele>641.0</ele><time>2026-05-04T14:11:23.704Z</time></trkpt><trkpt lat="43.4414783" lon="11.5231617"><ele>641.0</ele><time>2026-05-04T14:11:24.704Z</time></trkpt><trkpt lat="43.441405" lon="11.523025"><ele>641.0</ele><time>2026-05-04T14:11:26.704Z</time></trkpt><trkpt lat="43.441395" lon="11.5228467"><ele>642.75</ele><time>2026-05-04T14:11:28.704Z</time></trkpt><trkpt lat="43.441455" lon="11.5226983"><ele>644.5</ele><time>2026-05-04T14:11:29.704Z</time></trkpt><trkpt lat="43.44153" lon="11.5225367"><ele>646.25</ele><time>2026-05-04T14:11:30.704Z</time></trkpt><trkpt lat="43.4416033" lon="11.522385"><ele>648.0</ele><time>2026-05-04T14:11:31.704Z</time></trkpt><trkpt lat="43.4416667" lon="11.5222733"><ele>648.0</ele><time>2026-05-04T14:11:32.704Z</time></trkpt><trkpt lat="43.4417417" lon="11.5221783"><ele>648.0</ele><time>2026-05-04T14:11:33.707Z</time></trkpt><trkpt lat="43.4418333" lon="11.5220883"><ele>648.0</ele><time>2026-05-04T14:11:34.706Z</time></trkpt><trkpt lat="43.4419467" lon="11.52199"><ele>648.0</ele><time>2026-05-04T14:11:35.705Z</time></trkpt><trkpt lat="43.4420617" lon="11.5218817"><ele>649.3333333333334</ele><time>2026-05-04T14:11:36.705Z</time></trkpt><trkpt lat="43.442185" lon="11.5217583"><ele>650.6666666666667</ele><time>2026-05-04T14:11:37.705Z</time></trkpt><trkpt lat="43.44231" lon="11.5216317"><ele>652.0</ele><time>2026-05-04T14:11:38.705Z</time></trkpt><trkpt lat="43.4424217" lon="11.5215083"><ele>652.0</ele><time>2026-05-04T14:11:39.706Z</time></trkpt><trkpt lat="43.44252" lon="11.52139"><ele>652.0</ele><time>2026-05-04T14:11:40.706Z</time></trkpt><trkpt lat="43.4426017" lon="11.5212633"><ele>652.0</ele><time>2026-05-04T14:11:41.705Z</time></trkpt><trkpt lat="43.4426783" lon="11.5211067"><ele>652.0</ele><time>2026-05-04T14:11:42.705Z</time></trkpt><trkpt lat="43.442755" lon="11.5209133"><ele>652.3333333333334</ele><time>2026-05-04T14:11:43.706Z</time></trkpt><trkpt lat="43.4428317" lon="11.5206933"><ele>652.6666666666666</ele><time>2026-05-04T14:11:44.705Z</time></trkpt><trkpt lat="43.44292" lon="11.52047"><ele>653.0</ele><time>2026-05-04T14:11:45.705Z</time></trkpt><trkpt lat="43.4429983" lon="11.5202717"><ele>653.0</ele><time>2026-05-04T14:11:46.706Z</time></trkpt><trkpt lat="43.4430683" lon="11.5201033"><ele>653.0</ele><time>2026-05-04T14:11:47.705Z</time></trkpt><trkpt lat="43.4431283" lon="11.5199717"><ele>653.0</ele><time>2026-05-04T14:11:48.706Z</time></trkpt><trkpt lat="43.443165" lon="11.5198883"><ele>653.0</ele><time>2026-05-04T14:11:49.707Z</time></trkpt><trkpt lat="43.4431833" lon="11.51978"><ele>653.0</ele><time>2026-05-04T14:11:51.706Z</time></trkpt><trkpt lat="43.4430933" lon="11.5197333"><ele>653.0</ele><time>2026-05-04T14:11:53.705Z</time></trkpt><trkpt lat="43.4429883" lon="11.519645"><ele>653.0</ele><time>2026-05-04T14:11:55.706Z</time></trkpt><trkpt lat="43.4429233" lon="11.5195733"><ele>653.0</ele><time>2026-05-04T14:11:56.707Z</time></trkpt><trkpt lat="43.4428733" lon="11.5194983"><ele>653.0</ele><time>2026-05-04T14:11:57.708Z</time></trkpt><trkpt lat="43.4428317" lon="11.5194183"><ele>653.0</ele><time>2026-05-04T14:11:58.706Z</time></trkpt><trkpt lat="43.4428017" lon="11.5193233"><ele>653.0</ele><time>2026-05-04T14:11:59.705Z</time></trkpt><trkpt lat="43.44279" lon="11.51921"><ele>653.0</ele><time>2026-05-04T14:12:00.705Z</time></trkpt><trkpt lat="43.4427967" lon="11.5190833"><ele>653.0</ele><time>2026-05-04T14:12:01.707Z</time></trkpt><trkpt lat="43.4428067" lon="11.51897"><ele>653.0</ele><time>2026-05-04T14:12:02.706Z</time></trkpt><trkpt lat="43.4428167" lon="11.5188583"><ele>653.0</ele><time>2026-05-04T14:12:03.706Z</time></trkpt><trkpt lat="43.442825" lon="11.51875"><ele>653.0</ele><time>2026-05-04T14:12:04.706Z</time></trkpt><trkpt lat="43.4428417" lon="11.5186417"><ele>653.0</ele><time>2026-05-04T14:12:05.704Z</time></trkpt><trkpt lat="43.4428683" lon="11.518535"><ele>653.6666666666666</ele><time>2026-05-04T14:12:06.704Z</time></trkpt><trkpt lat="43.44289" lon="11.5184283"><ele>654.3333333333333</ele><time>2026-05-04T14:12:07.706Z</time></trkpt><trkpt lat="43.442905" lon="11.5183317"><ele>655.0</ele><time>2026-05-04T14:12:08.706Z</time></trkpt><trkpt lat="43.4429217" lon="11.5182267"><ele>655.6666666666666</ele><time>2026-05-04T14:12:09.707Z</time></trkpt><trkpt lat="43.4429433" lon="11.518125"><ele>656.3333333333334</ele><time>2026-05-04T14:12:10.706Z</time></trkpt><trkpt lat="43.4429717" lon="11.5180133"><ele>657.0</ele><time>2026-05-04T14:12:11.705Z</time></trkpt><trkpt lat="43.443005" lon="11.5179033"><ele>660.5</ele><time>2026-05-04T14:12:12.706Z</time></trkpt><trkpt lat="43.4430333" lon="11.5177917"><ele>664.0</ele><time>2026-05-04T14:12:13.706Z</time></trkpt><trkpt lat="43.4430583" lon="11.5176783"><ele>667.5</ele><time>2026-05-04T14:12:14.706Z</time></trkpt><trkpt lat="43.443075" lon="11.517565"><ele>671.0</ele><time>2026-05-04T14:12:15.708Z</time></trkpt><trkpt lat="43.4430833" lon="11.5174567"><ele>674.5</ele><time>2026-05-04T14:12:16.706Z</time></trkpt><trkpt lat="43.4430867" lon="11.517355"><ele>678.0</ele><time>2026-05-04T14:12:17.706Z</time></trkpt><trkpt lat="43.4430833" lon="11.5172483"><ele>678.0</ele><time>2026-05-04T14:12:18.705Z</time></trkpt><trkpt lat="43.44306" lon="11.5171383"><ele>678.0</ele><time>2026-05-04T14:12:19.706Z</time></trkpt><trkpt lat="43.44303" lon="11.517025"><ele>678.0</ele><time>2026-05-04T14:12:20.706Z</time></trkpt><trkpt lat="43.443" lon="11.5169117"><ele>678.0</ele><time>2026-05-04T14:12:21.707Z</time></trkpt><trkpt lat="43.4429667" lon="11.5167917"><ele>678.0</ele><time>2026-05-04T14:12:22.704Z</time></trkpt><trkpt lat="43.44293" lon="11.5166733"><ele>678.0</ele><time>2026-05-04T14:12:23.706Z</time></trkpt><trkpt lat="43.4428983" lon="11.516565"><ele>677.6666666666666</ele><time>2026-05-04T14:12:24.706Z</time></trkpt><trkpt lat="43.4428783" lon="11.516455"><ele>677.3333333333334</ele><time>2026-05-04T14:12:25.705Z</time></trkpt><trkpt lat="43.4428633" lon="11.516335"><ele>677.0</ele><time>2026-05-04T14:12:26.705Z</time></trkpt><trkpt lat="43.4428467" lon="11.516215"><ele>676.6666666666667</ele><time>2026-05-04T14:12:27.705Z</time></trkpt><trkpt lat="43.4428367" lon="11.5160817"><ele>676.3333333333334</ele><time>2026-05-04T14:12:28.705Z</time></trkpt><trkpt lat="43.442845" lon="11.5159567"><ele>676.0</ele><time>2026-05-04T14:12:29.705Z</time></trkpt><trkpt lat="43.442865" lon="11.5158383"><ele>676.0</ele><time>2026-05-04T14:12:30.706Z</time></trkpt><trkpt lat="43.442885" lon="11.5157233"><ele>676.0</ele><time>2026-05-04T14:12:31.706Z</time></trkpt><trkpt lat="43.4429067" lon="11.5156167"><ele>676.0</ele><time>2026-05-04T14:12:32.706Z</time></trkpt><trkpt lat="43.4429333" lon="11.5155283"><ele>676.0</ele><time>2026-05-04T14:12:33.707Z</time></trkpt><trkpt lat="43.4430267" lon="11.5154283"><ele>676.0</ele><time>2026-05-04T14:12:35.711Z</time></trkpt><trkpt lat="43.4431517" lon="11.5154433"><ele>678.1666666666667</ele><time>2026-05-04T14:12:37.707Z</time></trkpt><trkpt lat="43.4432217" lon="11.515445"><ele>680.3333333333334</ele><time>2026-05-04T14:12:38.707Z</time></trkpt><trkpt lat="43.4433067" lon="11.5154417"><ele>682.5</ele><time>2026-05-04T14:12:39.707Z</time></trkpt><trkpt lat="43.4433983" lon="11.5154333"><ele>684.6666666666666</ele><time>2026-05-04T14:12:40.706Z</time></trkpt><trkpt lat="43.443485" lon="11.5154217"><ele>686.8333333333333</ele><time>2026-05-04T14:12:41.706Z</time></trkpt><trkpt lat="43.4435667" lon="11.5154033"><ele>689.0</ele><time>2026-05-04T14:12:42.708Z</time></trkpt><trkpt lat="43.443665" lon="11.5153683"><ele>689.0</ele><time>2026-05-04T14:12:43.706Z</time></trkpt><trkpt lat="43.4437683" lon="11.5153183"><ele>689.0</ele><time>2026-05-04T14:12:44.707Z</time></trkpt><trkpt lat="43.4438617" lon="11.51527"><ele>689.0</ele><time>2026-05-04T14:12:45.706Z</time></trkpt><trkpt lat="43.4439433" lon="11.5152133"><ele>689.0</ele><time>2026-05-04T14:12:46.706Z</time></trkpt><trkpt lat="43.4440117" lon="11.5151667"><ele>689.0</ele><time>2026-05-04T14:12:47.706Z</time></trkpt><trkpt lat="43.4440683" lon="11.5151133"><ele>689.0</ele><time>2026-05-04T14:12:48.706Z</time></trkpt><trkpt lat="43.4441117" lon="11.51504"><ele>692.3333333333333</ele><time>2026-05-04T14:12:49.707Z</time></trkpt><trkpt lat="43.4441433" lon="11.514945"><ele>695.6666666666666</ele><time>2026-05-04T14:12:50.706Z</time></trkpt><trkpt lat="43.4441683" lon="11.5148333"><ele>699.0</ele><time>2026-05-04T14:12:51.707Z</time></trkpt><trkpt lat="43.4441733" lon="11.5147017"><ele>702.3333333333334</ele><time>2026-05-04T14:12:52.705Z</time></trkpt><trkpt lat="43.4441733" lon="11.514575"><ele>705.6666666666667</ele><time>2026-05-04T14:12:53.707Z</time></trkpt><trkpt lat="43.4441767" lon="11.5144583"><ele>709.0</ele><time>2026-05-04T14:12:54.707Z</time></trkpt><trkpt lat="43.4441883" lon="11.5143433"><ele>709.2</ele><time>2026-05-04T14:12:55.706Z</time></trkpt><trkpt lat="43.4442033" lon="11.5142317"><ele>709.4000000000001</ele><time>2026-05-04T14:12:56.705Z</time></trkpt><trkpt lat="43.4442067" lon="11.5141233"><ele>709.6</ele><time>2026-05-04T14:12:57.706Z</time></trkpt><trkpt lat="43.4441983" lon="11.5140017"><ele>709.8</ele><time>2026-05-04T14:12:58.706Z</time></trkpt><trkpt lat="43.4441933" lon="11.5138567"><ele>710.0</ele><time>2026-05-04T14:12:59.705Z</time></trkpt><trkpt lat="43.44418" lon="11.5136933"><ele>710.0</ele><time>2026-05-04T14:13:00.707Z</time></trkpt><trkpt lat="43.4441633" lon="11.51354"><ele>710.0</ele><time>2026-05-04T14:13:01.707Z</time></trkpt><trkpt lat="43.4441617" lon="11.5134133"><ele>710.0</ele><time>2026-05-04T14:13:02.707Z</time></trkpt><trkpt lat="43.4441683" lon="11.5133183"><ele>710.0</ele><time>2026-05-04T14:13:03.708Z</time></trkpt><trkpt lat="43.4442167" lon="11.5131617"><ele>710.0</ele><time>2026-05-04T14:13:05.706Z</time></trkpt><trkpt lat="43.44427" lon="11.5131"><ele>710.0</ele><time>2026-05-04T14:13:06.706Z</time></trkpt><trkpt lat="43.4443483" lon="11.513015"><ele>710.0</ele><time>2026-05-04T14:13:07.707Z</time></trkpt><trkpt lat="43.44442" lon="11.5129333"><ele>710.0</ele><time>2026-05-04T14:13:08.705Z</time></trkpt><trkpt lat="43.4444917" lon="11.5128417"><ele>710.0</ele><time>2026-05-04T14:13:09.706Z</time></trkpt><trkpt lat="43.44456" lon="11.5127367"><ele>710.0</ele><time>2026-05-04T14:13:10.706Z</time></trkpt><trkpt lat="43.444635" lon="11.5126233"><ele>713.4</ele><time>2026-05-04T14:13:11.705Z</time></trkpt><trkpt lat="43.444705" lon="11.5125217"><ele>716.8</ele><time>2026-05-04T14:13:12.706Z</time></trkpt><trkpt lat="43.4447683" lon="11.5124333"><ele>720.2</ele><time>2026-05-04T14:13:13.706Z</time></trkpt><trkpt lat="43.4448317" lon="11.5123517"><ele>723.6</ele><time>2026-05-04T14:13:14.701Z</time></trkpt><trkpt lat="43.4448967" lon="11.5122867"><ele>727.0</ele><time>2026-05-04T14:13:15.706Z</time></trkpt><trkpt lat="43.4449783" lon="11.5122283"><ele>727.0</ele><time>2026-05-04T14:13:16.706Z</time></trkpt><trkpt lat="43.4450717" lon="11.51219"><ele>727.0</ele><time>2026-05-04T14:13:17.704Z</time></trkpt><trkpt lat="43.4451717" lon="11.5121817"><ele>727.0</ele><time>2026-05-04T14:13:18.707Z</time></trkpt><trkpt lat="43.4452683" lon="11.5121667"><ele>727.0</ele><time>2026-05-04T14:13:19.705Z</time></trkpt><trkpt lat="43.4453467" lon="11.512155"><ele>727.0</ele><time>2026-05-04T14:13:20.705Z</time></trkpt><trkpt lat="43.4454233" lon="11.51214"><ele>725.2</ele><time>2026-05-04T14:13:21.707Z</time></trkpt><trkpt lat="43.4455067" lon="11.5120783"><ele>723.4000000000001</ele><time>2026-05-04T14:13:23.706Z</time></trkpt><trkpt lat="43.4455433" lon="11.5119833"><ele>721.5999999999999</ele><time>2026-05-04T14:13:25.706Z</time></trkpt><trkpt lat="43.4455617" lon="11.5118517"><ele>719.8</ele><time>2026-05-04T14:13:27.705Z</time></trkpt><trkpt lat="43.445565" lon="11.5116917"><ele>718.0</ele><time>2026-05-04T14:13:29.705Z</time></trkpt><trkpt lat="43.44557" lon="11.51159"><ele>718.0</ele><time>2026-05-04T14:13:30.705Z</time></trkpt><trkpt lat="43.445575" lon="11.5114883"><ele>718.0</ele><time>2026-05-04T14:13:31.707Z</time></trkpt><trkpt lat="43.4455833" lon="11.51138"><ele>718.0</ele><time>2026-05-04T14:13:32.706Z</time></trkpt><trkpt lat="43.4455817" lon="11.51128"><ele>718.0</ele><time>2026-05-04T14:13:33.706Z</time></trkpt><trkpt lat="43.4455817" lon="11.5111883"><ele>718.0</ele><time>2026-05-04T14:13:34.706Z</time></trkpt><trkpt lat="43.44558" lon="11.5110367"><ele>718.0</ele><time>2026-05-04T14:13:36.706Z</time></trkpt><trkpt lat="43.4455767" lon="11.51092"><ele>720.1666666666667</ele><time>2026-05-04T14:13:38.705Z</time></trkpt><trkpt lat="43.445565" lon="11.5107683"><ele>722.3333333333334</ele><time>2026-05-04T14:13:40.705Z</time></trkpt><trkpt lat="43.4455467" lon="11.5106683"><ele>724.5</ele><time>2026-05-04T14:13:41.706Z</time></trkpt><trkpt lat="43.4455233" lon="11.5105667"><ele>726.6666666666666</ele><time>2026-05-04T14:13:42.707Z</time></trkpt><trkpt lat="43.4455017" lon="11.51047"><ele>728.8333333333333</ele><time>2026-05-04T14:13:43.707Z</time></trkpt><trkpt lat="43.44548" lon="11.51037"><ele>731.0</ele><time>2026-05-04T14:13:44.706Z</time></trkpt><trkpt lat="43.44546" lon="11.51027"><ele>731.1428571428571</ele><time>2026-05-04T14:13:45.706Z</time></trkpt><trkpt lat="43.445445" lon="11.51017"><ele>731.2857142857142</ele><time>2026-05-04T14:13:46.704Z</time></trkpt><trkpt lat="43.4454283" lon="11.5100717"><ele>731.4285714285714</ele><time>2026-05-04T14:13:47.706Z</time></trkpt><trkpt lat="43.4454117" lon="11.5099683"><ele>731.5714285714286</ele><time>2026-05-04T14:13:48.706Z</time></trkpt><trkpt lat="43.445395" lon="11.50987"><ele>731.7142857142858</ele><time>2026-05-04T14:13:49.707Z</time></trkpt><trkpt lat="43.4453767" lon="11.50977"><ele>731.8571428571429</ele><time>2026-05-04T14:13:50.706Z</time></trkpt><trkpt lat="43.44535" lon="11.509675"><ele>732.0</ele><time>2026-05-04T14:13:51.708Z</time></trkpt><trkpt lat="43.4453183" lon="11.50958"><ele>736.0</ele><time>2026-05-04T14:13:52.707Z</time></trkpt><trkpt lat="43.44527" lon="11.5094833"><ele>740.0</ele><time>2026-05-04T14:13:53.707Z</time></trkpt><trkpt lat="43.445225" lon="11.50939"><ele>744.0</ele><time>2026-05-04T14:13:54.707Z</time></trkpt><trkpt lat="43.4451833" lon="11.509305"><ele>748.0</ele><time>2026-05-04T14:13:55.705Z</time></trkpt><trkpt lat="43.4451383" lon="11.5092317"><ele>752.0</ele><time>2026-05-04T14:13:56.703Z</time></trkpt><trkpt lat="43.4450867" lon="11.5091533"><ele>756.0</ele><time>2026-05-04T14:13:58.704Z</time></trkpt><trkpt lat="43.4451417" lon="11.5092217"><ele>756.0</ele><time>2026-05-04T14:14:04.705Z</time></trkpt><trkpt lat="43.4451667" lon="11.5093033"><ele>756.0</ele><time>2026-05-04T14:14:05.706Z</time></trkpt><trkpt lat="43.4451883" lon="11.5093867"><ele>756.0</ele><time>2026-05-04T14:14:06.705Z</time></trkpt><trkpt lat="43.445215" lon="11.509485"><ele>756.0</ele><time>2026-05-04T14:14:07.708Z</time></trkpt><trkpt lat="43.4452567" lon="11.50961"><ele>756.0</ele><time>2026-05-04T14:14:08.706Z</time></trkpt><trkpt lat="43.4452933" lon="11.5097483"><ele>756.0</ele><time>2026-05-04T14:14:09.706Z</time></trkpt><trkpt lat="43.4453117" lon="11.50987"><ele>751.1999999999999</ele><time>2026-05-04T14:14:10.706Z</time></trkpt><trkpt lat="43.44533" lon="11.5099967"><ele>746.4</ele><time>2026-05-04T14:14:11.706Z</time></trkpt><trkpt lat="43.4453433" lon="11.510125"><ele>741.6</ele><time>2026-05-04T14:14:12.706Z</time></trkpt><trkpt lat="43.44536" lon="11.510255"><ele>736.8</ele><time>2026-05-04T14:14:13.707Z</time></trkpt><trkpt lat="43.4453833" lon="11.51038"><ele>732.0</ele><time>2026-05-04T14:14:14.706Z</time></trkpt><trkpt lat="43.4454267" lon="11.5105317"><ele>731.8333333333334</ele><time>2026-05-04T14:14:15.706Z</time></trkpt><trkpt lat="43.4454583" lon="11.5106467"><ele>731.6666666666666</ele><time>2026-05-04T14:14:16.705Z</time></trkpt><trkpt lat="43.4454833" lon="11.5107317"><ele>731.5</ele><time>2026-05-04T14:14:17.706Z</time></trkpt><trkpt lat="43.445525" lon="11.51081"><ele>731.3333333333333</ele><time>2026-05-04T14:14:19.709Z</time></trkpt><trkpt lat="43.44561" lon="11.5107567"><ele>731.1666666666666</ele><time>2026-05-04T14:14:23.706Z</time></trkpt><trkpt lat="43.445655" lon="11.510625"><ele>731.0</ele><time>2026-05-04T14:14:25.709Z</time></trkpt><trkpt lat="43.445705" lon="11.5104633"><ele>733.6666666666666</ele><time>2026-05-04T14:14:27.707Z</time></trkpt><trkpt lat="43.44574" lon="11.5103667"><ele>736.3333333333333</ele><time>2026-05-04T14:14:28.705Z</time></trkpt><trkpt lat="43.4457733" lon="11.5102517"><ele>739.0</ele><time>2026-05-04T14:14:29.707Z</time></trkpt><trkpt lat="43.4458067" lon="11.510135"><ele>741.6666666666666</ele><time>2026-05-04T14:14:30.706Z</time></trkpt><trkpt lat="43.4458333" lon="11.5100183"><ele>744.3333333333334</ele><time>2026-05-04T14:14:31.707Z</time></trkpt><trkpt lat="43.4458517" lon="11.5099067"><ele>747.0</ele><time>2026-05-04T14:14:32.706Z</time></trkpt><trkpt lat="43.445865" lon="11.5097967"><ele>746.9999999999999</ele><time>2026-05-04T14:14:33.705Z</time></trkpt><trkpt lat="43.445875" lon="11.5096867"><ele>747.0</ele><time>2026-05-04T14:14:34.707Z</time></trkpt><trkpt lat="43.4458983" lon="11.509595"><ele>747.0</ele><time>2026-05-04T14:14:35.706Z</time></trkpt><trkpt lat="43.445935" lon="11.5095"><ele>747.0</ele><time>2026-05-04T14:14:36.706Z</time></trkpt><trkpt lat="43.4459733" lon="11.5094117"><ele>747.0</ele><time>2026-05-04T14:14:37.706Z</time></trkpt><trkpt lat="43.4460067" lon="11.5093317"><ele>746.9999999999999</ele><time>2026-05-04T14:14:38.704Z</time></trkpt><trkpt lat="43.4460617" lon="11.5092817"><ele>747.0</ele><time>2026-05-04T14:14:39.706Z</time></trkpt><trkpt lat="43.44614" lon="11.509245"><ele>747.6666666666666</ele><time>2026-05-04T14:14:40.705Z</time></trkpt><trkpt lat="43.4462217" lon="11.5092183"><ele>748.3333333333334</ele><time>2026-05-04T14:14:41.706Z</time></trkpt><trkpt lat="43.4463333" lon="11.5091417"><ele>749.0</ele><time>2026-05-04T14:14:43.705Z</time></trkpt><trkpt lat="43.4463867" lon="11.5090517"><ele>749.6666666666667</ele><time>2026-05-04T14:14:45.705Z</time></trkpt><trkpt lat="43.4463467" lon="11.5089667"><ele>750.3333333333334</ele><time>2026-05-04T14:14:47.706Z</time></trkpt><trkpt lat="43.4462767" lon="11.50892"><ele>751.0</ele><time>2026-05-04T14:14:49.705Z</time></trkpt><trkpt lat="43.4462117" lon="11.508875"><ele>751.0</ele><time>2026-05-04T14:14:53.705Z</time></trkpt><trkpt lat="43.4462867" lon="11.508945"><ele>751.0</ele><time>2026-05-04T14:15:05.704Z</time></trkpt><trkpt lat="43.446355" lon="11.5090033"><ele>751.0</ele><time>2026-05-04T14:15:08.706Z</time></trkpt><trkpt lat="43.4463983" lon="11.5090983"><ele>751.0</ele><time>2026-05-04T14:15:11.706Z</time></trkpt><trkpt lat="43.4463617" lon="11.5091883"><ele>751.0</ele><time>2026-05-04T14:15:13.708Z</time></trkpt><trkpt lat="43.44628" lon="11.5092517"><ele>751.0</ele><time>2026-05-04T14:15:15.706Z</time></trkpt><trkpt lat="43.4461783" lon="11.5092883"><ele>750.1999999999999</ele><time>2026-05-04T14:15:17.706Z</time></trkpt><trkpt lat="43.4460817" lon="11.5093483"><ele>749.4</ele><time>2026-05-04T14:15:19.707Z</time></trkpt><trkpt lat="43.446005" lon="11.509445"><ele>748.6</ele><time>2026-05-04T14:15:21.707Z</time></trkpt><trkpt lat="43.4459533" lon="11.5095617"><ele>747.8</ele><time>2026-05-04T14:15:23.705Z</time></trkpt><trkpt lat="43.4459217" lon="11.5096867"><ele>747.0</ele><time>2026-05-04T14:15:25.701Z</time></trkpt><trkpt lat="43.4459167" lon="11.5098133"><ele>747.0</ele><time>2026-05-04T14:15:27.707Z</time></trkpt><trkpt lat="43.4459067" lon="11.5099367"><ele>747.0</ele><time>2026-05-04T14:15:29.705Z</time></trkpt><trkpt lat="43.445875" lon="11.5100917"><ele>747.0</ele><time>2026-05-04T14:15:31.705Z</time></trkpt><trkpt lat="43.445835" lon="11.510175"><ele>747.0</ele><time>2026-05-04T14:15:32.706Z</time></trkpt><trkpt lat="43.445795" lon="11.5102583"><ele>747.0</ele><time>2026-05-04T14:15:33.705Z</time></trkpt><trkpt lat="43.4457517" lon="11.5103283"><ele>747.0</ele><time>2026-05-04T14:15:34.705Z</time></trkpt><trkpt lat="43.4457183" lon="11.5104067"><ele>743.8</ele><time>2026-05-04T14:15:35.706Z</time></trkpt><trkpt lat="43.4456533" lon="11.510505"><ele>740.6</ele><time>2026-05-04T14:15:37.707Z</time></trkpt><trkpt lat="43.4456067" lon="11.5106267"><ele>737.4</ele><time>2026-05-04T14:15:39.706Z</time></trkpt><trkpt lat="43.4455783" lon="11.5107617"><ele>734.1999999999999</ele><time>2026-05-04T14:15:41.704Z</time></trkpt><trkpt lat="43.4455383" lon="11.51094"><ele>731.0</ele><time>2026-05-04T14:15:43.706Z</time></trkpt><trkpt lat="43.4455333" lon="11.51106"><ele>731.0</ele><time>2026-05-04T14:15:44.706Z</time></trkpt><trkpt lat="43.4455283" lon="11.51118"><ele>731.0</ele><time>2026-05-04T14:15:45.706Z</time></trkpt><trkpt lat="43.4455283" lon="11.511305"><ele>731.0</ele><time>2026-05-04T14:15:46.706Z</time></trkpt><trkpt lat="43.4455333" lon="11.5114367"><ele>731.0</ele><time>2026-05-04T14:15:47.706Z</time></trkpt><trkpt lat="43.445535" lon="11.511555"><ele>731.0</ele><time>2026-05-04T14:15:48.707Z</time></trkpt><trkpt lat="43.4455333" lon="11.5116683"><ele>731.0</ele><time>2026-05-04T14:15:49.708Z</time></trkpt><trkpt lat="43.4455333" lon="11.5117767"><ele>730.3333333333333</ele><time>2026-05-04T14:15:50.708Z</time></trkpt><trkpt lat="43.4455267" lon="11.5118683"><ele>729.6666666666666</ele><time>2026-05-04T14:15:51.712Z</time></trkpt><trkpt lat="43.445515" lon="11.511955"><ele>729.0</ele><time>2026-05-04T14:15:52.706Z</time></trkpt><trkpt lat="43.4454467" lon="11.5120783"><ele>728.3333333333334</ele><time>2026-05-04T14:15:54.705Z</time></trkpt><trkpt lat="43.4453833" lon="11.5121267"><ele>727.6666666666667</ele><time>2026-05-04T14:15:55.711Z</time></trkpt><trkpt lat="43.445305" lon="11.512165"><ele>727.0</ele><time>2026-05-04T14:15:56.707Z</time></trkpt><trkpt lat="43.4452" lon="11.5121983"><ele>727.0</ele><time>2026-05-04T14:15:57.706Z</time></trkpt><trkpt lat="43.445095" lon="11.5122267"><ele>727.0</ele><time>2026-05-04T14:15:58.706Z</time></trkpt><trkpt lat="43.444995" lon="11.512275"><ele>727.0</ele><time>2026-05-04T14:15:59.705Z</time></trkpt><trkpt lat="43.4449167" lon="11.5123317"><ele>727.0</ele><time>2026-05-04T14:16:00.707Z</time></trkpt><trkpt lat="43.4448417" lon="11.512405"><ele>727.0</ele><time>2026-05-04T14:16:01.706Z</time></trkpt><trkpt lat="43.4447717" lon="11.51248"><ele>727.0</ele><time>2026-05-04T14:16:02.706Z</time></trkpt><trkpt lat="43.4447" lon="11.5125583"><ele>727.0</ele><time>2026-05-04T14:16:03.706Z</time></trkpt><trkpt lat="43.4446317" lon="11.51265"><ele>727.0</ele><time>2026-05-04T14:16:04.706Z</time></trkpt><trkpt lat="43.4445717" lon="11.51276"><ele>727.0</ele><time>2026-05-04T14:16:05.705Z</time></trkpt><trkpt lat="43.4445183" lon="11.5128517"><ele>727.0</ele><time>2026-05-04T14:16:06.707Z</time></trkpt><trkpt lat="43.4444583" lon="11.512925"><ele>724.1666666666667</ele><time>2026-05-04T14:16:07.705Z</time></trkpt><trkpt lat="43.44439" lon="11.5129983"><ele>721.3333333333334</ele><time>2026-05-04T14:16:08.706Z</time></trkpt><trkpt lat="43.4443267" lon="11.51308"><ele>718.5</ele><time>2026-05-04T14:16:09.706Z</time></trkpt><trkpt lat="43.44427" lon="11.5131533"><ele>715.6666666666666</ele><time>2026-05-04T14:16:10.704Z</time></trkpt><trkpt lat="43.4442233" lon="11.5132283"><ele>712.8333333333333</ele><time>2026-05-04T14:16:11.706Z</time></trkpt><trkpt lat="43.4441633" lon="11.5133767"><ele>710.0</ele><time>2026-05-04T14:16:13.706Z</time></trkpt><trkpt lat="43.4441467" lon="11.5134617"><ele>710.0</ele><time>2026-05-04T14:16:14.705Z</time></trkpt><trkpt lat="43.4441467" lon="11.5135683"><ele>710.0</ele><time>2026-05-04T14:16:15.705Z</time></trkpt><trkpt lat="43.444145" lon="11.51369"><ele>710.0</ele><time>2026-05-04T14:16:16.706Z</time></trkpt><trkpt lat="43.444175" lon="11.5138483"><ele>710.0</ele><time>2026-05-04T14:16:17.706Z</time></trkpt><trkpt lat="43.4441767" lon="11.5139783"><ele>710.0</ele><time>2026-05-04T14:16:18.706Z</time></trkpt><trkpt lat="43.444175" lon="11.5141083"><ele>710.0</ele><time>2026-05-04T14:16:19.706Z</time></trkpt><trkpt lat="43.44417" lon="11.514245"><ele>710.0</ele><time>2026-05-04T14:16:20.705Z</time></trkpt><trkpt lat="43.4441567" lon="11.5143617"><ele>710.0</ele><time>2026-05-04T14:16:21.706Z</time></trkpt><trkpt lat="43.4441433" lon="11.5144817"><ele>710.0</ele><time>2026-05-04T14:16:22.706Z</time></trkpt><trkpt lat="43.4441383" lon="11.5146083"><ele>710.0</ele><time>2026-05-04T14:16:23.705Z</time></trkpt><trkpt lat="43.4441333" lon="11.5147433"><ele>709.8</ele><time>2026-05-04T14:16:24.706Z</time></trkpt><trkpt lat="43.444115" lon="11.5148783"><ele>709.6</ele><time>2026-05-04T14:16:25.707Z</time></trkpt><trkpt lat="43.4440867" lon="11.515"><ele>709.4000000000001</ele><time>2026-05-04T14:16:26.706Z</time></trkpt><trkpt lat="43.444055" lon="11.5151067"><ele>709.2</ele><time>2026-05-04T14:16:27.706Z</time></trkpt><trkpt lat="43.4439917" lon="11.5152233"><ele>709.0</ele><time>2026-05-04T14:16:29.703Z</time></trkpt><trkpt lat="43.4438667" lon="11.51528"><ele>706.5</ele><time>2026-05-04T14:16:31.703Z</time></trkpt><trkpt lat="43.4437867" lon="11.5153167"><ele>704.0</ele><time>2026-05-04T14:16:32.705Z</time></trkpt><trkpt lat="43.4437" lon="11.5153583"><ele>701.5</ele><time>2026-05-04T14:16:33.706Z</time></trkpt><trkpt lat="43.4436117" lon="11.5153883"><ele>699.0</ele><time>2026-05-04T14:16:34.705Z</time></trkpt><trkpt lat="43.4435233" lon="11.5154117"><ele>696.5</ele><time>2026-05-04T14:16:35.706Z</time></trkpt><trkpt lat="43.4434483" lon="11.5154267"><ele>694.0</ele><time>2026-05-04T14:16:36.709Z</time></trkpt><trkpt lat="43.4433783" lon="11.5154367"><ele>694.0</ele><time>2026-05-04T14:16:37.705Z</time></trkpt><trkpt lat="43.4433083" lon="11.5154433"><ele>694.0</ele><time>2026-05-04T14:16:38.706Z</time></trkpt><trkpt lat="43.4432383" lon="11.5154467"><ele>694.0</ele><time>2026-05-04T14:16:39.705Z</time></trkpt><trkpt lat="43.4431733" lon="11.5154483"><ele>694.0</ele><time>2026-05-04T14:16:40.707Z</time></trkpt><trkpt lat="43.44311" lon="11.51545"><ele>694.0</ele><time>2026-05-04T14:16:41.705Z</time></trkpt><trkpt lat="43.44299" lon="11.5154817"><ele>694.0</ele><time>2026-05-04T14:16:43.705Z</time></trkpt><trkpt lat="43.4428983" lon="11.5155667"><ele>691.0</ele><time>2026-05-04T14:16:45.707Z</time></trkpt><trkpt lat="43.442875" lon="11.51565"><ele>688.0</ele><time>2026-05-04T14:16:46.704Z</time></trkpt><trkpt lat="43.4428583" lon="11.5157583"><ele>685.0</ele><time>2026-05-04T14:16:47.704Z</time></trkpt><trkpt lat="43.44284" lon="11.5158767"><ele>682.0</ele><time>2026-05-04T14:16:48.705Z</time></trkpt><trkpt lat="43.4428283" lon="11.5159983"><ele>679.0</ele><time>2026-05-04T14:16:49.703Z</time></trkpt><trkpt lat="43.44283" lon="11.5161283"><ele>676.0</ele><time>2026-05-04T14:16:50.707Z</time></trkpt><trkpt lat="43.4428383" lon="11.5162483"><ele>674.6666666666667</ele><time>2026-05-04T14:16:51.706Z</time></trkpt><trkpt lat="43.4428483" lon="11.516355"><ele>673.3333333333334</ele><time>2026-05-04T14:16:52.705Z</time></trkpt><trkpt lat="43.4428583" lon="11.516455"><ele>672.0</ele><time>2026-05-04T14:16:53.705Z</time></trkpt><trkpt lat="43.442875" lon="11.5165533"><ele>670.6666666666666</ele><time>2026-05-04T14:16:54.705Z</time></trkpt><trkpt lat="43.4429017" lon="11.5166617"><ele>669.3333333333333</ele><time>2026-05-04T14:16:55.706Z</time></trkpt><trkpt lat="43.44294" lon="11.5167817"><ele>668.0</ele><time>2026-05-04T14:16:56.707Z</time></trkpt><trkpt lat="43.442975" lon="11.5169067"><ele>669.6666666666666</ele><time>2026-05-04T14:16:57.705Z</time></trkpt><trkpt lat="43.4430017" lon="11.5170283"><ele>671.3333333333333</ele><time>2026-05-04T14:16:58.704Z</time></trkpt><trkpt lat="43.4430283" lon="11.5171433"><ele>673.0</ele><time>2026-05-04T14:16:59.706Z</time></trkpt><trkpt lat="43.4430483" lon="11.517255"><ele>674.6666666666666</ele><time>2026-05-04T14:17:00.705Z</time></trkpt><trkpt lat="43.44306" lon="11.5173617"><ele>676.3333333333334</ele><time>2026-05-04T14:17:01.706Z</time></trkpt><trkpt lat="43.4430583" lon="11.51747"><ele>678.0</ele><time>2026-05-04T14:17:02.706Z</time></trkpt><trkpt lat="43.4430483" lon="11.5175783"><ele>678.0</ele><time>2026-05-04T14:17:03.706Z</time></trkpt><trkpt lat="43.443035" lon="11.5176883"><ele>678.0</ele><time>2026-05-04T14:17:04.706Z</time></trkpt><trkpt lat="43.4430183" lon="11.517795"><ele>678.0</ele><time>2026-05-04T14:17:05.705Z</time></trkpt><trkpt lat="43.4429933" lon="11.517905"><ele>678.0</ele><time>2026-05-04T14:17:06.707Z</time></trkpt><trkpt lat="43.4429617" lon="11.5180083"><ele>678.0</ele><time>2026-05-04T14:17:07.705Z</time></trkpt><trkpt lat="43.4429333" lon="11.5181117"><ele>678.0</ele><time>2026-05-04T14:17:08.704Z</time></trkpt><trkpt lat="43.4429133" lon="11.5182117"><ele>674.5</ele><time>2026-05-04T14:17:09.705Z</time></trkpt><trkpt lat="43.4428983" lon="11.5182983"><ele>671.0</ele><time>2026-05-04T14:17:10.707Z</time></trkpt><trkpt lat="43.4428767" lon="11.51847"><ele>667.5</ele><time>2026-05-04T14:17:12.707Z</time></trkpt><trkpt lat="43.4428617" lon="11.5185583"><ele>664.0</ele><time>2026-05-04T14:17:13.707Z</time></trkpt><trkpt lat="43.442845" lon="11.5186483"><ele>660.5</ele><time>2026-05-04T14:17:14.707Z</time></trkpt><trkpt lat="43.44283" lon="11.518735"><ele>657.0</ele><time>2026-05-04T14:17:15.707Z</time></trkpt><trkpt lat="43.44282" lon="11.5188217"><ele>656.3333333333334</ele><time>2026-05-04T14:17:16.705Z</time></trkpt><trkpt lat="43.4428117" lon="11.5189217"><ele>655.6666666666666</ele><time>2026-05-04T14:17:17.705Z</time></trkpt><trkpt lat="43.4428033" lon="11.5190367"><ele>655.0</ele><time>2026-05-04T14:17:18.706Z</time></trkpt><trkpt lat="43.4427983" lon="11.5191683"><ele>654.3333333333333</ele><time>2026-05-04T14:17:19.707Z</time></trkpt><trkpt lat="43.442795" lon="11.5192883"><ele>653.6666666666666</ele><time>2026-05-04T14:17:20.705Z</time></trkpt><trkpt lat="43.4428017" lon="11.5193967"><ele>653.0</ele><time>2026-05-04T14:17:21.707Z</time></trkpt><trkpt lat="43.4428267" lon="11.5194967"><ele>653.0</ele><time>2026-05-04T14:17:22.708Z</time></trkpt><trkpt lat="43.44287" lon="11.5195833"><ele>653.0</ele><time>2026-05-04T14:17:23.706Z</time></trkpt><trkpt lat="43.4429183" lon="11.5196467"><ele>653.0</ele><time>2026-05-04T14:17:24.706Z</time></trkpt><trkpt lat="43.4429883" lon="11.5197367"><ele>653.0</ele><time>2026-05-04T14:17:26.706Z</time></trkpt><trkpt lat="43.4429367" lon="11.5197917"><ele>653.0</ele><time>2026-05-04T14:17:40.706Z</time></trkpt><trkpt lat="43.4428683" lon="11.5197733"><ele>653.0</ele><time>2026-05-04T14:17:43.708Z</time></trkpt><trkpt lat="43.442785" lon="11.51972"><ele>653.0</ele><time>2026-05-04T14:17:46.706Z</time></trkpt><trkpt lat="43.442685" lon="11.5196367"><ele>653.0</ele><time>2026-05-04T14:17:48.705Z</time></trkpt><trkpt lat="43.4426033" lon="11.5195633"><ele>653.0</ele><time>2026-05-04T14:17:49.706Z</time></trkpt><trkpt lat="43.442515" lon="11.5194833"><ele>653.0</ele><time>2026-05-04T14:17:50.707Z</time></trkpt><trkpt lat="43.442435" lon="11.5194"><ele>653.0</ele><time>2026-05-04T14:17:51.705Z</time></trkpt><trkpt lat="43.442365" lon="11.51932"><ele>653.0</ele><time>2026-05-04T14:17:52.706Z</time></trkpt><trkpt lat="43.4423067" lon="11.51924"><ele>653.0</ele><time>2026-05-04T14:17:53.706Z</time></trkpt><trkpt lat="43.44226" lon="11.5191683"><ele>653.0</ele><time>2026-05-04T14:17:54.706Z</time></trkpt><trkpt lat="43.4422133" lon="11.5190283"><ele>653.0</ele><time>2026-05-04T14:17:56.707Z</time></trkpt><trkpt lat="43.4422217" lon="11.518855"><ele>653.0</ele><time>2026-05-04T14:17:58.706Z</time></trkpt><trkpt lat="43.4422283" lon="11.5187667"><ele>653.6666666666666</ele><time>2026-05-04T14:17:59.705Z</time></trkpt><trkpt lat="43.4422317" lon="11.5186783"><ele>654.3333333333333</ele><time>2026-05-04T14:18:00.708Z</time></trkpt><trkpt lat="43.44222" lon="11.5185883"><ele>655.0</ele><time>2026-05-04T14:18:01.707Z</time></trkpt><trkpt lat="43.4421917" lon="11.51849"><ele>655.6666666666666</ele><time>2026-05-04T14:18:02.707Z</time></trkpt><trkpt lat="43.44214" lon="11.51837"><ele>656.3333333333334</ele><time>2026-05-04T14:18:03.707Z</time></trkpt><trkpt lat="43.4420833" lon="11.5182483"><ele>657.0</ele><time>2026-05-04T14:18:04.707Z</time></trkpt><trkpt lat="43.4420317" lon="11.51814"><ele>652.8333333333334</ele><time>2026-05-04T14:18:05.706Z</time></trkpt><trkpt lat="43.4419967" lon="11.51805"><ele>648.6666666666666</ele><time>2026-05-04T14:18:06.706Z</time></trkpt><trkpt lat="43.44195" lon="11.5179367"><ele>644.5</ele><time>2026-05-04T14:18:08.707Z</time></trkpt><trkpt lat="43.44194" lon="11.51785"><ele>640.3333333333333</ele><time>2026-05-04T14:18:12.706Z</time></trkpt><trkpt lat="43.4419717" lon="11.5179283"><ele>636.1666666666666</ele><time>2026-05-04T14:18:16.704Z</time></trkpt><trkpt lat="43.4420133" lon="11.5180467"><ele>632.0</ele><time>2026-05-04T14:18:18.705Z</time></trkpt><trkpt lat="43.4420483" lon="11.5181233"><ele>632.0</ele><time>2026-05-04T14:18:20.706Z</time></trkpt><trkpt lat="43.4420767" lon="11.5182133"><ele>632.0</ele><time>2026-05-04T14:18:31.703Z</time></trkpt><trkpt lat="43.44212" lon="11.5183083"><ele>632.0</ele><time>2026-05-04T14:18:32.705Z</time></trkpt><trkpt lat="43.4421683" lon="11.5184367"><ele>632.0</ele><time>2026-05-04T14:18:33.707Z</time></trkpt><trkpt lat="43.4422083" lon="11.518575"><ele>632.0</ele><time>2026-05-04T14:18:34.705Z</time></trkpt><trkpt lat="43.4422317" lon="11.5187117"><ele>636.2</ele><time>2026-05-04T14:18:35.704Z</time></trkpt><trkpt lat="43.4422383" lon="11.5188367"><ele>640.4000000000001</ele><time>2026-05-04T14:18:36.706Z</time></trkpt><trkpt lat="43.4422417" lon="11.5189567"><ele>644.5999999999999</ele><time>2026-05-04T14:18:37.705Z</time></trkpt><trkpt lat="43.4422517" lon="11.5190783"><ele>648.8</ele><time>2026-05-04T14:18:38.708Z</time></trkpt><trkpt lat="43.4422783" lon="11.51919"><ele>653.0</ele><time>2026-05-04T14:18:39.706Z</time></trkpt><trkpt lat="43.4423317" lon="11.519305"><ele>653.0</ele><time>2026-05-04T14:18:40.704Z</time></trkpt><trkpt lat="43.4424367" lon="11.5194267"><ele>653.0</ele><time>2026-05-04T14:18:41.706Z</time></trkpt><trkpt lat="43.4425417" lon="11.51954"><ele>653.0</ele><time>2026-05-04T14:18:42.7Z</time></trkpt><trkpt lat="43.442645" lon="11.5196433"><ele>653.0</ele><time>2026-05-04T14:18:43.705Z</time></trkpt><trkpt lat="43.4427433" lon="11.5197267"><ele>653.0</ele><time>2026-05-04T14:18:44.704Z</time></trkpt><trkpt lat="43.4428217" lon="11.5197867"><ele>653.0</ele><time>2026-05-04T14:18:45.707Z</time></trkpt><trkpt lat="43.4428933" lon="11.5198317"><ele>653.0</ele><time>2026-05-04T14:18:46.705Z</time></trkpt><trkpt lat="43.442955" lon="11.519865"><ele>653.0</ele><time>2026-05-04T14:18:47.706Z</time></trkpt><trkpt lat="43.4430183" lon="11.519885"><ele>653.0</ele><time>2026-05-04T14:18:49.71Z</time></trkpt><trkpt lat="43.4429933" lon="11.5197733"><ele>653.0</ele><time>2026-05-04T14:18:56.703Z</time></trkpt><trkpt lat="43.4429483" lon="11.519675"><ele>653.0</ele><time>2026-05-04T14:18:58.705Z</time></trkpt><trkpt lat="43.4429067" lon="11.5195967"><ele>653.0</ele><time>2026-05-04T14:18:59.706Z</time></trkpt><trkpt lat="43.4428667" lon="11.519515"><ele>653.0</ele><time>2026-05-04T14:19:00.707Z</time></trkpt><trkpt lat="43.4428367" lon="11.519415"><ele>653.0</ele><time>2026-05-04T14:19:01.706Z</time></trkpt><trkpt lat="43.44282" lon="11.519305"><ele>653.0</ele><time>2026-05-04T14:19:02.704Z</time></trkpt><trkpt lat="43.44281" lon="11.519195"><ele>653.0</ele><time>2026-05-04T14:19:03.705Z</time></trkpt><trkpt lat="43.44281" lon="11.519075"><ele>653.0</ele><time>2026-05-04T14:19:04.706Z</time></trkpt><trkpt lat="43.4428183" lon="11.5189517"><ele>653.0</ele><time>2026-05-04T14:19:05.704Z</time></trkpt><trkpt lat="43.442825" lon="11.5188333"><ele>653.0</ele><time>2026-05-04T14:19:06.706Z</time></trkpt><trkpt lat="43.442835" lon="11.5187217"><ele>653.0</ele><time>2026-05-04T14:19:07.706Z</time></trkpt><trkpt lat="43.442855" lon="11.5186067"><ele>653.0</ele><time>2026-05-04T14:19:08.707Z</time></trkpt><trkpt lat="43.4428867" lon="11.5184917"><ele>653.0</ele><time>2026-05-04T14:19:09.702Z</time></trkpt><trkpt lat="43.4429117" lon="11.5183767"><ele>653.6666666666666</ele><time>2026-05-04T14:19:10.705Z</time></trkpt><trkpt lat="43.4429333" lon="11.5182633"><ele>654.3333333333333</ele><time>2026-05-04T14:19:11.706Z</time></trkpt><trkpt lat="43.4429533" lon="11.5181567"><ele>655.0</ele><time>2026-05-04T14:19:12.705Z</time></trkpt><trkpt lat="43.442975" lon="11.5180517"><ele>655.6666666666666</ele><time>2026-05-04T14:19:13.708Z</time></trkpt><trkpt lat="43.4430067" lon="11.517945"><ele>656.3333333333334</ele><time>2026-05-04T14:19:14.706Z</time></trkpt><trkpt lat="43.4430383" lon="11.517835"><ele>657.0</ele><time>2026-05-04T14:19:15.707Z</time></trkpt><trkpt lat="43.4430667" lon="11.5177217"><ele>660.5</ele><time>2026-05-04T14:19:16.706Z</time></trkpt><trkpt lat="43.4430817" lon="11.51762"><ele>664.0</ele><time>2026-05-04T14:19:17.705Z</time></trkpt><trkpt lat="43.4430933" lon="11.5175017"><ele>667.5</ele><time>2026-05-04T14:19:18.705Z</time></trkpt><trkpt lat="43.4431033" lon="11.51738"><ele>671.0</ele><time>2026-05-04T14:19:19.707Z</time></trkpt><trkpt lat="43.4431" lon="11.51726"><ele>674.5</ele><time>2026-05-04T14:19:20.705Z</time></trkpt><trkpt lat="43.443085" lon="11.5171417"><ele>678.0</ele><time>2026-05-04T14:19:21.705Z</time></trkpt><trkpt lat="43.4430617" lon="11.5170233"><ele>679.5</ele><time>2026-05-04T14:19:22.706Z</time></trkpt><trkpt lat="43.443035" lon="11.5169083"><ele>681.0</ele><time>2026-05-04T14:19:23.706Z</time></trkpt><trkpt lat="43.4430067" lon="11.5167933"><ele>682.5</ele><time>2026-05-04T14:19:24.706Z</time></trkpt><trkpt lat="43.442965" lon="11.5166767"><ele>684.0</ele><time>2026-05-04T14:19:25.706Z</time></trkpt><trkpt lat="43.4429267" lon="11.5165617"><ele>685.5</ele><time>2026-05-04T14:19:26.707Z</time></trkpt><trkpt lat="43.4429" lon="11.5164517"><ele>687.0</ele><time>2026-05-04T14:19:27.707Z</time></trkpt><trkpt lat="43.442885" lon="11.516335"><ele>684.8</ele><time>2026-05-04T14:19:28.706Z</time></trkpt><trkpt lat="43.442875" lon="11.5162133"><ele>682.6</ele><time>2026-05-04T14:19:29.705Z</time></trkpt><trkpt lat="43.4428683" lon="11.5160833"><ele>680.4</ele><time>2026-05-04T14:19:30.707Z</time></trkpt><trkpt lat="43.4428733" lon="11.5159567"><ele>678.1999999999999</ele><time>2026-05-04T14:19:31.707Z</time></trkpt><trkpt lat="43.4428833" lon="11.5158367"><ele>676.0</ele><time>2026-05-04T14:19:32.706Z</time></trkpt><trkpt lat="43.4429033" lon="11.51572"><ele>676.0</ele><time>2026-05-04T14:19:33.706Z</time></trkpt><trkpt lat="43.4429267" lon="11.51561"><ele>676.0</ele><time>2026-05-04T14:19:34.706Z</time></trkpt><trkpt lat="43.442955" lon="11.51552"><ele>676.0</ele><time>2026-05-04T14:19:35.705Z</time></trkpt><trkpt lat="43.4429917" lon="11.5154483"><ele>676.0</ele><time>2026-05-04T14:19:36.704Z</time></trkpt><trkpt lat="43.44309" lon="11.5153817"><ele>676.0</ele><time>2026-05-04T14:19:38.706Z</time></trkpt><trkpt lat="43.4431533" lon="11.5153817"><ele>676.0</ele><time>2026-05-04T14:19:39.707Z</time></trkpt><trkpt lat="43.443225" lon="11.5153917"><ele>678.1666666666667</ele><time>2026-05-04T14:19:40.706Z</time></trkpt><trkpt lat="43.443305" lon="11.5153967"><ele>680.3333333333334</ele><time>2026-05-04T14:19:41.705Z</time></trkpt><trkpt lat="43.443385" lon="11.5154017"><ele>682.5</ele><time>2026-05-04T14:19:42.706Z</time></trkpt><trkpt lat="43.4434617" lon="11.5153917"><ele>684.6666666666666</ele><time>2026-05-04T14:19:43.707Z</time></trkpt><trkpt lat="43.443545" lon="11.5153717"><ele>686.8333333333333</ele><time>2026-05-04T14:19:44.707Z</time></trkpt><trkpt lat="43.4436383" lon="11.515345"><ele>689.0</ele><time>2026-05-04T14:19:45.707Z</time></trkpt><trkpt lat="43.443745" lon="11.5153017"><ele>692.3333333333333</ele><time>2026-05-04T14:19:46.706Z</time></trkpt><trkpt lat="43.4438483" lon="11.5152517"><ele>695.6666666666666</ele><time>2026-05-04T14:19:47.705Z</time></trkpt><trkpt lat="43.4439417" lon="11.51519"><ele>699.0</ele><time>2026-05-04T14:19:48.705Z</time></trkpt><trkpt lat="43.4440183" lon="11.5151517"><ele>702.3333333333334</ele><time>2026-05-04T14:19:49.704Z</time></trkpt><trkpt lat="43.44408" lon="11.515115"><ele>705.6666666666667</ele><time>2026-05-04T14:19:50.705Z</time></trkpt><trkpt lat="43.4441233" lon="11.5150517"><ele>709.0</ele><time>2026-05-04T14:19:51.707Z</time></trkpt><trkpt lat="43.44415" lon="11.5149517"><ele>709.0</ele><time>2026-05-04T14:19:52.705Z</time></trkpt><trkpt lat="43.4441683" lon="11.5148433"><ele>709.0</ele><time>2026-05-04T14:19:53.705Z</time></trkpt><trkpt lat="43.444165" lon="11.5147233"><ele>709.0</ele><time>2026-05-04T14:19:54.705Z</time></trkpt><trkpt lat="43.4441583" lon="11.5146"><ele>709.0</ele><time>2026-05-04T14:19:55.707Z</time></trkpt><trkpt lat="43.4441567" lon="11.51449"><ele>709.0</ele><time>2026-05-04T14:19:56.708Z</time></trkpt><trkpt lat="43.444165" lon="11.5143817"><ele>709.0</ele><time>2026-05-04T14:19:57.706Z</time></trkpt><trkpt lat="43.4441833" lon="11.5142817"><ele>709.1666666666667</ele><time>2026-05-04T14:19:58.706Z</time></trkpt><trkpt lat="43.4441967" lon="11.5141833"><ele>709.3333333333334</ele><time>2026-05-04T14:19:59.706Z</time></trkpt><trkpt lat="43.4442067" lon="11.514075"><ele>709.5</ele><time>2026-05-04T14:20:00.705Z</time></trkpt><trkpt lat="43.4442017" lon="11.51396"><ele>709.6666666666666</ele><time>2026-05-04T14:20:01.708Z</time></trkpt><trkpt lat="43.4441967" lon="11.513835"><ele>709.8333333333333</ele><time>2026-05-04T14:20:02.705Z</time></trkpt><trkpt lat="43.4441883" lon="11.51369"><ele>710.0</ele><time>2026-05-04T14:20:03.707Z</time></trkpt><trkpt lat="43.4441733" lon="11.5135583"><ele>710.0</ele><time>2026-05-04T14:20:04.707Z</time></trkpt><trkpt lat="43.4441667" lon="11.51344"><ele>710.0</ele><time>2026-05-04T14:20:05.704Z</time></trkpt><trkpt lat="43.444165" lon="11.5133383"><ele>710.0</ele><time>2026-05-04T14:20:06.706Z</time></trkpt><trkpt lat="43.444185" lon="11.5132483"><ele>710.0</ele><time>2026-05-04T14:20:07.706Z</time></trkpt><trkpt lat="43.444215" lon="11.513165"><ele>710.0</ele><time>2026-05-04T14:20:08.705Z</time></trkpt><trkpt lat="43.44426" lon="11.5130883"><ele>710.0</ele><time>2026-05-04T14:20:09.706Z</time></trkpt><trkpt lat="43.4443283" lon="11.5130083"><ele>710.0</ele><time>2026-05-04T14:20:10.704Z</time></trkpt><trkpt lat="43.4443983" lon="11.51293"><ele>710.0</ele><time>2026-05-04T14:20:11.705Z</time></trkpt><trkpt lat="43.4444717" lon="11.51285"><ele>710.0</ele><time>2026-05-04T14:20:12.706Z</time></trkpt><trkpt lat="43.44454" lon="11.5127633"><ele>710.0</ele><time>2026-05-04T14:20:13.706Z</time></trkpt><trkpt lat="43.4446083" lon="11.5126617"><ele>710.0</ele><time>2026-05-04T14:20:14.705Z</time></trkpt><trkpt lat="43.4446867" lon="11.5125633"><ele>713.4</ele><time>2026-05-04T14:20:15.706Z</time></trkpt><trkpt lat="43.4447633" lon="11.5124717"><ele>716.8</ele><time>2026-05-04T14:20:16.705Z</time></trkpt><trkpt lat="43.444835" lon="11.5123783"><ele>720.2</ele><time>2026-05-04T14:20:17.705Z</time></trkpt><trkpt lat="43.4449067" lon="11.5123033"><ele>723.6</ele><time>2026-05-04T14:20:18.705Z</time></trkpt><trkpt lat="43.444985" lon="11.5122367"><ele>727.0</ele><time>2026-05-04T14:20:19.706Z</time></trkpt><trkpt lat="43.445075" lon="11.512195"><ele>727.0</ele><time>2026-05-04T14:20:20.705Z</time></trkpt><trkpt lat="43.44518" lon="11.51218"><ele>727.0</ele><time>2026-05-04T14:20:21.706Z</time></trkpt><trkpt lat="43.4452817" lon="11.512155"><ele>727.0</ele><time>2026-05-04T14:20:22.705Z</time></trkpt><trkpt lat="43.44537" lon="11.5121333"><ele>727.0</ele><time>2026-05-04T14:20:23.706Z</time></trkpt><trkpt lat="43.4454417" lon="11.5121183"><ele>727.0</ele><time>2026-05-04T14:20:24.706Z</time></trkpt><trkpt lat="43.44551" lon="11.5120933"><ele>727.0</ele><time>2026-05-04T14:20:26.706Z</time></trkpt><trkpt lat="43.4455233" lon="11.5121867"><ele>727.0</ele><time>2026-05-04T14:20:32.705Z</time></trkpt><trkpt lat="43.4454233" lon="11.51215"><ele>727.0</ele><time>2026-05-04T14:20:35.705Z</time></trkpt><trkpt lat="43.4452833" lon="11.51216"><ele>727.0</ele><time>2026-05-04T14:20:37.706Z</time></trkpt><trkpt lat="43.4452033" lon="11.5121733"><ele>727.0</ele><time>2026-05-04T14:20:38.705Z</time></trkpt><trkpt lat="43.4451183" lon="11.5121867"><ele>727.0</ele><time>2026-05-04T14:20:39.706Z</time></trkpt><trkpt lat="43.4450433" lon="11.5122133"><ele>727.0</ele><time>2026-05-04T14:20:40.705Z</time></trkpt><trkpt lat="43.4449733" lon="11.512245"><ele>727.0</ele><time>2026-05-04T14:20:41.706Z</time></trkpt><trkpt lat="43.444905" lon="11.5122967"><ele>727.0</ele><time>2026-05-04T14:20:42.712Z</time></trkpt><trkpt lat="43.4448433" lon="11.5123667"><ele>727.0</ele><time>2026-05-04T14:20:43.705Z</time></trkpt><trkpt lat="43.4447817" lon="11.5124433"><ele>727.0</ele><time>2026-05-04T14:20:44.704Z</time></trkpt><trkpt lat="43.44471" lon="11.5125183"><ele>727.0</ele><time>2026-05-04T14:20:45.706Z</time></trkpt><trkpt lat="43.4446433" lon="11.5126017"><ele>723.6</ele><time>2026-05-04T14:20:46.707Z</time></trkpt><trkpt lat="43.4445767" lon="11.5127117"><ele>720.2</ele><time>2026-05-04T14:20:47.705Z</time></trkpt><trkpt lat="43.4445133" lon="11.512815"><ele>716.8</ele><time>2026-05-04T14:20:48.706Z</time></trkpt><trkpt lat="43.4444517" lon="11.5128983"><ele>713.4</ele><time>2026-05-04T14:20:49.706Z</time></trkpt><trkpt lat="43.4443883" lon="11.5129667"><ele>710.0</ele><time>2026-05-04T14:20:50.706Z</time></trkpt><trkpt lat="43.4443183" lon="11.5130417"><ele>710.0</ele><time>2026-05-04T14:20:51.706Z</time></trkpt><trkpt lat="43.44426" lon="11.5131217"><ele>710.0</ele><time>2026-05-04T14:20:52.707Z</time></trkpt><trkpt lat="43.4442183" lon="11.5132033"><ele>710.0</ele><time>2026-05-04T14:20:53.705Z</time></trkpt><trkpt lat="43.44418" lon="11.5132817"><ele>710.0</ele><time>2026-05-04T14:20:54.706Z</time></trkpt><trkpt lat="43.44415" lon="11.5133617"><ele>710.0</ele><time>2026-05-04T14:20:55.705Z</time></trkpt><trkpt lat="43.4441383" lon="11.5134533"><ele>710.0</ele><time>2026-05-04T14:20:56.706Z</time></trkpt><trkpt lat="43.444135" lon="11.5135533"><ele>710.0</ele><time>2026-05-04T14:20:57.706Z</time></trkpt><trkpt lat="43.44414" lon="11.5136733"><ele>710.0</ele><time>2026-05-04T14:20:58.705Z</time></trkpt><trkpt lat="43.4441533" lon="11.5138217"><ele>710.0</ele><time>2026-05-04T14:20:59.706Z</time></trkpt><trkpt lat="43.4441633" lon="11.5139617"><ele>710.0</ele><time>2026-05-04T14:21:00.706Z</time></trkpt><trkpt lat="43.4441633" lon="11.5140967"><ele>710.0</ele><time>2026-05-04T14:21:01.707Z</time></trkpt><trkpt lat="43.4441583" lon="11.5142217"><ele>710.0</ele><time>2026-05-04T14:21:02.706Z</time></trkpt><trkpt lat="43.4441517" lon="11.5143267"><ele>710.0</ele><time>2026-05-04T14:21:03.705Z</time></trkpt><trkpt lat="43.444145" lon="11.5144267"><ele>710.0</ele><time>2026-05-04T14:21:04.705Z</time></trkpt><trkpt lat="43.44414" lon="11.5145383"><ele>710.0</ele><time>2026-05-04T14:21:05.706Z</time></trkpt><trkpt lat="43.4441433" lon="11.5146567"><ele>710.0</ele><time>2026-05-04T14:21:06.705Z</time></trkpt><trkpt lat="43.444145" lon="11.5147733"><ele>710.0</ele><time>2026-05-04T14:21:07.706Z</time></trkpt><trkpt lat="43.4441333" lon="11.5148883"><ele>710.0</ele><time>2026-05-04T14:21:08.704Z</time></trkpt><trkpt lat="43.4441117" lon="11.5149967"><ele>709.8333333333333</ele><time>2026-05-04T14:21:09.706Z</time></trkpt><trkpt lat="43.44409" lon="11.5150883"><ele>709.6666666666666</ele><time>2026-05-04T14:21:10.706Z</time></trkpt><trkpt lat="43.4440183" lon="11.51519"><ele>709.5</ele><time>2026-05-04T14:21:12.707Z</time></trkpt><trkpt lat="43.44395" lon="11.51522"><ele>709.3333333333334</ele><time>2026-05-04T14:21:13.705Z</time></trkpt><trkpt lat="43.4438783" lon="11.5152667"><ele>709.1666666666667</ele><time>2026-05-04T14:21:14.705Z</time></trkpt><trkpt lat="43.4437833" lon="11.5153117"><ele>709.0</ele><time>2026-05-04T14:21:15.706Z</time></trkpt><trkpt lat="43.4436867" lon="11.515355"><ele>706.5</ele><time>2026-05-04T14:21:16.706Z</time></trkpt><trkpt lat="43.4435967" lon="11.5153967"><ele>704.0</ele><time>2026-05-04T14:21:17.705Z</time></trkpt><trkpt lat="43.443515" lon="11.51543"><ele>701.5</ele><time>2026-05-04T14:21:18.706Z</time></trkpt><trkpt lat="43.44344" lon="11.5154533"><ele>699.0</ele><time>2026-05-04T14:21:19.707Z</time></trkpt><trkpt lat="43.4433633" lon="11.5154583"><ele>696.5</ele><time>2026-05-04T14:21:20.706Z</time></trkpt><trkpt lat="43.443285" lon="11.5154633"><ele>694.0</ele><time>2026-05-04T14:21:21.706Z</time></trkpt><trkpt lat="43.4432133" lon="11.5154667"><ele>694.0</ele><time>2026-05-04T14:21:22.705Z</time></trkpt><trkpt lat="43.4431417" lon="11.51547"><ele>694.0</ele><time>2026-05-04T14:21:23.705Z</time></trkpt><trkpt lat="43.4430733" lon="11.5154783"><ele>694.0</ele><time>2026-05-04T14:21:24.705Z</time></trkpt><trkpt lat="43.4429633" lon="11.51552"><ele>694.0</ele><time>2026-05-04T14:21:26.705Z</time></trkpt><trkpt lat="43.4428867" lon="11.51562"><ele>694.0</ele><time>2026-05-04T14:21:28.706Z</time></trkpt><trkpt lat="43.4428717" lon="11.515715"><ele>694.0</ele><time>2026-05-04T14:21:29.705Z</time></trkpt><trkpt lat="43.44286" lon="11.5158217"><ele>691.0</ele><time>2026-05-04T14:21:30.707Z</time></trkpt><trkpt lat="43.4428483" lon="11.5159317"><ele>688.0</ele><time>2026-05-04T14:21:31.707Z</time></trkpt><trkpt lat="43.4428383" lon="11.5160483"><ele>685.0</ele><time>2026-05-04T14:21:32.706Z</time></trkpt><trkpt lat="43.4428433" lon="11.5161633"><ele>682.0</ele><time>2026-05-04T14:21:33.706Z</time></trkpt><trkpt lat="43.4428533" lon="11.5162733"><ele>679.0</ele><time>2026-05-04T14:21:34.706Z</time></trkpt><trkpt lat="43.4428617" lon="11.51637"><ele>676.0</ele><time>2026-05-04T14:21:35.706Z</time></trkpt><trkpt lat="43.4428717" lon="11.5164617"><ele>676.3333333333334</ele><time>2026-05-04T14:21:36.706Z</time></trkpt><trkpt lat="43.4428917" lon="11.5165533"><ele>676.6666666666667</ele><time>2026-05-04T14:21:37.707Z</time></trkpt><trkpt lat="43.4429233" lon="11.51666"><ele>677.0</ele><time>2026-05-04T14:21:38.706Z</time></trkpt><trkpt lat="43.4429567" lon="11.5167767"><ele>677.3333333333334</ele><time>2026-05-04T14:21:39.704Z</time></trkpt><trkpt lat="43.4429867" lon="11.5168917"><ele>677.6666666666666</ele><time>2026-05-04T14:21:40.707Z</time></trkpt><trkpt lat="43.4430133" lon="11.517005"><ele>678.0</ele><time>2026-05-04T14:21:41.706Z</time></trkpt><trkpt lat="43.44304" lon="11.5171217"><ele>678.0</ele><time>2026-05-04T14:21:42.707Z</time></trkpt><trkpt lat="43.4430617" lon="11.51723"><ele>678.0</ele><time>2026-05-04T14:21:43.708Z</time></trkpt><trkpt lat="43.4430717" lon="11.51733"><ele>678.0</ele><time>2026-05-04T14:21:44.705Z</time></trkpt><trkpt lat="43.4430717" lon="11.5174317"><ele>678.0</ele><time>2026-05-04T14:21:45.706Z</time></trkpt><trkpt lat="43.4430633" lon="11.5175383"><ele>678.0</ele><time>2026-05-04T14:21:46.706Z</time></trkpt><trkpt lat="43.4430517" lon="11.5176533"><ele>678.0</ele><time>2026-05-04T14:21:47.704Z</time></trkpt><trkpt lat="43.4430367" lon="11.517765"><ele>678.0</ele><time>2026-05-04T14:21:48.706Z</time></trkpt><trkpt lat="43.4430133" lon="11.5178733"><ele>678.0</ele><time>2026-05-04T14:21:49.706Z</time></trkpt><trkpt lat="43.44298" lon="11.5179783"><ele>678.0</ele><time>2026-05-04T14:21:50.705Z</time></trkpt><trkpt lat="43.44295" lon="11.5180833"><ele>678.0</ele><time>2026-05-04T14:21:51.708Z</time></trkpt><trkpt lat="43.4429267" lon="11.5181833"><ele>678.0</ele><time>2026-05-04T14:21:52.706Z</time></trkpt><trkpt lat="43.4429083" lon="11.518275"><ele>678.0</ele><time>2026-05-04T14:21:53.704Z</time></trkpt><trkpt lat="43.442875" lon="11.5184383"><ele>674.5</ele><time>2026-05-04T14:21:55.707Z</time></trkpt><trkpt lat="43.442855" lon="11.51853"><ele>671.0</ele><time>2026-05-04T14:21:56.706Z</time></trkpt><trkpt lat="43.44283" lon="11.5186233"><ele>667.5</ele><time>2026-05-04T14:21:57.706Z</time></trkpt><trkpt lat="43.4428133" lon="11.5187217"><ele>664.0</ele><time>2026-05-04T14:21:58.706Z</time></trkpt><trkpt lat="43.442805" lon="11.5188283"><ele>660.5</ele><time>2026-05-04T14:21:59.705Z</time></trkpt><trkpt lat="43.4427983" lon="11.5189383"><ele>657.0</ele><time>2026-05-04T14:22:00.707Z</time></trkpt><trkpt lat="43.44279" lon="11.5190517"><ele>656.3333333333334</ele><time>2026-05-04T14:22:01.707Z</time></trkpt><trkpt lat="43.442785" lon="11.5191783"><ele>655.6666666666666</ele><time>2026-05-04T14:22:02.706Z</time></trkpt><trkpt lat="43.4427867" lon="11.5193017"><ele>655.0</ele><time>2026-05-04T14:22:03.707Z</time></trkpt><trkpt lat="43.4428017" lon="11.519415"><ele>654.3333333333333</ele><time>2026-05-04T14:22:04.706Z</time></trkpt><trkpt lat="43.44283" lon="11.51951"><ele>653.6666666666666</ele><time>2026-05-04T14:22:05.705Z</time></trkpt><trkpt lat="43.4428767" lon="11.519585"><ele>653.0</ele><time>2026-05-04T14:22:06.706Z</time></trkpt><trkpt lat="43.44292" lon="11.5196517"><ele>653.0</ele><time>2026-05-04T14:22:07.706Z</time></trkpt><trkpt lat="43.442995" lon="11.51975"><ele>653.0</ele><time>2026-05-04T14:22:09.706Z</time></trkpt><trkpt lat="43.44309" lon="11.5198117"><ele>653.0</ele><time>2026-05-04T14:22:11.706Z</time></trkpt><trkpt lat="43.4431417" lon="11.5198833"><ele>653.0</ele><time>2026-05-04T14:22:14.706Z</time></trkpt><trkpt lat="43.4431033" lon="11.519985"><ele>653.0</ele><time>2026-05-04T14:22:16.708Z</time></trkpt><trkpt lat="43.4430317" lon="11.520135"><ele>653.0</ele><time>2026-05-04T14:22:18.707Z</time></trkpt><trkpt lat="43.442985" lon="11.5202533"><ele>653.0</ele><time>2026-05-04T14:22:19.706Z</time></trkpt><trkpt lat="43.4429217" lon="11.5204083"><ele>653.0</ele><time>2026-05-04T14:22:20.705Z</time></trkpt><trkpt lat="43.4428567" lon="11.520585"><ele>653.0</ele><time>2026-05-04T14:22:21.703Z</time></trkpt><trkpt lat="43.4427917" lon="11.5207617"><ele>652.75</ele><time>2026-05-04T14:22:22.706Z</time></trkpt><trkpt lat="43.4427267" lon="11.5209317"><ele>652.5</ele><time>2026-05-04T14:22:23.704Z</time></trkpt><trkpt lat="43.4426683" lon="11.521085"><ele>652.25</ele><time>2026-05-04T14:22:24.706Z</time></trkpt><trkpt lat="43.4426083" lon="11.5212183"><ele>652.0</ele><time>2026-05-04T14:22:25.705Z</time></trkpt><trkpt lat="43.4425333" lon="11.52135"><ele>652.0</ele><time>2026-05-04T14:22:26.706Z</time></trkpt><trkpt lat="43.442435" lon="11.52148"><ele>652.0</ele><time>2026-05-04T14:22:27.706Z</time></trkpt><trkpt lat="43.442325" lon="11.5216133"><ele>652.0</ele><time>2026-05-04T14:22:28.705Z</time></trkpt><trkpt lat="43.4422133" lon="11.5217283"><ele>652.0</ele><time>2026-05-04T14:22:29.706Z</time></trkpt><trkpt lat="43.44211" lon="11.5218217"><ele>651.2</ele><time>2026-05-04T14:22:30.706Z</time></trkpt><trkpt lat="43.4420033" lon="11.5219217"><ele>650.4000000000001</ele><time>2026-05-04T14:22:31.706Z</time></trkpt><trkpt lat="43.4419083" lon="11.52201"><ele>649.5999999999999</ele><time>2026-05-04T14:22:32.707Z</time></trkpt><trkpt lat="43.441815" lon="11.52209"><ele>648.8</ele><time>2026-05-04T14:22:33.706Z</time></trkpt><trkpt lat="43.4417433" lon="11.5221483"><ele>648.0</ele><time>2026-05-04T14:22:34.706Z</time></trkpt><trkpt lat="43.4416867" lon="11.5222"><ele>648.0</ele><time>2026-05-04T14:22:35.701Z</time></trkpt><trkpt lat="43.4416333" lon="11.5222717"><ele>648.0</ele><time>2026-05-04T14:22:36.706Z</time></trkpt><trkpt lat="43.44159" lon="11.5223633"><ele>648.0</ele><time>2026-05-04T14:22:37.706Z</time></trkpt><trkpt lat="43.4415567" lon="11.5224883"><ele>648.0</ele><time>2026-05-04T14:22:38.706Z</time></trkpt><trkpt lat="43.4415333" lon="11.5226383"><ele>648.0</ele><time>2026-05-04T14:22:39.707Z</time></trkpt><trkpt lat="43.4415083" lon="11.5227717"><ele>648.0</ele><time>2026-05-04T14:22:40.706Z</time></trkpt><trkpt lat="43.441475" lon="11.522885"><ele>648.0</ele><time>2026-05-04T14:22:41.705Z</time></trkpt><trkpt lat="43.4414383" lon="11.52297"><ele>648.0</ele><time>2026-05-04T14:22:42.707Z</time></trkpt><trkpt lat="43.44139" lon="11.5230917"><ele>648.0</ele><time>2026-05-04T14:22:44.708Z</time></trkpt><trkpt lat="43.4414367" lon="11.52322"><ele>648.0</ele><time>2026-05-04T14:22:46.706Z</time></trkpt><trkpt lat="43.4414883" lon="11.5232817"><ele>648.0</ele><time>2026-05-04T14:22:47.705Z</time></trkpt><trkpt lat="43.4415917" lon="11.523345"><ele>646.25</ele><time>2026-05-04T14:22:48.707Z</time></trkpt><trkpt lat="43.4417083" lon="11.5234033"><ele>644.5</ele><time>2026-05-04T14:22:49.706Z</time></trkpt><trkpt lat="43.4418217" lon="11.52349"><ele>642.75</ele><time>2026-05-04T14:22:50.706Z</time></trkpt><trkpt lat="43.4419367" lon="11.5235783"><ele>641.0</ele><time>2026-05-04T14:22:51.706Z</time></trkpt><trkpt lat="43.4420483" lon="11.5236533"><ele>640.1666666666666</ele><time>2026-05-04T14:22:52.705Z</time></trkpt><trkpt lat="43.4421483" lon="11.5237133"><ele>639.3333333333333</ele><time>2026-05-04T14:22:53.706Z</time></trkpt><trkpt lat="43.4422233" lon="11.523755"><ele>638.5</ele><time>2026-05-04T14:22:54.707Z</time></trkpt><trkpt lat="43.4422833" lon="11.52381"><ele>637.6666666666666</ele><time>2026-05-04T14:22:55.706Z</time></trkpt><trkpt lat="43.442325" lon="11.5238783"><ele>636.8333333333334</ele><time>2026-05-04T14:22:56.705Z</time></trkpt><trkpt lat="43.4423383" lon="11.524045"><ele>636.0</ele><time>2026-05-04T14:22:58.704Z</time></trkpt><trkpt lat="43.442335" lon="11.52416"><ele>636.0</ele><time>2026-05-04T14:22:59.704Z</time></trkpt><trkpt lat="43.4423583" lon="11.5242817"><ele>636.0</ele><time>2026-05-04T14:23:00.708Z</time></trkpt><trkpt lat="43.4424033" lon="11.524395"><ele>636.0</ele><time>2026-05-04T14:23:01.706Z</time></trkpt><trkpt lat="43.44249" lon="11.5245033"><ele>636.0</ele><time>2026-05-04T14:23:02.707Z</time></trkpt><trkpt lat="43.442575" lon="11.5246067"><ele>636.0</ele><time>2026-05-04T14:23:03.706Z</time></trkpt><trkpt lat="43.4426567" lon="11.524725"><ele>632.0</ele><time>2026-05-04T14:23:04.705Z</time></trkpt><trkpt lat="43.4427333" lon="11.52487"><ele>628.0</ele><time>2026-05-04T14:23:05.706Z</time></trkpt><trkpt lat="43.4428033" lon="11.5250317"><ele>624.0</ele><time>2026-05-04T14:23:06.707Z</time></trkpt><trkpt lat="43.4428667" lon="11.5252033"><ele>620.0</ele><time>2026-05-04T14:23:07.706Z</time></trkpt><trkpt lat="43.44293" lon="11.5253883"><ele>619.0</ele><time>2026-05-04T14:23:08.706Z</time></trkpt><trkpt lat="43.44299" lon="11.5255817"><ele>618.0</ele><time>2026-05-04T14:23:09.707Z</time></trkpt><trkpt lat="43.4430483" lon="11.5257717"><ele>617.0</ele><time>2026-05-04T14:23:10.705Z</time></trkpt><trkpt lat="43.4431017" lon="11.52596"><ele>616.0</ele><time>2026-05-04T14:23:11.705Z</time></trkpt><trkpt lat="43.4431417" lon="11.52613"><ele>616.25</ele><time>2026-05-04T14:23:12.706Z</time></trkpt><trkpt lat="43.4431733" lon="11.5262983"><ele>616.5</ele><time>2026-05-04T14:23:13.707Z</time></trkpt><trkpt lat="43.4431917" lon="11.5264567"><ele>616.75</ele><time>2026-05-04T14:23:14.706Z</time></trkpt><trkpt lat="43.4431817" lon="11.5265983"><ele>617.0</ele><time>2026-05-04T14:23:15.707Z</time></trkpt><trkpt lat="43.443145" lon="11.5267383"><ele>617.0</ele><time>2026-05-04T14:23:16.706Z</time></trkpt><trkpt lat="43.4430883" lon="11.52688"><ele>617.0</ele><time>2026-05-04T14:23:17.706Z</time></trkpt><trkpt lat="43.4430267" lon="11.52701"><ele>617.0</ele><time>2026-05-04T14:23:18.706Z</time></trkpt><trkpt lat="43.4429667" lon="11.5271067"><ele>617.0</ele><time>2026-05-04T14:23:19.705Z</time></trkpt><trkpt lat="43.4429" lon="11.52717"><ele>617.0</ele><time>2026-05-04T14:23:20.705Z</time></trkpt><trkpt lat="43.442815" lon="11.5272017"><ele>615.0</ele><time>2026-05-04T14:23:21.707Z</time></trkpt><trkpt lat="43.4427083" lon="11.5272167"><ele>613.0</ele><time>2026-05-04T14:23:22.706Z</time></trkpt><trkpt lat="43.4425533" lon="11.5271917"><ele>611.0</ele><time>2026-05-04T14:23:23.704Z</time></trkpt><trkpt lat="43.44241" lon="11.52717"><ele>609.0</ele><time>2026-05-04T14:23:24.706Z</time></trkpt><trkpt lat="43.4422717" lon="11.5271533"><ele>609.0</ele><time>2026-05-04T14:23:25.706Z</time></trkpt><trkpt lat="43.44214" lon="11.52716"><ele>609.0</ele><time>2026-05-04T14:23:26.706Z</time></trkpt><trkpt lat="43.4420067" lon="11.5272"><ele>609.0</ele><time>2026-05-04T14:23:27.708Z</time></trkpt><trkpt lat="43.44187" lon="11.5272733"><ele>609.0</ele><time>2026-05-04T14:23:28.705Z</time></trkpt><trkpt lat="43.441725" lon="11.5273717"><ele>609.75</ele><time>2026-05-04T14:23:29.705Z</time></trkpt><trkpt lat="43.44159" lon="11.5274567"><ele>610.5</ele><time>2026-05-04T14:23:30.706Z</time></trkpt><trkpt lat="43.44148" lon="11.5275283"><ele>611.25</ele><time>2026-05-04T14:23:31.706Z</time></trkpt><trkpt lat="43.4413933" lon="11.5275867"><ele>612.0</ele><time>2026-05-04T14:23:32.706Z</time></trkpt><trkpt lat="43.4413183" lon="11.5276667"><ele>613.0</ele><time>2026-05-04T14:23:33.706Z</time></trkpt><trkpt lat="43.4412433" lon="11.527775"><ele>614.0</ele><time>2026-05-04T14:23:34.707Z</time></trkpt><trkpt lat="43.4411617" lon="11.527925"><ele>615.0</ele><time>2026-05-04T14:23:35.706Z</time></trkpt><trkpt lat="43.4410733" lon="11.5281"><ele>616.0</ele><time>2026-05-04T14:23:36.707Z</time></trkpt><trkpt lat="43.4409883" lon="11.52828"><ele>617.0</ele><time>2026-05-04T14:23:37.707Z</time></trkpt><trkpt lat="43.4409183" lon="11.52845"><ele>618.0</ele><time>2026-05-04T14:23:38.707Z</time></trkpt><trkpt lat="43.440865" lon="11.5286017"><ele>619.0</ele><time>2026-05-04T14:23:39.708Z</time></trkpt><trkpt lat="43.44083" lon="11.5287433"><ele>620.0</ele><time>2026-05-04T14:23:40.707Z</time></trkpt><trkpt lat="43.4408183" lon="11.528885"><ele>620.0</ele><time>2026-05-04T14:23:41.702Z</time></trkpt><trkpt lat="43.4408183" lon="11.5290333"><ele>620.0</ele><time>2026-05-04T14:23:42.707Z</time></trkpt><trkpt lat="43.4408217" lon="11.5291883"><ele>620.0</ele><time>2026-05-04T14:23:43.707Z</time></trkpt><trkpt lat="43.4408267" lon="11.5293467"><ele>620.0</ele><time>2026-05-04T14:23:44.706Z</time></trkpt><trkpt lat="43.4408333" lon="11.52948"><ele>620.0</ele><time>2026-05-04T14:23:45.707Z</time></trkpt><trkpt lat="43.44085" lon="11.52959"><ele>621.8333333333333</ele><time>2026-05-04T14:23:46.706Z</time></trkpt><trkpt lat="43.4408783" lon="11.5296733"><ele>623.6666666666666</ele><time>2026-05-04T14:23:47.705Z</time></trkpt><trkpt lat="43.440925" lon="11.529735"><ele>625.5</ele><time>2026-05-04T14:23:48.706Z</time></trkpt><trkpt lat="43.4409917" lon="11.5298583"><ele>627.3333333333334</ele><time>2026-05-04T14:23:50.706Z</time></trkpt><trkpt lat="43.44096" lon="11.52996"><ele>629.1666666666667</ele><time>2026-05-04T14:23:52.705Z</time></trkpt><trkpt lat="43.440875" lon="11.5300417"><ele>631.0</ele><time>2026-05-04T14:23:54.707Z</time></trkpt><trkpt lat="43.4409433" lon="11.5301267"><ele>631.0</ele><time>2026-05-04T14:23:56.705Z</time></trkpt><trkpt lat="43.4410233" lon="11.5301517"><ele>631.0</ele><time>2026-05-04T14:23:57.706Z</time></trkpt><trkpt lat="43.44112" lon="11.5301667"><ele>631.0</ele><time>2026-05-04T14:23:58.709Z</time></trkpt><trkpt lat="43.4412117" lon="11.5301917"><ele>631.0</ele><time>2026-05-04T14:23:59.705Z</time></trkpt><trkpt lat="43.4412867" lon="11.5302183"><ele>631.0</ele><time>2026-05-04T14:24:00.705Z</time></trkpt><trkpt lat="43.4413817" lon="11.5302817"><ele>633.2</ele><time>2026-05-04T14:24:02.706Z</time></trkpt><trkpt lat="43.4413683" lon="11.530415"><ele>635.4000000000001</ele><time>2026-05-04T14:24:04.706Z</time></trkpt><trkpt lat="43.441345" lon="11.5305183"><ele>637.6</ele><time>2026-05-04T14:24:05.706Z</time></trkpt><trkpt lat="43.441315" lon="11.53063"><ele>639.8000000000001</ele><time>2026-05-04T14:24:06.706Z</time></trkpt><trkpt lat="43.4412967" lon="11.5307483"><ele>642.0</ele><time>2026-05-04T14:24:07.706Z</time></trkpt><trkpt lat="43.441285" lon="11.5308867"><ele>642.0</ele><time>2026-05-04T14:24:08.705Z</time></trkpt><trkpt lat="43.44128" lon="11.5310267"><ele>642.0</ele><time>2026-05-04T14:24:09.706Z</time></trkpt><trkpt lat="43.4412883" lon="11.531155"><ele>642.0</ele><time>2026-05-04T14:24:10.707Z</time></trkpt><trkpt lat="43.4413017" lon="11.531275"><ele>642.0</ele><time>2026-05-04T14:24:11.705Z</time></trkpt><trkpt lat="43.4413233" lon="11.5313967"><ele>642.0</ele><time>2026-05-04T14:24:12.706Z</time></trkpt><trkpt lat="43.4413517" lon="11.5315117"><ele>643.3333333333334</ele><time>2026-05-04T14:24:13.706Z</time></trkpt><trkpt lat="43.4413883" lon="11.5316217"><ele>644.6666666666666</ele><time>2026-05-04T14:24:14.705Z</time></trkpt><trkpt lat="43.4414133" lon="11.53173"><ele>646.0</ele><time>2026-05-04T14:24:15.707Z</time></trkpt><trkpt lat="43.4414267" lon="11.5318367"><ele>647.3333333333333</ele><time>2026-05-04T14:24:16.706Z</time></trkpt><trkpt lat="43.441435" lon="11.5319433"><ele>648.6666666666666</ele><time>2026-05-04T14:24:17.706Z</time></trkpt><trkpt lat="43.44143" lon="11.5320483"><ele>650.0</ele><time>2026-05-04T14:24:18.709Z</time></trkpt><trkpt lat="43.44141" lon="11.5321667"><ele>650.0</ele><time>2026-05-04T14:24:19.706Z</time></trkpt><trkpt lat="43.4413883" lon="11.532295"><ele>650.0</ele><time>2026-05-04T14:24:20.706Z</time></trkpt><trkpt lat="43.441365" lon="11.5324217"><ele>650.0</ele><time>2026-05-04T14:24:21.708Z</time></trkpt><trkpt lat="43.4413583" lon="11.5325333"><ele>650.0</ele><time>2026-05-04T14:24:22.706Z</time></trkpt><trkpt lat="43.4413567" lon="11.532635"><ele>650.0</ele><time>2026-05-04T14:24:23.706Z</time></trkpt><trkpt lat="43.441365" lon="11.532725"><ele>650.0</ele><time>2026-05-04T14:24:24.707Z</time></trkpt><trkpt lat="43.44137" lon="11.53282"><ele>649.3333333333333</ele><time>2026-05-04T14:24:25.705Z</time></trkpt><trkpt lat="43.44138" lon="11.5329167"><ele>648.6666666666666</ele><time>2026-05-04T14:24:26.706Z</time></trkpt><trkpt lat="43.4414" lon="11.53302"><ele>648.0</ele><time>2026-05-04T14:24:27.706Z</time></trkpt><trkpt lat="43.4414317" lon="11.5331417"><ele>647.3333333333334</ele><time>2026-05-04T14:24:28.707Z</time></trkpt><trkpt lat="43.4414617" lon="11.5332617"><ele>646.6666666666667</ele><time>2026-05-04T14:24:29.706Z</time></trkpt><trkpt lat="43.4414683" lon="11.5333633"><ele>646.0</ele><time>2026-05-04T14:24:30.707Z</time></trkpt><trkpt lat="43.4414783" lon="11.53346"><ele>646.0</ele><time>2026-05-04T14:24:31.706Z</time></trkpt><trkpt lat="43.4414917" lon="11.5335517"><ele>646.0</ele><time>2026-05-04T14:24:32.706Z</time></trkpt><trkpt lat="43.4415" lon="11.5337133"><ele>646.0</ele><time>2026-05-04T14:24:34.707Z</time></trkpt><trkpt lat="43.4415" lon="11.5338033"><ele>646.0</ele><time>2026-05-04T14:24:35.707Z</time></trkpt><trkpt lat="43.4415" lon="11.53397"><ele>646.0</ele><time>2026-05-04T14:24:37.708Z</time></trkpt><trkpt lat="43.4415433" lon="11.5341333"><ele>645.6666666666667</ele><time>2026-05-04T14:24:39.707Z</time></trkpt><trkpt lat="43.4415933" lon="11.5342183"><ele>645.3333333333334</ele><time>2026-05-04T14:24:40.706Z</time></trkpt><trkpt lat="43.4416567" lon="11.5343283"><ele>645.0</ele><time>2026-05-04T14:24:41.705Z</time></trkpt><trkpt lat="43.4417133" lon="11.5344283"><ele>644.6666666666666</ele><time>2026-05-04T14:24:42.708Z</time></trkpt><trkpt lat="43.4417617" lon="11.5345167"><ele>644.3333333333333</ele><time>2026-05-04T14:24:43.707Z</time></trkpt><trkpt lat="43.4418067" lon="11.5345867"><ele>644.0</ele><time>2026-05-04T14:24:44.708Z</time></trkpt><trkpt lat="43.44186" lon="11.534635"><ele>642.5</ele><time>2026-05-04T14:24:45.708Z</time></trkpt><trkpt lat="43.4419233" lon="11.5346467"><ele>641.0</ele><time>2026-05-04T14:24:46.706Z</time></trkpt><trkpt lat="43.4419933" lon="11.5346533"><ele>639.5</ele><time>2026-05-04T14:24:47.707Z</time></trkpt><trkpt lat="43.4420617" lon="11.5346767"><ele>638.0</ele><time>2026-05-04T14:24:48.706Z</time></trkpt><trkpt lat="43.4421283" lon="11.53471"><ele>636.5</ele><time>2026-05-04T14:24:49.708Z</time></trkpt><trkpt lat="43.442185" lon="11.5347617"><ele>635.0</ele><time>2026-05-04T14:24:50.706Z</time></trkpt><trkpt lat="43.4422583" lon="11.5349017"><ele>635.0</ele><time>2026-05-04T14:24:52.706Z</time></trkpt><trkpt lat="43.44228" lon="11.534995"><ele>635.0</ele><time>2026-05-04T14:24:53.705Z</time></trkpt><trkpt lat="43.4422967" lon="11.5350917"><ele>635.0</ele><time>2026-05-04T14:24:54.707Z</time></trkpt><trkpt lat="43.4423067" lon="11.53519"><ele>635.0</ele><time>2026-05-04T14:24:55.705Z</time></trkpt><trkpt lat="43.4423133" lon="11.5352833"><ele>635.0</ele><time>2026-05-04T14:24:56.707Z</time></trkpt><trkpt lat="43.4423233" lon="11.5353783"><ele>635.0</ele><time>2026-05-04T14:24:57.707Z</time></trkpt><trkpt lat="43.4423133" lon="11.5355317"><ele>634.2</ele><time>2026-05-04T14:24:59.706Z</time></trkpt><trkpt lat="43.4422533" lon="11.5356683"><ele>633.4</ele><time>2026-05-04T14:25:01.709Z</time></trkpt><trkpt lat="43.442185" lon="11.535735"><ele>632.6</ele><time>2026-05-04T14:25:03.706Z</time></trkpt><trkpt lat="43.44215" lon="11.535835"><ele>631.8</ele><time>2026-05-04T14:25:05.705Z</time></trkpt><trkpt lat="43.4421383" lon="11.5360033"><ele>631.0</ele><time>2026-05-04T14:25:07.707Z</time></trkpt><trkpt lat="43.4421317" lon="11.53611"><ele>631.0</ele><time>2026-05-04T14:25:08.707Z</time></trkpt><trkpt lat="43.442125" lon="11.5362383"><ele>631.0</ele><time>2026-05-04T14:25:09.707Z</time></trkpt><trkpt lat="43.4421233" lon="11.53639"><ele>631.0</ele><time>2026-05-04T14:25:10.708Z</time></trkpt><trkpt lat="43.442125" lon="11.53653"><ele>631.0</ele><time>2026-05-04T14:25:11.705Z</time></trkpt><trkpt lat="43.44213" lon="11.536665"><ele>631.0</ele><time>2026-05-04T14:25:12.707Z</time></trkpt><trkpt lat="43.4421383" lon="11.536795"><ele>631.0</ele><time>2026-05-04T14:25:13.708Z</time></trkpt><trkpt lat="43.442135" lon="11.536905"><ele>631.0</ele><time>2026-05-04T14:25:14.708Z</time></trkpt><trkpt lat="43.4421167" lon="11.5370183"><ele>631.0</ele><time>2026-05-04T14:25:15.708Z</time></trkpt><trkpt lat="43.4420883" lon="11.5371217"><ele>631.0</ele><time>2026-05-04T14:25:16.706Z</time></trkpt><trkpt lat="43.4420683" lon="11.5372133"><ele>631.0</ele><time>2026-05-04T14:25:17.705Z</time></trkpt><trkpt lat="43.4420567" lon="11.5373067"><ele>631.0</ele><time>2026-05-04T14:25:18.708Z</time></trkpt><trkpt lat="43.4420483" lon="11.5374033"><ele>627.6</ele><time>2026-05-04T14:25:19.707Z</time></trkpt><trkpt lat="43.44204" lon="11.5375183"><ele>624.2</ele><time>2026-05-04T14:25:20.706Z</time></trkpt><trkpt lat="43.442025" lon="11.537645"><ele>620.8</ele><time>2026-05-04T14:25:21.709Z</time></trkpt><trkpt lat="43.4420017" lon="11.5377767"><ele>617.4</ele><time>2026-05-04T14:25:22.705Z</time></trkpt><trkpt lat="43.4419817" lon="11.5379033"><ele>614.0</ele><time>2026-05-04T14:25:23.703Z</time></trkpt><trkpt lat="43.4419617" lon="11.5380167"><ele>613.5</ele><time>2026-05-04T14:25:24.705Z</time></trkpt><trkpt lat="43.4419433" lon="11.53811"><ele>613.0</ele><time>2026-05-04T14:25:25.705Z</time></trkpt><trkpt lat="43.4419117" lon="11.538185"><ele>612.5</ele><time>2026-05-04T14:25:26.706Z</time></trkpt><trkpt lat="43.4418533" lon="11.5383133"><ele>612.0</ele><time>2026-05-04T14:25:28.706Z</time></trkpt><trkpt lat="43.44185" lon="11.538425"><ele>611.5</ele><time>2026-05-04T14:25:30.705Z</time></trkpt><trkpt lat="43.4418867" lon="11.5385233"><ele>611.0</ele><time>2026-05-04T14:25:32.706Z</time></trkpt><trkpt lat="43.4418933" lon="11.5386117"><ele>611.0</ele><time>2026-05-04T14:25:34.707Z</time></trkpt><trkpt lat="43.4418683" lon="11.5386917"><ele>611.0</ele><time>2026-05-04T14:25:36.706Z</time></trkpt><trkpt lat="43.4418367" lon="11.5387767"><ele>611.0</ele><time>2026-05-04T14:25:38.715Z</time></trkpt><trkpt lat="43.44187" lon="11.5388683"><ele>611.0</ele><time>2026-05-04T14:25:41.705Z</time></trkpt><trkpt lat="43.4419367" lon="11.5389283"><ele>611.0</ele><time>2026-05-04T14:25:43.708Z</time></trkpt><trkpt lat="43.4420017" lon="11.5390333"><ele>611.0</ele><time>2026-05-04T14:25:45.706Z</time></trkpt><trkpt lat="43.4420033" lon="11.5392183"><ele>611.0</ele><time>2026-05-04T14:25:47.707Z</time></trkpt><trkpt lat="43.441985" lon="11.53934"><ele>611.0</ele><time>2026-05-04T14:25:48.706Z</time></trkpt><trkpt lat="43.441975" lon="11.539465"><ele>611.0</ele><time>2026-05-04T14:25:49.705Z</time></trkpt><trkpt lat="43.4419583" lon="11.53959"><ele>611.0</ele><time>2026-05-04T14:25:50.707Z</time></trkpt><trkpt lat="43.44194" lon="11.5397083"><ele>611.0</ele><time>2026-05-04T14:25:51.708Z</time></trkpt><trkpt lat="43.44193" lon="11.5398233"><ele>611.0</ele><time>2026-05-04T14:25:52.706Z</time></trkpt><trkpt lat="43.44194" lon="11.5399383"><ele>611.3333333333333</ele><time>2026-05-04T14:25:53.704Z</time></trkpt><trkpt lat="43.4419683" lon="11.54005"><ele>611.6666666666666</ele><time>2026-05-04T14:25:54.705Z</time></trkpt><trkpt lat="43.4419933" lon="11.540165"><ele>612.0</ele><time>2026-05-04T14:25:55.708Z</time></trkpt><trkpt lat="43.442005" lon="11.54028"><ele>612.3333333333334</ele><time>2026-05-04T14:25:56.706Z</time></trkpt><trkpt lat="43.4420067" lon="11.5404067"><ele>612.6666666666667</ele><time>2026-05-04T14:25:57.708Z</time></trkpt><trkpt lat="43.44201" lon="11.54054"><ele>613.0</ele><time>2026-05-04T14:25:58.706Z</time></trkpt><trkpt lat="43.4420083" lon="11.54067"><ele>613.0</ele><time>2026-05-04T14:25:59.707Z</time></trkpt><trkpt lat="43.4420083" lon="11.5407933"><ele>613.0</ele><time>2026-05-04T14:26:00.706Z</time></trkpt><trkpt lat="43.4420117" lon="11.5409067"><ele>613.0</ele><time>2026-05-04T14:26:01.706Z</time></trkpt><trkpt lat="43.44201" lon="11.541015"><ele>613.0</ele><time>2026-05-04T14:26:02.706Z</time></trkpt><trkpt lat="43.4420167" lon="11.5411117"><ele>613.0</ele><time>2026-05-04T14:26:03.707Z</time></trkpt><trkpt lat="43.4420533" lon="11.5412683"><ele>613.0</ele><time>2026-05-04T14:26:05.706Z</time></trkpt><trkpt lat="43.4420733" lon="11.5414383"><ele>610.3333333333334</ele><time>2026-05-04T14:26:07.707Z</time></trkpt><trkpt lat="43.44208" lon="11.5415533"><ele>607.6666666666667</ele><time>2026-05-04T14:26:08.706Z</time></trkpt><trkpt lat="43.4420633" lon="11.54167"><ele>605.0</ele><time>2026-05-04T14:26:09.706Z</time></trkpt><trkpt lat="43.4420633" lon="11.5417833"><ele>602.3333333333334</ele><time>2026-05-04T14:26:10.705Z</time></trkpt><trkpt lat="43.4420633" lon="11.5418933"><ele>599.6666666666666</ele><time>2026-05-04T14:26:11.705Z</time></trkpt><trkpt lat="43.4420533" lon="11.54199"><ele>597.0</ele><time>2026-05-04T14:26:12.705Z</time></trkpt><trkpt lat="43.4420483" lon="11.542085"><ele>594.8333333333334</ele><time>2026-05-04T14:26:13.704Z</time></trkpt><trkpt lat="43.442055" lon="11.5421817"><ele>592.6666666666666</ele><time>2026-05-04T14:26:14.706Z</time></trkpt><trkpt lat="43.4420733" lon="11.5422817"><ele>590.5</ele><time>2026-05-04T14:26:15.706Z</time></trkpt><trkpt lat="43.4421167" lon="11.542395"><ele>588.3333333333333</ele><time>2026-05-04T14:26:16.706Z</time></trkpt><trkpt lat="43.4421733" lon="11.542525"><ele>586.1666666666666</ele><time>2026-05-04T14:26:17.706Z</time></trkpt><trkpt lat="43.4422217" lon="11.542635"><ele>584.0</ele><time>2026-05-04T14:26:18.706Z</time></trkpt><trkpt lat="43.442255" lon="11.5427367"><ele>584.0</ele><time>2026-05-04T14:26:19.709Z</time></trkpt><trkpt lat="43.442295" lon="11.5428283"><ele>584.0</ele><time>2026-05-04T14:26:20.708Z</time></trkpt><trkpt lat="43.442325" lon="11.542925"><ele>584.0</ele><time>2026-05-04T14:26:21.707Z</time></trkpt><trkpt lat="43.4423333" lon="11.54302"><ele>584.0</ele><time>2026-05-04T14:26:22.705Z</time></trkpt><trkpt lat="43.4423117" lon="11.5431217"><ele>584.0</ele><time>2026-05-04T14:26:23.706Z</time></trkpt><trkpt lat="43.4422783" lon="11.5432433"><ele>584.0</ele><time>2026-05-04T14:26:24.706Z</time></trkpt><trkpt lat="43.44226" lon="11.5433917"><ele>584.4</ele><time>2026-05-04T14:26:25.707Z</time></trkpt><trkpt lat="43.4422517" lon="11.543535"><ele>584.8</ele><time>2026-05-04T14:26:26.706Z</time></trkpt><trkpt lat="43.442255" lon="11.543675"><ele>585.2</ele><time>2026-05-04T14:26:27.707Z</time></trkpt><trkpt lat="43.442275" lon="11.5438133"><ele>585.6</ele><time>2026-05-04T14:26:28.705Z</time></trkpt><trkpt lat="43.4423017" lon="11.5439367"><ele>586.0</ele><time>2026-05-04T14:26:29.705Z</time></trkpt><trkpt lat="43.4423267" lon="11.54406"><ele>586.6666666666667</ele><time>2026-05-04T14:26:30.705Z</time></trkpt><trkpt lat="43.4423467" lon="11.5441883"><ele>587.3333333333334</ele><time>2026-05-04T14:26:31.707Z</time></trkpt><trkpt lat="43.442365" lon="11.5442967"><ele>588.0</ele><time>2026-05-04T14:26:32.705Z</time></trkpt><trkpt lat="43.4423933" lon="11.5443983"><ele>588.6666666666666</ele><time>2026-05-04T14:26:33.706Z</time></trkpt><trkpt lat="43.4424333" lon="11.544495"><ele>589.3333333333333</ele><time>2026-05-04T14:26:34.705Z</time></trkpt><trkpt lat="43.4424783" lon="11.5445967"><ele>590.0</ele><time>2026-05-04T14:26:35.706Z</time></trkpt><trkpt lat="43.4425367" lon="11.54471"><ele>592.75</ele><time>2026-05-04T14:26:36.706Z</time></trkpt><trkpt lat="43.4426" lon="11.54484"><ele>595.5</ele><time>2026-05-04T14:26:37.705Z</time></trkpt><trkpt lat="43.4426583" lon="11.5449733"><ele>598.25</ele><time>2026-05-04T14:26:38.707Z</time></trkpt><trkpt lat="43.4427117" lon="11.545115"><ele>601.0</ele><time>2026-05-04T14:26:39.705Z</time></trkpt><trkpt lat="43.44276" lon="11.5452633"><ele>603.0</ele><time>2026-05-04T14:26:40.705Z</time></trkpt><trkpt lat="43.4428033" lon="11.5454133"><ele>605.0</ele><time>2026-05-04T14:26:41.705Z</time></trkpt><trkpt lat="43.4428483" lon="11.5455583"><ele>607.0</ele><time>2026-05-04T14:26:42.706Z</time></trkpt><trkpt lat="43.4428883" lon="11.5456967"><ele>609.0</ele><time>2026-05-04T14:26:43.705Z</time></trkpt><trkpt lat="43.4429067" lon="11.5458167"><ele>611.0</ele><time>2026-05-04T14:26:44.705Z</time></trkpt><trkpt lat="43.4429083" lon="11.5459317"><ele>611.0</ele><time>2026-05-04T14:26:45.706Z</time></trkpt><trkpt lat="43.4428983" lon="11.5460533"><ele>611.0</ele><time>2026-05-04T14:26:46.706Z</time></trkpt><trkpt lat="43.4428583" lon="11.54616"><ele>611.0</ele><time>2026-05-04T14:26:47.705Z</time></trkpt><trkpt lat="43.4428117" lon="11.5462733"><ele>611.0</ele><time>2026-05-04T14:26:48.704Z</time></trkpt><trkpt lat="43.4427317" lon="11.5463383"><ele>611.0</ele><time>2026-05-04T14:26:49.707Z</time></trkpt><trkpt lat="43.4426467" lon="11.5463867"><ele>609.0</ele><time>2026-05-04T14:26:50.704Z</time></trkpt><trkpt lat="43.442555" lon="11.5464367"><ele>607.0</ele><time>2026-05-04T14:26:51.709Z</time></trkpt><trkpt lat="43.4424633" lon="11.5465017"><ele>605.0</ele><time>2026-05-04T14:26:52.706Z</time></trkpt><trkpt lat="43.44238" lon="11.54658"><ele>603.0</ele><time>2026-05-04T14:26:53.706Z</time></trkpt><trkpt lat="43.44231" lon="11.5466817"><ele>601.0</ele><time>2026-05-04T14:26:54.705Z</time></trkpt><trkpt lat="43.4422517" lon="11.54679"><ele>601.0</ele><time>2026-05-04T14:26:55.706Z</time></trkpt><trkpt lat="43.4422133" lon="11.546905"><ele>601.0</ele><time>2026-05-04T14:26:56.706Z</time></trkpt><trkpt lat="43.44219" lon="11.5470333"><ele>601.0</ele><time>2026-05-04T14:26:57.706Z</time></trkpt><trkpt lat="43.44217" lon="11.547155"><ele>601.0</ele><time>2026-05-04T14:26:58.705Z</time></trkpt><trkpt lat="43.4421617" lon="11.5472833"><ele>601.0</ele><time>2026-05-04T14:26:59.705Z</time></trkpt><trkpt lat="43.44217" lon="11.5474133"><ele>599.2</ele><time>2026-05-04T14:27:00.705Z</time></trkpt><trkpt lat="43.44219" lon="11.54753"><ele>597.4000000000001</ele><time>2026-05-04T14:27:01.706Z</time></trkpt><trkpt lat="43.4422283" lon="11.5476383"><ele>595.6</ele><time>2026-05-04T14:27:02.706Z</time></trkpt><trkpt lat="43.4422667" lon="11.547755"><ele>593.8000000000001</ele><time>2026-05-04T14:27:03.705Z</time></trkpt><trkpt lat="43.4423033" lon="11.5479033"><ele>592.0</ele><time>2026-05-04T14:27:04.705Z</time></trkpt><trkpt lat="43.4423283" lon="11.5480617"><ele>592.0</ele><time>2026-05-04T14:27:05.705Z</time></trkpt><trkpt lat="43.4423367" lon="11.54823"><ele>592.0</ele><time>2026-05-04T14:27:06.705Z</time></trkpt><trkpt lat="43.4423417" lon="11.54838"><ele>592.0</ele><time>2026-05-04T14:27:07.707Z</time></trkpt><trkpt lat="43.44234" lon="11.5485433"><ele>592.0</ele><time>2026-05-04T14:27:08.706Z</time></trkpt><trkpt lat="43.4423367" lon="11.5487133"><ele>592.5</ele><time>2026-05-04T14:27:09.709Z</time></trkpt><trkpt lat="43.4423333" lon="11.548885"><ele>593.0</ele><time>2026-05-04T14:27:10.707Z</time></trkpt><trkpt lat="43.4423283" lon="11.549075"><ele>593.5</ele><time>2026-05-04T14:27:11.707Z</time></trkpt><trkpt lat="43.44233" lon="11.5492533"><ele>594.0</ele><time>2026-05-04T14:27:12.707Z</time></trkpt><trkpt lat="43.442325" lon="11.54942"><ele>593.6</ele><time>2026-05-04T14:27:13.707Z</time></trkpt><trkpt lat="43.44231" lon="11.5495717"><ele>593.2</ele><time>2026-05-04T14:27:14.707Z</time></trkpt><trkpt lat="43.44227" lon="11.5497133"><ele>592.8000000000001</ele><time>2026-05-04T14:27:15.707Z</time></trkpt><trkpt lat="43.442225" lon="11.549835"><ele>592.4</ele><time>2026-05-04T14:27:16.705Z</time></trkpt><trkpt lat="43.4421783" lon="11.5499383"><ele>592.0</ele><time>2026-05-04T14:27:17.704Z</time></trkpt><trkpt lat="43.4421467" lon="11.5500267"><ele>592.0</ele><time>2026-05-04T14:27:18.705Z</time></trkpt><trkpt lat="43.4421267" lon="11.5501133"><ele>592.0</ele><time>2026-05-04T14:27:19.706Z</time></trkpt><trkpt lat="43.4421283" lon="11.55021"><ele>592.0</ele><time>2026-05-04T14:27:20.706Z</time></trkpt><trkpt lat="43.4421933" lon="11.550355"><ele>592.0</ele><time>2026-05-04T14:27:21.706Z</time></trkpt><trkpt lat="43.4422633" lon="11.5505117"><ele>592.0</ele><time>2026-05-04T14:27:22.706Z</time></trkpt><trkpt lat="43.4423283" lon="11.5506767"><ele>591.0</ele><time>2026-05-04T14:27:23.704Z</time></trkpt><trkpt lat="43.4423867" lon="11.55083"><ele>590.0</ele><time>2026-05-04T14:27:24.706Z</time></trkpt><trkpt lat="43.442455" lon="11.5509667"><ele>589.0</ele><time>2026-05-04T14:27:25.702Z</time></trkpt><trkpt lat="43.4425367" lon="11.5510783"><ele>588.0</ele><time>2026-05-04T14:27:26.705Z</time></trkpt><trkpt lat="43.442625" lon="11.5511683"><ele>589.4</ele><time>2026-05-04T14:27:27.705Z</time></trkpt><trkpt lat="43.4427067" lon="11.55125"><ele>590.8</ele><time>2026-05-04T14:27:28.706Z</time></trkpt><trkpt lat="43.4427783" lon="11.5513517"><ele>592.2</ele><time>2026-05-04T14:27:29.705Z</time></trkpt><trkpt lat="43.4428417" lon="11.5514683"><ele>593.6</ele><time>2026-05-04T14:27:30.706Z</time></trkpt><trkpt lat="43.4428967" lon="11.5515933"><ele>595.0</ele><time>2026-05-04T14:27:31.706Z</time></trkpt><trkpt lat="43.4429683" lon="11.5517183"><ele>594.5</ele><time>2026-05-04T14:27:32.706Z</time></trkpt><trkpt lat="43.4430467" lon="11.5518433"><ele>594.0</ele><time>2026-05-04T14:27:33.708Z</time></trkpt><trkpt lat="43.4431267" lon="11.55197"><ele>593.5</ele><time>2026-05-04T14:27:34.714Z</time></trkpt><trkpt lat="43.4432033" lon="11.5521183"><ele>593.0</ele><time>2026-05-04T14:27:35.706Z</time></trkpt><trkpt lat="43.4432733" lon="11.5522767"><ele>593.0</ele><time>2026-05-04T14:27:36.706Z</time></trkpt><trkpt lat="43.44334" lon="11.5524433"><ele>593.0</ele><time>2026-05-04T14:27:37.707Z</time></trkpt><trkpt lat="43.4433967" lon="11.5525967"><ele>593.0</ele><time>2026-05-04T14:27:38.706Z</time></trkpt><trkpt lat="43.443445" lon="11.55275"><ele>593.0</ele><time>2026-05-04T14:27:39.708Z</time></trkpt><trkpt lat="43.4434917" lon="11.55291"><ele>597.75</ele><time>2026-05-04T14:27:40.706Z</time></trkpt><trkpt lat="43.44355" lon="11.5530583"><ele>602.5</ele><time>2026-05-04T14:27:41.704Z</time></trkpt><trkpt lat="43.4436017" lon="11.5532067"><ele>607.25</ele><time>2026-05-04T14:27:42.706Z</time></trkpt><trkpt lat="43.44364" lon="11.5533583"><ele>612.0</ele><time>2026-05-04T14:27:43.706Z</time></trkpt><trkpt lat="43.4436783" lon="11.5535167"><ele>612.0</ele><time>2026-05-04T14:27:44.705Z</time></trkpt><trkpt lat="43.4437217" lon="11.5536533"><ele>612.0</ele><time>2026-05-04T14:27:45.706Z</time></trkpt><trkpt lat="43.443765" lon="11.55377"><ele>612.0</ele><time>2026-05-04T14:27:46.707Z</time></trkpt><trkpt lat="43.4438067" lon="11.553895"><ele>612.0</ele><time>2026-05-04T14:27:47.705Z</time></trkpt><trkpt lat="43.44385" lon="11.55405"><ele>612.0</ele><time>2026-05-04T14:27:48.706Z</time></trkpt><trkpt lat="43.4439067" lon="11.5542417"><ele>608.0</ele><time>2026-05-04T14:27:49.705Z</time></trkpt><trkpt lat="43.4439817" lon="11.5544383"><ele>604.0</ele><time>2026-05-04T14:27:50.706Z</time></trkpt><trkpt lat="43.4440567" lon="11.554635"><ele>600.0</ele><time>2026-05-04T14:27:51.706Z</time></trkpt><trkpt lat="43.4441333" lon="11.55481"><ele>600.0</ele><time>2026-05-04T14:27:52.705Z</time></trkpt><trkpt lat="43.4442083" lon="11.55497"><ele>600.0</ele><time>2026-05-04T14:27:53.704Z</time></trkpt><trkpt lat="43.44428" lon="11.5551333"><ele>600.0</ele><time>2026-05-04T14:27:54.706Z</time></trkpt><trkpt lat="43.4443483" lon="11.5552917"><ele>600.0</ele><time>2026-05-04T14:27:55.707Z</time></trkpt><trkpt lat="43.4444167" lon="11.5554317"><ele>602.0</ele><time>2026-05-04T14:27:56.706Z</time></trkpt><trkpt lat="43.444485" lon="11.5555683"><ele>604.0</ele><time>2026-05-04T14:27:57.706Z</time></trkpt><trkpt lat="43.4445317" lon="11.5556983"><ele>606.0</ele><time>2026-05-04T14:27:58.706Z</time></trkpt><trkpt lat="43.4445683" lon="11.55583"><ele>608.0</ele><time>2026-05-04T14:27:59.704Z</time></trkpt><trkpt lat="43.4445917" lon="11.555975"><ele>610.0</ele><time>2026-05-04T14:28:00.704Z</time></trkpt><trkpt lat="43.4445983" lon="11.5561283"><ele>610.75</ele><time>2026-05-04T14:28:01.702Z</time></trkpt><trkpt lat="43.4445867" lon="11.5562967"><ele>611.5</ele><time>2026-05-04T14:28:02.704Z</time></trkpt><trkpt lat="43.4445667" lon="11.5564567"><ele>612.25</ele><time>2026-05-04T14:28:03.706Z</time></trkpt><trkpt lat="43.4445333" lon="11.556615"><ele>613.0</ele><time>2026-05-04T14:28:04.705Z</time></trkpt><trkpt lat="43.4444817" lon="11.55675"><ele>613.0</ele><time>2026-05-04T14:28:05.705Z</time></trkpt><trkpt lat="43.4444167" lon="11.5568683"><ele>613.0</ele><time>2026-05-04T14:28:06.705Z</time></trkpt><trkpt lat="43.4443417" lon="11.5569633"><ele>613.0</ele><time>2026-05-04T14:28:07.705Z</time></trkpt><trkpt lat="43.4442583" lon="11.5570367"><ele>613.0</ele><time>2026-05-04T14:28:08.706Z</time></trkpt><trkpt lat="43.4441683" lon="11.5570967"><ele>613.0</ele><time>2026-05-04T14:28:09.706Z</time></trkpt><trkpt lat="43.4440633" lon="11.5571467"><ele>611.0</ele><time>2026-05-04T14:28:10.706Z</time></trkpt><trkpt lat="43.4439567" lon="11.557195"><ele>609.0</ele><time>2026-05-04T14:28:11.705Z</time></trkpt><trkpt lat="43.4438383" lon="11.5572367"><ele>607.0</ele><time>2026-05-04T14:28:12.706Z</time></trkpt><trkpt lat="43.4437167" lon="11.5572833"><ele>605.0</ele><time>2026-05-04T14:28:13.705Z</time></trkpt><trkpt lat="43.4436" lon="11.5573367"><ele>604.8</ele><time>2026-05-04T14:28:14.706Z</time></trkpt><trkpt lat="43.4435033" lon="11.55741"><ele>604.6</ele><time>2026-05-04T14:28:15.706Z</time></trkpt><trkpt lat="43.4434317" lon="11.5575083"><ele>604.4</ele><time>2026-05-04T14:28:16.704Z</time></trkpt><trkpt lat="43.4433733" lon="11.5576133"><ele>604.2</ele><time>2026-05-04T14:28:17.704Z</time></trkpt><trkpt lat="43.443335" lon="11.5577067"><ele>604.0</ele><time>2026-05-04T14:28:18.706Z</time></trkpt><trkpt lat="43.4433017" lon="11.5578017"><ele>603.5</ele><time>2026-05-04T14:28:19.704Z</time></trkpt><trkpt lat="43.44328" lon="11.5579"><ele>603.0</ele><time>2026-05-04T14:28:20.705Z</time></trkpt><trkpt lat="43.4432867" lon="11.558"><ele>602.5</ele><time>2026-05-04T14:28:21.705Z</time></trkpt><trkpt lat="43.4433183" lon="11.558105"><ele>602.0</ele><time>2026-05-04T14:28:22.705Z</time></trkpt><trkpt lat="43.44334" lon="11.55819"><ele>601.5</ele><time>2026-05-04T14:28:23.705Z</time></trkpt><trkpt lat="43.443275" lon="11.5582683"><ele>601.0</ele><time>2026-05-04T14:28:25.706Z</time></trkpt><trkpt lat="43.4432067" lon="11.5582733"><ele>601.0</ele><time>2026-05-04T14:28:26.707Z</time></trkpt><trkpt lat="43.44313" lon="11.5582783"><ele>601.0</ele><time>2026-05-04T14:28:27.707Z</time></trkpt><trkpt lat="43.4430317" lon="11.558285"><ele>601.0</ele><time>2026-05-04T14:28:28.706Z</time></trkpt><trkpt lat="43.4429267" lon="11.5583167"><ele>601.0</ele><time>2026-05-04T14:28:29.705Z</time></trkpt><trkpt lat="43.4428283" lon="11.5583533"><ele>601.0</ele><time>2026-05-04T14:28:30.705Z</time></trkpt><trkpt lat="43.442725" lon="11.5584033"><ele>599.0</ele><time>2026-05-04T14:28:31.707Z</time></trkpt><trkpt lat="43.44262" lon="11.55845"><ele>597.0</ele><time>2026-05-04T14:28:32.706Z</time></trkpt><trkpt lat="43.4425167" lon="11.5585167"><ele>595.0</ele><time>2026-05-04T14:28:33.706Z</time></trkpt><trkpt lat="43.4424017" lon="11.5585967"><ele>593.0</ele><time>2026-05-04T14:28:34.706Z</time></trkpt><trkpt lat="43.4422767" lon="11.5586733"><ele>593.75</ele><time>2026-05-04T14:28:35.71Z</time></trkpt><trkpt lat="43.442165" lon="11.5587333"><ele>594.5</ele><time>2026-05-04T14:28:36.705Z</time></trkpt><trkpt lat="43.44205" lon="11.558785"><ele>595.25</ele><time>2026-05-04T14:28:37.705Z</time></trkpt><trkpt lat="43.441925" lon="11.5588417"><ele>596.0</ele><time>2026-05-04T14:28:38.704Z</time></trkpt><trkpt lat="43.4418067" lon="11.5589033"><ele>596.0</ele><time>2026-05-04T14:28:39.706Z</time></trkpt><trkpt lat="43.4417" lon="11.55896"><ele>596.0</ele><time>2026-05-04T14:28:40.706Z</time></trkpt><trkpt lat="43.4416067" lon="11.5590283"><ele>596.0</ele><time>2026-05-04T14:28:41.705Z</time></trkpt><trkpt lat="43.4415133" lon="11.5591"><ele>596.0</ele><time>2026-05-04T14:28:42.705Z</time></trkpt><trkpt lat="43.4414417" lon="11.5591833"><ele>596.0</ele><time>2026-05-04T14:28:43.706Z</time></trkpt><trkpt lat="43.44138" lon="11.5592883"><ele>596.0</ele><time>2026-05-04T14:28:44.705Z</time></trkpt><trkpt lat="43.4413233" lon="11.5594167"><ele>596.0</ele><time>2026-05-04T14:28:45.707Z</time></trkpt><trkpt lat="43.4412683" lon="11.5595683"><ele>596.0</ele><time>2026-05-04T14:28:46.705Z</time></trkpt><trkpt lat="43.4412117" lon="11.5597183"><ele>596.0</ele><time>2026-05-04T14:28:47.705Z</time></trkpt><trkpt lat="43.4411617" lon="11.5598667"><ele>595.25</ele><time>2026-05-04T14:28:48.704Z</time></trkpt><trkpt lat="43.4411083" lon="11.5600133"><ele>594.5</ele><time>2026-05-04T14:28:49.704Z</time></trkpt><trkpt lat="43.4410617" lon="11.5601683"><ele>593.75</ele><time>2026-05-04T14:28:50.708Z</time></trkpt><trkpt lat="43.4410167" lon="11.5603167"><ele>593.0</ele><time>2026-05-04T14:28:51.706Z</time></trkpt><trkpt lat="43.440985" lon="11.5604617"><ele>593.0</ele><time>2026-05-04T14:28:52.705Z</time></trkpt><trkpt lat="43.4409767" lon="11.5606083"><ele>593.0</ele><time>2026-05-04T14:28:53.705Z</time></trkpt><trkpt lat="43.44098" lon="11.5607417"><ele>593.0</ele><time>2026-05-04T14:28:54.705Z</time></trkpt><trkpt lat="43.4409717" lon="11.5608617"><ele>593.0</ele><time>2026-05-04T14:28:55.707Z</time></trkpt><trkpt lat="43.4409467" lon="11.5609683"><ele>593.0</ele><time>2026-05-04T14:28:56.706Z</time></trkpt><trkpt lat="43.440905" lon="11.56105"><ele>593.0</ele><time>2026-05-04T14:28:57.706Z</time></trkpt><trkpt lat="43.44084" lon="11.5610917"><ele>593.0</ele><time>2026-05-04T14:28:58.705Z</time></trkpt><trkpt lat="43.4407617" lon="11.5611033"><ele>593.0</ele><time>2026-05-04T14:28:59.705Z</time></trkpt><trkpt lat="43.4406733" lon="11.561095"><ele>593.0</ele><time>2026-05-04T14:29:00.705Z</time></trkpt><trkpt lat="43.4405817" lon="11.5610667"><ele>593.0</ele><time>2026-05-04T14:29:01.704Z</time></trkpt><trkpt lat="43.4404833" lon="11.5609867"><ele>593.0</ele><time>2026-05-04T14:29:02.706Z</time></trkpt><trkpt lat="43.44039" lon="11.56089"><ele>594.6</ele><time>2026-05-04T14:29:03.706Z</time></trkpt><trkpt lat="43.4403067" lon="11.5607817"><ele>596.1999999999999</ele><time>2026-05-04T14:29:04.707Z</time></trkpt><trkpt lat="43.440235" lon="11.5606717"><ele>597.8</ele><time>2026-05-04T14:29:05.704Z</time></trkpt><trkpt lat="43.44017" lon="11.56056"><ele>599.4</ele><time>2026-05-04T14:29:06.705Z</time></trkpt><trkpt lat="43.4401117" lon="11.560455"><ele>601.0</ele><time>2026-05-04T14:29:07.706Z</time></trkpt><trkpt lat="43.440045" lon="11.5603667"><ele>600.0</ele><time>2026-05-04T14:29:08.704Z</time></trkpt><trkpt lat="43.4399667" lon="11.56029"><ele>599.0</ele><time>2026-05-04T14:29:09.706Z</time></trkpt><trkpt lat="43.439885" lon="11.5602183"><ele>598.0</ele><time>2026-05-04T14:29:10.704Z</time></trkpt><trkpt lat="43.43981" lon="11.5601533"><ele>597.0</ele><time>2026-05-04T14:29:11.705Z</time></trkpt><trkpt lat="43.43974" lon="11.5600767"><ele>596.0</ele><time>2026-05-04T14:29:12.705Z</time></trkpt><trkpt lat="43.4396817" lon="11.5599767"><ele>599.0</ele><time>2026-05-04T14:29:13.706Z</time></trkpt><trkpt lat="43.43963" lon="11.5598567"><ele>602.0</ele><time>2026-05-04T14:29:14.703Z</time></trkpt><trkpt lat="43.43959" lon="11.5597417"><ele>605.0</ele><time>2026-05-04T14:29:15.706Z</time></trkpt><trkpt lat="43.4395617" lon="11.5596617"><ele>608.0</ele><time>2026-05-04T14:29:16.705Z</time></trkpt><trkpt lat="43.4395233" lon="11.5595833"><ele>611.0</ele><time>2026-05-04T14:29:17.706Z</time></trkpt><trkpt lat="43.4394717" lon="11.5594967"><ele>614.0</ele><time>2026-05-04T14:29:18.706Z</time></trkpt><trkpt lat="43.4394033" lon="11.559415"><ele>614.1666666666666</ele><time>2026-05-04T14:29:19.706Z</time></trkpt><trkpt lat="43.43933" lon="11.5593417"><ele>614.3333333333333</ele><time>2026-05-04T14:29:20.707Z</time></trkpt><trkpt lat="43.4392633" lon="11.55928"><ele>614.5</ele><time>2026-05-04T14:29:21.706Z</time></trkpt><trkpt lat="43.4391983" lon="11.559205"><ele>614.6666666666666</ele><time>2026-05-04T14:29:22.705Z</time></trkpt><trkpt lat="43.4391483" lon="11.5591367"><ele>614.8333333333334</ele><time>2026-05-04T14:29:23.705Z</time></trkpt><trkpt lat="43.43905" lon="11.55908"><ele>615.0</ele><time>2026-05-04T14:29:25.706Z</time></trkpt><trkpt lat="43.4389317" lon="11.5591083"><ele>615.0</ele><time>2026-05-04T14:29:27.708Z</time></trkpt><trkpt lat="43.438865" lon="11.5591367"><ele>615.0</ele><time>2026-05-04T14:29:28.706Z</time></trkpt><trkpt lat="43.4387917" lon="11.559145"><ele>615.0</ele><time>2026-05-04T14:29:29.705Z</time></trkpt><trkpt lat="43.4387217" lon="11.559135"><ele>615.0</ele><time>2026-05-04T14:29:30.706Z</time></trkpt><trkpt lat="43.4386583" lon="11.559105"><ele>615.0</ele><time>2026-05-04T14:29:31.706Z</time></trkpt><trkpt lat="43.4386" lon="11.55906"><ele>615.0</ele><time>2026-05-04T14:29:32.706Z</time></trkpt><trkpt lat="43.4385317" lon="11.5590233"><ele>615.0</ele><time>2026-05-04T14:29:33.706Z</time></trkpt><trkpt lat="43.4384567" lon="11.5589767"><ele>613.8333333333334</ele><time>2026-05-04T14:29:34.705Z</time></trkpt><trkpt lat="43.438375" lon="11.55894"><ele>612.6666666666666</ele><time>2026-05-04T14:29:35.705Z</time></trkpt><trkpt lat="43.4382917" lon="11.5589033"><ele>611.5</ele><time>2026-05-04T14:29:36.707Z</time></trkpt><trkpt lat="43.4382083" lon="11.55886"><ele>610.3333333333333</ele><time>2026-05-04T14:29:37.707Z</time></trkpt><trkpt lat="43.43813" lon="11.5588217"><ele>609.1666666666666</ele><time>2026-05-04T14:29:38.708Z</time></trkpt><trkpt lat="43.43805" lon="11.5587767"><ele>608.0</ele><time>2026-05-04T14:29:39.707Z</time></trkpt><trkpt lat="43.4379633" lon="11.5587383"><ele>607.8333333333333</ele><time>2026-05-04T14:29:40.704Z</time></trkpt><trkpt lat="43.4378833" lon="11.558695"><ele>607.6666666666666</ele><time>2026-05-04T14:29:41.706Z</time></trkpt><trkpt lat="43.437805" lon="11.558655"><ele>607.5</ele><time>2026-05-04T14:29:42.705Z</time></trkpt><trkpt lat="43.437735" lon="11.5586133"><ele>607.3333333333334</ele><time>2026-05-04T14:29:43.706Z</time></trkpt><trkpt lat="43.43768" lon="11.558555"><ele>607.1666666666667</ele><time>2026-05-04T14:29:44.706Z</time></trkpt><trkpt lat="43.437595" lon="11.5584617"><ele>607.0</ele><time>2026-05-04T14:29:46.706Z</time></trkpt><trkpt lat="43.4375167" lon="11.5584683"><ele>607.0</ele><time>2026-05-04T14:29:48.707Z</time></trkpt><trkpt lat="43.4374483" lon="11.558635"><ele>607.0</ele><time>2026-05-04T14:29:50.705Z</time></trkpt><trkpt lat="43.43739" lon="11.558735"><ele>607.0</ele><time>2026-05-04T14:29:51.706Z</time></trkpt><trkpt lat="43.43733" lon="11.558815"><ele>607.0</ele><time>2026-05-04T14:29:52.705Z</time></trkpt><trkpt lat="43.4372633" lon="11.5588883"><ele>607.0</ele><time>2026-05-04T14:29:53.705Z</time></trkpt><trkpt lat="43.43719" lon="11.5589667"><ele>606.3333333333334</ele><time>2026-05-04T14:29:54.706Z</time></trkpt><trkpt lat="43.4371183" lon="11.5590217"><ele>605.6666666666667</ele><time>2026-05-04T14:29:55.706Z</time></trkpt><trkpt lat="43.4370383" lon="11.5590917"><ele>605.0</ele><time>2026-05-04T14:29:56.707Z</time></trkpt><trkpt lat="43.43697" lon="11.55915"><ele>604.3333333333334</ele><time>2026-05-04T14:29:57.706Z</time></trkpt><trkpt lat="43.436895" lon="11.5592317"><ele>603.6666666666666</ele><time>2026-05-04T14:29:58.704Z</time></trkpt><trkpt lat="43.4368233" lon="11.559305"><ele>603.0</ele><time>2026-05-04T14:29:59.705Z</time></trkpt><trkpt lat="43.4367483" lon="11.55937"><ele>603.0</ele><time>2026-05-04T14:30:00.706Z</time></trkpt><trkpt lat="43.4366767" lon="11.5594233"><ele>603.0</ele><time>2026-05-04T14:30:01.706Z</time></trkpt><trkpt lat="43.436605" lon="11.5594533"><ele>603.0</ele><time>2026-05-04T14:30:02.705Z</time></trkpt><trkpt lat="43.4365317" lon="11.55946"><ele>603.0</ele><time>2026-05-04T14:30:03.707Z</time></trkpt><trkpt lat="43.4364333" lon="11.5594467"><ele>603.0</ele><time>2026-05-04T14:30:04.704Z</time></trkpt><trkpt lat="43.4363433" lon="11.5594017"><ele>603.0</ele><time>2026-05-04T14:30:05.705Z</time></trkpt><trkpt lat="43.4362533" lon="11.5593367"><ele>602.8333333333334</ele><time>2026-05-04T14:30:06.706Z</time></trkpt><trkpt lat="43.4361717" lon="11.5592633"><ele>602.6666666666666</ele><time>2026-05-04T14:30:07.709Z</time></trkpt><trkpt lat="43.4360983" lon="11.5591917"><ele>602.5</ele><time>2026-05-04T14:30:08.706Z</time></trkpt><trkpt lat="43.4360317" lon="11.5591233"><ele>602.3333333333333</ele><time>2026-05-04T14:30:09.707Z</time></trkpt><trkpt lat="43.4359733" lon="11.5590633"><ele>602.1666666666666</ele><time>2026-05-04T14:30:10.706Z</time></trkpt><trkpt lat="43.4359217" lon="11.5589983"><ele>602.0</ele><time>2026-05-04T14:30:11.705Z</time></trkpt><trkpt lat="43.4358583" lon="11.5589617"><ele>602.0</ele><time>2026-05-04T14:30:13.707Z</time></trkpt><trkpt lat="43.435795" lon="11.5590433"><ele>602.0</ele><time>2026-05-04T14:30:15.707Z</time></trkpt><trkpt lat="43.435785" lon="11.5592033"><ele>602.0</ele><time>2026-05-04T14:30:17.706Z</time></trkpt><trkpt lat="43.4358033" lon="11.5593333"><ele>602.0</ele><time>2026-05-04T14:30:18.706Z</time></trkpt><trkpt lat="43.4358133" lon="11.5594633"><ele>602.0</ele><time>2026-05-04T14:30:19.707Z</time></trkpt><trkpt lat="43.4358167" lon="11.5596083"><ele>601.1666666666666</ele><time>2026-05-04T14:30:20.705Z</time></trkpt><trkpt lat="43.43581" lon="11.5597417"><ele>600.3333333333333</ele><time>2026-05-04T14:30:21.706Z</time></trkpt><trkpt lat="43.4357967" lon="11.5598583"><ele>599.5</ele><time>2026-05-04T14:30:22.705Z</time></trkpt><trkpt lat="43.4357683" lon="11.559945"><ele>598.6666666666666</ele><time>2026-05-04T14:30:23.705Z</time></trkpt><trkpt lat="43.4357217" lon="11.560015"><ele>597.8333333333334</ele><time>2026-05-04T14:30:24.707Z</time></trkpt><trkpt lat="43.435645" lon="11.560025"><ele>597.0</ele><time>2026-05-04T14:30:25.706Z</time></trkpt><trkpt lat="43.4355817" lon="11.5600533"><ele>597.0</ele><time>2026-05-04T14:30:26.706Z</time></trkpt><trkpt lat="43.4355233" lon="11.560095"><ele>597.0</ele><time>2026-05-04T14:30:27.706Z</time></trkpt><trkpt lat="43.435485" lon="11.56019"><ele>597.0</ele><time>2026-05-04T14:30:28.706Z</time></trkpt><trkpt lat="43.4354667" lon="11.5603117"><ele>597.0</ele><time>2026-05-04T14:30:29.706Z</time></trkpt><trkpt lat="43.4354467" lon="11.5604483"><ele>597.0</ele><time>2026-05-04T14:30:30.707Z</time></trkpt><trkpt lat="43.4354283" lon="11.5605867"><ele>597.0</ele><time>2026-05-04T14:30:31.705Z</time></trkpt><trkpt lat="43.4354083" lon="11.5607233"><ele>599.0</ele><time>2026-05-04T14:30:32.704Z</time></trkpt><trkpt lat="43.4354033" lon="11.5608633"><ele>601.0</ele><time>2026-05-04T14:30:33.708Z</time></trkpt><trkpt lat="43.43538" lon="11.5609883"><ele>603.0</ele><time>2026-05-04T14:30:34.705Z</time></trkpt><trkpt lat="43.4353483" lon="11.5610967"><ele>605.0</ele><time>2026-05-04T14:30:35.705Z</time></trkpt><trkpt lat="43.435305" lon="11.561195"><ele>607.0</ele><time>2026-05-04T14:30:36.706Z</time></trkpt><trkpt lat="43.435245" lon="11.5612833"><ele>607.0</ele><time>2026-05-04T14:30:37.706Z</time></trkpt><trkpt lat="43.4351683" lon="11.5613567"><ele>607.0</ele><time>2026-05-04T14:30:38.705Z</time></trkpt><trkpt lat="43.4350767" lon="11.561415"><ele>607.0</ele><time>2026-05-04T14:30:39.706Z</time></trkpt><trkpt lat="43.4350017" lon="11.5614667"><ele>607.0</ele><time>2026-05-04T14:30:40.706Z</time></trkpt><trkpt lat="43.43493" lon="11.561515"><ele>607.0</ele><time>2026-05-04T14:30:41.707Z</time></trkpt><trkpt lat="43.4348483" lon="11.5615567"><ele>607.0</ele><time>2026-05-04T14:30:42.705Z</time></trkpt><trkpt lat="43.4347567" lon="11.5615917"><ele>607.0</ele><time>2026-05-04T14:30:43.707Z</time></trkpt><trkpt lat="43.4346433" lon="11.5615917"><ele>607.0</ele><time>2026-05-04T14:30:44.705Z</time></trkpt><trkpt lat="43.43452" lon="11.5615983"><ele>607.0</ele><time>2026-05-04T14:30:45.707Z</time></trkpt><trkpt lat="43.434395" lon="11.5616033"><ele>607.0</ele><time>2026-05-04T14:30:46.706Z</time></trkpt><trkpt lat="43.43428" lon="11.561605"><ele>607.5</ele><time>2026-05-04T14:30:47.706Z</time></trkpt><trkpt lat="43.43418" lon="11.5616033"><ele>608.0</ele><time>2026-05-04T14:30:48.707Z</time></trkpt><trkpt lat="43.4341" lon="11.56161"><ele>608.5</ele><time>2026-05-04T14:30:49.706Z</time></trkpt><trkpt lat="43.4340267" lon="11.5616167"><ele>609.0</ele><time>2026-05-04T14:30:50.705Z</time></trkpt><trkpt lat="43.4339467" lon="11.56165"><ele>609.5</ele><time>2026-05-04T14:30:51.707Z</time></trkpt><trkpt lat="43.433865" lon="11.5617167"><ele>610.0</ele><time>2026-05-04T14:30:52.705Z</time></trkpt><trkpt lat="43.4338" lon="11.5617817"><ele>610.8</ele><time>2026-05-04T14:30:53.703Z</time></trkpt><trkpt lat="43.43373" lon="11.5619"><ele>611.6</ele><time>2026-05-04T14:30:55.706Z</time></trkpt><trkpt lat="43.4337183" lon="11.5620017"><ele>612.4</ele><time>2026-05-04T14:30:56.706Z</time></trkpt><trkpt lat="43.4336967" lon="11.5621267"><ele>613.2</ele><time>2026-05-04T14:30:57.707Z</time></trkpt><trkpt lat="43.4336833" lon="11.56227"><ele>614.0</ele><time>2026-05-04T14:30:58.706Z</time></trkpt><trkpt lat="43.4336567" lon="11.562415"><ele>614.2</ele><time>2026-05-04T14:30:59.705Z</time></trkpt><trkpt lat="43.433635" lon="11.562555"><ele>614.4</ele><time>2026-05-04T14:31:00.706Z</time></trkpt><trkpt lat="43.4336083" lon="11.5626867"><ele>614.6</ele><time>2026-05-04T14:31:01.707Z</time></trkpt><trkpt lat="43.4335833" lon="11.5628283"><ele>614.8</ele><time>2026-05-04T14:31:02.706Z</time></trkpt><trkpt lat="43.433565" lon="11.562995"><ele>615.0</ele><time>2026-05-04T14:31:03.707Z</time></trkpt><trkpt lat="43.4335517" lon="11.563155"><ele>615.2</ele><time>2026-05-04T14:31:04.706Z</time></trkpt><trkpt lat="43.4335517" lon="11.5632883"><ele>615.4</ele><time>2026-05-04T14:31:05.705Z</time></trkpt><trkpt lat="43.43356" lon="11.5634083"><ele>615.6</ele><time>2026-05-04T14:31:06.706Z</time></trkpt><trkpt lat="43.433585" lon="11.5635267"><ele>615.8</ele><time>2026-05-04T14:31:07.705Z</time></trkpt><trkpt lat="43.4336317" lon="11.563635"><ele>616.0</ele><time>2026-05-04T14:31:08.704Z</time></trkpt><trkpt lat="43.433675" lon="11.5637467"><ele>616.6</ele><time>2026-05-04T14:31:09.705Z</time></trkpt><trkpt lat="43.43372" lon="11.5638633"><ele>617.2</ele><time>2026-05-04T14:31:10.706Z</time></trkpt><trkpt lat="43.4337517" lon="11.56399"><ele>617.8</ele><time>2026-05-04T14:31:11.704Z</time></trkpt><trkpt lat="43.4337767" lon="11.564115"><ele>618.4</ele><time>2026-05-04T14:31:12.706Z</time></trkpt><trkpt lat="43.4337917" lon="11.5642467"><ele>619.0</ele><time>2026-05-04T14:31:13.705Z</time></trkpt><trkpt lat="43.4337983" lon="11.5643767"><ele>617.6666666666667</ele><time>2026-05-04T14:31:14.706Z</time></trkpt><trkpt lat="43.4338117" lon="11.5644983"><ele>616.3333333333334</ele><time>2026-05-04T14:31:15.707Z</time></trkpt><trkpt lat="43.4338217" lon="11.564605"><ele>615.0</ele><time>2026-05-04T14:31:16.706Z</time></trkpt><trkpt lat="43.43382" lon="11.5647017"><ele>613.6666666666666</ele><time>2026-05-04T14:31:17.705Z</time></trkpt><trkpt lat="43.4337983" lon="11.564795"><ele>612.3333333333333</ele><time>2026-05-04T14:31:18.705Z</time></trkpt><trkpt lat="43.4337583" lon="11.56488"><ele>611.0</ele><time>2026-05-04T14:31:19.707Z</time></trkpt><trkpt lat="43.4337" lon="11.5649583"><ele>611.0000000000001</ele><time>2026-05-04T14:31:20.707Z</time></trkpt><trkpt lat="43.4336283" lon="11.5650317"><ele>611.0</ele><time>2026-05-04T14:31:21.706Z</time></trkpt><trkpt lat="43.4335617" lon="11.565095"><ele>611.0</ele><time>2026-05-04T14:31:22.707Z</time></trkpt><trkpt lat="43.4335083" lon="11.56516"><ele>611.0</ele><time>2026-05-04T14:31:23.705Z</time></trkpt><trkpt lat="43.4334633" lon="11.5652333"><ele>611.0</ele><time>2026-05-04T14:31:24.706Z</time></trkpt><trkpt lat="43.433425" lon="11.5653083"><ele>611.0000000000001</ele><time>2026-05-04T14:31:25.707Z</time></trkpt><trkpt lat="43.4333917" lon="11.565395"><ele>611.0</ele><time>2026-05-04T14:31:26.706Z</time></trkpt><trkpt lat="43.4333517" lon="11.5654967"><ele>607.0</ele><time>2026-05-04T14:31:27.708Z</time></trkpt><trkpt lat="43.43331" lon="11.5656017"><ele>603.0</ele><time>2026-05-04T14:31:28.707Z</time></trkpt><trkpt lat="43.433265" lon="11.5657117"><ele>599.0</ele><time>2026-05-04T14:31:29.707Z</time></trkpt><trkpt lat="43.4332283" lon="11.5658283"><ele>595.0</ele><time>2026-05-04T14:31:30.708Z</time></trkpt><trkpt lat="43.43319" lon="11.56595"><ele>591.0</ele><time>2026-05-04T14:31:31.707Z</time></trkpt><trkpt lat="43.4331433" lon="11.5660683"><ele>590.6</ele><time>2026-05-04T14:31:32.706Z</time></trkpt><trkpt lat="43.4330917" lon="11.5662"><ele>590.2</ele><time>2026-05-04T14:31:33.707Z</time></trkpt><trkpt lat="43.433045" lon="11.5663367"><ele>589.8</ele><time>2026-05-04T14:31:34.707Z</time></trkpt><trkpt lat="43.43299" lon="11.56645"><ele>589.4</ele><time>2026-05-04T14:31:35.705Z</time></trkpt><trkpt lat="43.432935" lon="11.5665433"><ele>589.0</ele><time>2026-05-04T14:31:36.706Z</time></trkpt><trkpt lat="43.4328733" lon="11.56663"><ele>591.0</ele><time>2026-05-04T14:31:37.705Z</time></trkpt><trkpt lat="43.432825" lon="11.5667267"><ele>593.0</ele><time>2026-05-04T14:31:38.705Z</time></trkpt><trkpt lat="43.43279" lon="11.566835"><ele>595.0</ele><time>2026-05-04T14:31:39.706Z</time></trkpt><trkpt lat="43.4327817" lon="11.56695"><ele>597.0</ele><time>2026-05-04T14:31:40.705Z</time></trkpt><trkpt lat="43.4327633" lon="11.5670617"><ele>599.0</ele><time>2026-05-04T14:31:41.705Z</time></trkpt><trkpt lat="43.4327467" lon="11.56717"><ele>601.0</ele><time>2026-05-04T14:31:42.705Z</time></trkpt><trkpt lat="43.43274" lon="11.5672933"><ele>601.6</ele><time>2026-05-04T14:31:43.705Z</time></trkpt><trkpt lat="43.4327233" lon="11.56743"><ele>602.2</ele><time>2026-05-04T14:31:44.705Z</time></trkpt><trkpt lat="43.432705" lon="11.5675633"><ele>602.8</ele><time>2026-05-04T14:31:45.706Z</time></trkpt><trkpt lat="43.43269" lon="11.5676867"><ele>603.4</ele><time>2026-05-04T14:31:46.705Z</time></trkpt><trkpt lat="43.4326733" lon="11.5678017"><ele>604.0</ele><time>2026-05-04T14:31:47.704Z</time></trkpt><trkpt lat="43.4326667" lon="11.567915"><ele>604.5</ele><time>2026-05-04T14:31:48.706Z</time></trkpt><trkpt lat="43.432655" lon="11.5680317"><ele>605.0</ele><time>2026-05-04T14:31:49.706Z</time></trkpt><trkpt lat="43.4326367" lon="11.5681483"><ele>605.5</ele><time>2026-05-04T14:31:50.705Z</time></trkpt><trkpt lat="43.4326183" lon="11.56827"><ele>606.0</ele><time>2026-05-04T14:31:51.706Z</time></trkpt><trkpt lat="43.4326033" lon="11.5684017"><ele>606.5</ele><time>2026-05-04T14:31:52.706Z</time></trkpt><trkpt lat="43.4325967" lon="11.5685167"><ele>607.0</ele><time>2026-05-04T14:31:53.705Z</time></trkpt><trkpt lat="43.4325983" lon="11.5686217"><ele>606.2</ele><time>2026-05-04T14:31:54.706Z</time></trkpt><trkpt lat="43.43262" lon="11.5687317"><ele>605.4000000000001</ele><time>2026-05-04T14:31:55.707Z</time></trkpt><trkpt lat="43.4326417" lon="11.5688533"><ele>604.5999999999999</ele><time>2026-05-04T14:31:56.706Z</time></trkpt><trkpt lat="43.4326617" lon="11.5689817"><ele>603.8</ele><time>2026-05-04T14:31:57.707Z</time></trkpt><trkpt lat="43.4326967" lon="11.569115"><ele>603.0</ele><time>2026-05-04T14:31:58.706Z</time></trkpt><trkpt lat="43.4327267" lon="11.5692333"><ele>603.0</ele><time>2026-05-04T14:31:59.705Z</time></trkpt><trkpt lat="43.4327517" lon="11.5693333"><ele>603.0</ele><time>2026-05-04T14:32:00.705Z</time></trkpt><trkpt lat="43.432765" lon="11.5694567"><ele>603.0</ele><time>2026-05-04T14:32:02.706Z</time></trkpt><trkpt lat="43.4327217" lon="11.56952"><ele>603.0</ele><time>2026-05-04T14:32:04.706Z</time></trkpt><trkpt lat="43.4325717" lon="11.5695183"><ele>603.0</ele><time>2026-05-04T14:32:06.705Z</time></trkpt><trkpt lat="43.4324867" lon="11.5695"><ele>603.0</ele><time>2026-05-04T14:32:07.708Z</time></trkpt><trkpt lat="43.4324033" lon="11.5694633"><ele>603.0</ele><time>2026-05-04T14:32:08.705Z</time></trkpt><trkpt lat="43.4323083" lon="11.5694083"><ele>603.0</ele><time>2026-05-04T14:32:09.706Z</time></trkpt><trkpt lat="43.43223" lon="11.5693583"><ele>603.0</ele><time>2026-05-04T14:32:10.706Z</time></trkpt><trkpt lat="43.432165" lon="11.5693183"><ele>603.0</ele><time>2026-05-04T14:32:11.705Z</time></trkpt><trkpt lat="43.4321017" lon="11.5693"><ele>603.0</ele><time>2026-05-04T14:32:12.706Z</time></trkpt><trkpt lat="43.4319833" lon="11.5693467"><ele>605.4</ele><time>2026-05-04T14:32:14.706Z</time></trkpt><trkpt lat="43.431915" lon="11.56936"><ele>607.8</ele><time>2026-05-04T14:32:15.705Z</time></trkpt><trkpt lat="43.431845" lon="11.569335"><ele>610.2</ele><time>2026-05-04T14:32:16.705Z</time></trkpt><trkpt lat="43.43177" lon="11.569285"><ele>612.6</ele><time>2026-05-04T14:32:17.704Z</time></trkpt><trkpt lat="43.4316833" lon="11.56921"><ele>615.0</ele><time>2026-05-04T14:32:18.705Z</time></trkpt><trkpt lat="43.4315767" lon="11.5691183"><ele>615.0</ele><time>2026-05-04T14:32:19.704Z</time></trkpt><trkpt lat="43.43148" lon="11.56904"><ele>615.0</ele><time>2026-05-04T14:32:20.706Z</time></trkpt><trkpt lat="43.4313833" lon="11.56896"><ele>615.0</ele><time>2026-05-04T14:32:21.706Z</time></trkpt><trkpt lat="43.4312917" lon="11.5688967"><ele>615.0</ele><time>2026-05-04T14:32:22.706Z</time></trkpt><trkpt lat="43.4312033" lon="11.56884"><ele>615.0</ele><time>2026-05-04T14:32:23.705Z</time></trkpt><trkpt lat="43.4311217" lon="11.5687983"><ele>614.3333333333334</ele><time>2026-05-04T14:32:24.705Z</time></trkpt><trkpt lat="43.4310333" lon="11.5687817"><ele>613.6666666666666</ele><time>2026-05-04T14:32:25.706Z</time></trkpt><trkpt lat="43.4309417" lon="11.5687783"><ele>613.0</ele><time>2026-05-04T14:32:26.703Z</time></trkpt><trkpt lat="43.430855" lon="11.5687633"><ele>612.3333333333333</ele><time>2026-05-04T14:32:27.706Z</time></trkpt><trkpt lat="43.43077" lon="11.5687367"><ele>611.6666666666666</ele><time>2026-05-04T14:32:28.705Z</time></trkpt><trkpt lat="43.4306817" lon="11.5687033"><ele>611.0</ele><time>2026-05-04T14:32:29.703Z</time></trkpt><trkpt lat="43.43059" lon="11.568655"><ele>614.0</ele><time>2026-05-04T14:32:30.705Z</time></trkpt><trkpt lat="43.4305017" lon="11.5685933"><ele>617.0</ele><time>2026-05-04T14:32:31.706Z</time></trkpt><trkpt lat="43.4304267" lon="11.5685167"><ele>620.0</ele><time>2026-05-04T14:32:32.707Z</time></trkpt><trkpt lat="43.4303633" lon="11.5684333"><ele>623.0</ele><time>2026-05-04T14:32:33.707Z</time></trkpt><trkpt lat="43.4303117" lon="11.5683267"><ele>626.0</ele><time>2026-05-04T14:32:34.711Z</time></trkpt><trkpt lat="43.43025" lon="11.5682033"><ele>626.0</ele><time>2026-05-04T14:32:35.708Z</time></trkpt><trkpt lat="43.4301717" lon="11.568065"><ele>626.0</ele><time>2026-05-04T14:32:36.705Z</time></trkpt><trkpt lat="43.4300917" lon="11.5679283"><ele>626.0</ele><time>2026-05-04T14:32:37.704Z</time></trkpt><trkpt lat="43.4300217" lon="11.5677883"><ele>626.0</ele><time>2026-05-04T14:32:38.705Z</time></trkpt><trkpt lat="43.4299567" lon="11.5676567"><ele>628.0</ele><time>2026-05-04T14:32:39.705Z</time></trkpt><trkpt lat="43.4298967" lon="11.567535"><ele>630.0</ele><time>2026-05-04T14:32:40.703Z</time></trkpt><trkpt lat="43.4298417" lon="11.5674217"><ele>632.0</ele><time>2026-05-04T14:32:41.705Z</time></trkpt><trkpt lat="43.42979" lon="11.567305"><ele>634.0</ele><time>2026-05-04T14:32:42.705Z</time></trkpt><trkpt lat="43.42974" lon="11.5671983"><ele>636.0</ele><time>2026-05-04T14:32:43.706Z</time></trkpt><trkpt lat="43.4296817" lon="11.5671017"><ele>632.0</ele><time>2026-05-04T14:32:44.707Z</time></trkpt><trkpt lat="43.4296317" lon="11.567005"><ele>628.0</ele><time>2026-05-04T14:32:45.707Z</time></trkpt><trkpt lat="43.42959" lon="11.5669017"><ele>624.0</ele><time>2026-05-04T14:32:46.705Z</time></trkpt><trkpt lat="43.4295683" lon="11.566785"><ele>620.0</ele><time>2026-05-04T14:32:47.705Z</time></trkpt><trkpt lat="43.429565" lon="11.5666567"><ele>616.0</ele><time>2026-05-04T14:32:48.706Z</time></trkpt><trkpt lat="43.4295667" lon="11.5665317"><ele>612.0</ele><time>2026-05-04T14:32:49.706Z</time></trkpt><trkpt lat="43.4295683" lon="11.5664083"><ele>612.0</ele><time>2026-05-04T14:32:50.704Z</time></trkpt><trkpt lat="43.4295567" lon="11.5662883"><ele>612.0</ele><time>2026-05-04T14:32:51.706Z</time></trkpt><trkpt lat="43.4295183" lon="11.5661617"><ele>612.0</ele><time>2026-05-04T14:32:52.705Z</time></trkpt><trkpt lat="43.4294683" lon="11.56603"><ele>612.0</ele><time>2026-05-04T14:32:53.705Z</time></trkpt><trkpt lat="43.4294167" lon="11.5659067"><ele>612.0</ele><time>2026-05-04T14:32:54.705Z</time></trkpt><trkpt lat="43.4293667" lon="11.565795"><ele>613.4</ele><time>2026-05-04T14:32:55.705Z</time></trkpt><trkpt lat="43.429315" lon="11.5656867"><ele>614.8000000000001</ele><time>2026-05-04T14:32:56.706Z</time></trkpt><trkpt lat="43.42926" lon="11.5655767"><ele>616.2</ele><time>2026-05-04T14:32:57.706Z</time></trkpt><trkpt lat="43.4291933" lon="11.5654683"><ele>617.6</ele><time>2026-05-04T14:32:58.706Z</time></trkpt><trkpt lat="43.42913" lon="11.5653667"><ele>619.0</ele><time>2026-05-04T14:32:59.705Z</time></trkpt><trkpt lat="43.42907" lon="11.5652817"><ele>619.0</ele><time>2026-05-04T14:33:00.706Z</time></trkpt><trkpt lat="43.4290183" lon="11.56521"><ele>619.0</ele><time>2026-05-04T14:33:01.706Z</time></trkpt><trkpt lat="43.4289767" lon="11.5650933"><ele>619.0</ele><time>2026-05-04T14:33:03.706Z</time></trkpt><trkpt lat="43.4290117" lon="11.5650067"><ele>619.0</ele><time>2026-05-04T14:33:05.704Z</time></trkpt><trkpt lat="43.4291483" lon="11.5650117"><ele>619.0</ele><time>2026-05-04T14:33:07.705Z</time></trkpt><trkpt lat="43.4292367" lon="11.5650333"><ele>619.0</ele><time>2026-05-04T14:33:08.704Z</time></trkpt><trkpt lat="43.4293567" lon="11.5650767"><ele>619.0</ele><time>2026-05-04T14:33:09.707Z</time></trkpt><trkpt lat="43.429515" lon="11.565125"><ele>619.0</ele><time>2026-05-04T14:33:10.707Z</time></trkpt><trkpt lat="43.4296583" lon="11.5651667"><ele>619.0</ele><time>2026-05-04T14:33:11.706Z</time></trkpt><trkpt lat="43.429785" lon="11.5651967"><ele>619.2</ele><time>2026-05-04T14:33:12.706Z</time></trkpt><trkpt lat="43.4298983" lon="11.5652083"><ele>619.4</ele><time>2026-05-04T14:33:13.706Z</time></trkpt><trkpt lat="43.42999" lon="11.56518"><ele>619.6</ele><time>2026-05-04T14:33:14.706Z</time></trkpt><trkpt lat="43.4300683" lon="11.5651267"><ele>619.8</ele><time>2026-05-04T14:33:15.707Z</time></trkpt><trkpt lat="43.4301417" lon="11.56506"><ele>620.0</ele><time>2026-05-04T14:33:16.707Z</time></trkpt><trkpt lat="43.4302117" lon="11.564995"><ele>620.0</ele><time>2026-05-04T14:33:17.706Z</time></trkpt><trkpt lat="43.4302867" lon="11.5649467"><ele>620.0</ele><time>2026-05-04T14:33:18.703Z</time></trkpt><trkpt lat="43.4303717" lon="11.5649217"><ele>620.0</ele><time>2026-05-04T14:33:19.706Z</time></trkpt><trkpt lat="43.4304617" lon="11.564915"><ele>620.0</ele><time>2026-05-04T14:33:20.705Z</time></trkpt><trkpt lat="43.43056" lon="11.5649317"><ele>620.0</ele><time>2026-05-04T14:33:21.705Z</time></trkpt><trkpt lat="43.4306833" lon="11.5649683"><ele>621.25</ele><time>2026-05-04T14:33:22.705Z</time></trkpt><trkpt lat="43.4308133" lon="11.5650067"><ele>622.5</ele><time>2026-05-04T14:33:23.705Z</time></trkpt><trkpt lat="43.4309533" lon="11.5650317"><ele>623.75</ele><time>2026-05-04T14:33:24.705Z</time></trkpt><trkpt lat="43.4310867" lon="11.56504"><ele>625.0</ele><time>2026-05-04T14:33:25.706Z</time></trkpt><trkpt lat="43.4311983" lon="11.5650133"><ele>625.0</ele><time>2026-05-04T14:33:26.704Z</time></trkpt><trkpt lat="43.431305" lon="11.5649517"><ele>625.0</ele><time>2026-05-04T14:33:27.705Z</time></trkpt><trkpt lat="43.4314083" lon="11.5648467"><ele>625.0</ele><time>2026-05-04T14:33:28.705Z</time></trkpt><trkpt lat="43.4315133" lon="11.56473"><ele>625.0</ele><time>2026-05-04T14:33:29.705Z</time></trkpt><trkpt lat="43.43161" lon="11.56462"><ele>624.5</ele><time>2026-05-04T14:33:30.706Z</time></trkpt><trkpt lat="43.4317033" lon="11.56451"><ele>624.0</ele><time>2026-05-04T14:33:31.706Z</time></trkpt><trkpt lat="43.4317917" lon="11.564395"><ele>623.5</ele><time>2026-05-04T14:33:32.706Z</time></trkpt><trkpt lat="43.4318717" lon="11.564275"><ele>623.0</ele><time>2026-05-04T14:33:33.706Z</time></trkpt><trkpt lat="43.4319467" lon="11.5641533"><ele>623.0</ele><time>2026-05-04T14:33:34.706Z</time></trkpt><trkpt lat="43.4320183" lon="11.56401"><ele>623.0</ele><time>2026-05-04T14:33:35.705Z</time></trkpt><trkpt lat="43.432085" lon="11.5638467"><ele>623.0</ele><time>2026-05-04T14:33:36.706Z</time></trkpt><trkpt lat="43.4321367" lon="11.563685"><ele>623.0</ele><time>2026-05-04T14:33:37.705Z</time></trkpt><trkpt lat="43.4321817" lon="11.5635317"><ele>623.6</ele><time>2026-05-04T14:33:38.707Z</time></trkpt><trkpt lat="43.4322183" lon="11.56338"><ele>624.1999999999999</ele><time>2026-05-04T14:33:39.706Z</time></trkpt><trkpt lat="43.4322517" lon="11.5632433"><ele>624.8</ele><time>2026-05-04T14:33:40.706Z</time></trkpt><trkpt lat="43.4322933" lon="11.5631183"><ele>625.4</ele><time>2026-05-04T14:33:41.705Z</time></trkpt><trkpt lat="43.43234" lon="11.5630067"><ele>626.0</ele><time>2026-05-04T14:33:42.706Z</time></trkpt><trkpt lat="43.43238" lon="11.5629"><ele>625.6666666666666</ele><time>2026-05-04T14:33:43.707Z</time></trkpt><trkpt lat="43.432415" lon="11.56279"><ele>625.3333333333333</ele><time>2026-05-04T14:33:44.707Z</time></trkpt><trkpt lat="43.4324417" lon="11.56269"><ele>625.0</ele><time>2026-05-04T14:33:45.706Z</time></trkpt><trkpt lat="43.43247" lon="11.5626017"><ele>624.6666666666666</ele><time>2026-05-04T14:33:46.706Z</time></trkpt><trkpt lat="43.4325083" lon="11.5625317"><ele>624.3333333333334</ele><time>2026-05-04T14:33:47.704Z</time></trkpt><trkpt lat="43.4325833" lon="11.5625167"><ele>624.0</ele><time>2026-05-04T14:33:48.708Z</time></trkpt><trkpt lat="43.4326633" lon="11.562535"><ele>624.0</ele><time>2026-05-04T14:33:49.705Z</time></trkpt><trkpt lat="43.43274" lon="11.562545"><ele>624.0</ele><time>2026-05-04T14:33:50.706Z</time></trkpt><trkpt lat="43.4328183" lon="11.5625433"><ele>624.0</ele><time>2026-05-04T14:33:51.707Z</time></trkpt><trkpt lat="43.432905" lon="11.562515"><ele>624.0</ele><time>2026-05-04T14:33:52.707Z</time></trkpt><trkpt lat="43.43301" lon="11.562465"><ele>624.0</ele><time>2026-05-04T14:33:53.705Z</time></trkpt><trkpt lat="43.4331183" lon="11.5624117"><ele>621.75</ele><time>2026-05-04T14:33:54.707Z</time></trkpt><trkpt lat="43.433225" lon="11.5623367"><ele>619.5</ele><time>2026-05-04T14:33:55.707Z</time></trkpt><trkpt lat="43.433335" lon="11.5622383"><ele>617.25</ele><time>2026-05-04T14:33:56.706Z</time></trkpt><trkpt lat="43.4334533" lon="11.5621133"><ele>615.0</ele><time>2026-05-04T14:33:57.707Z</time></trkpt><trkpt lat="43.4335683" lon="11.561995"><ele>614.75</ele><time>2026-05-04T14:33:58.708Z</time></trkpt><trkpt lat="43.43368" lon="11.56188"><ele>614.5</ele><time>2026-05-04T14:33:59.705Z</time></trkpt><trkpt lat="43.4337867" lon="11.561775"><ele>614.25</ele><time>2026-05-04T14:34:00.706Z</time></trkpt><trkpt lat="43.43389" lon="11.5616767"><ele>614.0</ele><time>2026-05-04T14:34:01.706Z</time></trkpt><trkpt lat="43.4339883" lon="11.5615933"><ele>613.3333333333333</ele><time>2026-05-04T14:34:02.706Z</time></trkpt><trkpt lat="43.4340817" lon="11.561535"><ele>612.6666666666666</ele><time>2026-05-04T14:34:03.706Z</time></trkpt><trkpt lat="43.4341717" lon="11.5615"><ele>612.0</ele><time>2026-05-04T14:34:04.707Z</time></trkpt><trkpt lat="43.434255" lon="11.5614867"><ele>611.3333333333334</ele><time>2026-05-04T14:34:05.706Z</time></trkpt><trkpt lat="43.434325" lon="11.5614767"><ele>610.6666666666667</ele><time>2026-05-04T14:34:06.706Z</time></trkpt><trkpt lat="43.434385" lon="11.5614467"><ele>610.0</ele><time>2026-05-04T14:34:07.707Z</time></trkpt><trkpt lat="43.4344683" lon="11.5613233"><ele>610.0</ele><time>2026-05-04T14:34:09.707Z</time></trkpt><trkpt lat="43.4345617" lon="11.5612133"><ele>610.0</ele><time>2026-05-04T14:34:11.704Z</time></trkpt><trkpt lat="43.4346667" lon="11.56115"><ele>610.0</ele><time>2026-05-04T14:34:13.705Z</time></trkpt><trkpt lat="43.434745" lon="11.5610333"><ele>610.0</ele><time>2026-05-04T14:34:15.709Z</time></trkpt><trkpt lat="43.4347783" lon="11.5609467"><ele>610.0</ele><time>2026-05-04T14:34:16.706Z</time></trkpt><trkpt lat="43.43481" lon="11.5608483"><ele>611.6666666666667</ele><time>2026-05-04T14:34:17.704Z</time></trkpt><trkpt lat="43.4348317" lon="11.5607533"><ele>613.3333333333334</ele><time>2026-05-04T14:34:18.707Z</time></trkpt><trkpt lat="43.4348433" lon="11.5606567"><ele>615.0</ele><time>2026-05-04T14:34:19.706Z</time></trkpt><trkpt lat="43.4348617" lon="11.56055"><ele>616.6666666666666</ele><time>2026-05-04T14:34:20.707Z</time></trkpt><trkpt lat="43.4348817" lon="11.5604533"><ele>618.3333333333333</ele><time>2026-05-04T14:34:21.707Z</time></trkpt><trkpt lat="43.4348883" lon="11.560365"><ele>620.0</ele><time>2026-05-04T14:34:22.706Z</time></trkpt><trkpt lat="43.4348383" lon="11.5602083"><ele>620.8</ele><time>2026-05-04T14:34:24.706Z</time></trkpt><trkpt lat="43.4347883" lon="11.56011"><ele>621.6</ele><time>2026-05-04T14:34:25.706Z</time></trkpt><trkpt lat="43.4347433" lon="11.56001"><ele>622.4</ele><time>2026-05-04T14:34:26.706Z</time></trkpt><trkpt lat="43.4346967" lon="11.5598917"><ele>623.2</ele><time>2026-05-04T14:34:27.706Z</time></trkpt><trkpt lat="43.43465" lon="11.5597733"><ele>624.0</ele><time>2026-05-04T14:34:28.707Z</time></trkpt><trkpt lat="43.434605" lon="11.5596567"><ele>625.8</ele><time>2026-05-04T14:34:29.705Z</time></trkpt><trkpt lat="43.434555" lon="11.5595283"><ele>627.5999999999999</ele><time>2026-05-04T14:34:30.707Z</time></trkpt><trkpt lat="43.4345033" lon="11.559405"><ele>629.4</ele><time>2026-05-04T14:34:31.708Z</time></trkpt><trkpt lat="43.43445" lon="11.5592783"><ele>631.1999999999999</ele><time>2026-05-04T14:34:32.706Z</time></trkpt><trkpt lat="43.4343933" lon="11.5591317"><ele>633.0</ele><time>2026-05-04T14:34:33.706Z</time></trkpt><trkpt lat="43.4343467" lon="11.5589667"><ele>633.0</ele><time>2026-05-04T14:34:34.707Z</time></trkpt><trkpt lat="43.4343017" lon="11.558805"><ele>633.0</ele><time>2026-05-04T14:34:35.706Z</time></trkpt><trkpt lat="43.434265" lon="11.5586483"><ele>633.0</ele><time>2026-05-04T14:34:36.708Z</time></trkpt><trkpt lat="43.4342367" lon="11.5584967"><ele>633.0</ele><time>2026-05-04T14:34:37.707Z</time></trkpt><trkpt lat="43.43421" lon="11.5583467"><ele>633.0</ele><time>2026-05-04T14:34:38.707Z</time></trkpt><trkpt lat="43.43418" lon="11.5581967"><ele>633.0</ele><time>2026-05-04T14:34:39.708Z</time></trkpt><trkpt lat="43.4341683" lon="11.5580567"><ele>633.0</ele><time>2026-05-04T14:34:40.708Z</time></trkpt><trkpt lat="43.4341717" lon="11.5579"><ele>633.0</ele><time>2026-05-04T14:34:41.706Z</time></trkpt><trkpt lat="43.4341983" lon="11.55775"><ele>633.0</ele><time>2026-05-04T14:34:42.706Z</time></trkpt><trkpt lat="43.4342317" lon="11.557595"><ele>633.0</ele><time>2026-05-04T14:34:43.707Z</time></trkpt><trkpt lat="43.434275" lon="11.557455"><ele>633.0</ele><time>2026-05-04T14:34:44.707Z</time></trkpt><trkpt lat="43.4343133" lon="11.557325"><ele>633.0</ele><time>2026-05-04T14:34:45.707Z</time></trkpt><trkpt lat="43.4343333" lon="11.5571933"><ele>633.0</ele><time>2026-05-04T14:34:46.707Z</time></trkpt><trkpt lat="43.4343467" lon="11.5570433"><ele>633.0</ele><time>2026-05-04T14:34:47.706Z</time></trkpt><trkpt lat="43.4343567" lon="11.556895"><ele>632.4</ele><time>2026-05-04T14:34:48.706Z</time></trkpt><trkpt lat="43.434365" lon="11.5567467"><ele>631.8</ele><time>2026-05-04T14:34:49.707Z</time></trkpt><trkpt lat="43.43437" lon="11.556605"><ele>631.2</ele><time>2026-05-04T14:34:50.707Z</time></trkpt><trkpt lat="43.4343767" lon="11.5564667"><ele>630.6</ele><time>2026-05-04T14:34:51.707Z</time></trkpt><trkpt lat="43.43439" lon="11.5563233"><ele>630.0</ele><time>2026-05-04T14:34:52.707Z</time></trkpt><trkpt lat="43.43442" lon="11.5561733"><ele>629.0</ele><time>2026-05-04T14:34:53.707Z</time></trkpt><trkpt lat="43.4344667" lon="11.5560383"><ele>628.0</ele><time>2026-05-04T14:34:54.706Z</time></trkpt><trkpt lat="43.4345217" lon="11.5559067"><ele>627.0</ele><time>2026-05-04T14:34:55.708Z</time></trkpt><trkpt lat="43.4345783" lon="11.5557733"><ele>626.0</ele><time>2026-05-04T14:34:56.706Z</time></trkpt><trkpt lat="43.4346383" lon="11.555645"><ele>625.0</ele><time>2026-05-04T14:34:57.707Z</time></trkpt><trkpt lat="43.43469" lon="11.5555283"><ele>627.3333333333334</ele><time>2026-05-04T14:34:58.704Z</time></trkpt><trkpt lat="43.434735" lon="11.55541"><ele>629.6666666666667</ele><time>2026-05-04T14:34:59.706Z</time></trkpt><trkpt lat="43.434785" lon="11.5552883"><ele>632.0</ele><time>2026-05-04T14:35:00.707Z</time></trkpt><trkpt lat="43.4348267" lon="11.5551883"><ele>634.3333333333334</ele><time>2026-05-04T14:35:01.707Z</time></trkpt><trkpt lat="43.43487" lon="11.5551067"><ele>636.6666666666666</ele><time>2026-05-04T14:35:02.707Z</time></trkpt><trkpt lat="43.4349183" lon="11.5550467"><ele>639.0</ele><time>2026-05-04T14:35:03.708Z</time></trkpt><trkpt lat="43.4350367" lon="11.5549883"><ele>639.0</ele><time>2026-05-04T14:35:05.706Z</time></trkpt><trkpt lat="43.4351033" lon="11.5549883"><ele>639.0</ele><time>2026-05-04T14:35:06.706Z</time></trkpt><trkpt lat="43.4351883" lon="11.5550183"><ele>639.0</ele><time>2026-05-04T14:35:07.706Z</time></trkpt><trkpt lat="43.4352817" lon="11.5550333"><ele>639.0</ele><time>2026-05-04T14:35:08.706Z</time></trkpt><trkpt lat="43.4353883" lon="11.5550467"><ele>639.0</ele><time>2026-05-04T14:35:09.708Z</time></trkpt><trkpt lat="43.4355083" lon="11.5550633"><ele>639.75</ele><time>2026-05-04T14:35:10.705Z</time></trkpt><trkpt lat="43.4356317" lon="11.5550967"><ele>640.5</ele><time>2026-05-04T14:35:11.707Z</time></trkpt><trkpt lat="43.4357467" lon="11.5551267"><ele>641.25</ele><time>2026-05-04T14:35:12.706Z</time></trkpt><trkpt lat="43.43585" lon="11.5551617"><ele>642.0</ele><time>2026-05-04T14:35:13.707Z</time></trkpt><trkpt lat="43.435945" lon="11.5552083"><ele>642.0</ele><time>2026-05-04T14:35:14.706Z</time></trkpt><trkpt lat="43.43604" lon="11.5552633"><ele>642.0</ele><time>2026-05-04T14:35:15.709Z</time></trkpt><trkpt lat="43.4361317" lon="11.55533"><ele>642.0</ele><time>2026-05-04T14:35:16.706Z</time></trkpt><trkpt lat="43.43622" lon="11.55539"><ele>642.0</ele><time>2026-05-04T14:35:17.706Z</time></trkpt><trkpt lat="43.4363033" lon="11.5554567"><ele>642.0</ele><time>2026-05-04T14:35:18.706Z</time></trkpt><trkpt lat="43.436385" lon="11.5555283"><ele>642.5</ele><time>2026-05-04T14:35:19.706Z</time></trkpt><trkpt lat="43.4364617" lon="11.5556033"><ele>643.0</ele><time>2026-05-04T14:35:20.706Z</time></trkpt><trkpt lat="43.4365283" lon="11.5556717"><ele>643.5</ele><time>2026-05-04T14:35:21.707Z</time></trkpt><trkpt lat="43.4365883" lon="11.55573"><ele>644.0</ele><time>2026-05-04T14:35:22.707Z</time></trkpt><trkpt lat="43.4366533" lon="11.5557733"><ele>644.5</ele><time>2026-05-04T14:35:23.708Z</time></trkpt><trkpt lat="43.4367333" lon="11.555805"><ele>645.0</ele><time>2026-05-04T14:35:24.709Z</time></trkpt><trkpt lat="43.4368283" lon="11.5558233"><ele>645.0</ele><time>2026-05-04T14:35:25.709Z</time></trkpt><trkpt lat="43.4369317" lon="11.55582"><ele>645.0</ele><time>2026-05-04T14:35:26.709Z</time></trkpt><trkpt lat="43.4370217" lon="11.5558033"><ele>645.0</ele><time>2026-05-04T14:35:27.707Z</time></trkpt><trkpt lat="43.4371" lon="11.5557867"><ele>645.0</ele><time>2026-05-04T14:35:28.707Z</time></trkpt><trkpt lat="43.4371783" lon="11.555785"><ele>645.0</ele><time>2026-05-04T14:35:29.706Z</time></trkpt><trkpt lat="43.4372567" lon="11.5558133"><ele>645.0</ele><time>2026-05-04T14:35:30.707Z</time></trkpt><trkpt lat="43.4373267" lon="11.5558667"><ele>643.6666666666666</ele><time>2026-05-04T14:35:31.707Z</time></trkpt><trkpt lat="43.4373867" lon="11.555925"><ele>642.3333333333334</ele><time>2026-05-04T14:35:32.708Z</time></trkpt><trkpt lat="43.437445" lon="11.55598"><ele>641.0</ele><time>2026-05-04T14:35:33.708Z</time></trkpt><trkpt lat="43.43751" lon="11.556035"><ele>639.6666666666667</ele><time>2026-05-04T14:35:34.707Z</time></trkpt><trkpt lat="43.4375783" lon="11.5560783"><ele>638.3333333333334</ele><time>2026-05-04T14:35:35.705Z</time></trkpt><trkpt lat="43.4376433" lon="11.5561117"><ele>637.0</ele><time>2026-05-04T14:35:36.706Z</time></trkpt><trkpt lat="43.43775" lon="11.5561767"><ele>635.6666666666667</ele><time>2026-05-04T14:35:38.706Z</time></trkpt><trkpt lat="43.4378533" lon="11.5562467"><ele>634.3333333333334</ele><time>2026-05-04T14:35:40.706Z</time></trkpt><trkpt lat="43.43791" lon="11.5562917"><ele>633.0</ele><time>2026-05-04T14:35:41.706Z</time></trkpt><trkpt lat="43.43796" lon="11.5563533"><ele>631.6666666666666</ele><time>2026-05-04T14:35:42.705Z</time></trkpt><trkpt lat="43.4380017" lon="11.5564317"><ele>630.3333333333333</ele><time>2026-05-04T14:35:43.707Z</time></trkpt><trkpt lat="43.4380383" lon="11.5565233"><ele>629.0</ele><time>2026-05-04T14:35:44.705Z</time></trkpt><trkpt lat="43.4380733" lon="11.55662"><ele>627.5</ele><time>2026-05-04T14:35:45.707Z</time></trkpt><trkpt lat="43.43811" lon="11.5567083"><ele>626.0</ele><time>2026-05-04T14:35:46.706Z</time></trkpt><trkpt lat="43.4381483" lon="11.5568017"><ele>624.5</ele><time>2026-05-04T14:35:47.705Z</time></trkpt><trkpt lat="43.438195" lon="11.5568883"><ele>623.0</ele><time>2026-05-04T14:35:48.707Z</time></trkpt><trkpt lat="43.438245" lon="11.5569783"><ele>621.5</ele><time>2026-05-04T14:35:49.706Z</time></trkpt><trkpt lat="43.4382967" lon="11.557075"><ele>620.0</ele><time>2026-05-04T14:35:50.706Z</time></trkpt><trkpt lat="43.4383567" lon="11.5571717"><ele>619.8</ele><time>2026-05-04T14:35:51.706Z</time></trkpt><trkpt lat="43.4384017" lon="11.55729"><ele>619.6</ele><time>2026-05-04T14:35:52.707Z</time></trkpt><trkpt lat="43.43844" lon="11.5574083"><ele>619.4</ele><time>2026-05-04T14:35:53.705Z</time></trkpt><trkpt lat="43.4384683" lon="11.5575517"><ele>619.2</ele><time>2026-05-04T14:35:54.706Z</time></trkpt><trkpt lat="43.4385" lon="11.557705"><ele>619.0</ele><time>2026-05-04T14:35:55.709Z</time></trkpt><trkpt lat="43.4385333" lon="11.5578583"><ele>617.6</ele><time>2026-05-04T14:35:56.705Z</time></trkpt><trkpt lat="43.4385717" lon="11.5580017"><ele>616.2</ele><time>2026-05-04T14:35:57.707Z</time></trkpt><trkpt lat="43.4386083" lon="11.55813"><ele>614.8000000000001</ele><time>2026-05-04T14:35:58.708Z</time></trkpt><trkpt lat="43.438655" lon="11.55825"><ele>613.4</ele><time>2026-05-04T14:35:59.705Z</time></trkpt><trkpt lat="43.4387067" lon="11.5583667"><ele>612.0</ele><time>2026-05-04T14:36:00.706Z</time></trkpt><trkpt lat="43.4387717" lon="11.5584817"><ele>612.5</ele><time>2026-05-04T14:36:01.706Z</time></trkpt><trkpt lat="43.4388367" lon="11.558585"><ele>613.0</ele><time>2026-05-04T14:36:02.706Z</time></trkpt><trkpt lat="43.4388933" lon="11.558675"><ele>613.5</ele><time>2026-05-04T14:36:03.708Z</time></trkpt><trkpt lat="43.438945" lon="11.5587467"><ele>614.0</ele><time>2026-05-04T14:36:04.705Z</time></trkpt><trkpt lat="43.4389933" lon="11.5588083"><ele>614.5</ele><time>2026-05-04T14:36:05.706Z</time></trkpt><trkpt lat="43.439065" lon="11.5589067"><ele>615.0</ele><time>2026-05-04T14:36:07.707Z</time></trkpt><trkpt lat="43.439085" lon="11.559"><ele>615.0</ele><time>2026-05-04T14:36:09.707Z</time></trkpt><trkpt lat="43.439055" lon="11.5590967"><ele>615.0</ele><time>2026-05-04T14:36:11.706Z</time></trkpt><trkpt lat="43.4389667" lon="11.5591817"><ele>615.0</ele><time>2026-05-04T14:36:13.707Z</time></trkpt><trkpt lat="43.438905" lon="11.5592"><ele>615.0</ele><time>2026-05-04T14:36:14.706Z</time></trkpt><trkpt lat="43.4388417" lon="11.5592083"><ele>615.0</ele><time>2026-05-04T14:36:15.71Z</time></trkpt><trkpt lat="43.4387733" lon="11.5591967"><ele>615.0</ele><time>2026-05-04T14:36:16.707Z</time></trkpt><trkpt lat="43.4387067" lon="11.5591733"><ele>615.0</ele><time>2026-05-04T14:36:17.705Z</time></trkpt><trkpt lat="43.4386383" lon="11.5591417"><ele>613.8333333333334</ele><time>2026-05-04T14:36:18.706Z</time></trkpt><trkpt lat="43.4385733" lon="11.559095"><ele>612.6666666666666</ele><time>2026-05-04T14:36:19.705Z</time></trkpt><trkpt lat="43.4385017" lon="11.5590533"><ele>611.5</ele><time>2026-05-04T14:36:20.706Z</time></trkpt><trkpt lat="43.438415" lon="11.5590133"><ele>610.3333333333333</ele><time>2026-05-04T14:36:21.706Z</time></trkpt><trkpt lat="43.43833" lon="11.55898"><ele>609.1666666666666</ele><time>2026-05-04T14:36:22.707Z</time></trkpt><trkpt lat="43.4382467" lon="11.55894"><ele>608.0</ele><time>2026-05-04T14:36:23.707Z</time></trkpt><trkpt lat="43.43817" lon="11.5588883"><ele>608.0</ele><time>2026-05-04T14:36:24.707Z</time></trkpt><trkpt lat="43.4380917" lon="11.5588333"><ele>608.0</ele><time>2026-05-04T14:36:25.708Z</time></trkpt><trkpt lat="43.4380117" lon="11.558785"><ele>608.0</ele><time>2026-05-04T14:36:26.707Z</time></trkpt><trkpt lat="43.4379267" lon="11.5587333"><ele>608.0</ele><time>2026-05-04T14:36:27.707Z</time></trkpt><trkpt lat="43.4378467" lon="11.5586867"><ele>608.0</ele><time>2026-05-04T14:36:28.707Z</time></trkpt><trkpt lat="43.4377717" lon="11.55864"><ele>608.0</ele><time>2026-05-04T14:36:29.705Z</time></trkpt><trkpt lat="43.4377" lon="11.5585867"><ele>607.8333333333333</ele><time>2026-05-04T14:36:30.707Z</time></trkpt><trkpt lat="43.4376433" lon="11.5585267"><ele>607.6666666666666</ele><time>2026-05-04T14:36:31.705Z</time></trkpt><trkpt lat="43.43756" lon="11.5584383"><ele>607.5</ele><time>2026-05-04T14:36:33.707Z</time></trkpt><trkpt lat="43.4374767" lon="11.5584883"><ele>607.3333333333334</ele><time>2026-05-04T14:36:35.706Z</time></trkpt><trkpt lat="43.4374417" lon="11.5586067"><ele>607.1666666666667</ele><time>2026-05-04T14:36:36.706Z</time></trkpt><trkpt lat="43.4373967" lon="11.55869"><ele>607.0</ele><time>2026-05-04T14:36:37.706Z</time></trkpt><trkpt lat="43.437345" lon="11.5587733"><ele>606.3333333333334</ele><time>2026-05-04T14:36:38.706Z</time></trkpt><trkpt lat="43.437275" lon="11.55885"><ele>605.6666666666667</ele><time>2026-05-04T14:36:39.706Z</time></trkpt><trkpt lat="43.4372" lon="11.5589183"><ele>605.0</ele><time>2026-05-04T14:36:40.705Z</time></trkpt><trkpt lat="43.4371267" lon="11.5589867"><ele>604.3333333333334</ele><time>2026-05-04T14:36:41.706Z</time></trkpt><trkpt lat="43.4370483" lon="11.5590583"><ele>603.6666666666666</ele><time>2026-05-04T14:36:42.706Z</time></trkpt><trkpt lat="43.4369817" lon="11.5591233"><ele>603.0</ele><time>2026-05-04T14:36:43.707Z</time></trkpt><trkpt lat="43.4369183" lon="11.5591967"><ele>603.0</ele><time>2026-05-04T14:36:44.705Z</time></trkpt><trkpt lat="43.4368517" lon="11.55927"><ele>603.0</ele><time>2026-05-04T14:36:45.707Z</time></trkpt><trkpt lat="43.43678" lon="11.5593317"><ele>603.0</ele><time>2026-05-04T14:36:46.705Z</time></trkpt><trkpt lat="43.4367067" lon="11.559385"><ele>603.0</ele><time>2026-05-04T14:36:47.706Z</time></trkpt><trkpt lat="43.4366267" lon="11.559415"><ele>603.0</ele><time>2026-05-04T14:36:48.706Z</time></trkpt><trkpt lat="43.436545" lon="11.5594233"><ele>603.0</ele><time>2026-05-04T14:36:49.706Z</time></trkpt><trkpt lat="43.4364617" lon="11.5594067"><ele>603.0</ele><time>2026-05-04T14:36:50.705Z</time></trkpt><trkpt lat="43.4363717" lon="11.55938"><ele>603.0</ele><time>2026-05-04T14:36:51.706Z</time></trkpt><trkpt lat="43.4362917" lon="11.559315"><ele>603.0</ele><time>2026-05-04T14:36:52.705Z</time></trkpt><trkpt lat="43.4362133" lon="11.5592467"><ele>603.0</ele><time>2026-05-04T14:36:53.707Z</time></trkpt><trkpt lat="43.4361367" lon="11.5591717"><ele>603.0</ele><time>2026-05-04T14:36:54.706Z</time></trkpt><trkpt lat="43.436065" lon="11.559095"><ele>602.8</ele><time>2026-05-04T14:36:55.707Z</time></trkpt><trkpt lat="43.4360033" lon="11.559025"><ele>602.5999999999999</ele><time>2026-05-04T14:36:56.706Z</time></trkpt><trkpt lat="43.4359467" lon="11.558965"><ele>602.4000000000001</ele><time>2026-05-04T14:36:57.706Z</time></trkpt><trkpt lat="43.435855" lon="11.5589017"><ele>602.2</ele><time>2026-05-04T14:36:59.714Z</time></trkpt><trkpt lat="43.4358067" lon="11.5590083"><ele>602.0</ele><time>2026-05-04T14:37:01.706Z</time></trkpt><trkpt lat="43.4357867" lon="11.559175"><ele>602.0</ele><time>2026-05-04T14:37:03.708Z</time></trkpt><trkpt lat="43.4358033" lon="11.55929"><ele>602.0</ele><time>2026-05-04T14:37:04.706Z</time></trkpt><trkpt lat="43.4358167" lon="11.5594267"><ele>602.0</ele><time>2026-05-04T14:37:05.706Z</time></trkpt><trkpt lat="43.4358233" lon="11.5595767"><ele>602.0</ele><time>2026-05-04T14:37:06.706Z</time></trkpt><trkpt lat="43.43582" lon="11.5597233"><ele>602.0</ele><time>2026-05-04T14:37:07.707Z</time></trkpt><trkpt lat="43.4358" lon="11.55984"><ele>601.0</ele><time>2026-05-04T14:37:08.704Z</time></trkpt><trkpt lat="43.4357817" lon="11.55995"><ele>600.0</ele><time>2026-05-04T14:37:09.706Z</time></trkpt><trkpt lat="43.4357283" lon="11.5599983"><ele>599.0</ele><time>2026-05-04T14:37:10.711Z</time></trkpt><trkpt lat="43.435605" lon="11.56006"><ele>598.0</ele><time>2026-05-04T14:37:12.708Z</time></trkpt><trkpt lat="43.4355433" lon="11.5601"><ele>597.0</ele><time>2026-05-04T14:37:13.707Z</time></trkpt><trkpt lat="43.4354833" lon="11.5602683"><ele>595.8000000000001</ele><time>2026-05-04T14:37:15.706Z</time></trkpt><trkpt lat="43.4354717" lon="11.5603983"><ele>594.6</ele><time>2026-05-04T14:37:16.705Z</time></trkpt><trkpt lat="43.43546" lon="11.5605367"><ele>593.4000000000001</ele><time>2026-05-04T14:37:17.705Z</time></trkpt><trkpt lat="43.4354517" lon="11.5606767"><ele>592.2</ele><time>2026-05-04T14:37:18.706Z</time></trkpt><trkpt lat="43.4354383" lon="11.5608117"><ele>591.0</ele><time>2026-05-04T14:37:19.707Z</time></trkpt><trkpt lat="43.435415" lon="11.5609417"><ele>593.6666666666666</ele><time>2026-05-04T14:37:20.705Z</time></trkpt><trkpt lat="43.4353833" lon="11.5610667"><ele>596.3333333333334</ele><time>2026-05-04T14:37:21.708Z</time></trkpt><trkpt lat="43.4353383" lon="11.561175"><ele>599.0</ele><time>2026-05-04T14:37:22.707Z</time></trkpt><trkpt lat="43.4352817" lon="11.5612717"><ele>601.6666666666667</ele><time>2026-05-04T14:37:23.705Z</time></trkpt><trkpt lat="43.4352133" lon="11.5613483"><ele>604.3333333333334</ele><time>2026-05-04T14:37:24.706Z</time></trkpt><trkpt lat="43.4351467" lon="11.5614083"><ele>607.0</ele><time>2026-05-04T14:37:25.707Z</time></trkpt><trkpt lat="43.4350783" lon="11.5614633"><ele>607.0</ele><time>2026-05-04T14:37:26.704Z</time></trkpt><trkpt lat="43.4350183" lon="11.5615167"><ele>607.0</ele><time>2026-05-04T14:37:27.708Z</time></trkpt><trkpt lat="43.43496" lon="11.561555"><ele>607.0</ele><time>2026-05-04T14:37:28.707Z</time></trkpt><trkpt lat="43.4348967" lon="11.56158"><ele>607.0</ele><time>2026-05-04T14:37:29.701Z</time></trkpt><trkpt lat="43.4348183" lon="11.5615983"><ele>607.0</ele><time>2026-05-04T14:37:30.705Z</time></trkpt><trkpt lat="43.43473" lon="11.5615983"><ele>607.0</ele><time>2026-05-04T14:37:31.703Z</time></trkpt><trkpt lat="43.4346267" lon="11.5615933"><ele>607.75</ele><time>2026-05-04T14:37:32.703Z</time></trkpt><trkpt lat="43.4345" lon="11.5615983"><ele>608.5</ele><time>2026-05-04T14:37:33.705Z</time></trkpt><trkpt lat="43.4343733" lon="11.56161"><ele>609.25</ele><time>2026-05-04T14:37:34.703Z</time></trkpt><trkpt lat="43.43424" lon="11.5616183"><ele>610.0</ele><time>2026-05-04T14:37:35.7Z</time></trkpt><trkpt lat="43.4341267" lon="11.561625"><ele>610.0</ele><time>2026-05-04T14:37:36.699Z</time></trkpt><trkpt lat="43.4340383" lon="11.5616267"><ele>610.0</ele><time>2026-05-04T14:37:37.706Z</time></trkpt><trkpt lat="43.4339583" lon="11.5616517"><ele>610.0</ele><time>2026-05-04T14:37:38.705Z</time></trkpt><trkpt lat="43.433875" lon="11.561705"><ele>610.0</ele><time>2026-05-04T14:37:39.712Z</time></trkpt><trkpt lat="43.433805" lon="11.5617633"><ele>610.0</ele><time>2026-05-04T14:37:40.706Z</time></trkpt><trkpt lat="43.4337317" lon="11.56186"><ele>610.0</ele><time>2026-05-04T14:37:42.703Z</time></trkpt><trkpt lat="43.4337417" lon="11.561995"><ele>611.0</ele><time>2026-05-04T14:37:50.708Z</time></trkpt><trkpt lat="43.4337333" lon="11.56209"><ele>612.0</ele><time>2026-05-04T14:37:51.71Z</time></trkpt><trkpt lat="43.4337117" lon="11.5622217"><ele>613.0</ele><time>2026-05-04T14:37:52.707Z</time></trkpt><trkpt lat="43.4336767" lon="11.5623833"><ele>614.0</ele><time>2026-05-04T14:37:53.705Z</time></trkpt><trkpt lat="43.4336483" lon="11.5625333"><ele>615.0</ele><time>2026-05-04T14:37:54.707Z</time></trkpt><trkpt lat="43.4336183" lon="11.5626683"><ele>615.0</ele><time>2026-05-04T14:37:55.702Z</time></trkpt><trkpt lat="43.4335917" lon="11.5628033"><ele>615.0</ele><time>2026-05-04T14:37:56.707Z</time></trkpt><trkpt lat="43.4335717" lon="11.562965"><ele>615.0</ele><time>2026-05-04T14:37:57.708Z</time></trkpt><trkpt lat="43.4335517" lon="11.5631233"><ele>615.0</ele><time>2026-05-04T14:37:58.707Z</time></trkpt><trkpt lat="43.4335417" lon="11.5632583"><ele>615.0</ele><time>2026-05-04T14:37:59.705Z</time></trkpt><trkpt lat="43.43355" lon="11.5633767"><ele>615.2</ele><time>2026-05-04T14:38:00.706Z</time></trkpt><trkpt lat="43.4335767" lon="11.563495"><ele>615.4</ele><time>2026-05-04T14:38:01.708Z</time></trkpt><trkpt lat="43.4336183" lon="11.56361"><ele>615.6</ele><time>2026-05-04T14:38:02.707Z</time></trkpt><trkpt lat="43.433665" lon="11.5637217"><ele>615.8</ele><time>2026-05-04T14:38:03.709Z</time></trkpt><trkpt lat="43.4337017" lon="11.5638433"><ele>616.0</ele><time>2026-05-04T14:38:04.706Z</time></trkpt><trkpt lat="43.4337317" lon="11.56399"><ele>616.6</ele><time>2026-05-04T14:38:05.706Z</time></trkpt><trkpt lat="43.43375" lon="11.5641333"><ele>617.2</ele><time>2026-05-04T14:38:06.707Z</time></trkpt><trkpt lat="43.4337583" lon="11.56427"><ele>617.8</ele><time>2026-05-04T14:38:07.706Z</time></trkpt><trkpt lat="43.4337733" lon="11.5643967"><ele>618.4</ele><time>2026-05-04T14:38:08.703Z</time></trkpt><trkpt lat="43.4337867" lon="11.56451"><ele>619.0</ele><time>2026-05-04T14:38:09.707Z</time></trkpt><trkpt lat="43.43379" lon="11.5646117"><ele>617.6666666666667</ele><time>2026-05-04T14:38:10.706Z</time></trkpt><trkpt lat="43.43378" lon="11.5647167"><ele>616.3333333333334</ele><time>2026-05-04T14:38:11.705Z</time></trkpt><trkpt lat="43.4337567" lon="11.5648067"><ele>615.0</ele><time>2026-05-04T14:38:12.706Z</time></trkpt><trkpt lat="43.4337083" lon="11.564895"><ele>613.6666666666666</ele><time>2026-05-04T14:38:13.707Z</time></trkpt><trkpt lat="43.433645" lon="11.56498"><ele>612.3333333333333</ele><time>2026-05-04T14:38:14.707Z</time></trkpt><trkpt lat="43.43358" lon="11.5650517"><ele>611.0</ele><time>2026-05-04T14:38:15.708Z</time></trkpt><trkpt lat="43.4335267" lon="11.5651183"><ele>611.0</ele><time>2026-05-04T14:38:16.707Z</time></trkpt><trkpt lat="43.4334767" lon="11.565185"><ele>611.0</ele><time>2026-05-04T14:38:17.707Z</time></trkpt><trkpt lat="43.4334333" lon="11.5652733"><ele>611.0</ele><time>2026-05-04T14:38:18.707Z</time></trkpt><trkpt lat="43.4333883" lon="11.565375"><ele>611.0</ele><time>2026-05-04T14:38:19.711Z</time></trkpt><trkpt lat="43.433345" lon="11.5654733"><ele>611.0</ele><time>2026-05-04T14:38:20.707Z</time></trkpt><trkpt lat="43.433295" lon="11.5655733"><ele>611.0</ele><time>2026-05-04T14:38:21.708Z</time></trkpt><trkpt lat="43.4332533" lon="11.5656867"><ele>607.0</ele><time>2026-05-04T14:38:22.71Z</time></trkpt><trkpt lat="43.4332117" lon="11.5657967"><ele>603.0</ele><time>2026-05-04T14:38:23.708Z</time></trkpt><trkpt lat="43.43318" lon="11.5659183"><ele>599.0</ele><time>2026-05-04T14:38:24.707Z</time></trkpt><trkpt lat="43.4331433" lon="11.56603"><ele>595.0</ele><time>2026-05-04T14:38:25.707Z</time></trkpt><trkpt lat="43.4330967" lon="11.5661433"><ele>591.0</ele><time>2026-05-04T14:38:26.709Z</time></trkpt><trkpt lat="43.4330417" lon="11.5662783"><ele>590.6</ele><time>2026-05-04T14:38:27.708Z</time></trkpt><trkpt lat="43.4329817" lon="11.5663933"><ele>590.2</ele><time>2026-05-04T14:38:28.706Z</time></trkpt><trkpt lat="43.4329183" lon="11.566485"><ele>589.8</ele><time>2026-05-04T14:38:29.716Z</time></trkpt><trkpt lat="43.43287" lon="11.5666017"><ele>589.4</ele><time>2026-05-04T14:38:30.703Z</time></trkpt><trkpt lat="43.4328333" lon="11.56672"><ele>589.0</ele><time>2026-05-04T14:38:31.701Z</time></trkpt><trkpt lat="43.4328167" lon="11.5668283"><ele>591.4</ele><time>2026-05-04T14:38:32.708Z</time></trkpt><trkpt lat="43.4328067" lon="11.5669367"><ele>593.8</ele><time>2026-05-04T14:38:33.704Z</time></trkpt><trkpt lat="43.4327967" lon="11.5670617"><ele>596.2</ele><time>2026-05-04T14:38:34.706Z</time></trkpt><trkpt lat="43.432785" lon="11.5671783"><ele>598.6</ele><time>2026-05-04T14:38:35.705Z</time></trkpt><trkpt lat="43.4327717" lon="11.567315"><ele>601.0</ele><time>2026-05-04T14:38:36.706Z</time></trkpt><trkpt lat="43.43275" lon="11.5674667"><ele>601.6</ele><time>2026-05-04T14:38:37.708Z</time></trkpt><trkpt lat="43.4327383" lon="11.5676117"><ele>602.2</ele><time>2026-05-04T14:38:38.708Z</time></trkpt><trkpt lat="43.432725" lon="11.5677567"><ele>602.8</ele><time>2026-05-04T14:38:39.706Z</time></trkpt><trkpt lat="43.432705" lon="11.56789"><ele>603.4</ele><time>2026-05-04T14:38:40.706Z</time></trkpt><trkpt lat="43.43268" lon="11.568015"><ele>604.0</ele><time>2026-05-04T14:38:41.707Z</time></trkpt><trkpt lat="43.4326583" lon="11.56814"><ele>603.8333333333334</ele><time>2026-05-04T14:38:42.706Z</time></trkpt><trkpt lat="43.4326483" lon="11.56826"><ele>603.6666666666667</ele><time>2026-05-04T14:38:43.704Z</time></trkpt><trkpt lat="43.4326383" lon="11.5683817"><ele>603.5</ele><time>2026-05-04T14:38:44.707Z</time></trkpt><trkpt lat="43.4326317" lon="11.5684983"><ele>603.3333333333334</ele><time>2026-05-04T14:38:45.707Z</time></trkpt><trkpt lat="43.4326367" lon="11.5686117"><ele>603.1666666666666</ele><time>2026-05-04T14:38:46.707Z</time></trkpt><trkpt lat="43.43265" lon="11.5687317"><ele>603.0</ele><time>2026-05-04T14:38:47.706Z</time></trkpt><trkpt lat="43.432675" lon="11.5688783"><ele>603.0</ele><time>2026-05-04T14:38:48.705Z</time></trkpt><trkpt lat="43.4327017" lon="11.56904"><ele>603.0</ele><time>2026-05-04T14:38:49.706Z</time></trkpt><trkpt lat="43.432725" lon="11.5691967"><ele>603.0</ele><time>2026-05-04T14:38:50.706Z</time></trkpt><trkpt lat="43.432755" lon="11.56933"><ele>603.0</ele><time>2026-05-04T14:38:51.707Z</time></trkpt><trkpt lat="43.43278" lon="11.5694333"><ele>603.0</ele><time>2026-05-04T14:38:52.707Z</time></trkpt><trkpt lat="43.4328083" lon="11.5695117"><ele>602.1666666666666</ele><time>2026-05-04T14:38:53.706Z</time></trkpt><trkpt lat="43.4328917" lon="11.56962"><ele>601.3333333333334</ele><time>2026-05-04T14:38:55.707Z</time></trkpt><trkpt lat="43.4329567" lon="11.5696667"><ele>600.5</ele><time>2026-05-04T14:38:56.707Z</time></trkpt><trkpt lat="43.4330267" lon="11.5697233"><ele>599.6666666666667</ele><time>2026-05-04T14:38:57.709Z</time></trkpt><trkpt lat="43.433105" lon="11.5697767"><ele>598.8333333333334</ele><time>2026-05-04T14:38:58.701Z</time></trkpt><trkpt lat="43.433185" lon="11.5698117"><ele>598.0</ele><time>2026-05-04T14:38:59.7Z</time></trkpt><trkpt lat="43.4332933" lon="11.569815"><ele>596.0</ele><time>2026-05-04T14:39:00.707Z</time></trkpt><trkpt lat="43.4334267" lon="11.5697683"><ele>594.0</ele><time>2026-05-04T14:39:01.707Z</time></trkpt><trkpt lat="43.4335483" lon="11.569735"><ele>592.0</ele><time>2026-05-04T14:39:02.706Z</time></trkpt><trkpt lat="43.4336767" lon="11.56972"><ele>590.0</ele><time>2026-05-04T14:39:03.702Z</time></trkpt><trkpt lat="43.4338267" lon="11.56972"><ele>590.0</ele><time>2026-05-04T14:39:04.701Z</time></trkpt><trkpt lat="43.4339833" lon="11.5697417"><ele>590.0</ele><time>2026-05-04T14:39:05.704Z</time></trkpt><trkpt lat="43.4341283" lon="11.56976"><ele>590.0</ele><time>2026-05-04T14:39:06.701Z</time></trkpt><trkpt lat="43.4342633" lon="11.5697683"><ele>590.0</ele><time>2026-05-04T14:39:07.705Z</time></trkpt><trkpt lat="43.4343817" lon="11.56977"><ele>590.0</ele><time>2026-05-04T14:39:08.706Z</time></trkpt><trkpt lat="43.4344867" lon="11.5697683"><ele>590.0</ele><time>2026-05-04T14:39:09.705Z</time></trkpt><trkpt lat="43.4345867" lon="11.56978"><ele>590.0</ele><time>2026-05-04T14:39:10.7Z</time></trkpt><trkpt lat="43.4347033" lon="11.569825"><ele>590.0</ele><time>2026-05-04T14:39:11.705Z</time></trkpt><trkpt lat="43.4348183" lon="11.569895"><ele>590.5</ele><time>2026-05-04T14:39:12.705Z</time></trkpt><trkpt lat="43.434925" lon="11.5699733"><ele>591.0</ele><time>2026-05-04T14:39:13.706Z</time></trkpt><trkpt lat="43.435025" lon="11.5700467"><ele>591.5</ele><time>2026-05-04T14:39:14.706Z</time></trkpt><trkpt lat="43.4351233" lon="11.5701383"><ele>592.0</ele><time>2026-05-04T14:39:15.707Z</time></trkpt><trkpt lat="43.4352233" lon="11.57025"><ele>592.0</ele><time>2026-05-04T14:39:16.707Z</time></trkpt><trkpt lat="43.43532" lon="11.5703567"><ele>592.0</ele><time>2026-05-04T14:39:17.706Z</time></trkpt><trkpt lat="43.4354083" lon="11.5704567"><ele>592.0</ele><time>2026-05-04T14:39:18.706Z</time></trkpt><trkpt lat="43.4354967" lon="11.5705433"><ele>592.0</ele><time>2026-05-04T14:39:19.707Z</time></trkpt><trkpt lat="43.435575" lon="11.57062"><ele>592.0</ele><time>2026-05-04T14:39:20.707Z</time></trkpt><trkpt lat="43.4356583" lon="11.57069"><ele>590.4</ele><time>2026-05-04T14:39:21.707Z</time></trkpt><trkpt lat="43.4357533" lon="11.57075"><ele>588.8000000000001</ele><time>2026-05-04T14:39:22.706Z</time></trkpt><trkpt lat="43.4358533" lon="11.570795"><ele>587.2</ele><time>2026-05-04T14:39:23.706Z</time></trkpt><trkpt lat="43.435955" lon="11.570835"><ele>585.6</ele><time>2026-05-04T14:39:24.707Z</time></trkpt><trkpt lat="43.4360583" lon="11.5708867"><ele>584.0</ele><time>2026-05-04T14:39:25.707Z</time></trkpt><trkpt lat="43.4361517" lon="11.57095"><ele>584.0</ele><time>2026-05-04T14:39:26.708Z</time></trkpt><trkpt lat="43.4362317" lon="11.5710317"><ele>584.0</ele><time>2026-05-04T14:39:27.708Z</time></trkpt><trkpt lat="43.4362933" lon="11.5711417"><ele>584.0</ele><time>2026-05-04T14:39:28.707Z</time></trkpt><trkpt lat="43.43634" lon="11.5712817"><ele>584.0</ele><time>2026-05-04T14:39:29.706Z</time></trkpt><trkpt lat="43.43638" lon="11.5714317"><ele>584.0</ele><time>2026-05-04T14:39:30.707Z</time></trkpt><trkpt lat="43.4364117" lon="11.57158"><ele>583.8</ele><time>2026-05-04T14:39:31.706Z</time></trkpt><trkpt lat="43.4364433" lon="11.5717233"><ele>583.5999999999999</ele><time>2026-05-04T14:39:32.706Z</time></trkpt><trkpt lat="43.4364783" lon="11.57186"><ele>583.4</ele><time>2026-05-04T14:39:33.707Z</time></trkpt><trkpt lat="43.4365317" lon="11.571995"><ele>583.1999999999999</ele><time>2026-05-04T14:39:34.706Z</time></trkpt><trkpt lat="43.4365967" lon="11.5721267"><ele>583.0</ele><time>2026-05-04T14:39:35.706Z</time></trkpt><trkpt lat="43.4366633" lon="11.5722683"><ele>578.5</ele><time>2026-05-04T14:39:36.703Z</time></trkpt><trkpt lat="43.4367433" lon="11.572425"><ele>574.0</ele><time>2026-05-04T14:39:37.707Z</time></trkpt><trkpt lat="43.436815" lon="11.572595"><ele>569.5</ele><time>2026-05-04T14:39:38.706Z</time></trkpt><trkpt lat="43.4368833" lon="11.5727633"><ele>565.0</ele><time>2026-05-04T14:39:39.707Z</time></trkpt><trkpt lat="43.4369483" lon="11.57293"><ele>562.0</ele><time>2026-05-04T14:39:40.706Z</time></trkpt><trkpt lat="43.436995" lon="11.57308"><ele>559.0</ele><time>2026-05-04T14:39:41.706Z</time></trkpt><trkpt lat="43.43702" lon="11.5732067"><ele>556.0</ele><time>2026-05-04T14:39:42.707Z</time></trkpt><trkpt lat="43.4370433" lon="11.57332"><ele>553.0</ele><time>2026-05-04T14:39:43.707Z</time></trkpt><trkpt lat="43.4370817" lon="11.5734267"><ele>550.0</ele><time>2026-05-04T14:39:44.706Z</time></trkpt><trkpt lat="43.4371383" lon="11.5735233"><ele>552.0</ele><time>2026-05-04T14:39:45.708Z</time></trkpt><trkpt lat="43.43724" lon="11.5736233"><ele>554.0</ele><time>2026-05-04T14:39:46.707Z</time></trkpt><trkpt lat="43.437365" lon="11.57373"><ele>556.0</ele><time>2026-05-04T14:39:47.706Z</time></trkpt><trkpt lat="43.4374783" lon="11.5738333"><ele>558.0</ele><time>2026-05-04T14:39:48.703Z</time></trkpt><trkpt lat="43.4375667" lon="11.5739283"><ele>558.0</ele><time>2026-05-04T14:39:49.708Z</time></trkpt><trkpt lat="43.4376267" lon="11.57402"><ele>558.0</ele><time>2026-05-04T14:39:50.714Z</time></trkpt><trkpt lat="43.4376717" lon="11.5741217"><ele>558.0</ele><time>2026-05-04T14:39:51.707Z</time></trkpt><trkpt lat="43.43767" lon="11.574265"><ele>558.0</ele><time>2026-05-04T14:39:52.707Z</time></trkpt><trkpt lat="43.4376783" lon="11.5744133"><ele>558.0</ele><time>2026-05-04T14:39:53.705Z</time></trkpt><trkpt lat="43.43769" lon="11.5745533"><ele>559.1666666666666</ele><time>2026-05-04T14:39:54.706Z</time></trkpt><trkpt lat="43.4377167" lon="11.574675"><ele>560.3333333333334</ele><time>2026-05-04T14:39:55.706Z</time></trkpt><trkpt lat="43.43776" lon="11.5747783"><ele>561.5</ele><time>2026-05-04T14:39:56.706Z</time></trkpt><trkpt lat="43.4378183" lon="11.5748667"><ele>562.6666666666667</ele><time>2026-05-04T14:39:57.706Z</time></trkpt><trkpt lat="43.4378883" lon="11.5749333"><ele>563.8333333333334</ele><time>2026-05-04T14:39:58.705Z</time></trkpt><trkpt lat="43.437975" lon="11.5749633"><ele>565.0</ele><time>2026-05-04T14:39:59.706Z</time></trkpt><trkpt lat="43.4380583" lon="11.5750017"><ele>565.0</ele><time>2026-05-04T14:40:00.706Z</time></trkpt><trkpt lat="43.4381433" lon="11.57506"><ele>565.0</ele><time>2026-05-04T14:40:01.706Z</time></trkpt><trkpt lat="43.438225" lon="11.5751883"><ele>565.0</ele><time>2026-05-04T14:40:02.705Z</time></trkpt><trkpt lat="43.4383067" lon="11.5753483"><ele>565.0</ele><time>2026-05-04T14:40:03.706Z</time></trkpt><trkpt lat="43.4383767" lon="11.57551"><ele>561.2</ele><time>2026-05-04T14:40:04.706Z</time></trkpt><trkpt lat="43.4384383" lon="11.57567"><ele>557.4</ele><time>2026-05-04T14:40:05.705Z</time></trkpt><trkpt lat="43.4384783" lon="11.5758017"><ele>553.6</ele><time>2026-05-04T14:40:06.705Z</time></trkpt><trkpt lat="43.438495" lon="11.5759217"><ele>549.8</ele><time>2026-05-04T14:40:07.706Z</time></trkpt><trkpt lat="43.438495" lon="11.5760417"><ele>546.0</ele><time>2026-05-04T14:40:08.706Z</time></trkpt><trkpt lat="43.438495" lon="11.5761583"><ele>542.0</ele><time>2026-05-04T14:40:09.707Z</time></trkpt><trkpt lat="43.4384983" lon="11.57627"><ele>538.0</ele><time>2026-05-04T14:40:10.706Z</time></trkpt><trkpt lat="43.438515" lon="11.5763767"><ele>534.0</ele><time>2026-05-04T14:40:11.705Z</time></trkpt><trkpt lat="43.438545" lon="11.5764833"><ele>530.0</ele><time>2026-05-04T14:40:12.706Z</time></trkpt><trkpt lat="43.4386083" lon="11.5765983"><ele>526.0</ele><time>2026-05-04T14:40:13.707Z</time></trkpt><trkpt lat="43.4387083" lon="11.5767467"><ele>526.25</ele><time>2026-05-04T14:40:14.706Z</time></trkpt><trkpt lat="43.43881" lon="11.5768967"><ele>526.5</ele><time>2026-05-04T14:40:15.705Z</time></trkpt><trkpt lat="43.4389117" lon="11.57704"><ele>526.75</ele><time>2026-05-04T14:40:16.706Z</time></trkpt><trkpt lat="43.439005" lon="11.5771767"><ele>527.0</ele><time>2026-05-04T14:40:17.704Z</time></trkpt><trkpt lat="43.4390867" lon="11.577295"><ele>527.0</ele><time>2026-05-04T14:40:18.706Z</time></trkpt><trkpt lat="43.4391467" lon="11.577395"><ele>527.0</ele><time>2026-05-04T14:40:19.708Z</time></trkpt><trkpt lat="43.43919" lon="11.577495"><ele>527.0</ele><time>2026-05-04T14:40:20.706Z</time></trkpt><trkpt lat="43.4392067" lon="11.5776117"><ele>527.0</ele><time>2026-05-04T14:40:21.707Z</time></trkpt><trkpt lat="43.4391983" lon="11.5777267"><ele>527.0</ele><time>2026-05-04T14:40:22.707Z</time></trkpt><trkpt lat="43.4391883" lon="11.577845"><ele>527.0</ele><time>2026-05-04T14:40:23.707Z</time></trkpt><trkpt lat="43.4391733" lon="11.577965"><ele>526.4</ele><time>2026-05-04T14:40:24.706Z</time></trkpt><trkpt lat="43.4391767" lon="11.578095"><ele>525.8000000000001</ele><time>2026-05-04T14:40:25.706Z</time></trkpt><trkpt lat="43.4391733" lon="11.578225"><ele>525.2</ele><time>2026-05-04T14:40:26.706Z</time></trkpt><trkpt lat="43.439165" lon="11.5783567"><ele>524.6</ele><time>2026-05-04T14:40:27.706Z</time></trkpt><trkpt lat="43.4391683" lon="11.5784767"><ele>524.0</ele><time>2026-05-04T14:40:28.707Z</time></trkpt><trkpt lat="43.4391817" lon="11.578595"><ele>524.4</ele><time>2026-05-04T14:40:29.706Z</time></trkpt><trkpt lat="43.43922" lon="11.5787117"><ele>524.8</ele><time>2026-05-04T14:40:30.706Z</time></trkpt><trkpt lat="43.4392567" lon="11.57884"><ele>525.2</ele><time>2026-05-04T14:40:31.706Z</time></trkpt><trkpt lat="43.4392717" lon="11.5789883"><ele>525.6</ele><time>2026-05-04T14:40:32.705Z</time></trkpt><trkpt lat="43.4392783" lon="11.579135"><ele>526.0</ele><time>2026-05-04T14:40:33.707Z</time></trkpt><trkpt lat="43.43929" lon="11.5792667"><ele>526.0</ele><time>2026-05-04T14:40:34.705Z</time></trkpt><trkpt lat="43.4393233" lon="11.5793917"><ele>526.0</ele><time>2026-05-04T14:40:35.706Z</time></trkpt><trkpt lat="43.4393783" lon="11.5795167"><ele>526.0</ele><time>2026-05-04T14:40:36.707Z</time></trkpt><trkpt lat="43.43944" lon="11.5796367"><ele>526.0</ele><time>2026-05-04T14:40:37.708Z</time></trkpt><trkpt lat="43.4395183" lon="11.5797433"><ele>526.0</ele><time>2026-05-04T14:40:38.705Z</time></trkpt><trkpt lat="43.4396017" lon="11.5798317"><ele>524.2</ele><time>2026-05-04T14:40:39.706Z</time></trkpt><trkpt lat="43.439685" lon="11.5799"><ele>522.4000000000001</ele><time>2026-05-04T14:40:40.705Z</time></trkpt><trkpt lat="43.43977" lon="11.5799633"><ele>520.6</ele><time>2026-05-04T14:40:41.706Z</time></trkpt><trkpt lat="43.439855" lon="11.5800183"><ele>518.8000000000001</ele><time>2026-05-04T14:40:42.705Z</time></trkpt><trkpt lat="43.4399433" lon="11.580075"><ele>517.0</ele><time>2026-05-04T14:40:43.706Z</time></trkpt><trkpt lat="43.44003" lon="11.5801383"><ele>517.0</ele><time>2026-05-04T14:40:44.707Z</time></trkpt><trkpt lat="43.4401183" lon="11.5802067"><ele>517.0</ele><time>2026-05-04T14:40:45.707Z</time></trkpt><trkpt lat="43.4402017" lon="11.5802717"><ele>517.0</ele><time>2026-05-04T14:40:46.706Z</time></trkpt><trkpt lat="43.4402833" lon="11.580335"><ele>517.0</ele><time>2026-05-04T14:40:47.705Z</time></trkpt><trkpt lat="43.4403683" lon="11.580395"><ele>517.0</ele><time>2026-05-04T14:40:48.705Z</time></trkpt><trkpt lat="43.4404483" lon="11.580465"><ele>513.6</ele><time>2026-05-04T14:40:49.706Z</time></trkpt><trkpt lat="43.4405233" lon="11.5805533"><ele>510.20000000000005</ele><time>2026-05-04T14:40:50.705Z</time></trkpt><trkpt lat="43.4405967" lon="11.5806517"><ele>506.8</ele><time>2026-05-04T14:40:51.707Z</time></trkpt><trkpt lat="43.4406633" lon="11.5807467"><ele>503.4</ele><time>2026-05-04T14:40:52.706Z</time></trkpt><trkpt lat="43.4407217" lon="11.5808417"><ele>500.0</ele><time>2026-05-04T14:40:53.705Z</time></trkpt><trkpt lat="43.4407783" lon="11.5809367"><ele>499.99999999999994</ele><time>2026-05-04T14:40:54.707Z</time></trkpt><trkpt lat="43.4408467" lon="11.58101"><ele>500.0</ele><time>2026-05-04T14:40:55.706Z</time></trkpt><trkpt lat="43.4409083" lon="11.58107"><ele>500.0</ele><time>2026-05-04T14:40:56.705Z</time></trkpt><trkpt lat="43.44096" lon="11.5811283"><ele>500.0</ele><time>2026-05-04T14:40:57.706Z</time></trkpt><trkpt lat="43.4410233" lon="11.5812783"><ele>499.99999999999994</ele><time>2026-05-04T14:40:59.706Z</time></trkpt><trkpt lat="43.441025" lon="11.581395"><ele>500.0</ele><time>2026-05-04T14:41:00.707Z</time></trkpt><trkpt lat="43.44103" lon="11.5815367"><ele>499.66666666666663</ele><time>2026-05-04T14:41:01.708Z</time></trkpt><trkpt lat="43.441035" lon="11.5816717"><ele>499.3333333333333</ele><time>2026-05-04T14:41:02.706Z</time></trkpt><trkpt lat="43.4410433" lon="11.5817983"><ele>499.0</ele><time>2026-05-04T14:41:03.709Z</time></trkpt><trkpt lat="43.4410533" lon="11.581915"><ele>498.66666666666663</ele><time>2026-05-04T14:41:04.707Z</time></trkpt><trkpt lat="43.4410633" lon="11.58202"><ele>498.3333333333333</ele><time>2026-05-04T14:41:05.706Z</time></trkpt><trkpt lat="43.4410617" lon="11.58213"><ele>498.0</ele><time>2026-05-04T14:41:06.708Z</time></trkpt><trkpt lat="43.4410417" lon="11.5822283"><ele>496.4</ele><time>2026-05-04T14:41:07.708Z</time></trkpt><trkpt lat="43.44102" lon="11.582335"><ele>494.79999999999995</ele><time>2026-05-04T14:41:08.707Z</time></trkpt><trkpt lat="43.44101" lon="11.5824533"><ele>493.2</ele><time>2026-05-04T14:41:09.705Z</time></trkpt><trkpt lat="43.4410183" lon="11.5825867"><ele>491.6</ele><time>2026-05-04T14:41:10.707Z</time></trkpt><trkpt lat="43.441045" lon="11.582725"><ele>490.0</ele><time>2026-05-04T14:41:11.706Z</time></trkpt><trkpt lat="43.4410767" lon="11.5828517"><ele>487.6666666666667</ele><time>2026-05-04T14:41:12.707Z</time></trkpt><trkpt lat="43.4411117" lon="11.5829617"><ele>485.33333333333337</ele><time>2026-05-04T14:41:13.707Z</time></trkpt><trkpt lat="43.4411467" lon="11.5830483"><ele>483.0</ele><time>2026-05-04T14:41:14.705Z</time></trkpt><trkpt lat="43.44122" lon="11.5831633"><ele>480.66666666666663</ele><time>2026-05-04T14:41:16.707Z</time></trkpt><trkpt lat="43.4412467" lon="11.5832517"><ele>478.3333333333333</ele><time>2026-05-04T14:41:18.706Z</time></trkpt><trkpt lat="43.4411567" lon="11.5832917"><ele>476.0</ele><time>2026-05-04T14:41:21.706Z</time></trkpt><trkpt lat="43.4410983" lon="11.5832517"><ele>476.0</ele><time>2026-05-04T14:41:22.706Z</time></trkpt><trkpt lat="43.4410417" lon="11.5831933"><ele>476.0</ele><time>2026-05-04T14:41:23.707Z</time></trkpt><trkpt lat="43.4409683" lon="11.5831067"><ele>476.0</ele><time>2026-05-04T14:41:25.705Z</time></trkpt><trkpt lat="43.4409017" lon="11.5831017"><ele>476.0</ele><time>2026-05-04T14:41:28.708Z</time></trkpt><trkpt lat="43.4409283" lon="11.5832183"><ele>476.0</ele><time>2026-05-04T14:41:31.705Z</time></trkpt><trkpt lat="43.441045" lon="11.583355"><ele>476.0</ele><time>2026-05-04T14:41:33.708Z</time></trkpt><trkpt lat="43.4411433" lon="11.5834283"><ele>476.0</ele><time>2026-05-04T14:41:34.705Z</time></trkpt><trkpt lat="43.4412617" lon="11.5834817"><ele>476.0</ele><time>2026-05-04T14:41:35.705Z</time></trkpt><trkpt lat="43.4413583" lon="11.5835217"><ele>476.0</ele><time>2026-05-04T14:41:36.706Z</time></trkpt><trkpt lat="43.44145" lon="11.5835383"><ele>476.0</ele><time>2026-05-04T14:41:37.706Z</time></trkpt><trkpt lat="43.4415317" lon="11.5835267"><ele>477.8</ele><time>2026-05-04T14:41:38.706Z</time></trkpt><trkpt lat="43.441625" lon="11.5834783"><ele>479.6</ele><time>2026-05-04T14:41:39.708Z</time></trkpt><trkpt lat="43.4417317" lon="11.58342"><ele>481.4</ele><time>2026-05-04T14:41:40.708Z</time></trkpt><trkpt lat="43.4418417" lon="11.5833883"><ele>483.2</ele><time>2026-05-04T14:41:41.705Z</time></trkpt><trkpt lat="43.44194" lon="11.5833783"><ele>485.0</ele><time>2026-05-04T14:41:42.706Z</time></trkpt><trkpt lat="43.4420383" lon="11.5834117"><ele>485.0</ele><time>2026-05-04T14:41:43.707Z</time></trkpt><trkpt lat="43.4421267" lon="11.5834833"><ele>485.0</ele><time>2026-05-04T14:41:44.706Z</time></trkpt><trkpt lat="43.4422083" lon="11.5835467"><ele>485.0</ele><time>2026-05-04T14:41:45.706Z</time></trkpt><trkpt lat="43.4422917" lon="11.583605"><ele>485.0</ele><time>2026-05-04T14:41:46.707Z</time></trkpt><trkpt lat="43.44237" lon="11.5836467"><ele>485.0</ele><time>2026-05-04T14:41:47.705Z</time></trkpt><trkpt lat="43.44245" lon="11.5836633"><ele>486.4</ele><time>2026-05-04T14:41:48.706Z</time></trkpt><trkpt lat="43.4425283" lon="11.5836683"><ele>487.8</ele><time>2026-05-04T14:41:49.707Z</time></trkpt><trkpt lat="43.4426233" lon="11.5836433"><ele>489.20000000000005</ele><time>2026-05-04T14:41:50.705Z</time></trkpt><trkpt lat="43.4427267" lon="11.583625"><ele>490.6</ele><time>2026-05-04T14:41:51.706Z</time></trkpt><trkpt lat="43.4428367" lon="11.5836067"><ele>492.0</ele><time>2026-05-04T14:41:52.706Z</time></trkpt><trkpt lat="43.4429533" lon="11.5836183"><ele>493.5</ele><time>2026-05-04T14:41:53.706Z</time></trkpt><trkpt lat="43.44307" lon="11.5836283"><ele>495.0</ele><time>2026-05-04T14:41:54.706Z</time></trkpt><trkpt lat="43.4431933" lon="11.58363"><ele>496.5</ele><time>2026-05-04T14:41:55.707Z</time></trkpt><trkpt lat="43.4433233" lon="11.583625"><ele>498.0</ele><time>2026-05-04T14:41:56.706Z</time></trkpt><trkpt lat="43.44345" lon="11.58361"><ele>498.0</ele><time>2026-05-04T14:41:57.707Z</time></trkpt><trkpt lat="43.44357" lon="11.5836033"><ele>497.99999999999994</ele><time>2026-05-04T14:41:58.706Z</time></trkpt><trkpt lat="43.4436817" lon="11.5836017"><ele>497.99999999999994</ele><time>2026-05-04T14:41:59.704Z</time></trkpt><trkpt lat="43.4437867" lon="11.5836117"><ele>498.0</ele><time>2026-05-04T14:42:00.707Z</time></trkpt><trkpt lat="43.443885" lon="11.5836167"><ele>498.0</ele><time>2026-05-04T14:42:01.707Z</time></trkpt><trkpt lat="43.443995" lon="11.5836083"><ele>497.2</ele><time>2026-05-04T14:42:02.705Z</time></trkpt><trkpt lat="43.4441117" lon="11.58359"><ele>496.4</ele><time>2026-05-04T14:42:03.706Z</time></trkpt><trkpt lat="43.4442233" lon="11.5835833"><ele>495.59999999999997</ele><time>2026-05-04T14:42:04.706Z</time></trkpt><trkpt lat="43.44433" lon="11.5835867"><ele>494.79999999999995</ele><time>2026-05-04T14:42:05.706Z</time></trkpt><trkpt lat="43.4444267" lon="11.583595"><ele>494.0</ele><time>2026-05-04T14:42:06.706Z</time></trkpt><trkpt lat="43.4445117" lon="11.5836133"><ele>493.99999999999994</ele><time>2026-05-04T14:42:07.706Z</time></trkpt><trkpt lat="43.44459" lon="11.5836133"><ele>494.0</ele><time>2026-05-04T14:42:08.704Z</time></trkpt><trkpt lat="43.4446617" lon="11.5836"><ele>494.0</ele><time>2026-05-04T14:42:09.707Z</time></trkpt><trkpt lat="43.4447417" lon="11.58357"><ele>494.0</ele><time>2026-05-04T14:42:10.707Z</time></trkpt><trkpt lat="43.4448267" lon="11.5835033"><ele>493.99999999999994</ele><time>2026-05-04T14:42:11.705Z</time></trkpt><trkpt lat="43.444915" lon="11.5834467"><ele>494.0</ele><time>2026-05-04T14:42:12.707Z</time></trkpt><trkpt lat="43.444995" lon="11.5833633"><ele>492.49999999999994</ele><time>2026-05-04T14:42:13.706Z</time></trkpt><trkpt lat="43.44507" lon="11.583295"><ele>491.0</ele><time>2026-05-04T14:42:14.707Z</time></trkpt><trkpt lat="43.4451467" lon="11.583225"><ele>489.5</ele><time>2026-05-04T14:42:15.707Z</time></trkpt><trkpt lat="43.445215" lon="11.5831717"><ele>488.0</ele><time>2026-05-04T14:42:16.706Z</time></trkpt><trkpt lat="43.445285" lon="11.5831483"><ele>486.49999999999994</ele><time>2026-05-04T14:42:17.71Z</time></trkpt><trkpt lat="43.4453583" lon="11.5831483"><ele>485.0</ele><time>2026-05-04T14:42:18.705Z</time></trkpt><trkpt lat="43.4454383" lon="11.5832117"><ele>485.6</ele><time>2026-05-04T14:42:19.707Z</time></trkpt><trkpt lat="43.4455233" lon="11.5832883"><ele>486.2</ele><time>2026-05-04T14:42:20.707Z</time></trkpt><trkpt lat="43.445615" lon="11.5833783"><ele>486.79999999999995</ele><time>2026-05-04T14:42:21.707Z</time></trkpt><trkpt lat="43.4457083" lon="11.5834583"><ele>487.4</ele><time>2026-05-04T14:42:22.706Z</time></trkpt><trkpt lat="43.4458067" lon="11.58353"><ele>488.0</ele><time>2026-05-04T14:42:23.705Z</time></trkpt><trkpt lat="43.4459133" lon="11.5835917"><ele>488.0</ele><time>2026-05-04T14:42:24.706Z</time></trkpt><trkpt lat="43.4460233" lon="11.5836583"><ele>488.0</ele><time>2026-05-04T14:42:25.705Z</time></trkpt><trkpt lat="43.4461317" lon="11.5837183"><ele>488.0</ele><time>2026-05-04T14:42:26.705Z</time></trkpt><trkpt lat="43.4462383" lon="11.5837833"><ele>488.0</ele><time>2026-05-04T14:42:27.706Z</time></trkpt><trkpt lat="43.4463333" lon="11.5838417"><ele>486.3333333333333</ele><time>2026-05-04T14:42:28.707Z</time></trkpt><trkpt lat="43.4464183" lon="11.5838917"><ele>484.66666666666663</ele><time>2026-05-04T14:42:29.705Z</time></trkpt><trkpt lat="43.4465017" lon="11.5839167"><ele>483.0</ele><time>2026-05-04T14:42:30.706Z</time></trkpt><trkpt lat="43.4465883" lon="11.58391"><ele>481.33333333333337</ele><time>2026-05-04T14:42:31.706Z</time></trkpt><trkpt lat="43.4466717" lon="11.5838883"><ele>479.6666666666667</ele><time>2026-05-04T14:42:32.705Z</time></trkpt><trkpt lat="43.4467617" lon="11.5838433"><ele>478.0</ele><time>2026-05-04T14:42:33.708Z</time></trkpt><trkpt lat="43.4468533" lon="11.5838317"><ele>478.0</ele><time>2026-05-04T14:42:34.706Z</time></trkpt><trkpt lat="43.4469483" lon="11.5838183"><ele>477.99999999999994</ele><time>2026-05-04T14:42:35.704Z</time></trkpt><trkpt lat="43.4470417" lon="11.5838017"><ele>477.99999999999994</ele><time>2026-05-04T14:42:36.705Z</time></trkpt><trkpt lat="43.4471317" lon="11.5837683"><ele>478.0</ele><time>2026-05-04T14:42:37.706Z</time></trkpt><trkpt lat="43.447225" lon="11.5837183"><ele>478.0</ele><time>2026-05-04T14:42:38.706Z</time></trkpt><trkpt lat="43.4473217" lon="11.58366"><ele>480.79999999999995</ele><time>2026-05-04T14:42:39.705Z</time></trkpt><trkpt lat="43.4474333" lon="11.5836083"><ele>483.59999999999997</ele><time>2026-05-04T14:42:40.705Z</time></trkpt><trkpt lat="43.4475433" lon="11.5835667"><ele>486.40000000000003</ele><time>2026-05-04T14:42:41.704Z</time></trkpt><trkpt lat="43.4476317" lon="11.5835417"><ele>489.20000000000005</ele><time>2026-05-04T14:42:42.706Z</time></trkpt><trkpt lat="43.44771" lon="11.583525"><ele>492.0</ele><time>2026-05-04T14:42:43.707Z</time></trkpt><trkpt lat="43.4477817" lon="11.583495"><ele>492.0</ele><time>2026-05-04T14:42:44.706Z</time></trkpt><trkpt lat="43.4478567" lon="11.5834483"><ele>492.0</ele><time>2026-05-04T14:42:45.707Z</time></trkpt><trkpt lat="43.4479317" lon="11.5834067"><ele>492.0</ele><time>2026-05-04T14:42:46.705Z</time></trkpt><trkpt lat="43.4480133" lon="11.58336"><ele>492.0</ele><time>2026-05-04T14:42:47.706Z</time></trkpt><trkpt lat="43.44809" lon="11.58332"><ele>492.0</ele><time>2026-05-04T14:42:48.706Z</time></trkpt><trkpt lat="43.44816" lon="11.5832783"><ele>492.0</ele><time>2026-05-04T14:42:49.707Z</time></trkpt><trkpt lat="43.4482283" lon="11.583245"><ele>490.28571428571433</ele><time>2026-05-04T14:42:50.706Z</time></trkpt><trkpt lat="43.4483" lon="11.5832217"><ele>488.57142857142856</ele><time>2026-05-04T14:42:51.707Z</time></trkpt><trkpt lat="43.448365" lon="11.5832167"><ele>486.8571428571429</ele><time>2026-05-04T14:42:52.707Z</time></trkpt><trkpt lat="43.4484317" lon="11.58321"><ele>485.14285714285717</ele><time>2026-05-04T14:42:53.705Z</time></trkpt><trkpt lat="43.4484967" lon="11.5832"><ele>483.42857142857144</ele><time>2026-05-04T14:42:54.705Z</time></trkpt><trkpt lat="43.4485667" lon="11.5831767"><ele>481.7142857142857</ele><time>2026-05-04T14:42:55.706Z</time></trkpt><trkpt lat="43.4486333" lon="11.5831483"><ele>480.0</ele><time>2026-05-04T14:42:56.707Z</time></trkpt><trkpt lat="43.4487067" lon="11.5831233"><ele>480.0</ele><time>2026-05-04T14:42:57.708Z</time></trkpt><trkpt lat="43.44878" lon="11.58309"><ele>480.0</ele><time>2026-05-04T14:42:58.706Z</time></trkpt><trkpt lat="43.44885" lon="11.5830567"><ele>480.0</ele><time>2026-05-04T14:42:59.704Z</time></trkpt><trkpt lat="43.4489167" lon="11.5830183"><ele>480.0</ele><time>2026-05-04T14:43:00.706Z</time></trkpt><trkpt lat="43.448985" lon="11.58298"><ele>480.0</ele><time>2026-05-04T14:43:01.706Z</time></trkpt><trkpt lat="43.4490533" lon="11.5829633"><ele>480.0</ele><time>2026-05-04T14:43:02.706Z</time></trkpt><trkpt lat="43.449145" lon="11.5829367"><ele>477.4</ele><time>2026-05-04T14:43:04.706Z</time></trkpt><trkpt lat="43.4492283" lon="11.5827967"><ele>474.8</ele><time>2026-05-04T14:43:06.706Z</time></trkpt><trkpt lat="43.449255" lon="11.582675"><ele>472.20000000000005</ele><time>2026-05-04T14:43:07.706Z</time></trkpt><trkpt lat="43.4492883" lon="11.5825333"><ele>469.6</ele><time>2026-05-04T14:43:08.707Z</time></trkpt><trkpt lat="43.449335" lon="11.582395"><ele>467.0</ele><time>2026-05-04T14:43:09.707Z</time></trkpt><trkpt lat="43.4493983" lon="11.582275"><ele>467.0</ele><time>2026-05-04T14:43:10.706Z</time></trkpt><trkpt lat="43.4494917" lon="11.5821733"><ele>467.0</ele><time>2026-05-04T14:43:11.707Z</time></trkpt><trkpt lat="43.4496117" lon="11.5820767"><ele>467.0</ele><time>2026-05-04T14:43:12.706Z</time></trkpt><trkpt lat="43.4497317" lon="11.5819933"><ele>467.0</ele><time>2026-05-04T14:43:13.706Z</time></trkpt><trkpt lat="43.4498417" lon="11.58192"><ele>466.75</ele><time>2026-05-04T14:43:14.705Z</time></trkpt><trkpt lat="43.4499483" lon="11.5818583"><ele>466.5</ele><time>2026-05-04T14:43:15.707Z</time></trkpt><trkpt lat="43.4500633" lon="11.581815"><ele>466.25</ele><time>2026-05-04T14:43:16.706Z</time></trkpt><trkpt lat="43.450185" lon="11.5817933"><ele>466.0</ele><time>2026-05-04T14:43:17.705Z</time></trkpt><trkpt lat="43.4503" lon="11.5817833"><ele>466.0</ele><time>2026-05-04T14:43:18.706Z</time></trkpt><trkpt lat="43.450415" lon="11.5817767"><ele>466.0</ele><time>2026-05-04T14:43:19.706Z</time></trkpt><trkpt lat="43.45053" lon="11.5817667"><ele>466.0</ele><time>2026-05-04T14:43:20.705Z</time></trkpt><trkpt lat="43.45063" lon="11.58175"><ele>466.0</ele><time>2026-05-04T14:43:21.707Z</time></trkpt><trkpt lat="43.4507133" lon="11.5817367"><ele>466.0</ele><time>2026-05-04T14:43:22.706Z</time></trkpt><trkpt lat="43.450795" lon="11.5817417"><ele>465.33333333333337</ele><time>2026-05-04T14:43:23.705Z</time></trkpt><trkpt lat="43.4508733" lon="11.5817633"><ele>464.6666666666667</ele><time>2026-05-04T14:43:24.705Z</time></trkpt><trkpt lat="43.4509533" lon="11.581805"><ele>464.0</ele><time>2026-05-04T14:43:25.706Z</time></trkpt><trkpt lat="43.4510183" lon="11.5818667"><ele>463.33333333333337</ele><time>2026-05-04T14:43:26.706Z</time></trkpt><trkpt lat="43.4510717" lon="11.5819233"><ele>462.6666666666667</ele><time>2026-05-04T14:43:27.706Z</time></trkpt><trkpt lat="43.4511683" lon="11.5819933"><ele>462.0</ele><time>2026-05-04T14:43:29.706Z</time></trkpt><trkpt lat="43.4512283" lon="11.5819033"><ele>462.0</ele><time>2026-05-04T14:43:31.708Z</time></trkpt><trkpt lat="43.4512333" lon="11.581735"><ele>462.00000000000006</ele><time>2026-05-04T14:43:33.706Z</time></trkpt><trkpt lat="43.4512067" lon="11.58161"><ele>462.00000000000006</ele><time>2026-05-04T14:43:34.708Z</time></trkpt><trkpt lat="43.4511817" lon="11.581495"><ele>462.0</ele><time>2026-05-04T14:43:35.706Z</time></trkpt><trkpt lat="43.4511733" lon="11.58139"><ele>462.0</ele><time>2026-05-04T14:43:36.707Z</time></trkpt><trkpt lat="43.4511783" lon="11.5812783"><ele>461.0</ele><time>2026-05-04T14:43:37.706Z</time></trkpt><trkpt lat="43.4512" lon="11.581165"><ele>460.00000000000006</ele><time>2026-05-04T14:43:38.707Z</time></trkpt><trkpt lat="43.4512417" lon="11.581055"><ele>459.00000000000006</ele><time>2026-05-04T14:43:39.708Z</time></trkpt><trkpt lat="43.4512933" lon="11.58096"><ele>458.0</ele><time>2026-05-04T14:43:40.707Z</time></trkpt><trkpt lat="43.451365" lon="11.5808683"><ele>457.0</ele><time>2026-05-04T14:43:41.705Z</time></trkpt><trkpt lat="43.4514567" lon="11.5807983"><ele>455.0</ele><time>2026-05-04T14:43:42.706Z</time></trkpt><trkpt lat="43.4515417" lon="11.5807367"><ele>453.00000000000006</ele><time>2026-05-04T14:43:43.706Z</time></trkpt><trkpt lat="43.4516333" lon="11.580675"><ele>451.00000000000006</ele><time>2026-05-04T14:43:44.706Z</time></trkpt><trkpt lat="43.4517233" lon="11.5806233"><ele>449.0</ele><time>2026-05-04T14:43:45.708Z</time></trkpt><trkpt lat="43.4518067" lon="11.580585"><ele>447.0</ele><time>2026-05-04T14:43:46.712Z</time></trkpt><trkpt lat="43.4518883" lon="11.5805633"><ele>447.0</ele><time>2026-05-04T14:43:47.706Z</time></trkpt><trkpt lat="43.4519583" lon="11.58055"><ele>447.0</ele><time>2026-05-04T14:43:48.706Z</time></trkpt><trkpt lat="43.4520617" lon="11.5805417"><ele>447.0</ele><time>2026-05-04T14:43:50.706Z</time></trkpt><trkpt lat="43.4521633" lon="11.5805783"><ele>447.0</ele><time>2026-05-04T14:44:03.707Z</time></trkpt><trkpt lat="43.4522367" lon="11.5805833"><ele>447.0</ele><time>2026-05-04T14:44:04.707Z</time></trkpt><trkpt lat="43.4523117" lon="11.58058"><ele>447.0</ele><time>2026-05-04T14:44:05.705Z</time></trkpt><trkpt lat="43.45241" lon="11.5805667"><ele>445.0</ele><time>2026-05-04T14:44:06.707Z</time></trkpt><trkpt lat="43.4525267" lon="11.58053"><ele>443.0</ele><time>2026-05-04T14:44:07.707Z</time></trkpt><trkpt lat="43.45265" lon="11.580485"><ele>441.0</ele><time>2026-05-04T14:44:08.708Z</time></trkpt><trkpt lat="43.45277" lon="11.58045"><ele>439.0</ele><time>2026-05-04T14:44:09.704Z</time></trkpt><trkpt lat="43.4528833" lon="11.580435"><ele>436.5</ele><time>2026-05-04T14:44:10.705Z</time></trkpt><trkpt lat="43.453" lon="11.58043"><ele>434.0</ele><time>2026-05-04T14:44:11.705Z</time></trkpt><trkpt lat="43.453115" lon="11.5804467"><ele>431.5</ele><time>2026-05-04T14:44:12.706Z</time></trkpt><trkpt lat="43.4532233" lon="11.5804783"><ele>429.0</ele><time>2026-05-04T14:44:13.705Z</time></trkpt><trkpt lat="43.45333" lon="11.5805267"><ele>429.0</ele><time>2026-05-04T14:44:14.705Z</time></trkpt><trkpt lat="43.4534283" lon="11.5806"><ele>429.0</ele><time>2026-05-04T14:44:15.706Z</time></trkpt><trkpt lat="43.4535217" lon="11.58068"><ele>429.0</ele><time>2026-05-04T14:44:16.705Z</time></trkpt><trkpt lat="43.4536067" lon="11.5807617"><ele>429.0</ele><time>2026-05-04T14:44:17.705Z</time></trkpt><trkpt lat="43.4536783" lon="11.5808517"><ele>429.0</ele><time>2026-05-04T14:44:18.706Z</time></trkpt><trkpt lat="43.453745" lon="11.5809283"><ele>428.79999999999995</ele><time>2026-05-04T14:44:19.703Z</time></trkpt><trkpt lat="43.453805" lon="11.5810167"><ele>428.59999999999997</ele><time>2026-05-04T14:44:20.707Z</time></trkpt><trkpt lat="43.45387" lon="11.5811083"><ele>428.4</ele><time>2026-05-04T14:44:21.706Z</time></trkpt><trkpt lat="43.4539367" lon="11.581195"><ele>428.2</ele><time>2026-05-04T14:44:22.706Z</time></trkpt><trkpt lat="43.4540033" lon="11.58128"><ele>428.0</ele><time>2026-05-04T14:44:23.706Z</time></trkpt><trkpt lat="43.45407" lon="11.5813567"><ele>426.16666666666663</ele><time>2026-05-04T14:44:24.705Z</time></trkpt><trkpt lat="43.4541367" lon="11.5814183"><ele>424.3333333333333</ele><time>2026-05-04T14:44:25.707Z</time></trkpt><trkpt lat="43.4542017" lon="11.58147"><ele>422.5</ele><time>2026-05-04T14:44:26.706Z</time></trkpt><trkpt lat="43.454275" lon="11.5815"><ele>420.66666666666663</ele><time>2026-05-04T14:44:27.707Z</time></trkpt><trkpt lat="43.4543483" lon="11.58151"><ele>418.8333333333333</ele><time>2026-05-04T14:44:28.706Z</time></trkpt><trkpt lat="43.4544133" lon="11.5815067"><ele>417.0</ele><time>2026-05-04T14:44:29.706Z</time></trkpt><trkpt lat="43.4545283" lon="11.5814717"><ele>417.0</ele><time>2026-05-04T14:44:31.708Z</time></trkpt><trkpt lat="43.4546167" lon="11.581405"><ele>417.0</ele><time>2026-05-04T14:44:33.706Z</time></trkpt><trkpt lat="43.4546633" lon="11.5813367"><ele>417.0</ele><time>2026-05-04T14:44:34.708Z</time></trkpt><trkpt lat="43.4547033" lon="11.581255"><ele>417.0</ele><time>2026-05-04T14:44:35.709Z</time></trkpt><trkpt lat="43.4547433" lon="11.5811567"><ele>417.0</ele><time>2026-05-04T14:44:36.708Z</time></trkpt><trkpt lat="43.454775" lon="11.5810517"><ele>417.0</ele><time>2026-05-04T14:44:37.708Z</time></trkpt><trkpt lat="43.4547983" lon="11.5809533"><ele>418.6666666666667</ele><time>2026-05-04T14:44:38.708Z</time></trkpt><trkpt lat="43.45481" lon="11.5808567"><ele>420.33333333333337</ele><time>2026-05-04T14:44:39.709Z</time></trkpt><trkpt lat="43.45483" lon="11.580755"><ele>422.0</ele><time>2026-05-04T14:44:40.707Z</time></trkpt><trkpt lat="43.45485" lon="11.58066"><ele>423.6666666666667</ele><time>2026-05-04T14:44:41.706Z</time></trkpt><trkpt lat="43.4548917" lon="11.5805717"><ele>425.33333333333337</ele><time>2026-05-04T14:44:42.707Z</time></trkpt><trkpt lat="43.4549467" lon="11.5804867"><ele>427.0</ele><time>2026-05-04T14:44:43.707Z</time></trkpt><trkpt lat="43.4550167" lon="11.58041"><ele>429.1666666666667</ele><time>2026-05-04T14:44:44.706Z</time></trkpt><trkpt lat="43.4550833" lon="11.5803483"><ele>431.33333333333337</ele><time>2026-05-04T14:44:45.708Z</time></trkpt><trkpt lat="43.4551483" lon="11.58028"><ele>433.5</ele><time>2026-05-04T14:44:46.706Z</time></trkpt><trkpt lat="43.4552117" lon="11.580245"><ele>435.66666666666663</ele><time>2026-05-04T14:44:47.705Z</time></trkpt><trkpt lat="43.4552933" lon="11.5802217"><ele>437.8333333333333</ele><time>2026-05-04T14:44:49.705Z</time></trkpt><trkpt lat="43.4552317" lon="11.580305"><ele>440.0</ele><time>2026-05-04T14:45:36.706Z</time></trkpt><trkpt lat="43.4552933" lon="11.5801617"><ele>439.99999999999994</ele><time>2026-05-04T14:47:01.706Z</time></trkpt><trkpt lat="43.455325" lon="11.5800633"><ele>440.0</ele><time>2026-05-04T14:47:02.705Z</time></trkpt><trkpt lat="43.4553567" lon="11.5799567"><ele>440.0</ele><time>2026-05-04T14:47:03.706Z</time></trkpt><trkpt lat="43.4553817" lon="11.5798517"><ele>440.0</ele><time>2026-05-04T14:47:04.707Z</time></trkpt><trkpt lat="43.4554067" lon="11.5797583"><ele>439.99999999999994</ele><time>2026-05-04T14:47:05.705Z</time></trkpt><trkpt lat="43.4554267" lon="11.57966"><ele>440.0</ele><time>2026-05-04T14:47:06.706Z</time></trkpt><trkpt lat="43.4554333" lon="11.5795617"><ele>440.3333333333333</ele><time>2026-05-04T14:47:07.706Z</time></trkpt><trkpt lat="43.4554367" lon="11.5794667"><ele>440.66666666666663</ele><time>2026-05-04T14:47:08.705Z</time></trkpt><trkpt lat="43.455445" lon="11.5793667"><ele>441.0</ele><time>2026-05-04T14:47:09.706Z</time></trkpt><trkpt lat="43.4554533" lon="11.579255"><ele>441.33333333333337</ele><time>2026-05-04T14:47:10.702Z</time></trkpt><trkpt lat="43.4554667" lon="11.5791433"><ele>441.6666666666667</ele><time>2026-05-04T14:47:11.704Z</time></trkpt><trkpt lat="43.4554833" lon="11.5790283"><ele>442.0</ele><time>2026-05-04T14:47:12.707Z</time></trkpt><trkpt lat="43.4555083" lon="11.5789117"><ele>442.00000000000006</ele><time>2026-05-04T14:47:13.706Z</time></trkpt><trkpt lat="43.455545" lon="11.578815"><ele>442.0</ele><time>2026-05-04T14:47:14.707Z</time></trkpt><trkpt lat="43.455595" lon="11.5787317"><ele>442.0</ele><time>2026-05-04T14:47:15.706Z</time></trkpt><trkpt lat="43.4556633" lon="11.5786633"><ele>442.0</ele><time>2026-05-04T14:47:16.706Z</time></trkpt><trkpt lat="43.4557333" lon="11.578595"><ele>442.00000000000006</ele><time>2026-05-04T14:47:17.707Z</time></trkpt><trkpt lat="43.4557983" lon="11.57852"><ele>442.0</ele><time>2026-05-04T14:47:18.706Z</time></trkpt><trkpt lat="43.4558617" lon="11.5784367"><ele>444.0</ele><time>2026-05-04T14:47:19.706Z</time></trkpt><trkpt lat="43.4559183" lon="11.5783583"><ele>446.0</ele><time>2026-05-04T14:47:20.706Z</time></trkpt><trkpt lat="43.4559683" lon="11.57828"><ele>448.0</ele><time>2026-05-04T14:47:21.707Z</time></trkpt><trkpt lat="43.456015" lon="11.5782017"><ele>450.0</ele><time>2026-05-04T14:47:22.706Z</time></trkpt><trkpt lat="43.4560517" lon="11.578115"><ele>451.99999999999994</ele><time>2026-05-04T14:47:23.705Z</time></trkpt><trkpt lat="43.4560933" lon="11.5780233"><ele>454.0</ele><time>2026-05-04T14:47:24.708Z</time></trkpt><trkpt lat="43.4561267" lon="11.5779417"><ele>456.0</ele><time>2026-05-04T14:47:25.705Z</time></trkpt><trkpt lat="43.4561717" lon="11.5777817"><ele>456.0</ele><time>2026-05-04T14:47:27.706Z</time></trkpt><trkpt lat="43.4561833" lon="11.57769"><ele>455.99999999999994</ele><time>2026-05-04T14:47:28.706Z</time></trkpt><trkpt lat="43.4561817" lon="11.5775867"><ele>456.0</ele><time>2026-05-04T14:47:29.706Z</time></trkpt><trkpt lat="43.4561767" lon="11.5774867"><ele>456.0</ele><time>2026-05-04T14:47:30.705Z</time></trkpt><trkpt lat="43.45618" lon="11.57739"><ele>455.99999999999994</ele><time>2026-05-04T14:47:31.707Z</time></trkpt><trkpt lat="43.4562033" lon="11.5772967"><ele>456.0</ele><time>2026-05-04T14:47:32.705Z</time></trkpt><trkpt lat="43.4562483" lon="11.5772017"><ele>456.0</ele><time>2026-05-04T14:47:33.707Z</time></trkpt><trkpt lat="43.4563067" lon="11.5771"><ele>457.4</ele><time>2026-05-04T14:47:34.705Z</time></trkpt><trkpt lat="43.4563633" lon="11.576995"><ele>458.8</ele><time>2026-05-04T14:47:35.704Z</time></trkpt><trkpt lat="43.4564117" lon="11.5768817"><ele>460.19999999999993</ele><time>2026-05-04T14:47:36.708Z</time></trkpt><trkpt lat="43.456455" lon="11.5767717"><ele>461.59999999999997</ele><time>2026-05-04T14:47:37.705Z</time></trkpt><trkpt lat="43.456495" lon="11.5766533"><ele>463.0</ele><time>2026-05-04T14:47:38.706Z</time></trkpt><trkpt lat="43.4565417" lon="11.57655"><ele>463.00000000000006</ele><time>2026-05-04T14:47:39.707Z</time></trkpt><trkpt lat="43.45659" lon="11.5764583"><ele>463.0</ele><time>2026-05-04T14:47:40.706Z</time></trkpt><trkpt lat="43.4566417" lon="11.576365"><ele>463.0</ele><time>2026-05-04T14:47:41.706Z</time></trkpt><trkpt lat="43.4567" lon="11.5762733"><ele>463.0</ele><time>2026-05-04T14:47:42.701Z</time></trkpt><trkpt lat="43.456765" lon="11.5761733"><ele>463.00000000000006</ele><time>2026-05-04T14:47:43.707Z</time></trkpt><trkpt lat="43.4568267" lon="11.5760833"><ele>463.0</ele><time>2026-05-04T14:47:44.706Z</time></trkpt><trkpt lat="43.4568867" lon="11.5759883"><ele>463.00000000000006</ele><time>2026-05-04T14:47:45.706Z</time></trkpt><trkpt lat="43.4569433" lon="11.57592"><ele>463.0</ele><time>2026-05-04T14:47:46.706Z</time></trkpt><trkpt lat="43.4570017" lon="11.5758683"><ele>463.0</ele><time>2026-05-04T14:47:47.705Z</time></trkpt><trkpt lat="43.4570767" lon="11.575835"><ele>463.0</ele><time>2026-05-04T14:47:48.705Z</time></trkpt><trkpt lat="43.4571533" lon="11.5757933"><ele>463.00000000000006</ele><time>2026-05-04T14:47:49.707Z</time></trkpt><trkpt lat="43.4572283" lon="11.5757583"><ele>463.0</ele><time>2026-05-04T14:47:50.706Z</time></trkpt><trkpt lat="43.4572967" lon="11.5757183"><ele>463.6666666666667</ele><time>2026-05-04T14:47:51.708Z</time></trkpt><trkpt lat="43.4573633" lon="11.575675"><ele>464.33333333333337</ele><time>2026-05-04T14:47:52.706Z</time></trkpt><trkpt lat="43.4574367" lon="11.5756417"><ele>465.0</ele><time>2026-05-04T14:47:53.706Z</time></trkpt><trkpt lat="43.457515" lon="11.575625"><ele>465.66666666666663</ele><time>2026-05-04T14:47:54.706Z</time></trkpt><trkpt lat="43.457595" lon="11.5756317"><ele>466.3333333333333</ele><time>2026-05-04T14:47:55.706Z</time></trkpt><trkpt lat="43.4576667" lon="11.5756567"><ele>467.0</ele><time>2026-05-04T14:47:56.706Z</time></trkpt><trkpt lat="43.4577333" lon="11.575675"><ele>466.99999999999994</ele><time>2026-05-04T14:47:57.707Z</time></trkpt><trkpt lat="43.4578383" lon="11.5756667"><ele>467.0</ele><time>2026-05-04T14:47:59.705Z</time></trkpt><trkpt lat="43.4579217" lon="11.5755783"><ele>467.0</ele><time>2026-05-04T14:48:01.706Z</time></trkpt><trkpt lat="43.457955" lon="11.5755033"><ele>467.0</ele><time>2026-05-04T14:48:02.705Z</time></trkpt><trkpt lat="43.45799" lon="11.5754083"><ele>466.99999999999994</ele><time>2026-05-04T14:48:03.706Z</time></trkpt><trkpt lat="43.4580183" lon="11.5753117"><ele>467.0</ele><time>2026-05-04T14:48:04.704Z</time></trkpt><trkpt lat="43.4580533" lon="11.5752183"><ele>464.66666666666663</ele><time>2026-05-04T14:48:05.706Z</time></trkpt><trkpt lat="43.4580867" lon="11.57512"><ele>462.3333333333333</ele><time>2026-05-04T14:48:06.705Z</time></trkpt><trkpt lat="43.4581183" lon="11.57502"><ele>460.0</ele><time>2026-05-04T14:48:07.705Z</time></trkpt><trkpt lat="43.4581517" lon="11.5749283"><ele>457.66666666666663</ele><time>2026-05-04T14:48:08.706Z</time></trkpt><trkpt lat="43.45822" lon="11.5747917"><ele>455.3333333333333</ele><time>2026-05-04T14:48:10.706Z</time></trkpt><trkpt lat="43.458275" lon="11.5747383"><ele>453.0</ele><time>2026-05-04T14:48:11.705Z</time></trkpt><trkpt lat="43.4583467" lon="11.57472"><ele>453.0</ele><time>2026-05-04T14:48:12.706Z</time></trkpt><trkpt lat="43.4584283" lon="11.5747367"><ele>452.99999999999994</ele><time>2026-05-04T14:48:13.707Z</time></trkpt><trkpt lat="43.4585183" lon="11.5747817"><ele>452.99999999999994</ele><time>2026-05-04T14:48:14.705Z</time></trkpt><trkpt lat="43.45861" lon="11.5748167"><ele>453.0</ele><time>2026-05-04T14:48:15.707Z</time></trkpt><trkpt lat="43.458715" lon="11.57485"><ele>453.0</ele><time>2026-05-04T14:48:16.705Z</time></trkpt><trkpt lat="43.4588183" lon="11.5748733"><ele>451.59999999999997</ele><time>2026-05-04T14:48:17.705Z</time></trkpt><trkpt lat="43.45893" lon="11.5748933"><ele>450.19999999999993</ele><time>2026-05-04T14:48:18.706Z</time></trkpt><trkpt lat="43.459035" lon="11.5749"><ele>448.8</ele><time>2026-05-04T14:48:19.706Z</time></trkpt><trkpt lat="43.4591283" lon="11.5749117"><ele>447.4</ele><time>2026-05-04T14:48:20.707Z</time></trkpt><trkpt lat="43.4592217" lon="11.5749217"><ele>446.0</ele><time>2026-05-04T14:48:21.707Z</time></trkpt><trkpt lat="43.45931" lon="11.57492"><ele>446.0</ele><time>2026-05-04T14:48:22.707Z</time></trkpt><trkpt lat="43.4593983" lon="11.5749"><ele>446.0</ele><time>2026-05-04T14:48:23.706Z</time></trkpt><trkpt lat="43.4594917" lon="11.57486"><ele>446.0</ele><time>2026-05-04T14:48:24.706Z</time></trkpt><trkpt lat="43.4595817" lon="11.5747933"><ele>446.0</ele><time>2026-05-04T14:48:25.707Z</time></trkpt><trkpt lat="43.4596667" lon="11.574725"><ele>446.0</ele><time>2026-05-04T14:48:26.706Z</time></trkpt><trkpt lat="43.4597633" lon="11.5746567"><ele>443.5</ele><time>2026-05-04T14:48:27.707Z</time></trkpt><trkpt lat="43.4598617" lon="11.5745983"><ele>441.0</ele><time>2026-05-04T14:48:28.706Z</time></trkpt><trkpt lat="43.4599683" lon="11.5745517"><ele>438.5</ele><time>2026-05-04T14:48:29.705Z</time></trkpt><trkpt lat="43.46009" lon="11.5745233"><ele>436.0</ele><time>2026-05-04T14:48:30.706Z</time></trkpt><trkpt lat="43.46022" lon="11.57451"><ele>436.0</ele><time>2026-05-04T14:48:31.707Z</time></trkpt><trkpt lat="43.4603467" lon="11.574505"><ele>436.0</ele><time>2026-05-04T14:48:32.706Z</time></trkpt><trkpt lat="43.46047" lon="11.5744983"><ele>436.0</ele><time>2026-05-04T14:48:33.707Z</time></trkpt><trkpt lat="43.460575" lon="11.57449"><ele>436.0</ele><time>2026-05-04T14:48:34.705Z</time></trkpt><trkpt lat="43.460675" lon="11.574475"><ele>436.00000000000006</ele><time>2026-05-04T14:48:35.705Z</time></trkpt><trkpt lat="43.4607667" lon="11.5744617"><ele>436.0</ele><time>2026-05-04T14:48:36.707Z</time></trkpt><trkpt lat="43.460845" lon="11.5744467"><ele>436.0</ele><time>2026-05-04T14:48:37.705Z</time></trkpt><trkpt lat="43.460915" lon="11.5744133"><ele>436.0</ele><time>2026-05-04T14:48:38.709Z</time></trkpt><trkpt lat="43.46098" lon="11.57435"><ele>436.00000000000006</ele><time>2026-05-04T14:48:39.699Z</time></trkpt><trkpt lat="43.46103" lon="11.574255"><ele>436.0</ele><time>2026-05-04T14:48:40.702Z</time></trkpt><trkpt lat="43.4610683" lon="11.574165"><ele>436.00000000000006</ele><time>2026-05-04T14:48:41.706Z</time></trkpt><trkpt lat="43.4611233" lon="11.5740817"><ele>436.0</ele><time>2026-05-04T14:48:42.705Z</time></trkpt><trkpt lat="43.4611883" lon="11.574035"><ele>436.0</ele><time>2026-05-04T14:48:43.706Z</time></trkpt><trkpt lat="43.461255" lon="11.5739917"><ele>436.0</ele><time>2026-05-04T14:48:44.711Z</time></trkpt><trkpt lat="43.4613117" lon="11.5739367"><ele>436.00000000000006</ele><time>2026-05-04T14:48:45.708Z</time></trkpt><trkpt lat="43.4613683" lon="11.5738683"><ele>436.0</ele><time>2026-05-04T14:48:46.704Z</time></trkpt><trkpt lat="43.4614317" lon="11.5737983"><ele>437.50000000000006</ele><time>2026-05-04T14:48:47.704Z</time></trkpt><trkpt lat="43.4614933" lon="11.573735"><ele>439.0</ele><time>2026-05-04T14:48:48.706Z</time></trkpt><trkpt lat="43.4615633" lon="11.5736733"><ele>440.5</ele><time>2026-05-04T14:48:49.706Z</time></trkpt><trkpt lat="43.4616333" lon="11.5736283"><ele>442.0</ele><time>2026-05-04T14:48:50.706Z</time></trkpt><trkpt lat="43.4617017" lon="11.5735867"><ele>443.50000000000006</ele><time>2026-05-04T14:48:51.705Z</time></trkpt><trkpt lat="43.4618" lon="11.5735567"><ele>445.0</ele><time>2026-05-04T14:48:53.705Z</time></trkpt><trkpt lat="43.461855" lon="11.5736583"><ele>445.00000000000006</ele><time>2026-05-04T14:48:55.706Z</time></trkpt><trkpt lat="43.4618883" lon="11.5737717"><ele>445.0</ele><time>2026-05-04T14:48:56.704Z</time></trkpt><trkpt lat="43.4619267" lon="11.5738667"><ele>445.0</ele><time>2026-05-04T14:48:57.705Z</time></trkpt><trkpt lat="43.4619683" lon="11.5739683"><ele>445.0</ele><time>2026-05-04T14:48:58.705Z</time></trkpt><trkpt lat="43.4620183" lon="11.5740517"><ele>445.00000000000006</ele><time>2026-05-04T14:48:59.706Z</time></trkpt><trkpt lat="43.46208" lon="11.5741333"><ele>445.0</ele><time>2026-05-04T14:49:00.705Z</time></trkpt><trkpt lat="43.46214" lon="11.5742233"><ele>445.83333333333337</ele><time>2026-05-04T14:49:01.707Z</time></trkpt><trkpt lat="43.4621967" lon="11.5743117"><ele>446.6666666666667</ele><time>2026-05-04T14:49:02.706Z</time></trkpt><trkpt lat="43.4622517" lon="11.574395"><ele>447.5</ele><time>2026-05-04T14:49:03.707Z</time></trkpt><trkpt lat="43.4623083" lon="11.57447"><ele>448.33333333333337</ele><time>2026-05-04T14:49:04.706Z</time></trkpt><trkpt lat="43.4623717" lon="11.57452"><ele>449.1666666666667</ele><time>2026-05-04T14:49:05.706Z</time></trkpt><trkpt lat="43.462445" lon="11.5745383"><ele>450.0</ele><time>2026-05-04T14:49:06.707Z</time></trkpt><trkpt lat="43.4625317" lon="11.57453"><ele>450.0</ele><time>2026-05-04T14:49:07.705Z</time></trkpt><trkpt lat="43.46262" lon="11.57452"><ele>450.0</ele><time>2026-05-04T14:49:08.705Z</time></trkpt><trkpt lat="43.4626967" lon="11.57449"><ele>450.0</ele><time>2026-05-04T14:49:09.706Z</time></trkpt><trkpt lat="43.4627733" lon="11.5744367"><ele>450.0</ele><time>2026-05-04T14:49:10.706Z</time></trkpt><trkpt lat="43.4628467" lon="11.5743633"><ele>450.0</ele><time>2026-05-04T14:49:11.706Z</time></trkpt><trkpt lat="43.4629183" lon="11.5742917"><ele>450.0</ele><time>2026-05-04T14:49:12.706Z</time></trkpt><trkpt lat="43.4629883" lon="11.5742217"><ele>448.5</ele><time>2026-05-04T14:49:13.705Z</time></trkpt><trkpt lat="43.4630583" lon="11.57415"><ele>447.0</ele><time>2026-05-04T14:49:14.706Z</time></trkpt><trkpt lat="43.46313" lon="11.5740817"><ele>445.5</ele><time>2026-05-04T14:49:15.707Z</time></trkpt><trkpt lat="43.4631967" lon="11.5740267"><ele>444.0</ele><time>2026-05-04T14:49:16.705Z</time></trkpt><trkpt lat="43.4632633" lon="11.573975"><ele>442.5</ele><time>2026-05-04T14:49:17.705Z</time></trkpt><trkpt lat="43.463335" lon="11.573935"><ele>441.0</ele><time>2026-05-04T14:49:18.706Z</time></trkpt><trkpt lat="43.46342" lon="11.5739183"><ele>441.0</ele><time>2026-05-04T14:49:19.705Z</time></trkpt><trkpt lat="43.4635133" lon="11.5739267"><ele>441.0</ele><time>2026-05-04T14:49:20.706Z</time></trkpt><trkpt lat="43.4636" lon="11.57395"><ele>441.0</ele><time>2026-05-04T14:49:21.706Z</time></trkpt><trkpt lat="43.4636733" lon="11.5739817"><ele>441.0</ele><time>2026-05-04T14:49:22.718Z</time></trkpt><trkpt lat="43.4637333" lon="11.5740167"><ele>441.0</ele><time>2026-05-04T14:49:23.706Z</time></trkpt><trkpt lat="43.4637933" lon="11.5740633"><ele>441.0</ele><time>2026-05-04T14:49:24.707Z</time></trkpt><trkpt lat="43.4638483" lon="11.574125"><ele>439.6666666666667</ele><time>2026-05-04T14:49:25.706Z</time></trkpt><trkpt lat="43.463905" lon="11.5741867"><ele>438.33333333333337</ele><time>2026-05-04T14:49:26.705Z</time></trkpt><trkpt lat="43.4639633" lon="11.574235"><ele>437.0</ele><time>2026-05-04T14:49:27.707Z</time></trkpt><trkpt lat="43.4640283" lon="11.5742633"><ele>435.6666666666667</ele><time>2026-05-04T14:49:28.707Z</time></trkpt><trkpt lat="43.4640917" lon="11.5742817"><ele>434.33333333333337</ele><time>2026-05-04T14:49:29.706Z</time></trkpt><trkpt lat="43.464155" lon="11.5743033"><ele>433.0</ele><time>2026-05-04T14:49:30.706Z</time></trkpt><trkpt lat="43.464275" lon="11.574365"><ele>433.00000000000006</ele><time>2026-05-04T14:49:32.705Z</time></trkpt><trkpt lat="43.4643417" lon="11.5744"><ele>433.0</ele><time>2026-05-04T14:49:33.706Z</time></trkpt><trkpt lat="43.46441" lon="11.5744433"><ele>433.0</ele><time>2026-05-04T14:49:34.706Z</time></trkpt><trkpt lat="43.4644833" lon="11.574495"><ele>433.0</ele><time>2026-05-04T14:49:35.706Z</time></trkpt><trkpt lat="43.4645533" lon="11.5745433"><ele>433.00000000000006</ele><time>2026-05-04T14:49:36.704Z</time></trkpt><trkpt lat="43.4646167" lon="11.57459"><ele>433.0</ele><time>2026-05-04T14:49:37.706Z</time></trkpt><trkpt lat="43.464685" lon="11.5746333"><ele>430.33333333333337</ele><time>2026-05-04T14:49:38.705Z</time></trkpt><trkpt lat="43.4647467" lon="11.574675"><ele>427.6666666666667</ele><time>2026-05-04T14:49:39.704Z</time></trkpt><trkpt lat="43.46481" lon="11.5747183"><ele>425.0</ele><time>2026-05-04T14:49:40.707Z</time></trkpt><trkpt lat="43.4649067" lon="11.5747933"><ele>422.33333333333337</ele><time>2026-05-04T14:49:42.709Z</time></trkpt><trkpt lat="43.4650083" lon="11.57487"><ele>419.6666666666667</ele><time>2026-05-04T14:49:44.707Z</time></trkpt><trkpt lat="43.465065" lon="11.57491"><ele>417.0</ele><time>2026-05-04T14:49:45.706Z</time></trkpt><trkpt lat="43.4651267" lon="11.5749617"><ele>417.0</ele><time>2026-05-04T14:49:46.706Z</time></trkpt><trkpt lat="43.465185" lon="11.57502"><ele>417.0</ele><time>2026-05-04T14:49:47.705Z</time></trkpt><trkpt lat="43.4652433" lon="11.575075"><ele>417.0</ele><time>2026-05-04T14:49:48.706Z</time></trkpt><trkpt lat="43.4653367" lon="11.57514"><ele>417.0</ele><time>2026-05-04T14:49:50.705Z</time></trkpt><trkpt lat="43.46523" lon="11.5750883"><ele>417.0</ele><time>2026-05-04T14:49:59.705Z</time></trkpt><trkpt lat="43.4651767" lon="11.5750383"><ele>417.0</ele><time>2026-05-04T14:50:00.706Z</time></trkpt><trkpt lat="43.46509" lon="11.5749483"><ele>417.0</ele><time>2026-05-04T14:50:02.706Z</time></trkpt><trkpt lat="43.4650433" lon="11.574885"><ele>417.0</ele><time>2026-05-04T14:50:03.707Z</time></trkpt><trkpt lat="43.46499" lon="11.574825"><ele>417.0</ele><time>2026-05-04T14:50:04.705Z</time></trkpt><trkpt lat="43.4649317" lon="11.5747767"><ele>417.0</ele><time>2026-05-04T14:50:05.705Z</time></trkpt><trkpt lat="43.4648683" lon="11.5747333"><ele>417.0</ele><time>2026-05-04T14:50:06.705Z</time></trkpt><trkpt lat="43.4647983" lon="11.574685"><ele>417.0</ele><time>2026-05-04T14:50:07.705Z</time></trkpt><trkpt lat="43.464735" lon="11.5746417"><ele>417.0</ele><time>2026-05-04T14:50:08.706Z</time></trkpt><trkpt lat="43.4646667" lon="11.5745983"><ele>417.6666666666667</ele><time>2026-05-04T14:50:09.706Z</time></trkpt><trkpt lat="43.464595" lon="11.574555"><ele>418.33333333333337</ele><time>2026-05-04T14:50:10.705Z</time></trkpt><trkpt lat="43.4645267" lon="11.5745117"><ele>419.0</ele><time>2026-05-04T14:50:11.706Z</time></trkpt><trkpt lat="43.4644467" lon="11.5744567"><ele>419.6666666666667</ele><time>2026-05-04T14:50:12.706Z</time></trkpt><trkpt lat="43.4643583" lon="11.5744017"><ele>420.33333333333337</ele><time>2026-05-04T14:50:13.707Z</time></trkpt><trkpt lat="43.4642733" lon="11.57435"><ele>421.0</ele><time>2026-05-04T14:50:14.704Z</time></trkpt><trkpt lat="43.464195" lon="11.574315"><ele>423.00000000000006</ele><time>2026-05-04T14:50:15.707Z</time></trkpt><trkpt lat="43.464115" lon="11.5742933"><ele>425.0</ele><time>2026-05-04T14:50:16.705Z</time></trkpt><trkpt lat="43.4640417" lon="11.5742783"><ele>427.0</ele><time>2026-05-04T14:50:17.706Z</time></trkpt><trkpt lat="43.46397" lon="11.5742633"><ele>429.0</ele><time>2026-05-04T14:50:18.705Z</time></trkpt><trkpt lat="43.4638667" lon="11.57416"><ele>431.00000000000006</ele><time>2026-05-04T14:50:20.706Z</time></trkpt><trkpt lat="43.4638133" lon="11.5740917"><ele>433.0</ele><time>2026-05-04T14:50:21.707Z</time></trkpt><trkpt lat="43.4637467" lon="11.5740333"><ele>434.59999999999997</ele><time>2026-05-04T14:50:22.706Z</time></trkpt><trkpt lat="43.4636583" lon="11.5739883"><ele>436.19999999999993</ele><time>2026-05-04T14:50:23.706Z</time></trkpt><trkpt lat="43.4635583" lon="11.5739583"><ele>437.8</ele><time>2026-05-04T14:50:24.705Z</time></trkpt><trkpt lat="43.46346" lon="11.5739367"><ele>439.4</ele><time>2026-05-04T14:50:25.705Z</time></trkpt><trkpt lat="43.4633667" lon="11.57394"><ele>441.0</ele><time>2026-05-04T14:50:26.706Z</time></trkpt><trkpt lat="43.46328" lon="11.5739633"><ele>441.0</ele><time>2026-05-04T14:50:27.706Z</time></trkpt><trkpt lat="43.4632067" lon="11.574015"><ele>441.0</ele><time>2026-05-04T14:50:28.707Z</time></trkpt><trkpt lat="43.4631283" lon="11.5740933"><ele>441.0</ele><time>2026-05-04T14:50:29.705Z</time></trkpt><trkpt lat="43.4630433" lon="11.5741717"><ele>441.0</ele><time>2026-05-04T14:50:30.707Z</time></trkpt><trkpt lat="43.46296" lon="11.5742517"><ele>441.0</ele><time>2026-05-04T14:50:31.707Z</time></trkpt><trkpt lat="43.4628833" lon="11.57434"><ele>440.3333333333333</ele><time>2026-05-04T14:50:32.705Z</time></trkpt><trkpt lat="43.46281" lon="11.574415"><ele>439.66666666666663</ele><time>2026-05-04T14:50:33.707Z</time></trkpt><trkpt lat="43.462745" lon="11.5744767"><ele>439.0</ele><time>2026-05-04T14:50:34.707Z</time></trkpt><trkpt lat="43.462675" lon="11.574525"><ele>438.3333333333333</ele><time>2026-05-04T14:50:35.705Z</time></trkpt><trkpt lat="43.4626" lon="11.574555"><ele>437.66666666666663</ele><time>2026-05-04T14:50:36.705Z</time></trkpt><trkpt lat="43.4625183" lon="11.57457"><ele>437.0</ele><time>2026-05-04T14:50:37.706Z</time></trkpt><trkpt lat="43.4624467" lon="11.5745633"><ele>436.99999999999994</ele><time>2026-05-04T14:50:38.705Z</time></trkpt><trkpt lat="43.4623833" lon="11.57454"><ele>437.0</ele><time>2026-05-04T14:50:39.706Z</time></trkpt><trkpt lat="43.4623217" lon="11.5745"><ele>437.0</ele><time>2026-05-04T14:50:40.705Z</time></trkpt><trkpt lat="43.4622617" lon="11.574435"><ele>437.0</ele><time>2026-05-04T14:50:41.706Z</time></trkpt><trkpt lat="43.4622033" lon="11.5743433"><ele>436.99999999999994</ele><time>2026-05-04T14:50:42.705Z</time></trkpt><trkpt lat="43.4621417" lon="11.5742533"><ele>437.0</ele><time>2026-05-04T14:50:43.705Z</time></trkpt><trkpt lat="43.4620733" lon="11.5741633"><ele>438.3333333333333</ele><time>2026-05-04T14:50:44.705Z</time></trkpt><trkpt lat="43.4620117" lon="11.57408"><ele>439.66666666666663</ele><time>2026-05-04T14:50:45.708Z</time></trkpt><trkpt lat="43.4619533" lon="11.57398"><ele>441.0</ele><time>2026-05-04T14:50:46.704Z</time></trkpt><trkpt lat="43.4619083" lon="11.573875"><ele>442.33333333333337</ele><time>2026-05-04T14:50:47.705Z</time></trkpt><trkpt lat="43.4618683" lon="11.5737733"><ele>443.6666666666667</ele><time>2026-05-04T14:50:48.706Z</time></trkpt><trkpt lat="43.4618333" lon="11.5736883"><ele>445.0</ele><time>2026-05-04T14:50:49.706Z</time></trkpt><trkpt lat="43.4617667" lon="11.57363"><ele>445.00000000000006</ele><time>2026-05-04T14:50:52.705Z</time></trkpt><trkpt lat="43.461655" lon="11.5736683"><ele>445.0</ele><time>2026-05-04T14:50:55.706Z</time></trkpt><trkpt lat="43.4615883" lon="11.5737167"><ele>445.0</ele><time>2026-05-04T14:50:56.706Z</time></trkpt><trkpt lat="43.4615317" lon="11.5737667"><ele>445.0</ele><time>2026-05-04T14:50:57.708Z</time></trkpt><trkpt lat="43.46147" lon="11.5738183"><ele>445.00000000000006</ele><time>2026-05-04T14:50:58.706Z</time></trkpt><trkpt lat="43.4614083" lon="11.5738783"><ele>445.0</ele><time>2026-05-04T14:50:59.705Z</time></trkpt><trkpt lat="43.4613083" lon="11.5739867"><ele>442.75</ele><time>2026-05-04T14:51:01.707Z</time></trkpt><trkpt lat="43.4612" lon="11.5740817"><ele>440.5</ele><time>2026-05-04T14:51:03.706Z</time></trkpt><trkpt lat="43.46109" lon="11.5741367"><ele>438.25</ele><time>2026-05-04T14:51:05.705Z</time></trkpt><trkpt lat="43.4609967" lon="11.5742683"><ele>436.0</ele><time>2026-05-04T14:51:07.71Z</time></trkpt><trkpt lat="43.4609433" lon="11.57436"><ele>436.00000000000006</ele><time>2026-05-04T14:51:08.707Z</time></trkpt><trkpt lat="43.460885" lon="11.5744417"><ele>436.0</ele><time>2026-05-04T14:51:09.707Z</time></trkpt><trkpt lat="43.4608117" lon="11.5745"><ele>436.0</ele><time>2026-05-04T14:51:10.706Z</time></trkpt><trkpt lat="43.4607467" lon="11.5745317"><ele>436.0</ele><time>2026-05-04T14:51:11.705Z</time></trkpt><trkpt lat="43.46063" lon="11.5745333"><ele>436.00000000000006</ele><time>2026-05-04T14:51:13.707Z</time></trkpt><trkpt lat="43.4605633" lon="11.5745183"><ele>436.0</ele><time>2026-05-04T14:51:14.705Z</time></trkpt><trkpt lat="43.4604767" lon="11.574515"><ele>436.0</ele><time>2026-05-04T14:51:15.706Z</time></trkpt><trkpt lat="43.46038" lon="11.5745233"><ele>436.0</ele><time>2026-05-04T14:51:16.707Z</time></trkpt><trkpt lat="43.460265" lon="11.5745367"><ele>436.0</ele><time>2026-05-04T14:51:17.705Z</time></trkpt><trkpt lat="43.4601467" lon="11.57455"><ele>436.0</ele><time>2026-05-04T14:51:18.707Z</time></trkpt><trkpt lat="43.4600383" lon="11.5745683"><ele>436.0</ele><time>2026-05-04T14:51:19.706Z</time></trkpt><trkpt lat="43.4599417" lon="11.5745967"><ele>436.0</ele><time>2026-05-04T14:51:20.707Z</time></trkpt><trkpt lat="43.4598533" lon="11.574635"><ele>436.0</ele><time>2026-05-04T14:51:21.706Z</time></trkpt><trkpt lat="43.45977" lon="11.574685"><ele>436.0</ele><time>2026-05-04T14:51:22.705Z</time></trkpt><trkpt lat="43.4596833" lon="11.5747433"><ele>436.0</ele><time>2026-05-04T14:51:23.706Z</time></trkpt><trkpt lat="43.4595967" lon="11.5748067"><ele>436.0</ele><time>2026-05-04T14:51:24.706Z</time></trkpt><trkpt lat="43.459515" lon="11.57487"><ele>438.0</ele><time>2026-05-04T14:51:25.708Z</time></trkpt><trkpt lat="43.4594317" lon="11.5749167"><ele>440.0</ele><time>2026-05-04T14:51:26.707Z</time></trkpt><trkpt lat="43.4593383" lon="11.5749483"><ele>442.0</ele><time>2026-05-04T14:51:27.707Z</time></trkpt><trkpt lat="43.4592417" lon="11.5749483"><ele>444.0</ele><time>2026-05-04T14:51:28.708Z</time></trkpt><trkpt lat="43.4591483" lon="11.574945"><ele>446.0</ele><time>2026-05-04T14:51:29.706Z</time></trkpt><trkpt lat="43.4590533" lon="11.57494"><ele>446.0</ele><time>2026-05-04T14:51:30.706Z</time></trkpt><trkpt lat="43.45894" lon="11.5749267"><ele>446.0</ele><time>2026-05-04T14:51:31.707Z</time></trkpt><trkpt lat="43.458825" lon="11.57491"><ele>446.0</ele><time>2026-05-04T14:51:32.708Z</time></trkpt><trkpt lat="43.4587167" lon="11.5748883"><ele>446.0</ele><time>2026-05-04T14:51:33.707Z</time></trkpt><trkpt lat="43.4586183" lon="11.57486"><ele>446.0</ele><time>2026-05-04T14:51:34.705Z</time></trkpt><trkpt lat="43.4585283" lon="11.5748267"><ele>447.16666666666663</ele><time>2026-05-04T14:51:35.706Z</time></trkpt><trkpt lat="43.4584417" lon="11.5747967"><ele>448.3333333333333</ele><time>2026-05-04T14:51:36.706Z</time></trkpt><trkpt lat="43.4583617" lon="11.5747817"><ele>449.5</ele><time>2026-05-04T14:51:37.707Z</time></trkpt><trkpt lat="43.4582967" lon="11.5748017"><ele>450.66666666666663</ele><time>2026-05-04T14:51:38.707Z</time></trkpt><trkpt lat="43.4582317" lon="11.5748467"><ele>451.8333333333333</ele><time>2026-05-04T14:51:39.708Z</time></trkpt><trkpt lat="43.4581833" lon="11.574925"><ele>453.0</ele><time>2026-05-04T14:51:40.706Z</time></trkpt><trkpt lat="43.4581433" lon="11.575025"><ele>453.0</ele><time>2026-05-04T14:51:41.708Z</time></trkpt><trkpt lat="43.458115" lon="11.575145"><ele>452.99999999999994</ele><time>2026-05-04T14:51:42.707Z</time></trkpt><trkpt lat="43.4580817" lon="11.5752683"><ele>452.99999999999994</ele><time>2026-05-04T14:51:43.707Z</time></trkpt><trkpt lat="43.4580467" lon="11.5753867"><ele>453.0</ele><time>2026-05-04T14:51:44.707Z</time></trkpt><trkpt lat="43.4580033" lon="11.5754983"><ele>453.0</ele><time>2026-05-04T14:51:45.706Z</time></trkpt><trkpt lat="43.457975" lon="11.5756"><ele>455.79999999999995</ele><time>2026-05-04T14:51:46.706Z</time></trkpt><trkpt lat="43.4579367" lon="11.575685"><ele>458.59999999999997</ele><time>2026-05-04T14:51:47.707Z</time></trkpt><trkpt lat="43.4578517" lon="11.5757933"><ele>461.40000000000003</ele><time>2026-05-04T14:51:49.707Z</time></trkpt><trkpt lat="43.4577467" lon="11.575805"><ele>464.20000000000005</ele><time>2026-05-04T14:51:51.707Z</time></trkpt><trkpt lat="43.4576233" lon="11.5757783"><ele>467.0</ele><time>2026-05-04T14:51:53.705Z</time></trkpt><trkpt lat="43.4575467" lon="11.5757833"><ele>466.99999999999994</ele><time>2026-05-04T14:51:54.706Z</time></trkpt><trkpt lat="43.45747" lon="11.5758117"><ele>467.0</ele><time>2026-05-04T14:51:55.707Z</time></trkpt><trkpt lat="43.4573867" lon="11.5758467"><ele>467.0</ele><time>2026-05-04T14:51:56.707Z</time></trkpt><trkpt lat="43.4573067" lon="11.5758817"><ele>467.0</ele><time>2026-05-04T14:51:57.706Z</time></trkpt><trkpt lat="43.4572217" lon="11.5759133"><ele>466.99999999999994</ele><time>2026-05-04T14:51:58.706Z</time></trkpt><trkpt lat="43.4571333" lon="11.575945"><ele>467.0</ele><time>2026-05-04T14:51:59.705Z</time></trkpt><trkpt lat="43.4570467" lon="11.5759717"><ele>466.42857142857133</ele><time>2026-05-04T14:52:00.707Z</time></trkpt><trkpt lat="43.456975" lon="11.5759967"><ele>465.85714285714283</ele><time>2026-05-04T14:52:01.706Z</time></trkpt><trkpt lat="43.4569167" lon="11.5760367"><ele>465.2857142857142</ele><time>2026-05-04T14:52:02.707Z</time></trkpt><trkpt lat="43.4568617" lon="11.5761"><ele>464.71428571428567</ele><time>2026-05-04T14:52:03.707Z</time></trkpt><trkpt lat="43.4568083" lon="11.5761717"><ele>464.1428571428571</ele><time>2026-05-04T14:52:04.707Z</time></trkpt><trkpt lat="43.45675" lon="11.5762517"><ele>463.57142857142856</ele><time>2026-05-04T14:52:05.707Z</time></trkpt><trkpt lat="43.4567" lon="11.576335"><ele>463.0</ele><time>2026-05-04T14:52:06.705Z</time></trkpt><trkpt lat="43.4566517" lon="11.5764217"><ele>463.00000000000006</ele><time>2026-05-04T14:52:07.707Z</time></trkpt><trkpt lat="43.4566067" lon="11.5765067"><ele>463.0</ele><time>2026-05-04T14:52:08.707Z</time></trkpt><trkpt lat="43.45656" lon="11.57658"><ele>463.0</ele><time>2026-05-04T14:52:09.707Z</time></trkpt><trkpt lat="43.456515" lon="11.5766633"><ele>463.0</ele><time>2026-05-04T14:52:10.706Z</time></trkpt><trkpt lat="43.4564667" lon="11.5767667"><ele>463.00000000000006</ele><time>2026-05-04T14:52:11.706Z</time></trkpt><trkpt lat="43.456425" lon="11.57689"><ele>463.0</ele><time>2026-05-04T14:52:12.706Z</time></trkpt><trkpt lat="43.4563767" lon="11.57701"><ele>462.83333333333337</ele><time>2026-05-04T14:52:13.706Z</time></trkpt><trkpt lat="43.456325" lon="11.5771167"><ele>462.6666666666667</ele><time>2026-05-04T14:52:14.707Z</time></trkpt><trkpt lat="43.456275" lon="11.5771917"><ele>462.5</ele><time>2026-05-04T14:52:15.706Z</time></trkpt><trkpt lat="43.4562317" lon="11.57727"><ele>462.33333333333337</ele><time>2026-05-04T14:52:16.707Z</time></trkpt><trkpt lat="43.456185" lon="11.5773383"><ele>462.1666666666667</ele><time>2026-05-04T14:52:17.706Z</time></trkpt><trkpt lat="43.4561233" lon="11.5773933"><ele>462.0</ele><time>2026-05-04T14:52:18.707Z</time></trkpt><trkpt lat="43.4560567" lon="11.5774233"><ele>462.0</ele><time>2026-05-04T14:52:19.706Z</time></trkpt><trkpt lat="43.4559817" lon="11.577435"><ele>462.0</ele><time>2026-05-04T14:52:20.706Z</time></trkpt><trkpt lat="43.455905" lon="11.577455"><ele>462.0</ele><time>2026-05-04T14:52:21.705Z</time></trkpt><trkpt lat="43.4558317" lon="11.5774867"><ele>462.0</ele><time>2026-05-04T14:52:22.705Z</time></trkpt><trkpt lat="43.4557567" lon="11.57753"><ele>462.0</ele><time>2026-05-04T14:52:23.706Z</time></trkpt><trkpt lat="43.4556767" lon="11.5775733"><ele>462.0</ele><time>2026-05-04T14:52:24.707Z</time></trkpt><trkpt lat="43.455605" lon="11.5776"><ele>462.0</ele><time>2026-05-04T14:52:25.706Z</time></trkpt><trkpt lat="43.4555417" lon="11.5776017"><ele>462.00000000000006</ele><time>2026-05-04T14:52:26.706Z</time></trkpt><trkpt lat="43.4554333" lon="11.5775867"><ele>462.00000000000006</ele><time>2026-05-04T14:52:28.706Z</time></trkpt><trkpt lat="43.455335" lon="11.5776517"><ele>462.0</ele><time>2026-05-04T14:52:30.706Z</time></trkpt><trkpt lat="43.45524" lon="11.5777467"><ele>462.0</ele><time>2026-05-04T14:52:32.707Z</time></trkpt><trkpt lat="43.4551917" lon="11.5778083"><ele>462.1666666666667</ele><time>2026-05-04T14:52:33.706Z</time></trkpt><trkpt lat="43.4551333" lon="11.5778833"><ele>462.33333333333337</ele><time>2026-05-04T14:52:34.707Z</time></trkpt><trkpt lat="43.4550833" lon="11.5779483"><ele>462.5</ele><time>2026-05-04T14:52:35.71Z</time></trkpt><trkpt lat="43.4550383" lon="11.578015"><ele>462.6666666666667</ele><time>2026-05-04T14:52:36.705Z</time></trkpt><trkpt lat="43.45495" lon="11.578145"><ele>462.83333333333337</ele><time>2026-05-04T14:52:38.706Z</time></trkpt><trkpt lat="43.4549" lon="11.57821"><ele>463.0</ele><time>2026-05-04T14:52:39.708Z</time></trkpt><trkpt lat="43.45481" lon="11.5783333"><ele>463.00000000000006</ele><time>2026-05-04T14:52:41.706Z</time></trkpt><trkpt lat="43.454715" lon="11.5784083"><ele>463.0</ele><time>2026-05-04T14:52:43.705Z</time></trkpt><trkpt lat="43.4546017" lon="11.5784267"><ele>463.0</ele><time>2026-05-04T14:52:45.706Z</time></trkpt><trkpt lat="43.4545417" lon="11.5784567"><ele>463.0</ele><time>2026-05-04T14:52:46.705Z</time></trkpt><trkpt lat="43.4544717" lon="11.5784967"><ele>463.00000000000006</ele><time>2026-05-04T14:52:47.704Z</time></trkpt><trkpt lat="43.4544033" lon="11.5785483"><ele>463.0</ele><time>2026-05-04T14:52:48.706Z</time></trkpt><trkpt lat="43.4543433" lon="11.5786083"><ele>462.0</ele><time>2026-05-04T14:52:49.706Z</time></trkpt><trkpt lat="43.45427" lon="11.5786733"><ele>460.99999999999994</ele><time>2026-05-04T14:52:50.705Z</time></trkpt><trkpt lat="43.4541717" lon="11.5787483"><ele>459.99999999999994</ele><time>2026-05-04T14:52:51.707Z</time></trkpt><trkpt lat="43.4540667" lon="11.578835"><ele>459.0</ele><time>2026-05-04T14:52:52.706Z</time></trkpt><trkpt lat="43.453965" lon="11.5789217"><ele>458.0</ele><time>2026-05-04T14:52:53.706Z</time></trkpt><trkpt lat="43.45386" lon="11.579015"><ele>457.59999999999997</ele><time>2026-05-04T14:52:54.704Z</time></trkpt><trkpt lat="43.4537583" lon="11.5790867"><ele>457.19999999999993</ele><time>2026-05-04T14:52:55.702Z</time></trkpt><trkpt lat="43.453665" lon="11.5791517"><ele>456.8</ele><time>2026-05-04T14:52:56.714Z</time></trkpt><trkpt lat="43.4535783" lon="11.5792067"><ele>456.4</ele><time>2026-05-04T14:52:57.706Z</time></trkpt><trkpt lat="43.4534883" lon="11.57926"><ele>456.0</ele><time>2026-05-04T14:52:58.707Z</time></trkpt><trkpt lat="43.4534017" lon="11.5793067"><ele>456.0</ele><time>2026-05-04T14:52:59.705Z</time></trkpt><trkpt lat="43.453315" lon="11.5793567"><ele>456.0</ele><time>2026-05-04T14:53:00.708Z</time></trkpt><trkpt lat="43.453225" lon="11.5794067"><ele>456.0</ele><time>2026-05-04T14:53:01.705Z</time></trkpt><trkpt lat="43.45313" lon="11.5794583"><ele>456.0</ele><time>2026-05-04T14:53:02.706Z</time></trkpt><trkpt lat="43.4530317" lon="11.579515"><ele>456.0</ele><time>2026-05-04T14:53:03.707Z</time></trkpt><trkpt lat="43.4529283" lon="11.5795717"><ele>454.25</ele><time>2026-05-04T14:53:04.707Z</time></trkpt><trkpt lat="43.4528267" lon="11.5796217"><ele>452.5</ele><time>2026-05-04T14:53:05.706Z</time></trkpt><trkpt lat="43.4527167" lon="11.5796817"><ele>450.75</ele><time>2026-05-04T14:53:06.706Z</time></trkpt><trkpt lat="43.4526117" lon="11.57974"><ele>449.0</ele><time>2026-05-04T14:53:07.707Z</time></trkpt><trkpt lat="43.452505" lon="11.5798083"><ele>449.0</ele><time>2026-05-04T14:53:08.706Z</time></trkpt><trkpt lat="43.452395" lon="11.5798767"><ele>449.0</ele><time>2026-05-04T14:53:09.706Z</time></trkpt><trkpt lat="43.4522917" lon="11.5799417"><ele>449.0</ele><time>2026-05-04T14:53:10.706Z</time></trkpt><trkpt lat="43.4522017" lon="11.5800017"><ele>449.0</ele><time>2026-05-04T14:53:11.705Z</time></trkpt><trkpt lat="43.4521317" lon="11.5800433"><ele>449.0</ele><time>2026-05-04T14:53:12.706Z</time></trkpt><trkpt lat="43.4520317" lon="11.58012"><ele>449.0</ele><time>2026-05-04T14:53:14.706Z</time></trkpt><trkpt lat="43.4520083" lon="11.5802483"><ele>449.0</ele><time>2026-05-04T14:53:16.704Z</time></trkpt><trkpt lat="43.452075" lon="11.580405"><ele>449.0</ele><time>2026-05-04T14:53:18.705Z</time></trkpt><trkpt lat="43.4521533" lon="11.580535"><ele>449.0</ele><time>2026-05-04T14:53:20.705Z</time></trkpt><trkpt lat="43.45221" lon="11.580585"><ele>449.0</ele><time>2026-05-04T14:53:21.706Z</time></trkpt><trkpt lat="43.45228" lon="11.58061"><ele>447.0</ele><time>2026-05-04T14:53:22.706Z</time></trkpt><trkpt lat="43.4523667" lon="11.5806067"><ele>445.0</ele><time>2026-05-04T14:53:23.703Z</time></trkpt><trkpt lat="43.4524683" lon="11.580575"><ele>443.0</ele><time>2026-05-04T14:53:24.706Z</time></trkpt><trkpt lat="43.452575" lon="11.58053"><ele>441.0</ele><time>2026-05-04T14:53:25.706Z</time></trkpt><trkpt lat="43.4526783" lon="11.5804867"><ele>439.0</ele><time>2026-05-04T14:53:26.705Z</time></trkpt><trkpt lat="43.4527783" lon="11.58046"><ele>439.0</ele><time>2026-05-04T14:53:27.707Z</time></trkpt><trkpt lat="43.45288" lon="11.580445"><ele>439.0</ele><time>2026-05-04T14:53:28.705Z</time></trkpt><trkpt lat="43.4529833" lon="11.5804417"><ele>439.0</ele><time>2026-05-04T14:53:29.706Z</time></trkpt><trkpt lat="43.4530833" lon="11.580445"><ele>439.0</ele><time>2026-05-04T14:53:30.706Z</time></trkpt><trkpt lat="43.4531833" lon="11.5804617"><ele>439.0</ele><time>2026-05-04T14:53:31.707Z</time></trkpt><trkpt lat="43.4532817" lon="11.5805083"><ele>437.33333333333337</ele><time>2026-05-04T14:53:32.706Z</time></trkpt><trkpt lat="43.45337" lon="11.5805617"><ele>435.6666666666667</ele><time>2026-05-04T14:53:33.706Z</time></trkpt><trkpt lat="43.453445" lon="11.5806233"><ele>434.0</ele><time>2026-05-04T14:53:34.707Z</time></trkpt><trkpt lat="43.4535133" lon="11.5806883"><ele>432.33333333333337</ele><time>2026-05-04T14:53:35.706Z</time></trkpt><trkpt lat="43.453575" lon="11.5807617"><ele>430.6666666666667</ele><time>2026-05-04T14:53:36.706Z</time></trkpt><trkpt lat="43.4536283" lon="11.5808317"><ele>429.0</ele><time>2026-05-04T14:53:37.706Z</time></trkpt><trkpt lat="43.45368" lon="11.5809017"><ele>429.0</ele><time>2026-05-04T14:53:38.705Z</time></trkpt><trkpt lat="43.4537267" lon="11.5809683"><ele>429.0</ele><time>2026-05-04T14:53:39.706Z</time></trkpt><trkpt lat="43.4537717" lon="11.5810483"><ele>429.0</ele><time>2026-05-04T14:53:40.706Z</time></trkpt><trkpt lat="43.4538217" lon="11.5811183"><ele>429.0</ele><time>2026-05-04T14:53:41.705Z</time></trkpt><trkpt lat="43.4538717" lon="11.5811867"><ele>429.0</ele><time>2026-05-04T14:53:42.706Z</time></trkpt><trkpt lat="43.4539233" lon="11.58124"><ele>429.0</ele><time>2026-05-04T14:53:43.707Z</time></trkpt><trkpt lat="43.4539917" lon="11.581305"><ele>429.0</ele><time>2026-05-04T14:53:44.706Z</time></trkpt><trkpt lat="43.4540533" lon="11.58137"><ele>426.6</ele><time>2026-05-04T14:53:45.706Z</time></trkpt><trkpt lat="43.4541217" lon="11.5814217"><ele>424.2</ele><time>2026-05-04T14:53:46.706Z</time></trkpt><trkpt lat="43.4541833" lon="11.5814567"><ele>421.8</ele><time>2026-05-04T14:53:47.704Z</time></trkpt><trkpt lat="43.4543117" lon="11.5814767"><ele>419.40000000000003</ele><time>2026-05-04T14:53:49.706Z</time></trkpt><trkpt lat="43.4543817" lon="11.58147"><ele>417.0</ele><time>2026-05-04T14:53:50.705Z</time></trkpt><trkpt lat="43.4544917" lon="11.5814417"><ele>417.0</ele><time>2026-05-04T14:53:52.705Z</time></trkpt><trkpt lat="43.45458" lon="11.58138"><ele>417.0</ele><time>2026-05-04T14:53:54.706Z</time></trkpt><trkpt lat="43.454655" lon="11.5812783"><ele>417.0</ele><time>2026-05-04T14:53:56.706Z</time></trkpt><trkpt lat="43.4546917" lon="11.581205"><ele>417.0</ele><time>2026-05-04T14:53:57.706Z</time></trkpt><trkpt lat="43.4547267" lon="11.581115"><ele>417.0</ele><time>2026-05-04T14:53:58.705Z</time></trkpt><trkpt lat="43.4547517" lon="11.5810183"><ele>417.0</ele><time>2026-05-04T14:53:59.704Z</time></trkpt><trkpt lat="43.4547783" lon="11.580915"><ele>418.6666666666667</ele><time>2026-05-04T14:54:00.705Z</time></trkpt><trkpt lat="43.454795" lon="11.5808167"><ele>420.33333333333337</ele><time>2026-05-04T14:54:01.707Z</time></trkpt><trkpt lat="43.4548067" lon="11.5807267"><ele>422.0</ele><time>2026-05-04T14:54:02.706Z</time></trkpt><trkpt lat="43.45483" lon="11.5806417"><ele>423.6666666666667</ele><time>2026-05-04T14:54:03.706Z</time></trkpt><trkpt lat="43.4548683" lon="11.5805533"><ele>425.33333333333337</ele><time>2026-05-04T14:54:04.704Z</time></trkpt><trkpt lat="43.4549617" lon="11.5804433"><ele>427.0</ele><time>2026-05-04T14:54:06.705Z</time></trkpt><trkpt lat="43.4550633" lon="11.580355"><ele>429.6</ele><time>2026-05-04T14:54:08.705Z</time></trkpt><trkpt lat="43.4551233" lon="11.5803217"><ele>432.20000000000005</ele><time>2026-05-04T14:54:09.706Z</time></trkpt><trkpt lat="43.4552333" lon="11.58024"><ele>434.8</ele><time>2026-05-04T14:54:11.705Z</time></trkpt><trkpt lat="43.4553067" lon="11.58013"><ele>437.4</ele><time>2026-05-04T14:54:13.706Z</time></trkpt><trkpt lat="43.4553533" lon="11.5799883"><ele>440.0</ele><time>2026-05-04T14:54:15.707Z</time></trkpt><trkpt lat="43.4553767" lon="11.5798967"><ele>439.99999999999994</ele><time>2026-05-04T14:54:16.707Z</time></trkpt><trkpt lat="43.4554" lon="11.5797917"><ele>440.0</ele><time>2026-05-04T14:54:17.705Z</time></trkpt><trkpt lat="43.4554167" lon="11.5796817"><ele>440.0</ele><time>2026-05-04T14:54:18.705Z</time></trkpt><trkpt lat="43.4554267" lon="11.57958"><ele>440.0</ele><time>2026-05-04T14:54:19.705Z</time></trkpt><trkpt lat="43.4554383" lon="11.57947"><ele>439.99999999999994</ele><time>2026-05-04T14:54:20.705Z</time></trkpt><trkpt lat="43.455445" lon="11.5793617"><ele>440.0</ele><time>2026-05-04T14:54:21.707Z</time></trkpt><trkpt lat="43.455455" lon="11.5792467"><ele>440.3333333333333</ele><time>2026-05-04T14:54:22.707Z</time></trkpt><trkpt lat="43.4554667" lon="11.579135"><ele>440.66666666666663</ele><time>2026-05-04T14:54:23.706Z</time></trkpt><trkpt lat="43.4554867" lon="11.5790217"><ele>441.0</ele><time>2026-05-04T14:54:24.706Z</time></trkpt><trkpt lat="43.4555183" lon="11.578915"><ele>441.33333333333337</ele><time>2026-05-04T14:54:25.706Z</time></trkpt><trkpt lat="43.4555567" lon="11.5788"><ele>441.6666666666667</ele><time>2026-05-04T14:54:26.704Z</time></trkpt><trkpt lat="43.4556067" lon="11.5786933"><ele>442.0</ele><time>2026-05-04T14:54:27.707Z</time></trkpt><trkpt lat="43.45567" lon="11.5786033"><ele>444.33333333333337</ele><time>2026-05-04T14:54:28.705Z</time></trkpt><trkpt lat="43.4557367" lon="11.5785167"><ele>446.6666666666667</ele><time>2026-05-04T14:54:29.705Z</time></trkpt><trkpt lat="43.4558067" lon="11.5784283"><ele>449.0</ele><time>2026-05-04T14:54:30.705Z</time></trkpt><trkpt lat="43.4558683" lon="11.5783417"><ele>451.33333333333337</ele><time>2026-05-04T14:54:31.706Z</time></trkpt><trkpt lat="43.4559233" lon="11.5782683"><ele>453.6666666666667</ele><time>2026-05-04T14:54:32.706Z</time></trkpt><trkpt lat="43.4559683" lon="11.5781933"><ele>456.0</ele><time>2026-05-04T14:54:33.707Z</time></trkpt><trkpt lat="43.4560083" lon="11.57811"><ele>456.0</ele><time>2026-05-04T14:54:34.706Z</time></trkpt><trkpt lat="43.4560467" lon="11.57802"><ele>456.0</ele><time>2026-05-04T14:54:35.705Z</time></trkpt><trkpt lat="43.45609" lon="11.57794"><ele>456.0</ele><time>2026-05-04T14:54:36.706Z</time></trkpt><trkpt lat="43.4561433" lon="11.5778117"><ele>456.0</ele><time>2026-05-04T14:54:38.704Z</time></trkpt><trkpt lat="43.456165" lon="11.5776717"><ele>456.0</ele><time>2026-05-04T14:54:40.705Z</time></trkpt><trkpt lat="43.4561533" lon="11.5775417"><ele>457.20000000000005</ele><time>2026-05-04T14:54:42.706Z</time></trkpt><trkpt lat="43.4561267" lon="11.5774383"><ele>458.40000000000003</ele><time>2026-05-04T14:54:44.707Z</time></trkpt><trkpt lat="43.4560617" lon="11.5773917"><ele>459.6</ele><time>2026-05-04T14:54:46.705Z</time></trkpt><trkpt lat="43.4559517" lon="11.57742"><ele>460.8</ele><time>2026-05-04T14:54:48.707Z</time></trkpt><trkpt lat="43.45583" lon="11.5774767"><ele>462.0</ele><time>2026-05-04T14:54:50.701Z</time></trkpt><trkpt lat="43.4557733" lon="11.5775233"><ele>462.0</ele><time>2026-05-04T14:54:51.708Z</time></trkpt><trkpt lat="43.455705" lon="11.5775767"><ele>462.0</ele><time>2026-05-04T14:54:52.705Z</time></trkpt><trkpt lat="43.4556417" lon="11.57761"><ele>462.0</ele><time>2026-05-04T14:54:53.705Z</time></trkpt><trkpt lat="43.455525" lon="11.5776067"><ele>462.0</ele><time>2026-05-04T14:54:55.706Z</time></trkpt><trkpt lat="43.4554183" lon="11.5776133"><ele>462.0</ele><time>2026-05-04T14:54:57.706Z</time></trkpt><trkpt lat="43.4553583" lon="11.5776567"><ele>462.0</ele><time>2026-05-04T14:54:58.705Z</time></trkpt><trkpt lat="43.4552933" lon="11.5777317"><ele>462.20000000000005</ele><time>2026-05-04T14:54:59.704Z</time></trkpt><trkpt lat="43.4552283" lon="11.5778067"><ele>462.40000000000003</ele><time>2026-05-04T14:55:00.706Z</time></trkpt><trkpt lat="43.45516" lon="11.5778733"><ele>462.59999999999997</ele><time>2026-05-04T14:55:01.709Z</time></trkpt><trkpt lat="43.4551033" lon="11.5779333"><ele>462.79999999999995</ele><time>2026-05-04T14:55:02.703Z</time></trkpt><trkpt lat="43.455005" lon="11.57806"><ele>463.0</ele><time>2026-05-04T14:55:04.706Z</time></trkpt><trkpt lat="43.4549183" lon="11.578195"><ele>463.0</ele><time>2026-05-04T14:55:06.705Z</time></trkpt><trkpt lat="43.4548783" lon="11.5782633"><ele>462.99999999999994</ele><time>2026-05-04T14:55:07.708Z</time></trkpt><trkpt lat="43.4547933" lon="11.5783733"><ele>462.99999999999994</ele><time>2026-05-04T14:55:09.707Z</time></trkpt><trkpt lat="43.4546883" lon="11.5784233"><ele>463.0</ele><time>2026-05-04T14:55:11.705Z</time></trkpt><trkpt lat="43.4545667" lon="11.57847"><ele>463.0</ele><time>2026-05-04T14:55:13.706Z</time></trkpt><trkpt lat="43.4544967" lon="11.5785167"><ele>462.0</ele><time>2026-05-04T14:55:14.706Z</time></trkpt><trkpt lat="43.454425" lon="11.5785617"><ele>460.99999999999994</ele><time>2026-05-04T14:55:15.707Z</time></trkpt><trkpt lat="43.4543483" lon="11.578625"><ele>459.99999999999994</ele><time>2026-05-04T14:55:16.706Z</time></trkpt><trkpt lat="43.4542583" lon="11.5787033"><ele>459.0</ele><time>2026-05-04T14:55:17.713Z</time></trkpt><trkpt lat="43.45416" lon="11.5787733"><ele>458.0</ele><time>2026-05-04T14:55:18.704Z</time></trkpt><trkpt lat="43.4540617" lon="11.5788483"><ele>457.59999999999997</ele><time>2026-05-04T14:55:19.705Z</time></trkpt><trkpt lat="43.4539583" lon="11.5789383"><ele>457.19999999999993</ele><time>2026-05-04T14:55:20.707Z</time></trkpt><trkpt lat="43.45386" lon="11.5790217"><ele>456.8</ele><time>2026-05-04T14:55:21.708Z</time></trkpt><trkpt lat="43.45377" lon="11.5790917"><ele>456.4</ele><time>2026-05-04T14:55:22.706Z</time></trkpt><trkpt lat="43.4536867" lon="11.5791533"><ele>456.0</ele><time>2026-05-04T14:55:23.706Z</time></trkpt><trkpt lat="43.4536017" lon="11.5792183"><ele>456.0</ele><time>2026-05-04T14:55:24.706Z</time></trkpt><trkpt lat="43.4534933" lon="11.5792883"><ele>456.0</ele><time>2026-05-04T14:55:25.709Z</time></trkpt><trkpt lat="43.4533733" lon="11.579355"><ele>456.0</ele><time>2026-05-04T14:55:26.706Z</time></trkpt><trkpt lat="43.453265" lon="11.5794167"><ele>456.0</ele><time>2026-05-04T14:55:27.707Z</time></trkpt><trkpt lat="43.4531617" lon="11.5794717"><ele>454.6</ele><time>2026-05-04T14:55:28.706Z</time></trkpt><trkpt lat="43.4530633" lon="11.579525"><ele>453.20000000000005</ele><time>2026-05-04T14:55:29.707Z</time></trkpt><trkpt lat="43.4529733" lon="11.57958"><ele>451.79999999999995</ele><time>2026-05-04T14:55:30.706Z</time></trkpt><trkpt lat="43.45288" lon="11.5796283"><ele>450.4</ele><time>2026-05-04T14:55:31.707Z</time></trkpt><trkpt lat="43.45278" lon="11.57968"><ele>449.0</ele><time>2026-05-04T14:55:32.706Z</time></trkpt><trkpt lat="43.4526783" lon="11.57974"><ele>449.0</ele><time>2026-05-04T14:55:33.708Z</time></trkpt><trkpt lat="43.4525733" lon="11.5797983"><ele>449.0</ele><time>2026-05-04T14:55:34.706Z</time></trkpt><trkpt lat="43.4524717" lon="11.579855"><ele>449.0</ele><time>2026-05-04T14:55:35.705Z</time></trkpt><trkpt lat="43.45237" lon="11.5799117"><ele>449.0</ele><time>2026-05-04T14:55:36.707Z</time></trkpt><trkpt lat="43.45228" lon="11.579955"><ele>449.0</ele><time>2026-05-04T14:55:37.706Z</time></trkpt><trkpt lat="43.4521917" lon="11.5800067"><ele>448.99999999999994</ele><time>2026-05-04T14:55:38.707Z</time></trkpt><trkpt lat="43.4521167" lon="11.5800517"><ele>449.0</ele><time>2026-05-04T14:55:39.707Z</time></trkpt><trkpt lat="43.45204" lon="11.58011"><ele>449.0</ele><time>2026-05-04T14:55:41.706Z</time></trkpt><trkpt lat="43.452005" lon="11.580215"><ele>449.0</ele><time>2026-05-04T14:55:43.707Z</time></trkpt><trkpt lat="43.4520583" lon="11.5803617"><ele>448.99999999999994</ele><time>2026-05-04T14:55:45.707Z</time></trkpt><trkpt lat="43.4521" lon="11.58043"><ele>449.0</ele><time>2026-05-04T14:55:46.706Z</time></trkpt><trkpt lat="43.452175" lon="11.5805583"><ele>447.0</ele><time>2026-05-04T14:55:48.704Z</time></trkpt><trkpt lat="43.45229" lon="11.5806367"><ele>445.0</ele><time>2026-05-04T14:55:50.706Z</time></trkpt><trkpt lat="43.4523717" lon="11.580625"><ele>443.0</ele><time>2026-05-04T14:55:51.707Z</time></trkpt><trkpt lat="43.45246" lon="11.5805867"><ele>441.0</ele><time>2026-05-04T14:55:52.702Z</time></trkpt><trkpt lat="43.4525517" lon="11.580545"><ele>439.0</ele><time>2026-05-04T14:55:53.707Z</time></trkpt><trkpt lat="43.4526367" lon="11.5805117"><ele>439.0</ele><time>2026-05-04T14:55:54.705Z</time></trkpt><trkpt lat="43.45272" lon="11.5804883"><ele>439.0</ele><time>2026-05-04T14:55:55.707Z</time></trkpt><trkpt lat="43.4528067" lon="11.5804717"><ele>439.0</ele><time>2026-05-04T14:55:56.706Z</time></trkpt><trkpt lat="43.4529067" lon="11.58046"><ele>439.0</ele><time>2026-05-04T14:55:57.707Z</time></trkpt><trkpt lat="43.4530067" lon="11.5804567"><ele>439.0</ele><time>2026-05-04T14:55:58.707Z</time></trkpt><trkpt lat="43.4531033" lon="11.5804717"><ele>437.0</ele><time>2026-05-04T14:55:59.706Z</time></trkpt><trkpt lat="43.453205" lon="11.5805083"><ele>435.0</ele><time>2026-05-04T14:56:00.705Z</time></trkpt><trkpt lat="43.4533" lon="11.5805583"><ele>433.0</ele><time>2026-05-04T14:56:01.707Z</time></trkpt><trkpt lat="43.4533917" lon="11.5806233"><ele>431.0</ele><time>2026-05-04T14:56:02.705Z</time></trkpt><trkpt lat="43.4534733" lon="11.5806983"><ele>429.0</ele><time>2026-05-04T14:56:03.707Z</time></trkpt><trkpt lat="43.4535483" lon="11.58078"><ele>429.0</ele><time>2026-05-04T14:56:04.706Z</time></trkpt><trkpt lat="43.45362" lon="11.5808533"><ele>429.0</ele><time>2026-05-04T14:56:05.705Z</time></trkpt><trkpt lat="43.45368" lon="11.580935"><ele>429.0</ele><time>2026-05-04T14:56:06.706Z</time></trkpt><trkpt lat="43.4537383" lon="11.581015"><ele>429.0</ele><time>2026-05-04T14:56:07.706Z</time></trkpt><trkpt lat="43.453795" lon="11.58109"><ele>429.0</ele><time>2026-05-04T14:56:08.707Z</time></trkpt><trkpt lat="43.45385" lon="11.581155"><ele>429.0</ele><time>2026-05-04T14:56:09.706Z</time></trkpt><trkpt lat="43.4539217" lon="11.5812617"><ele>426.6</ele><time>2026-05-04T14:56:11.705Z</time></trkpt><trkpt lat="43.45396" lon="11.5813983"><ele>424.2</ele><time>2026-05-04T14:56:13.706Z</time></trkpt><trkpt lat="43.4539867" lon="11.5815217"><ele>421.8</ele><time>2026-05-04T14:56:15.706Z</time></trkpt><trkpt lat="43.4539983" lon="11.58163"><ele>419.40000000000003</ele><time>2026-05-04T14:56:17.706Z</time></trkpt><trkpt lat="43.4540383" lon="11.581755"><ele>417.0</ele><time>2026-05-04T14:56:19.706Z</time></trkpt><trkpt lat="43.4540533" lon="11.581875"><ele>417.0</ele><time>2026-05-04T14:56:21.706Z</time></trkpt><trkpt lat="43.4540517" lon="11.582"><ele>417.0</ele><time>2026-05-04T14:56:23.706Z</time></trkpt><trkpt lat="43.4540283" lon="11.5821433"><ele>417.0</ele><time>2026-05-04T14:56:25.707Z</time></trkpt><trkpt lat="43.4539883" lon="11.58229"><ele>417.0</ele><time>2026-05-04T14:56:27.706Z</time></trkpt><trkpt lat="43.4539733" lon="11.5823917"><ele>417.0</ele><time>2026-05-04T14:56:28.707Z</time></trkpt><trkpt lat="43.4539583" lon="11.5825033"><ele>415.14285714285717</ele><time>2026-05-04T14:56:29.705Z</time></trkpt><trkpt lat="43.4539417" lon="11.5825983"><ele>413.2857142857143</ele><time>2026-05-04T14:56:30.705Z</time></trkpt><trkpt lat="43.4539267" lon="11.582695"><ele>411.42857142857144</ele><time>2026-05-04T14:56:31.706Z</time></trkpt><trkpt lat="43.45392" lon="11.582795"><ele>409.57142857142856</ele><time>2026-05-04T14:56:32.706Z</time></trkpt><trkpt lat="43.4539167" lon="11.5829017"><ele>407.71428571428567</ele><time>2026-05-04T14:56:33.706Z</time></trkpt><trkpt lat="43.4539167" lon="11.5830067"><ele>405.85714285714283</ele><time>2026-05-04T14:56:34.706Z</time></trkpt><trkpt lat="43.4539167" lon="11.5831067"><ele>404.0</ele><time>2026-05-04T14:56:35.705Z</time></trkpt><trkpt lat="43.4539083" lon="11.5832117"><ele>403.7142857142857</ele><time>2026-05-04T14:56:36.704Z</time></trkpt><trkpt lat="43.4538967" lon="11.5833183"><ele>403.42857142857144</ele><time>2026-05-04T14:56:37.706Z</time></trkpt><trkpt lat="43.4538867" lon="11.5834267"><ele>403.1428571428571</ele><time>2026-05-04T14:56:38.704Z</time></trkpt><trkpt lat="43.453875" lon="11.5835367"><ele>402.8571428571429</ele><time>2026-05-04T14:56:39.708Z</time></trkpt><trkpt lat="43.453865" lon="11.5836383"><ele>402.5714285714286</ele><time>2026-05-04T14:56:40.706Z</time></trkpt><trkpt lat="43.4538483" lon="11.58373"><ele>402.2857142857143</ele><time>2026-05-04T14:56:41.707Z</time></trkpt><trkpt lat="43.4538433" lon="11.5838233"><ele>402.0</ele><time>2026-05-04T14:56:42.706Z</time></trkpt><trkpt lat="43.4538367" lon="11.5839217"><ele>400.5</ele><time>2026-05-04T14:56:43.705Z</time></trkpt><trkpt lat="43.453845" lon="11.5840383"><ele>399.0</ele><time>2026-05-04T14:56:44.706Z</time></trkpt><trkpt lat="43.453855" lon="11.5841467"><ele>397.5</ele><time>2026-05-04T14:56:45.706Z</time></trkpt><trkpt lat="43.4538733" lon="11.5842767"><ele>396.0</ele><time>2026-05-04T14:56:46.706Z</time></trkpt><trkpt lat="43.4538983" lon="11.5843883"><ele>394.5</ele><time>2026-05-04T14:56:47.706Z</time></trkpt><trkpt lat="43.4539333" lon="11.5844967"><ele>393.0</ele><time>2026-05-04T14:56:48.706Z</time></trkpt><trkpt lat="43.4539667" lon="11.584605"><ele>390.6666666666667</ele><time>2026-05-04T14:56:49.706Z</time></trkpt><trkpt lat="43.454" lon="11.5847117"><ele>388.3333333333333</ele><time>2026-05-04T14:56:50.705Z</time></trkpt><trkpt lat="43.454035" lon="11.58482"><ele>386.0</ele><time>2026-05-04T14:56:51.707Z</time></trkpt><trkpt lat="43.4540733" lon="11.58492"><ele>383.66666666666663</ele><time>2026-05-04T14:56:52.702Z</time></trkpt><trkpt lat="43.4541117" lon="11.5850283"><ele>381.3333333333333</ele><time>2026-05-04T14:56:53.706Z</time></trkpt><trkpt lat="43.45414" lon="11.5851467"><ele>379.0</ele><time>2026-05-04T14:56:54.704Z</time></trkpt><trkpt lat="43.4541567" lon="11.5852683"><ele>377.3333333333333</ele><time>2026-05-04T14:56:55.705Z</time></trkpt><trkpt lat="43.4541667" lon="11.5853933"><ele>375.66666666666663</ele><time>2026-05-04T14:56:56.705Z</time></trkpt><trkpt lat="43.4541833" lon="11.5855133"><ele>374.0</ele><time>2026-05-04T14:56:57.707Z</time></trkpt><trkpt lat="43.4541933" lon="11.5856317"><ele>372.3333333333333</ele><time>2026-05-04T14:56:58.706Z</time></trkpt><trkpt lat="43.4542" lon="11.58574"><ele>370.6666666666667</ele><time>2026-05-04T14:56:59.706Z</time></trkpt><trkpt lat="43.4542" lon="11.585855"><ele>369.0</ele><time>2026-05-04T14:57:00.705Z</time></trkpt><trkpt lat="43.4541917" lon="11.5859883"><ele>369.0</ele><time>2026-05-04T14:57:01.707Z</time></trkpt><trkpt lat="43.45418" lon="11.5861183"><ele>369.0</ele><time>2026-05-04T14:57:02.705Z</time></trkpt><trkpt lat="43.4541683" lon="11.58625"><ele>369.0</ele><time>2026-05-04T14:57:03.707Z</time></trkpt><trkpt lat="43.4541567" lon="11.5863783"><ele>369.0</ele><time>2026-05-04T14:57:04.707Z</time></trkpt><trkpt lat="43.4541467" lon="11.586515"><ele>369.0</ele><time>2026-05-04T14:57:05.706Z</time></trkpt><trkpt lat="43.4541317" lon="11.5866483"><ele>367.6666666666667</ele><time>2026-05-04T14:57:06.706Z</time></trkpt><trkpt lat="43.45411" lon="11.5867867"><ele>366.3333333333333</ele><time>2026-05-04T14:57:07.706Z</time></trkpt><trkpt lat="43.4540917" lon="11.5869233"><ele>365.0</ele><time>2026-05-04T14:57:08.707Z</time></trkpt><trkpt lat="43.454075" lon="11.5870483"><ele>363.66666666666663</ele><time>2026-05-04T14:57:09.706Z</time></trkpt><trkpt lat="43.4540617" lon="11.587155"><ele>362.3333333333333</ele><time>2026-05-04T14:57:10.705Z</time></trkpt><trkpt lat="43.45405" lon="11.587255"><ele>361.0</ele><time>2026-05-04T14:57:11.706Z</time></trkpt><trkpt lat="43.4540417" lon="11.5873567"><ele>360.42857142857144</ele><time>2026-05-04T14:57:12.705Z</time></trkpt><trkpt lat="43.4540367" lon="11.5874617"><ele>359.85714285714283</ele><time>2026-05-04T14:57:13.706Z</time></trkpt><trkpt lat="43.4540283" lon="11.5875567"><ele>359.2857142857143</ele><time>2026-05-04T14:57:14.706Z</time></trkpt><trkpt lat="43.454025" lon="11.587655"><ele>358.7142857142857</ele><time>2026-05-04T14:57:15.706Z</time></trkpt><trkpt lat="43.454025" lon="11.587755"><ele>358.1428571428571</ele><time>2026-05-04T14:57:16.706Z</time></trkpt><trkpt lat="43.45403" lon="11.5878583"><ele>357.57142857142856</ele><time>2026-05-04T14:57:17.705Z</time></trkpt><trkpt lat="43.45404" lon="11.5879667"><ele>357.0</ele><time>2026-05-04T14:57:18.704Z</time></trkpt><trkpt lat="43.4540533" lon="11.5880717"><ele>356.1666666666667</ele><time>2026-05-04T14:57:19.706Z</time></trkpt><trkpt lat="43.4540717" lon="11.5881733"><ele>355.3333333333333</ele><time>2026-05-04T14:57:20.706Z</time></trkpt><trkpt lat="43.454095" lon="11.5882783"><ele>354.5</ele><time>2026-05-04T14:57:21.707Z</time></trkpt><trkpt lat="43.454125" lon="11.5883833"><ele>353.66666666666663</ele><time>2026-05-04T14:57:22.704Z</time></trkpt><trkpt lat="43.4541467" lon="11.5884783"><ele>352.8333333333333</ele><time>2026-05-04T14:57:23.704Z</time></trkpt><trkpt lat="43.4541633" lon="11.58858"><ele>352.0</ele><time>2026-05-04T14:57:24.706Z</time></trkpt><trkpt lat="43.4541683" lon="11.588675"><ele>351.0</ele><time>2026-05-04T14:57:25.705Z</time></trkpt><trkpt lat="43.4541567" lon="11.5887683"><ele>350.0</ele><time>2026-05-04T14:57:26.706Z</time></trkpt><trkpt lat="43.454145" lon="11.5888583"><ele>349.0</ele><time>2026-05-04T14:57:27.706Z</time></trkpt><trkpt lat="43.4541383" lon="11.5889533"><ele>348.0</ele><time>2026-05-04T14:57:28.706Z</time></trkpt><trkpt lat="43.4541433" lon="11.5890617"><ele>347.0</ele><time>2026-05-04T14:57:29.706Z</time></trkpt><trkpt lat="43.454145" lon="11.5891833"><ele>346.0</ele><time>2026-05-04T14:57:30.705Z</time></trkpt><trkpt lat="43.4541317" lon="11.5892933"><ele>346.0</ele><time>2026-05-04T14:57:31.705Z</time></trkpt><trkpt lat="43.4541117" lon="11.5893917"><ele>346.0</ele><time>2026-05-04T14:57:32.705Z</time></trkpt><trkpt lat="43.4540683" lon="11.5895433"><ele>346.0</ele><time>2026-05-04T14:57:34.706Z</time></trkpt><trkpt lat="43.4540467" lon="11.5896833"><ele>346.0</ele><time>2026-05-04T14:57:36.706Z</time></trkpt><trkpt lat="43.4540283" lon="11.5898067"><ele>346.0</ele><time>2026-05-04T14:57:38.706Z</time></trkpt><trkpt lat="43.4539783" lon="11.5899333"><ele>343.8</ele><time>2026-05-04T14:57:40.706Z</time></trkpt><trkpt lat="43.4539217" lon="11.5900883"><ele>341.6</ele><time>2026-05-04T14:57:42.705Z</time></trkpt><trkpt lat="43.4538917" lon="11.590175"><ele>339.4</ele><time>2026-05-04T14:57:43.706Z</time></trkpt><trkpt lat="43.453865" lon="11.590255"><ele>337.2</ele><time>2026-05-04T14:57:44.706Z</time></trkpt><trkpt lat="43.4538583" lon="11.5904183"><ele>335.0</ele><time>2026-05-04T14:57:46.705Z</time></trkpt><trkpt lat="43.4538783" lon="11.5905283"><ele>333.1666666666667</ele><time>2026-05-04T14:57:47.703Z</time></trkpt><trkpt lat="43.4538867" lon="11.590645"><ele>331.33333333333337</ele><time>2026-05-04T14:57:48.705Z</time></trkpt><trkpt lat="43.4538967" lon="11.5907683"><ele>329.5</ele><time>2026-05-04T14:57:49.707Z</time></trkpt><trkpt lat="43.4539017" lon="11.590885"><ele>327.6666666666667</ele><time>2026-05-04T14:57:50.707Z</time></trkpt><trkpt lat="43.4539" lon="11.5910117"><ele>325.8333333333333</ele><time>2026-05-04T14:57:51.71Z</time></trkpt><trkpt lat="43.45389" lon="11.5911333"><ele>324.0</ele><time>2026-05-04T14:57:52.706Z</time></trkpt><trkpt lat="43.4539067" lon="11.5913"><ele>322.3333333333333</ele><time>2026-05-04T14:57:53.706Z</time></trkpt><trkpt lat="43.4538967" lon="11.5914283"><ele>320.6666666666667</ele><time>2026-05-04T14:57:54.705Z</time></trkpt><trkpt lat="43.4538883" lon="11.591545"><ele>319.0</ele><time>2026-05-04T14:57:55.707Z</time></trkpt><trkpt lat="43.453885" lon="11.5916467"><ele>317.33333333333337</ele><time>2026-05-04T14:57:56.706Z</time></trkpt><trkpt lat="43.4538933" lon="11.5917533"><ele>315.6666666666667</ele><time>2026-05-04T14:57:57.707Z</time></trkpt><trkpt lat="43.45392" lon="11.591855"><ele>314.0</ele><time>2026-05-04T14:57:58.707Z</time></trkpt><trkpt lat="43.45396" lon="11.5919567"><ele>312.83333333333337</ele><time>2026-05-04T14:57:59.704Z</time></trkpt><trkpt lat="43.454" lon="11.592065"><ele>311.6666666666667</ele><time>2026-05-04T14:58:00.706Z</time></trkpt><trkpt lat="43.454045" lon="11.5921717"><ele>310.5</ele><time>2026-05-04T14:58:01.706Z</time></trkpt><trkpt lat="43.454085" lon="11.59228"><ele>309.3333333333333</ele><time>2026-05-04T14:58:02.705Z</time></trkpt><trkpt lat="43.4541283" lon="11.5923883"><ele>308.16666666666663</ele><time>2026-05-04T14:58:03.705Z</time></trkpt><trkpt lat="43.4541633" lon="11.5925017"><ele>307.0</ele><time>2026-05-04T14:58:04.706Z</time></trkpt><trkpt lat="43.4541967" lon="11.5926183"><ele>307.0</ele><time>2026-05-04T14:58:05.705Z</time></trkpt><trkpt lat="43.454225" lon="11.5927417"><ele>307.0</ele><time>2026-05-04T14:58:06.706Z</time></trkpt><trkpt lat="43.4542517" lon="11.5928617"><ele>307.0</ele><time>2026-05-04T14:58:07.706Z</time></trkpt><trkpt lat="43.4542767" lon="11.5929683"><ele>307.0</ele><time>2026-05-04T14:58:08.706Z</time></trkpt><trkpt lat="43.4542917" lon="11.5930567"><ele>307.0</ele><time>2026-05-04T14:58:09.707Z</time></trkpt><trkpt lat="43.4543083" lon="11.5931583"><ele>307.0</ele><time>2026-05-04T14:58:10.705Z</time></trkpt><trkpt lat="43.45431" lon="11.5932567"><ele>306.5</ele><time>2026-05-04T14:58:11.706Z</time></trkpt><trkpt lat="43.4542867" lon="11.5933433"><ele>306.0</ele><time>2026-05-04T14:58:12.707Z</time></trkpt><trkpt lat="43.4542367" lon="11.5934117"><ele>305.5</ele><time>2026-05-04T14:58:13.707Z</time></trkpt><trkpt lat="43.4541583" lon="11.5934733"><ele>305.0</ele><time>2026-05-04T14:58:14.706Z</time></trkpt><trkpt lat="43.4540833" lon="11.5935367"><ele>304.5</ele><time>2026-05-04T14:58:15.707Z</time></trkpt><trkpt lat="43.4540183" lon="11.5936117"><ele>304.0</ele><time>2026-05-04T14:58:16.706Z</time></trkpt><trkpt lat="43.4539667" lon="11.5936767"><ele>303.2</ele><time>2026-05-04T14:58:17.704Z</time></trkpt><trkpt lat="43.4539183" lon="11.59381"><ele>302.4</ele><time>2026-05-04T14:58:19.706Z</time></trkpt><trkpt lat="43.4539133" lon="11.5938967"><ele>301.6</ele><time>2026-05-04T14:58:20.705Z</time></trkpt><trkpt lat="43.4539067" lon="11.59409"><ele>300.8</ele><time>2026-05-04T14:58:22.705Z</time></trkpt><trkpt lat="43.4539033" lon="11.5942033"><ele>300.0</ele><time>2026-05-04T14:58:23.704Z</time></trkpt><trkpt lat="43.4538917" lon="11.5942967"><ele>300.0</ele><time>2026-05-04T14:58:24.707Z</time></trkpt><trkpt lat="43.4538817" lon="11.59446"><ele>300.0</ele><time>2026-05-04T14:58:26.704Z</time></trkpt><trkpt lat="43.4539217" lon="11.594605"><ele>300.0</ele><time>2026-05-04T14:58:28.705Z</time></trkpt><trkpt lat="43.453975" lon="11.594685"><ele>300.0</ele><time>2026-05-04T14:58:29.703Z</time></trkpt><trkpt lat="43.4540483" lon="11.5947583"><ele>300.0</ele><time>2026-05-04T14:58:30.706Z</time></trkpt><trkpt lat="43.4541183" lon="11.5948333"><ele>298.1666666666667</ele><time>2026-05-04T14:58:31.707Z</time></trkpt><trkpt lat="43.4541867" lon="11.594905"><ele>296.3333333333333</ele><time>2026-05-04T14:58:32.706Z</time></trkpt><trkpt lat="43.454255" lon="11.5949533"><ele>294.5</ele><time>2026-05-04T14:58:33.706Z</time></trkpt><trkpt lat="43.4543317" lon="11.5949717"><ele>292.66666666666663</ele><time>2026-05-04T14:58:34.706Z</time></trkpt><trkpt lat="43.4544017" lon="11.59497"><ele>290.8333333333333</ele><time>2026-05-04T14:58:35.705Z</time></trkpt><trkpt lat="43.4544633" lon="11.5949383"><ele>289.0</ele><time>2026-05-04T14:58:36.707Z</time></trkpt><trkpt lat="43.454535" lon="11.594885"><ele>289.0</ele><time>2026-05-04T14:58:37.707Z</time></trkpt><trkpt lat="43.4546167" lon="11.5948317"><ele>289.0</ele><time>2026-05-04T14:58:38.706Z</time></trkpt><trkpt lat="43.4546967" lon="11.594795"><ele>289.0</ele><time>2026-05-04T14:58:39.706Z</time></trkpt><trkpt lat="43.45477" lon="11.5947867"><ele>289.0</ele><time>2026-05-04T14:58:40.702Z</time></trkpt><trkpt lat="43.4548417" lon="11.5947783"><ele>289.0</ele><time>2026-05-04T14:58:41.706Z</time></trkpt><trkpt lat="43.45491" lon="11.594775"><ele>289.0</ele><time>2026-05-04T14:58:42.707Z</time></trkpt><trkpt lat="43.4549783" lon="11.5947933"><ele>289.4</ele><time>2026-05-04T14:58:43.706Z</time></trkpt><trkpt lat="43.4550383" lon="11.59482"><ele>289.79999999999995</ele><time>2026-05-04T14:58:44.705Z</time></trkpt><trkpt lat="43.45508" lon="11.5949883"><ele>290.20000000000005</ele><time>2026-05-04T14:58:46.706Z</time></trkpt><trkpt lat="43.455065" lon="11.5951033"><ele>290.6</ele><time>2026-05-04T14:58:47.71Z</time></trkpt><trkpt lat="43.4550567" lon="11.595225"><ele>291.0</ele><time>2026-05-04T14:58:48.704Z</time></trkpt><trkpt lat="43.4550733" lon="11.5953683"><ele>289.8</ele><time>2026-05-04T14:58:49.706Z</time></trkpt><trkpt lat="43.4551033" lon="11.59552"><ele>288.6</ele><time>2026-05-04T14:58:50.707Z</time></trkpt><trkpt lat="43.4551383" lon="11.5956533"><ele>287.4</ele><time>2026-05-04T14:58:51.708Z</time></trkpt><trkpt lat="43.45518" lon="11.5957767"><ele>286.2</ele><time>2026-05-04T14:58:52.705Z</time></trkpt><trkpt lat="43.4552183" lon="11.5958733"><ele>285.0</ele><time>2026-05-04T14:58:53.705Z</time></trkpt><trkpt lat="43.45526" lon="11.5959433"><ele>285.0</ele><time>2026-05-04T14:58:54.705Z</time></trkpt><trkpt lat="43.455325" lon="11.5960083"><ele>285.0</ele><time>2026-05-04T14:58:55.705Z</time></trkpt><trkpt lat="43.4553933" lon="11.596065"><ele>285.0</ele><time>2026-05-04T14:58:56.705Z</time></trkpt><trkpt lat="43.4554633" lon="11.5961183"><ele>285.0</ele><time>2026-05-04T14:58:57.706Z</time></trkpt><trkpt lat="43.4555367" lon="11.5961783"><ele>285.0</ele><time>2026-05-04T14:58:58.704Z</time></trkpt><trkpt lat="43.4555933" lon="11.5962467"><ele>285.0</ele><time>2026-05-04T14:58:59.704Z</time></trkpt><trkpt lat="43.45565" lon="11.5963317"><ele>284.5</ele><time>2026-05-04T14:59:00.704Z</time></trkpt><trkpt lat="43.45571" lon="11.5964133"><ele>284.0</ele><time>2026-05-04T14:59:01.709Z</time></trkpt><trkpt lat="43.4557717" lon="11.596485"><ele>283.5</ele><time>2026-05-04T14:59:02.706Z</time></trkpt><trkpt lat="43.4558267" lon="11.596535"><ele>283.0</ele><time>2026-05-04T14:59:03.707Z</time></trkpt><trkpt lat="43.45589" lon="11.5965567"><ele>282.5</ele><time>2026-05-04T14:59:04.706Z</time></trkpt><trkpt lat="43.4559783" lon="11.5965467"><ele>282.0</ele><time>2026-05-04T14:59:05.705Z</time></trkpt><trkpt lat="43.4560583" lon="11.5965483"><ele>282.0</ele><time>2026-05-04T14:59:06.704Z</time></trkpt><trkpt lat="43.45613" lon="11.5965467"><ele>282.0</ele><time>2026-05-04T14:59:07.705Z</time></trkpt><trkpt lat="43.4562017" lon="11.59655"><ele>282.0</ele><time>2026-05-04T14:59:08.705Z</time></trkpt><trkpt lat="43.4562733" lon="11.5965667"><ele>282.0</ele><time>2026-05-04T14:59:09.707Z</time></trkpt><trkpt lat="43.4563483" lon="11.596595"><ele>282.0</ele><time>2026-05-04T14:59:10.705Z</time></trkpt><trkpt lat="43.4564267" lon="11.59663"><ele>282.0</ele><time>2026-05-04T14:59:11.706Z</time></trkpt><trkpt lat="43.4565033" lon="11.5966617"><ele>280.6666666666667</ele><time>2026-05-04T14:59:12.706Z</time></trkpt><trkpt lat="43.45657" lon="11.5966917"><ele>279.3333333333333</ele><time>2026-05-04T14:59:13.705Z</time></trkpt><trkpt lat="43.4566283" lon="11.596725"><ele>278.0</ele><time>2026-05-04T14:59:14.705Z</time></trkpt><trkpt lat="43.4567317" lon="11.5968033"><ele>276.66666666666663</ele><time>2026-05-04T14:59:16.704Z</time></trkpt><trkpt lat="43.45678" lon="11.5968617"><ele>275.3333333333333</ele><time>2026-05-04T14:59:17.705Z</time></trkpt><trkpt lat="43.4568217" lon="11.59693"><ele>274.0</ele><time>2026-05-04T14:59:18.705Z</time></trkpt><trkpt lat="43.4568617" lon="11.5970983"><ele>273.8333333333333</ele><time>2026-05-04T14:59:20.706Z</time></trkpt><trkpt lat="43.4568667" lon="11.597195"><ele>273.66666666666663</ele><time>2026-05-04T14:59:21.705Z</time></trkpt><trkpt lat="43.456875" lon="11.5972883"><ele>273.5</ele><time>2026-05-04T14:59:22.707Z</time></trkpt><trkpt lat="43.4568967" lon="11.59739"><ele>273.3333333333333</ele><time>2026-05-04T14:59:23.704Z</time></trkpt><trkpt lat="43.4569417" lon="11.597505"><ele>273.1666666666667</ele><time>2026-05-04T14:59:24.706Z</time></trkpt><trkpt lat="43.4570133" lon="11.5976333"><ele>273.0</ele><time>2026-05-04T14:59:25.707Z</time></trkpt><trkpt lat="43.4570917" lon="11.59776"><ele>272.5</ele><time>2026-05-04T14:59:26.705Z</time></trkpt><trkpt lat="43.45717" lon="11.59789"><ele>272.0</ele><time>2026-05-04T14:59:27.706Z</time></trkpt><trkpt lat="43.45725" lon="11.5980233"><ele>271.5</ele><time>2026-05-04T14:59:28.705Z</time></trkpt><trkpt lat="43.4573167" lon="11.598155"><ele>271.0</ele><time>2026-05-04T14:59:29.706Z</time></trkpt><trkpt lat="43.4573717" lon="11.5982883"><ele>271.0</ele><time>2026-05-04T14:59:30.705Z</time></trkpt><trkpt lat="43.4574117" lon="11.5984317"><ele>271.0</ele><time>2026-05-04T14:59:31.706Z</time></trkpt><trkpt lat="43.45746" lon="11.59858"><ele>271.0</ele><time>2026-05-04T14:59:32.705Z</time></trkpt><trkpt lat="43.4575083" lon="11.59872"><ele>271.0</ele><time>2026-05-04T14:59:33.707Z</time></trkpt><trkpt lat="43.4575633" lon="11.5988533"><ele>270.25</ele><time>2026-05-04T14:59:34.705Z</time></trkpt><trkpt lat="43.457625" lon="11.5989983"><ele>269.5</ele><time>2026-05-04T14:59:35.706Z</time></trkpt><trkpt lat="43.45769" lon="11.5991417"><ele>268.75</ele><time>2026-05-04T14:59:36.706Z</time></trkpt><trkpt lat="43.45775" lon="11.5992867"><ele>268.0</ele><time>2026-05-04T14:59:37.706Z</time></trkpt><trkpt lat="43.4578183" lon="11.599425"><ele>267.0</ele><time>2026-05-04T14:59:38.706Z</time></trkpt><trkpt lat="43.4578883" lon="11.599555"><ele>266.0</ele><time>2026-05-04T14:59:39.706Z</time></trkpt><trkpt lat="43.4579417" lon="11.59967"><ele>265.0</ele><time>2026-05-04T14:59:40.706Z</time></trkpt><trkpt lat="43.4579967" lon="11.5997817"><ele>264.0</ele><time>2026-05-04T14:59:41.705Z</time></trkpt><trkpt lat="43.45805" lon="11.5998867"><ele>263.0</ele><time>2026-05-04T14:59:42.707Z</time></trkpt><trkpt lat="43.4580983" lon="11.599985"><ele>263.0</ele><time>2026-05-04T14:59:43.704Z</time></trkpt><trkpt lat="43.4581483" lon="11.60008"><ele>263.0</ele><time>2026-05-04T14:59:44.705Z</time></trkpt><trkpt lat="43.4581967" lon="11.6001733"><ele>263.0</ele><time>2026-05-04T14:59:45.705Z</time></trkpt><trkpt lat="43.4582383" lon="11.6002617"><ele>263.0</ele><time>2026-05-04T14:59:46.706Z</time></trkpt><trkpt lat="43.4582783" lon="11.6003533"><ele>263.0</ele><time>2026-05-04T14:59:47.704Z</time></trkpt><trkpt lat="43.45832" lon="11.6004467"><ele>263.0</ele><time>2026-05-04T14:59:48.714Z</time></trkpt><trkpt lat="43.45836" lon="11.600535"><ele>262.2</ele><time>2026-05-04T14:59:49.705Z</time></trkpt><trkpt lat="43.458405" lon="11.600625"><ele>261.4</ele><time>2026-05-04T14:59:50.707Z</time></trkpt><trkpt lat="43.4584567" lon="11.6007317"><ele>260.59999999999997</ele><time>2026-05-04T14:59:51.705Z</time></trkpt><trkpt lat="43.4585117" lon="11.6008533"><ele>259.8</ele><time>2026-05-04T14:59:52.707Z</time></trkpt><trkpt lat="43.45857" lon="11.6009833"><ele>259.0</ele><time>2026-05-04T14:59:53.705Z</time></trkpt><trkpt lat="43.4586367" lon="11.6011217"><ele>259.2</ele><time>2026-05-04T14:59:54.706Z</time></trkpt><trkpt lat="43.4587" lon="11.6012567"><ele>259.4</ele><time>2026-05-04T14:59:55.706Z</time></trkpt><trkpt lat="43.4587583" lon="11.60138"><ele>259.6</ele><time>2026-05-04T14:59:56.706Z</time></trkpt><trkpt lat="43.4588133" lon="11.6014933"><ele>259.8</ele><time>2026-05-04T14:59:57.707Z</time></trkpt><trkpt lat="43.4588633" lon="11.6016"><ele>260.0</ele><time>2026-05-04T14:59:58.705Z</time></trkpt><trkpt lat="43.4589117" lon="11.6016967"><ele>260.0</ele><time>2026-05-04T14:59:59.704Z</time></trkpt><trkpt lat="43.4589567" lon="11.6017833"><ele>260.0</ele><time>2026-05-04T15:00:00.7Z</time></trkpt><trkpt lat="43.45901" lon="11.6018583"><ele>260.0</ele><time>2026-05-04T15:00:01.707Z</time></trkpt><trkpt lat="43.4590733" lon="11.6019267"><ele>260.0</ele><time>2026-05-04T15:00:02.704Z</time></trkpt><trkpt lat="43.45915" lon="11.60198"><ele>260.0</ele><time>2026-05-04T15:00:03.702Z</time></trkpt><trkpt lat="43.4592467" lon="11.6020067"><ele>260.0</ele><time>2026-05-04T15:00:04.704Z</time></trkpt><trkpt lat="43.4593517" lon="11.60202"><ele>259.8</ele><time>2026-05-04T15:00:05.704Z</time></trkpt><trkpt lat="43.459455" lon="11.6020383"><ele>259.6</ele><time>2026-05-04T15:00:06.705Z</time></trkpt><trkpt lat="43.4595617" lon="11.6020633"><ele>259.4</ele><time>2026-05-04T15:00:07.704Z</time></trkpt><trkpt lat="43.4596667" lon="11.6021067"><ele>259.2</ele><time>2026-05-04T15:00:08.706Z</time></trkpt><trkpt lat="43.4597683" lon="11.6021783"><ele>259.0</ele><time>2026-05-04T15:00:09.707Z</time></trkpt><trkpt lat="43.4598683" lon="11.6022783"><ele>259.0</ele><time>2026-05-04T15:00:10.706Z</time></trkpt><trkpt lat="43.45997" lon="11.6024"><ele>259.0</ele><time>2026-05-04T15:00:11.705Z</time></trkpt><trkpt lat="43.4600817" lon="11.602535"><ele>259.0</ele><time>2026-05-04T15:00:12.706Z</time></trkpt><trkpt lat="43.460205" lon="11.6026817"><ele>259.0</ele><time>2026-05-04T15:00:13.707Z</time></trkpt><trkpt lat="43.4603333" lon="11.602835"><ele>257.66666666666663</ele><time>2026-05-04T15:00:14.705Z</time></trkpt><trkpt lat="43.4604583" lon="11.60299"><ele>256.3333333333333</ele><time>2026-05-04T15:00:15.708Z</time></trkpt><trkpt lat="43.4605833" lon="11.603145"><ele>255.0</ele><time>2026-05-04T15:00:16.706Z</time></trkpt><trkpt lat="43.4607017" lon="11.6032967"><ele>255.0</ele><time>2026-05-04T15:00:17.705Z</time></trkpt><trkpt lat="43.4608067" lon="11.6034333"><ele>255.0</ele><time>2026-05-04T15:00:18.705Z</time></trkpt><trkpt lat="43.4609067" lon="11.6035667"><ele>255.0</ele><time>2026-05-04T15:00:19.707Z</time></trkpt><trkpt lat="43.4610017" lon="11.6036917"><ele>255.0</ele><time>2026-05-04T15:00:20.706Z</time></trkpt><trkpt lat="43.4610967" lon="11.6038083"><ele>254.25</ele><time>2026-05-04T15:00:21.707Z</time></trkpt><trkpt lat="43.4611983" lon="11.6039333"><ele>253.5</ele><time>2026-05-04T15:00:22.705Z</time></trkpt><trkpt lat="43.4613117" lon="11.604075"><ele>252.75</ele><time>2026-05-04T15:00:23.705Z</time></trkpt><trkpt lat="43.4614267" lon="11.60422"><ele>252.0</ele><time>2026-05-04T15:00:24.706Z</time></trkpt><trkpt lat="43.4615433" lon="11.60436"><ele>250.0</ele><time>2026-05-04T15:00:25.706Z</time></trkpt><trkpt lat="43.4616533" lon="11.6044983"><ele>248.0</ele><time>2026-05-04T15:00:26.706Z</time></trkpt><trkpt lat="43.46177" lon="11.6046367"><ele>246.0</ele><time>2026-05-04T15:00:27.706Z</time></trkpt><trkpt lat="43.4618767" lon="11.6047683"><ele>244.0</ele><time>2026-05-04T15:00:28.705Z</time></trkpt><trkpt lat="43.4619783" lon="11.6048933"><ele>244.0</ele><time>2026-05-04T15:00:29.711Z</time></trkpt><trkpt lat="43.4620783" lon="11.6050133"><ele>244.0</ele><time>2026-05-04T15:00:30.707Z</time></trkpt><trkpt lat="43.4621767" lon="11.6051267"><ele>244.0</ele><time>2026-05-04T15:00:31.708Z</time></trkpt><trkpt lat="43.46228" lon="11.6052433"><ele>244.0</ele><time>2026-05-04T15:00:32.705Z</time></trkpt><trkpt lat="43.4623883" lon="11.6053767"><ele>241.0</ele><time>2026-05-04T15:00:33.706Z</time></trkpt><trkpt lat="43.4625033" lon="11.6055133"><ele>238.0</ele><time>2026-05-04T15:00:34.706Z</time></trkpt><trkpt lat="43.462625" lon="11.605655"><ele>235.0</ele><time>2026-05-04T15:00:35.706Z</time></trkpt><trkpt lat="43.4627417" lon="11.6058"><ele>235.0</ele><time>2026-05-04T15:00:36.705Z</time></trkpt><trkpt lat="43.462855" lon="11.6059383"><ele>235.0</ele><time>2026-05-04T15:00:37.705Z</time></trkpt><trkpt lat="43.4629717" lon="11.6060783"><ele>235.0</ele><time>2026-05-04T15:00:38.706Z</time></trkpt><trkpt lat="43.4630867" lon="11.6062183"><ele>237.66666666666666</ele><time>2026-05-04T15:00:39.706Z</time></trkpt><trkpt lat="43.4632017" lon="11.6063583"><ele>240.33333333333331</ele><time>2026-05-04T15:00:40.707Z</time></trkpt><trkpt lat="43.46332" lon="11.6064967"><ele>243.0</ele><time>2026-05-04T15:00:41.706Z</time></trkpt><trkpt lat="43.4634367" lon="11.6066233"><ele>243.0</ele><time>2026-05-04T15:00:42.706Z</time></trkpt><trkpt lat="43.463555" lon="11.6067417"><ele>243.0</ele><time>2026-05-04T15:00:43.707Z</time></trkpt><trkpt lat="43.4636883" lon="11.60685"><ele>243.0</ele><time>2026-05-04T15:00:44.7Z</time></trkpt><trkpt lat="43.4638267" lon="11.60694"><ele>247.0</ele><time>2026-05-04T15:00:45.706Z</time></trkpt><trkpt lat="43.4639683" lon="11.6070167"><ele>251.0</ele><time>2026-05-04T15:00:46.707Z</time></trkpt><trkpt lat="43.4641117" lon="11.6070883"><ele>255.0</ele><time>2026-05-04T15:00:47.705Z</time></trkpt><trkpt lat="43.4642583" lon="11.6071417"><ele>255.0</ele><time>2026-05-04T15:00:48.706Z</time></trkpt><trkpt lat="43.4644033" lon="11.607175"><ele>255.0</ele><time>2026-05-04T15:00:49.707Z</time></trkpt><trkpt lat="43.4645517" lon="11.60719"><ele>255.0</ele><time>2026-05-04T15:00:50.706Z</time></trkpt><trkpt lat="43.4647" lon="11.6071917"><ele>255.0</ele><time>2026-05-04T15:00:51.707Z</time></trkpt><trkpt lat="43.464845" lon="11.6071733"><ele>255.0</ele><time>2026-05-04T15:00:52.706Z</time></trkpt><trkpt lat="43.4649983" lon="11.60713"><ele>255.0</ele><time>2026-05-04T15:00:53.706Z</time></trkpt><trkpt lat="43.465155" lon="11.6070583"><ele>255.0</ele><time>2026-05-04T15:00:54.708Z</time></trkpt><trkpt lat="43.46531" lon="11.606965"><ele>254.66666666666669</ele><time>2026-05-04T15:00:55.706Z</time></trkpt><trkpt lat="43.4654633" lon="11.6068667"><ele>254.33333333333334</ele><time>2026-05-04T15:00:56.706Z</time></trkpt><trkpt lat="43.465605" lon="11.6067717"><ele>254.0</ele><time>2026-05-04T15:00:57.707Z</time></trkpt><trkpt lat="43.4657317" lon="11.6066917"><ele>254.0</ele><time>2026-05-04T15:00:58.706Z</time></trkpt><trkpt lat="43.4658433" lon="11.6066383"><ele>254.0</ele><time>2026-05-04T15:00:59.705Z</time></trkpt><trkpt lat="43.4659517" lon="11.60662"><ele>254.0</ele><time>2026-05-04T15:01:00.706Z</time></trkpt><trkpt lat="43.4660733" lon="11.6066533"><ele>254.0</ele><time>2026-05-04T15:01:01.707Z</time></trkpt><trkpt lat="43.4661883" lon="11.6067483"><ele>253.0</ele><time>2026-05-04T15:01:02.707Z</time></trkpt><trkpt lat="43.466315" lon="11.6068617"><ele>252.0</ele><time>2026-05-04T15:01:03.707Z</time></trkpt><trkpt lat="43.4664517" lon="11.606985"><ele>251.0</ele><time>2026-05-04T15:01:04.705Z</time></trkpt><trkpt lat="43.466605" lon="11.6071117"><ele>251.0</ele><time>2026-05-04T15:01:05.705Z</time></trkpt><trkpt lat="43.4667567" lon="11.6072433"><ele>251.0</ele><time>2026-05-04T15:01:06.707Z</time></trkpt><trkpt lat="43.4669017" lon="11.6073683"><ele>251.0</ele><time>2026-05-04T15:01:07.708Z</time></trkpt><trkpt lat="43.4670417" lon="11.6074833"><ele>250.0</ele><time>2026-05-04T15:01:08.707Z</time></trkpt><trkpt lat="43.467175" lon="11.60759"><ele>249.0</ele><time>2026-05-04T15:01:09.707Z</time></trkpt><trkpt lat="43.467295" lon="11.60769"><ele>248.0</ele><time>2026-05-04T15:01:10.706Z</time></trkpt><trkpt lat="43.4674033" lon="11.607795"><ele>247.0</ele><time>2026-05-04T15:01:11.705Z</time></trkpt><trkpt lat="43.4675017" lon="11.6078933"><ele>246.5</ele><time>2026-05-04T15:01:12.705Z</time></trkpt><trkpt lat="43.4676083" lon="11.608"><ele>246.0</ele><time>2026-05-04T15:01:13.707Z</time></trkpt><trkpt lat="43.4677183" lon="11.6081133"><ele>245.5</ele><time>2026-05-04T15:01:14.706Z</time></trkpt><trkpt lat="43.467825" lon="11.6082317"><ele>245.0</ele><time>2026-05-04T15:01:15.706Z</time></trkpt><trkpt lat="43.46793" lon="11.6083467"><ele>243.25</ele><time>2026-05-04T15:01:16.706Z</time></trkpt><trkpt lat="43.4680383" lon="11.6084567"><ele>241.5</ele><time>2026-05-04T15:01:17.706Z</time></trkpt><trkpt lat="43.4681433" lon="11.6085533"><ele>239.75</ele><time>2026-05-04T15:01:18.706Z</time></trkpt><trkpt lat="43.4682467" lon="11.6086433"><ele>238.0</ele><time>2026-05-04T15:01:19.707Z</time></trkpt><trkpt lat="43.468355" lon="11.60873"><ele>238.0</ele><time>2026-05-04T15:01:20.706Z</time></trkpt><trkpt lat="43.46847" lon="11.6088133"><ele>238.0</ele><time>2026-05-04T15:01:21.706Z</time></trkpt><trkpt lat="43.4686017" lon="11.60891"><ele>238.0</ele><time>2026-05-04T15:01:22.703Z</time></trkpt><trkpt lat="43.468745" lon="11.6090183"><ele>238.0</ele><time>2026-05-04T15:01:23.708Z</time></trkpt><trkpt lat="43.46889" lon="11.609125"><ele>236.66666666666666</ele><time>2026-05-04T15:01:24.705Z</time></trkpt><trkpt lat="43.46903" lon="11.6092267"><ele>235.33333333333331</ele><time>2026-05-04T15:01:25.707Z</time></trkpt><trkpt lat="43.4691667" lon="11.60933"><ele>234.0</ele><time>2026-05-04T15:01:26.704Z</time></trkpt><trkpt lat="43.4693033" lon="11.6094333"><ele>234.0</ele><time>2026-05-04T15:01:27.707Z</time></trkpt><trkpt lat="43.46942" lon="11.60953"><ele>233.99999999999997</ele><time>2026-05-04T15:01:28.706Z</time></trkpt><trkpt lat="43.4695133" lon="11.60961"><ele>233.99999999999997</ele><time>2026-05-04T15:01:29.705Z</time></trkpt><trkpt lat="43.4695933" lon="11.6096767"><ele>234.0</ele><time>2026-05-04T15:01:30.705Z</time></trkpt><trkpt lat="43.4696533" lon="11.6097267"><ele>234.0</ele><time>2026-05-04T15:01:31.706Z</time></trkpt><trkpt lat="43.46972" lon="11.6097883"><ele>234.0</ele><time>2026-05-04T15:01:33.707Z</time></trkpt><trkpt lat="43.4697933" lon="11.60976"><ele>234.0</ele><time>2026-05-04T15:01:37.706Z</time></trkpt><trkpt lat="43.4698317" lon="11.60969"><ele>234.0</ele><time>2026-05-04T15:01:38.707Z</time></trkpt><trkpt lat="43.46987" lon="11.6095883"><ele>234.0</ele><time>2026-05-04T15:01:39.706Z</time></trkpt><trkpt lat="43.469905" lon="11.6094567"><ele>234.0</ele><time>2026-05-04T15:01:40.707Z</time></trkpt><trkpt lat="43.4699417" lon="11.609325"><ele>234.0</ele><time>2026-05-04T15:01:41.705Z</time></trkpt><trkpt lat="43.4699917" lon="11.609115"><ele>234.0</ele><time>2026-05-04T15:01:42.706Z</time></trkpt><trkpt lat="43.47004" lon="11.608905"><ele>234.0</ele><time>2026-05-04T15:01:43.707Z</time></trkpt><trkpt lat="43.4700867" lon="11.608715"><ele>234.0</ele><time>2026-05-04T15:01:44.706Z</time></trkpt><trkpt lat="43.4701383" lon="11.6085217"><ele>234.0</ele><time>2026-05-04T15:01:45.707Z</time></trkpt><trkpt lat="43.4701783" lon="11.60834"><ele>233.99999999999997</ele><time>2026-05-04T15:01:46.706Z</time></trkpt><trkpt lat="43.470205" lon="11.60818"><ele>233.99999999999997</ele><time>2026-05-04T15:01:47.705Z</time></trkpt><trkpt lat="43.4702217" lon="11.6080417"><ele>234.0</ele><time>2026-05-04T15:01:48.707Z</time></trkpt><trkpt lat="43.4702333" lon="11.60794"><ele>234.0</ele><time>2026-05-04T15:01:49.706Z</time></trkpt><trkpt lat="43.4702583" lon="11.6078583"><ele>234.25</ele><time>2026-05-04T15:01:50.706Z</time></trkpt><trkpt lat="43.4703183" lon="11.6077583"><ele>234.5</ele><time>2026-05-04T15:01:52.706Z</time></trkpt><trkpt lat="43.47044" lon="11.60782"><ele>234.75</ele><time>2026-05-04T15:01:54.706Z</time></trkpt><trkpt lat="43.47053" lon="11.6079483"><ele>235.0</ele><time>2026-05-04T15:01:55.707Z</time></trkpt><trkpt lat="43.47063" lon="11.60815"><ele>235.0</ele><time>2026-05-04T15:01:56.706Z</time></trkpt><trkpt lat="43.4707633" lon="11.60831"><ele>235.0</ele><time>2026-05-04T15:01:57.707Z</time></trkpt><trkpt lat="43.4708833" lon="11.6084433"><ele>235.0</ele><time>2026-05-04T15:01:58.706Z</time></trkpt><trkpt lat="43.4709967" lon="11.6085633"><ele>234.5</ele><time>2026-05-04T15:01:59.705Z</time></trkpt><trkpt lat="43.47111" lon="11.608665"><ele>234.0</ele><time>2026-05-04T15:02:00.706Z</time></trkpt><trkpt lat="43.4712217" lon="11.6087533"><ele>233.5</ele><time>2026-05-04T15:02:01.707Z</time></trkpt><trkpt lat="43.4713467" lon="11.6088233"><ele>233.0</ele><time>2026-05-04T15:02:02.705Z</time></trkpt><trkpt lat="43.4714933" lon="11.6088867"><ele>233.0</ele><time>2026-05-04T15:02:03.707Z</time></trkpt><trkpt lat="43.4716567" lon="11.608945"><ele>233.0</ele><time>2026-05-04T15:02:04.706Z</time></trkpt><trkpt lat="43.4718317" lon="11.6089867"><ele>233.0</ele><time>2026-05-04T15:02:05.705Z</time></trkpt><trkpt lat="43.472" lon="11.609015"><ele>233.5</ele><time>2026-05-04T15:02:06.706Z</time></trkpt><trkpt lat="43.4721533" lon="11.60904"><ele>234.0</ele><time>2026-05-04T15:02:07.708Z</time></trkpt><trkpt lat="43.4722917" lon="11.6090683"><ele>234.5</ele><time>2026-05-04T15:02:08.706Z</time></trkpt><trkpt lat="43.4724117" lon="11.609105"><ele>235.0</ele><time>2026-05-04T15:02:09.706Z</time></trkpt><trkpt lat="43.472525" lon="11.6091267"><ele>235.0</ele><time>2026-05-04T15:02:10.707Z</time></trkpt><trkpt lat="43.4726383" lon="11.6091433"><ele>235.0</ele><time>2026-05-04T15:02:11.707Z</time></trkpt><trkpt lat="43.472735" lon="11.6091717"><ele>235.0</ele><time>2026-05-04T15:02:12.706Z</time></trkpt><trkpt lat="43.472825" lon="11.609215"><ele>235.0</ele><time>2026-05-04T15:02:13.707Z</time></trkpt><trkpt lat="43.47291" lon="11.6092733"><ele>235.0</ele><time>2026-05-04T15:02:14.707Z</time></trkpt><trkpt lat="43.4729867" lon="11.6093467"><ele>235.6</ele><time>2026-05-04T15:02:15.705Z</time></trkpt><trkpt lat="43.4730633" lon="11.6094367"><ele>236.2</ele><time>2026-05-04T15:02:16.705Z</time></trkpt><trkpt lat="43.4731417" lon="11.6095333"><ele>236.8</ele><time>2026-05-04T15:02:17.707Z</time></trkpt><trkpt lat="43.4732183" lon="11.6096417"><ele>237.4</ele><time>2026-05-04T15:02:18.705Z</time></trkpt><trkpt lat="43.4733033" lon="11.60976"><ele>238.0</ele><time>2026-05-04T15:02:19.705Z</time></trkpt><trkpt lat="43.4733933" lon="11.6098833"><ele>236.0</ele><time>2026-05-04T15:02:20.706Z</time></trkpt><trkpt lat="43.473485" lon="11.6100117"><ele>234.0</ele><time>2026-05-04T15:02:21.706Z</time></trkpt><trkpt lat="43.4735683" lon="11.6101333"><ele>232.0</ele><time>2026-05-04T15:02:22.707Z</time></trkpt><trkpt lat="43.473645" lon="11.6102483"><ele>230.0</ele><time>2026-05-04T15:02:23.705Z</time></trkpt><trkpt lat="43.4737217" lon="11.6103617"><ele>229.6</ele><time>2026-05-04T15:02:24.705Z</time></trkpt><trkpt lat="43.473795" lon="11.6104667"><ele>229.2</ele><time>2026-05-04T15:02:25.707Z</time></trkpt><trkpt lat="43.4738583" lon="11.6105833"><ele>228.8</ele><time>2026-05-04T15:02:26.707Z</time></trkpt><trkpt lat="43.4739117" lon="11.6107033"><ele>228.4</ele><time>2026-05-04T15:02:27.706Z</time></trkpt><trkpt lat="43.4739567" lon="11.610835"><ele>228.0</ele><time>2026-05-04T15:02:28.705Z</time></trkpt><trkpt lat="43.4739917" lon="11.6109833"><ele>228.0</ele><time>2026-05-04T15:02:29.705Z</time></trkpt><trkpt lat="43.4740217" lon="11.61115"><ele>228.0</ele><time>2026-05-04T15:02:30.707Z</time></trkpt><trkpt lat="43.474035" lon="11.6112967"><ele>228.0</ele><time>2026-05-04T15:02:31.706Z</time></trkpt><trkpt lat="43.4740683" lon="11.611455"><ele>228.0</ele><time>2026-05-04T15:02:32.706Z</time></trkpt><trkpt lat="43.4741083" lon="11.61162"><ele>228.60000000000002</ele><time>2026-05-04T15:02:33.708Z</time></trkpt><trkpt lat="43.4741533" lon="11.6117733"><ele>229.20000000000002</ele><time>2026-05-04T15:02:34.706Z</time></trkpt><trkpt lat="43.474195" lon="11.61191"><ele>229.8</ele><time>2026-05-04T15:02:35.705Z</time></trkpt><trkpt lat="43.4742433" lon="11.6120217"><ele>230.4</ele><time>2026-05-04T15:02:36.707Z</time></trkpt><trkpt lat="43.47429" lon="11.6121"><ele>231.0</ele><time>2026-05-04T15:02:37.706Z</time></trkpt><trkpt lat="43.4743333" lon="11.61218"><ele>230.20000000000002</ele><time>2026-05-04T15:02:38.707Z</time></trkpt><trkpt lat="43.4743917" lon="11.6122767"><ele>229.40000000000003</ele><time>2026-05-04T15:02:39.707Z</time></trkpt><trkpt lat="43.4744683" lon="11.61238"><ele>228.6</ele><time>2026-05-04T15:02:40.707Z</time></trkpt><trkpt lat="43.4745567" lon="11.6124833"><ele>227.8</ele><time>2026-05-04T15:02:41.705Z</time></trkpt><trkpt lat="43.4746567" lon="11.612585"><ele>227.0</ele><time>2026-05-04T15:02:42.705Z</time></trkpt><trkpt lat="43.47476" lon="11.6126833"><ele>227.0</ele><time>2026-05-04T15:02:43.706Z</time></trkpt><trkpt lat="43.4748533" lon="11.6127733"><ele>227.0</ele><time>2026-05-04T15:02:44.706Z</time></trkpt><trkpt lat="43.4749483" lon="11.6128583"><ele>227.0</ele><time>2026-05-04T15:02:45.706Z</time></trkpt><trkpt lat="43.47505" lon="11.6129533"><ele>227.0</ele><time>2026-05-04T15:02:46.706Z</time></trkpt><trkpt lat="43.4751567" lon="11.61306"><ele>227.0</ele><time>2026-05-04T15:02:47.706Z</time></trkpt><trkpt lat="43.47526" lon="11.6131717"><ele>227.0</ele><time>2026-05-04T15:02:48.706Z</time></trkpt><trkpt lat="43.475355" lon="11.6132733"><ele>227.0</ele><time>2026-05-04T15:02:49.706Z</time></trkpt><trkpt lat="43.4754417" lon="11.613365"><ele>227.0</ele><time>2026-05-04T15:02:50.705Z</time></trkpt><trkpt lat="43.4755017" lon="11.6134483"><ele>227.0</ele><time>2026-05-04T15:02:51.708Z</time></trkpt><trkpt lat="43.4755383" lon="11.6135333"><ele>227.0</ele><time>2026-05-04T15:02:52.706Z</time></trkpt><trkpt lat="43.4755517" lon="11.6136317"><ele>227.0</ele><time>2026-05-04T15:02:53.706Z</time></trkpt><trkpt lat="43.4755433" lon="11.6137617"><ele>227.0</ele><time>2026-05-04T15:02:54.707Z</time></trkpt><trkpt lat="43.47553" lon="11.6139233"><ele>227.0</ele><time>2026-05-04T15:02:55.706Z</time></trkpt><trkpt lat="43.4755333" lon="11.6140983"><ele>227.0</ele><time>2026-05-04T15:02:56.707Z</time></trkpt><trkpt lat="43.475555" lon="11.6142767"><ele>229.25</ele><time>2026-05-04T15:02:57.707Z</time></trkpt><trkpt lat="43.47559" lon="11.6144383"><ele>231.5</ele><time>2026-05-04T15:02:58.705Z</time></trkpt><trkpt lat="43.475615" lon="11.6145933"><ele>233.75</ele><time>2026-05-04T15:02:59.707Z</time></trkpt><trkpt lat="43.4756267" lon="11.6147533"><ele>236.0</ele><time>2026-05-04T15:03:00.707Z</time></trkpt><trkpt lat="43.4756117" lon="11.61492"><ele>238.0</ele><time>2026-05-04T15:03:01.707Z</time></trkpt><trkpt lat="43.4755767" lon="11.6150917"><ele>240.0</ele><time>2026-05-04T15:03:02.707Z</time></trkpt><trkpt lat="43.4755267" lon="11.6152767"><ele>242.0</ele><time>2026-05-04T15:03:03.706Z</time></trkpt><trkpt lat="43.4754717" lon="11.61547"><ele>244.0</ele><time>2026-05-04T15:03:04.706Z</time></trkpt><trkpt lat="43.47542" lon="11.6156567"><ele>244.6</ele><time>2026-05-04T15:03:05.706Z</time></trkpt><trkpt lat="43.4753717" lon="11.6158217"><ele>245.2</ele><time>2026-05-04T15:03:06.705Z</time></trkpt><trkpt lat="43.4753233" lon="11.6159717"><ele>245.79999999999998</ele><time>2026-05-04T15:03:07.707Z</time></trkpt><trkpt lat="43.4752833" lon="11.6161183"><ele>246.39999999999998</ele><time>2026-05-04T15:03:08.706Z</time></trkpt><trkpt lat="43.4752517" lon="11.6162133"><ele>247.0</ele><time>2026-05-04T15:03:09.706Z</time></trkpt><trkpt lat="43.4752917" lon="11.616315"><ele>247.2</ele><time>2026-05-04T15:03:12.706Z</time></trkpt><trkpt lat="43.47536" lon="11.616315"><ele>247.39999999999998</ele><time>2026-05-04T15:03:14.706Z</time></trkpt><trkpt lat="43.4754883" lon="11.61629"><ele>247.60000000000002</ele><time>2026-05-04T15:03:16.706Z</time></trkpt><trkpt lat="43.4755783" lon="11.6162767"><ele>247.8</ele><time>2026-05-04T15:03:17.706Z</time></trkpt><trkpt lat="43.4756817" lon="11.6162583"><ele>248.0</ele><time>2026-05-04T15:03:18.706Z</time></trkpt><trkpt lat="43.475785" lon="11.616235"><ele>248.2</ele><time>2026-05-04T15:03:19.706Z</time></trkpt><trkpt lat="43.4758833" lon="11.6162067"><ele>248.4</ele><time>2026-05-04T15:03:20.707Z</time></trkpt><trkpt lat="43.47598" lon="11.6161883"><ele>248.59999999999997</ele><time>2026-05-04T15:03:21.706Z</time></trkpt><trkpt lat="43.4760733" lon="11.6161633"><ele>248.79999999999998</ele><time>2026-05-04T15:03:22.705Z</time></trkpt><trkpt lat="43.47617" lon="11.616145"><ele>249.0</ele><time>2026-05-04T15:03:23.706Z</time></trkpt><trkpt lat="43.47627" lon="11.616125"><ele>249.39999999999998</ele><time>2026-05-04T15:03:24.706Z</time></trkpt><trkpt lat="43.4763583" lon="11.61611"><ele>249.79999999999998</ele><time>2026-05-04T15:03:25.708Z</time></trkpt><trkpt lat="43.4764467" lon="11.616095"><ele>250.20000000000002</ele><time>2026-05-04T15:03:26.707Z</time></trkpt><trkpt lat="43.4765433" lon="11.6160783"><ele>250.60000000000002</ele><time>2026-05-04T15:03:27.708Z</time></trkpt><trkpt lat="43.4766467" lon="11.61607"><ele>251.0</ele><time>2026-05-04T15:03:28.706Z</time></trkpt><trkpt lat="43.4767433" lon="11.6160567"><ele>251.0</ele><time>2026-05-04T15:03:29.706Z</time></trkpt><trkpt lat="43.4768317" lon="11.61604"><ele>251.00000000000003</ele><time>2026-05-04T15:03:30.706Z</time></trkpt><trkpt lat="43.4769217" lon="11.616015"><ele>251.00000000000003</ele><time>2026-05-04T15:03:31.707Z</time></trkpt><trkpt lat="43.477015" lon="11.615995"><ele>251.0</ele><time>2026-05-04T15:03:32.705Z</time></trkpt><trkpt lat="43.4771083" lon="11.6159733"><ele>251.0</ele><time>2026-05-04T15:03:33.707Z</time></trkpt><trkpt lat="43.4772117" lon="11.61595"><ele>251.0</ele><time>2026-05-04T15:03:34.706Z</time></trkpt><trkpt lat="43.47732" lon="11.6159333"><ele>251.00000000000003</ele><time>2026-05-04T15:03:35.705Z</time></trkpt><trkpt lat="43.47742" lon="11.6159117"><ele>251.00000000000003</ele><time>2026-05-04T15:03:36.708Z</time></trkpt><trkpt lat="43.477505" lon="11.6158933"><ele>251.0</ele><time>2026-05-04T15:03:37.706Z</time></trkpt><trkpt lat="43.4776083" lon="11.6158567"><ele>251.0</ele><time>2026-05-04T15:03:38.707Z</time></trkpt><trkpt lat="43.4777117" lon="11.6158017"><ele>251.0</ele><time>2026-05-04T15:03:39.706Z</time></trkpt><trkpt lat="43.47781" lon="11.61572"><ele>251.0</ele><time>2026-05-04T15:03:40.706Z</time></trkpt><trkpt lat="43.4778883" lon="11.61562"><ele>251.0</ele><time>2026-05-04T15:03:41.705Z</time></trkpt><trkpt lat="43.477955" lon="11.6154767"><ele>251.0</ele><time>2026-05-04T15:03:42.706Z</time></trkpt><trkpt lat="43.4779933" lon="11.6153217"><ele>250.4</ele><time>2026-05-04T15:03:43.708Z</time></trkpt><trkpt lat="43.4780283" lon="11.6151683"><ele>249.8</ele><time>2026-05-04T15:03:44.706Z</time></trkpt><trkpt lat="43.4780717" lon="11.6150333"><ele>249.20000000000002</ele><time>2026-05-04T15:03:45.707Z</time></trkpt><trkpt lat="43.478125" lon="11.6149233"><ele>248.60000000000002</ele><time>2026-05-04T15:03:46.706Z</time></trkpt><trkpt lat="43.4781817" lon="11.6148433"><ele>248.0</ele><time>2026-05-04T15:03:47.706Z</time></trkpt><trkpt lat="43.47825" lon="11.6147933"><ele>248.00000000000003</ele><time>2026-05-04T15:03:48.706Z</time></trkpt><trkpt lat="43.4783317" lon="11.6147583"><ele>248.0</ele><time>2026-05-04T15:03:49.706Z</time></trkpt><trkpt lat="43.4784167" lon="11.6147683"><ele>248.0</ele><time>2026-05-04T15:03:50.707Z</time></trkpt><trkpt lat="43.4784883" lon="11.6148233"><ele>248.0</ele><time>2026-05-04T15:03:51.708Z</time></trkpt><trkpt lat="43.4785433" lon="11.61491"><ele>248.00000000000003</ele><time>2026-05-04T15:03:52.707Z</time></trkpt><trkpt lat="43.478585" lon="11.61501"><ele>248.0</ele><time>2026-05-04T15:03:53.705Z</time></trkpt><trkpt lat="43.4786067" lon="11.61514"><ele>248.0</ele><time>2026-05-04T15:03:54.708Z</time></trkpt><trkpt lat="43.4786433" lon="11.6152617"><ele>248.0</ele><time>2026-05-04T15:03:55.707Z</time></trkpt><trkpt lat="43.4786933" lon="11.6153633"><ele>248.0</ele><time>2026-05-04T15:03:56.706Z</time></trkpt><trkpt lat="43.4787533" lon="11.6154733"><ele>248.0</ele><time>2026-05-04T15:03:57.708Z</time></trkpt><trkpt lat="43.4788267" lon="11.6155683"><ele>248.0</ele><time>2026-05-04T15:03:58.706Z</time></trkpt><trkpt lat="43.4789033" lon="11.6156583"><ele>246.50000000000003</ele><time>2026-05-04T15:03:59.706Z</time></trkpt><trkpt lat="43.4789833" lon="11.6157433"><ele>245.0</ele><time>2026-05-04T15:04:00.705Z</time></trkpt><trkpt lat="43.4790583" lon="11.6158117"><ele>243.5</ele><time>2026-05-04T15:04:01.706Z</time></trkpt><trkpt lat="43.47912" lon="11.6158783"><ele>242.0</ele><time>2026-05-04T15:04:02.707Z</time></trkpt><trkpt lat="43.4791683" lon="11.615955"><ele>240.50000000000003</ele><time>2026-05-04T15:04:03.708Z</time></trkpt><trkpt lat="43.4792233" lon="11.6160083"><ele>239.0</ele><time>2026-05-04T15:04:04.706Z</time></trkpt><trkpt lat="43.479275" lon="11.6160783"><ele>239.6</ele><time>2026-05-04T15:04:05.707Z</time></trkpt><trkpt lat="43.4792933" lon="11.6162183"><ele>240.2</ele><time>2026-05-04T15:04:07.707Z</time></trkpt><trkpt lat="43.479275" lon="11.6163517"><ele>240.79999999999998</ele><time>2026-05-04T15:04:08.702Z</time></trkpt><trkpt lat="43.479265" lon="11.6165067"><ele>241.39999999999998</ele><time>2026-05-04T15:04:09.707Z</time></trkpt><trkpt lat="43.47923" lon="11.61664"><ele>242.0</ele><time>2026-05-04T15:04:10.706Z</time></trkpt><trkpt lat="43.4792183" lon="11.61681"><ele>242.00000000000003</ele><time>2026-05-04T15:04:11.699Z</time></trkpt><trkpt lat="43.4792217" lon="11.61692"><ele>242.0</ele><time>2026-05-04T15:04:12.702Z</time></trkpt><trkpt lat="43.4791967" lon="11.61702"><ele>242.0</ele><time>2026-05-04T15:04:13.708Z</time></trkpt><trkpt lat="43.47915" lon="11.6171183"><ele>242.0</ele><time>2026-05-04T15:04:14.706Z</time></trkpt><trkpt lat="43.479105" lon="11.6172033"><ele>242.00000000000003</ele><time>2026-05-04T15:04:15.708Z</time></trkpt><trkpt lat="43.4790583" lon="11.6172833"><ele>242.0</ele><time>2026-05-04T15:04:16.707Z</time></trkpt><trkpt lat="43.4790233" lon="11.61737"><ele>240.39999999999998</ele><time>2026-05-04T15:04:17.707Z</time></trkpt><trkpt lat="43.4789717" lon="11.617435"><ele>238.79999999999998</ele><time>2026-05-04T15:04:18.707Z</time></trkpt><trkpt lat="43.478915" lon="11.617575"><ele>237.2</ele><time>2026-05-04T15:04:20.707Z</time></trkpt><trkpt lat="43.4788383" lon="11.6176167"><ele>235.6</ele><time>2026-05-04T15:04:21.701Z</time></trkpt><trkpt lat="43.47884" lon="11.6177933"><ele>234.0</ele><time>2026-05-04T15:04:23.707Z</time></trkpt><trkpt lat="43.4788817" lon="11.6179633"><ele>233.79999999999998</ele><time>2026-05-04T15:04:25.707Z</time></trkpt><trkpt lat="43.478925" lon="11.6180367"><ele>233.59999999999997</ele><time>2026-05-04T15:04:26.708Z</time></trkpt><trkpt lat="43.479025" lon="11.6181333"><ele>233.4</ele><time>2026-05-04T15:04:28.706Z</time></trkpt><trkpt lat="43.4790933" lon="11.618185"><ele>233.2</ele><time>2026-05-04T15:04:30.706Z</time></trkpt><trkpt lat="43.4791617" lon="11.618235"><ele>233.0</ele><time>2026-05-04T15:04:32.706Z</time></trkpt><trkpt lat="43.47926" lon="11.6182983"><ele>233.0</ele><time>2026-05-04T15:05:13.707Z</time></trkpt><trkpt lat="43.479305" lon="11.618365"><ele>233.0</ele><time>2026-05-04T15:05:47.706Z</time></trkpt></trkseg></trk></gpx>